<?xml version="1.0" encoding="UTF-8"?>
<gpx creator="Garmin Connect" version="1.1"
  xsi:schemaLocation="http://www.topografix.com/GPX/1/1 http://www.topografix.com/GPX/11.xsd"
  xmlns:ns3="http://www.garmin.com/xmlschemas/TrackPointExtension/v1"
  xmlns="http://www.topografix.com/GPX/1/1"
  xmlns:xsi="http://www.w3.org/2001/XMLSchema-instance" xmlns:ns2="http://www.garmin.com/xmlschemas/GpxExtensions/v3">
  <metadata>
    <name> ECLA G2  du 15-08-2024</name>
    <link href="connect.garmin.com">
      <text>Garmin Connect</text>
    </link>
    <time>2024-08-13T06:52:33.000Z</time>
  </metadata>
  <trk>
    <name> ECLA G2  du 15-08-2024</name>
    <trkseg>
      <trkpt lat="45.82563950680196" lon="4.608869086951017">
        <ele>227.59</ele>
        <time>2024-08-13T06:52:33.000Z</time>
      </trkpt>
      <trkpt lat="45.826334953308105" lon="4.610223770141602">
        <ele>229.54</ele>
        <time>2024-08-13T06:52:33.019Z</time>
      </trkpt>
      <trkpt lat="45.82649596966803" lon="4.610406160354614">
        <ele>229.69</ele>
        <time>2024-08-13T06:52:33.041Z</time>
      </trkpt>
      <trkpt lat="45.826624631881714" lon="4.610545635223389">
        <ele>229.87</ele>
        <time>2024-08-13T06:52:33.066Z</time>
      </trkpt>
      <trkpt lat="45.82701086997986" lon="4.610867500305176">
        <ele>230.06</ele>
        <time>2024-08-13T06:52:33.098Z</time>
      </trkpt>
      <trkpt lat="45.827397108078" lon="4.611146450042725">
        <ele>230.27</ele>
        <time>2024-08-13T06:52:33.137Z</time>
      </trkpt>
      <trkpt lat="45.82822322845459" lon="4.609043598175049">
        <ele>230.75</ele>
        <time>2024-08-13T06:52:33.203Z</time>
      </trkpt>
      <trkpt lat="45.82863092422485" lon="4.609247446060181">
        <ele>231.26</ele>
        <time>2024-08-13T06:52:33.276Z</time>
      </trkpt>
      <trkpt lat="45.82914590835571" lon="4.609537124633789">
        <ele>231.51</ele>
        <time>2024-08-13T06:52:33.358Z</time>
      </trkpt>
      <trkpt lat="45.83048701286316" lon="4.610953330993652">
        <ele>231.93</ele>
        <time>2024-08-13T06:52:33.466Z</time>
      </trkpt>
      <trkpt lat="45.83048709668219" lon="4.610953330993652">
        <ele>232.11</ele>
        <time>2024-08-13T06:52:33.574Z</time>
      </trkpt>
      <trkpt lat="45.83177447319031" lon="4.612305164337158">
        <ele>231.78</ele>
        <time>2024-08-13T06:52:33.708Z</time>
      </trkpt>
      <trkpt lat="45.83224654197693" lon="4.612820148468018">
        <ele>231.66</ele>
        <time>2024-08-13T06:52:33.851Z</time>
      </trkpt>
      <trkpt lat="45.83224662579596" lon="4.612820148468018">
        <ele>231.54</ele>
        <time>2024-08-13T06:52:33.994Z</time>
      </trkpt>
      <trkpt lat="45.832353914156556" lon="4.612938165664673">
        <ele>231.39</ele>
        <time>2024-08-13T06:52:34.139Z</time>
      </trkpt>
      <trkpt lat="45.83267577923834" lon="4.613292217254639">
        <ele>231.47</ele>
        <time>2024-08-13T06:52:34.291Z</time>
      </trkpt>
      <trkpt lat="45.83282598294318" lon="4.613453149795532">
        <ele>231.46</ele>
        <time>2024-08-13T06:52:34.446Z</time>
      </trkpt>
      <trkpt lat="45.83314776420593" lon="4.6137964725494385">
        <ele>231.3</ele>
        <time>2024-08-13T06:52:34.607Z</time>
      </trkpt>
      <trkpt lat="45.833147848024964" lon="4.6137964725494385">
        <ele>231.14</ele>
        <time>2024-08-13T06:52:34.768Z</time>
      </trkpt>
      <trkpt lat="45.83371639251709" lon="4.614408016204834">
        <ele>231.14</ele>
        <time>2024-08-13T06:52:34.941Z</time>
      </trkpt>
      <trkpt lat="45.834113359451294" lon="4.614901542663574">
        <ele>230.53</ele>
        <time>2024-08-13T06:52:35.122Z</time>
      </trkpt>
      <trkpt lat="45.83449959754944" lon="4.615416526794434">
        <ele>230.13</ele>
        <time>2024-08-13T06:52:35.312Z</time>
      </trkpt>
      <trkpt lat="45.83449968136847" lon="4.615416526794434">
        <ele>229.8</ele>
        <time>2024-08-13T06:52:35.502Z</time>
      </trkpt>
      <trkpt lat="45.834853732958436" lon="4.615931510925293">
        <ele>229.39</ele>
        <time>2024-08-13T06:52:35.700Z</time>
      </trkpt>
      <trkpt lat="45.83523988723755" lon="4.616435766220093">
        <ele>229.5</ele>
        <time>2024-08-13T06:52:35.906Z</time>
      </trkpt>
      <trkpt lat="45.83519697189331" lon="4.616682529449463">
        <ele>229.26</ele>
        <time>2024-08-13T06:52:36.115Z</time>
      </trkpt>
      <trkpt lat="45.8352077845484" lon="4.617379903793335">
        <ele>228.69</ele>
        <time>2024-08-13T06:52:36.332Z</time>
      </trkpt>
      <trkpt lat="45.83525061607361" lon="4.617830514907837">
        <ele>228.21</ele>
        <time>2024-08-13T06:52:36.554Z</time>
      </trkpt>
      <trkpt lat="45.83523988723755" lon="4.617937803268433">
        <ele>227.89</ele>
        <time>2024-08-13T06:52:36.777Z</time>
      </trkpt>
      <trkpt lat="45.83518624305725" lon="4.618109464645386">
        <ele>227.6</ele>
        <time>2024-08-13T06:52:37.002Z</time>
      </trkpt>
      <trkpt lat="45.83504676818848" lon="4.618517160415649">
        <ele>227.4</ele>
        <time>2024-08-13T06:52:37.232Z</time>
      </trkpt>
      <trkpt lat="45.8350145816803" lon="4.618624448776245">
        <ele>227.31</ele>
        <time>2024-08-13T06:52:37.463Z</time>
      </trkpt>
      <trkpt lat="45.8350145816803" lon="4.618645906448364">
        <ele>227.29</ele>
        <time>2024-08-13T06:52:37.695Z</time>
      </trkpt>
      <trkpt lat="45.83492875099182" lon="4.6188390254974365">
        <ele>227.35</ele>
        <time>2024-08-13T06:52:37.929Z</time>
      </trkpt>
      <trkpt lat="45.83477854728699" lon="4.61925745010376">
        <ele>227.5</ele>
        <time>2024-08-13T06:52:38.169Z</time>
      </trkpt>
      <trkpt lat="45.83474636077881" lon="4.619386196136475">
        <ele>227.65</ele>
        <time>2024-08-13T06:52:38.410Z</time>
      </trkpt>
      <trkpt lat="45.83474636077881" lon="4.619697332382202">
        <ele>227.8</ele>
        <time>2024-08-13T06:52:38.655Z</time>
      </trkpt>
      <trkpt lat="45.83477854728699" lon="4.619890451431274">
        <ele>228.03</ele>
        <time>2024-08-13T06:52:38.902Z</time>
      </trkpt>
      <trkpt lat="45.834864377975464" lon="4.620126485824585">
        <ele>228.29</ele>
        <time>2024-08-13T06:52:39.152Z</time>
      </trkpt>
      <trkpt lat="45.8349609375" lon="4.620276689529419">
        <ele>228.53</ele>
        <time>2024-08-13T06:52:39.404Z</time>
      </trkpt>
      <trkpt lat="45.83546527661383" lon="4.620780944824219">
        <ele>228.7</ele>
        <time>2024-08-13T06:52:39.666Z</time>
      </trkpt>
      <trkpt lat="45.83573341369629" lon="4.62100625038147">
        <ele>228.86</ele>
        <time>2024-08-13T06:52:39.933Z</time>
      </trkpt>
      <trkpt lat="45.836387956514955" lon="4.621424674987793">
        <ele>229.09</ele>
        <time>2024-08-13T06:52:40.211Z</time>
      </trkpt>
      <trkpt lat="45.837353467941284" lon="4.622025489807129">
        <ele>228.86</ele>
        <time>2024-08-13T06:52:40.506Z</time>
      </trkpt>
      <trkpt lat="45.83747148513794" lon="4.622079133987427">
        <ele>228.88</ele>
        <time>2024-08-13T06:52:40.803Z</time>
      </trkpt>
      <trkpt lat="45.837643230333924" lon="4.622132778167725">
        <ele>228.87</ele>
        <time>2024-08-13T06:52:41.103Z</time>
      </trkpt>
      <trkpt lat="45.83769679069519" lon="4.622175693511963">
        <ele>228.81</ele>
        <time>2024-08-13T06:52:41.404Z</time>
      </trkpt>
      <trkpt lat="45.83782562054694" lon="4.622175693511963">
        <ele>228.63</ele>
        <time>2024-08-13T06:52:41.707Z</time>
      </trkpt>
      <trkpt lat="45.8378791809082" lon="4.622132778167725">
        <ele>228.31</ele>
        <time>2024-08-13T06:52:42.011Z</time>
      </trkpt>
      <trkpt lat="45.83794363774359" lon="4.622046947479248">
        <ele>227.81</ele>
        <time>2024-08-13T06:52:42.316Z</time>
      </trkpt>
      <trkpt lat="45.83797574043274" lon="4.621918201446533">
        <ele>227.28</ele>
        <time>2024-08-13T06:52:42.623Z</time>
      </trkpt>
      <trkpt lat="45.83797582425177" lon="4.621843099594116">
        <ele>226.9</ele>
        <time>2024-08-13T06:52:42.931Z</time>
      </trkpt>
      <trkpt lat="45.83794355392456" lon="4.621725082397461">
        <ele>226.59</ele>
        <time>2024-08-13T06:52:43.240Z</time>
      </trkpt>
      <trkpt lat="45.83819031715393" lon="4.621671438217163">
        <ele>226.29</ele>
        <time>2024-08-13T06:52:43.553Z</time>
      </trkpt>
      <trkpt lat="45.83866238594055" lon="4.621692895889282">
        <ele>226.02</ele>
        <time>2024-08-13T06:52:43.874Z</time>
      </trkpt>
      <trkpt lat="45.83866246975958" lon="4.621692895889282">
        <ele>225.7</ele>
        <time>2024-08-13T06:52:44.195Z</time>
      </trkpt>
      <trkpt lat="45.83920955657959" lon="4.6217358112335205">
        <ele>225.38</ele>
        <time>2024-08-13T06:52:44.525Z</time>
      </trkpt>
      <trkpt lat="45.83968162536621" lon="4.62199330329895">
        <ele>225.34</ele>
        <time>2024-08-13T06:52:44.863Z</time>
      </trkpt>
      <trkpt lat="45.840067863464355" lon="4.622379541397095">
        <ele>224.83</ele>
        <time>2024-08-13T06:52:45.208Z</time>
      </trkpt>
      <trkpt lat="45.840346813201904" lon="4.622937440872192">
        <ele>224.03</ele>
        <time>2024-08-13T06:52:45.561Z</time>
      </trkpt>
      <trkpt lat="45.84044337272644" lon="4.62323784828186">
        <ele>223.74</ele>
        <time>2024-08-13T06:52:45.918Z</time>
      </trkpt>
      <trkpt lat="45.8404541015625" lon="4.623398780822754">
        <ele>223.63</ele>
        <time>2024-08-13T06:52:46.276Z</time>
      </trkpt>
      <trkpt lat="45.84045418538153" lon="4.623398780822754">
        <ele>223.49</ele>
        <time>2024-08-13T06:52:46.634Z</time>
      </trkpt>
      <trkpt lat="45.84046483039856" lon="4.623527526855469">
        <ele>223.47</ele>
        <time>2024-08-13T06:52:46.994Z</time>
      </trkpt>
      <trkpt lat="45.84044337272644" lon="4.624385833740234">
        <ele>223.48</ele>
        <time>2024-08-13T06:52:47.363Z</time>
      </trkpt>
      <trkpt lat="45.84044345654547" lon="4.624385833740234">
        <ele>223.43</ele>
        <time>2024-08-13T06:52:47.732Z</time>
      </trkpt>
      <trkpt lat="45.84052920341492" lon="4.624868631362915">
        <ele>223.42</ele>
        <time>2024-08-13T06:52:48.107Z</time>
      </trkpt>
      <trkpt lat="45.84097981452942" lon="4.626199007034302">
        <ele>223.49</ele>
        <time>2024-08-13T06:52:48.499Z</time>
      </trkpt>
      <trkpt lat="45.84100127220154" lon="4.626767635345459">
        <ele>223.46</ele>
        <time>2024-08-13T06:52:48.897Z</time>
      </trkpt>
      <trkpt lat="45.84070086479187" lon="4.628409147262573">
        <ele>223.33</ele>
        <time>2024-08-13T06:52:49.314Z</time>
      </trkpt>
      <trkpt lat="45.84066867828369" lon="4.628623723983765">
        <ele>223.14</ele>
        <time>2024-08-13T06:52:49.733Z</time>
      </trkpt>
      <trkpt lat="45.840615117922425" lon="4.629793167114258">
        <ele>222.62</ele>
        <time>2024-08-13T06:52:50.165Z</time>
      </trkpt>
      <trkpt lat="45.840582847595215" lon="4.630511999130249">
        <ele>222.34</ele>
        <time>2024-08-13T06:52:50.606Z</time>
      </trkpt>
      <trkpt lat="45.840593576431274" lon="4.631016254425049">
        <ele>222.27</ele>
        <time>2024-08-13T06:52:51.052Z</time>
      </trkpt>
      <trkpt lat="45.84067940711975" lon="4.631295204162598">
        <ele>222.46</ele>
        <time>2024-08-13T06:52:51.502Z</time>
      </trkpt>
      <trkpt lat="45.84077596664429" lon="4.631541967391968">
        <ele>222.71</ele>
        <time>2024-08-13T06:52:51.955Z</time>
      </trkpt>
      <trkpt lat="45.84174156188965" lon="4.633280038833618">
        <ele>223.11</ele>
        <time>2024-08-13T06:52:52.433Z</time>
      </trkpt>
      <trkpt lat="45.84193468093872" lon="4.633591175079346">
        <ele>223.07</ele>
        <time>2024-08-13T06:52:52.915Z</time>
      </trkpt>
      <trkpt lat="45.84215998649597" lon="4.633848667144775">
        <ele>222.99</ele>
        <time>2024-08-13T06:52:53.402Z</time>
      </trkpt>
      <trkpt lat="45.84237456321716" lon="4.634063243865967">
        <ele>222.98</ele>
        <time>2024-08-13T06:52:53.893Z</time>
      </trkpt>
      <trkpt lat="45.842524766922" lon="4.6341705322265625">
        <ele>222.95</ele>
        <time>2024-08-13T06:52:54.387Z</time>
      </trkpt>
      <trkpt lat="45.84269642829895" lon="4.6342456340789795">
        <ele>222.82</ele>
        <time>2024-08-13T06:52:54.884Z</time>
      </trkpt>
      <trkpt lat="45.84296464920044" lon="4.634277820587158">
        <ele>222.65</ele>
        <time>2024-08-13T06:52:55.385Z</time>
      </trkpt>
      <trkpt lat="45.84328651428223" lon="4.634191989898682">
        <ele>222.62</ele>
        <time>2024-08-13T06:52:55.891Z</time>
      </trkpt>
      <trkpt lat="45.84351181983948" lon="4.634063243865967">
        <ele>222.57</ele>
        <time>2024-08-13T06:52:56.401Z</time>
      </trkpt>
      <trkpt lat="45.843801498413086" lon="4.633837938308716">
        <ele>222.5</ele>
        <time>2024-08-13T06:52:56.916Z</time>
      </trkpt>
      <trkpt lat="45.84396243095398" lon="4.633784294128418">
        <ele>222.52</ele>
        <time>2024-08-13T06:52:57.434Z</time>
      </trkpt>
      <trkpt lat="45.844295024871826" lon="4.633666276931763">
        <ele>222.51</ele>
        <time>2024-08-13T06:52:57.957Z</time>
      </trkpt>
      <trkpt lat="45.84487438201904" lon="4.633601903915405">
        <ele>222.74</ele>
        <time>2024-08-13T06:52:58.490Z</time>
      </trkpt>
      <trkpt lat="45.84512114524841" lon="4.633634090423584">
        <ele>221.69</ele>
        <time>2024-08-13T06:52:59.027Z</time>
      </trkpt>
      <trkpt lat="45.84524989128113" lon="4.633698463439941">
        <ele>220.55</ele>
        <time>2024-08-13T06:52:59.566Z</time>
      </trkpt>
      <trkpt lat="45.845561027526855" lon="4.633923768997192">
        <ele>219.27</ele>
        <time>2024-08-13T06:53:00.110Z</time>
      </trkpt>
      <trkpt lat="45.84627122618258" lon="4.634484434500337">
        <ele>218.47</ele>
        <time>2024-08-13T06:53:00.667Z</time>
      </trkpt>
      <trkpt lat="45.84627131000161" lon="4.634484518319368">
        <ele>218.47</ele>
        <time>2024-08-13T06:53:01.224Z</time>
      </trkpt>
      <trkpt lat="45.84637641906738" lon="4.634567499160767">
        <ele>217.22</ele>
        <time>2024-08-13T06:53:01.783Z</time>
      </trkpt>
      <trkpt lat="45.846548080444336" lon="4.63472843170166">
        <ele>217.63</ele>
        <time>2024-08-13T06:53:02.346Z</time>
      </trkpt>
      <trkpt lat="45.84668755531311" lon="4.634921550750732">
        <ele>218.22</ele>
        <time>2024-08-13T06:53:02.912Z</time>
      </trkpt>
      <trkpt lat="45.84678411483765" lon="4.635114669799805">
        <ele>218.89</ele>
        <time>2024-08-13T06:53:03.480Z</time>
      </trkpt>
      <trkpt lat="45.84685921669006" lon="4.635350704193115">
        <ele>219.61</ele>
        <time>2024-08-13T06:53:04.051Z</time>
      </trkpt>
      <trkpt lat="45.84691286087036" lon="4.635672569274902">
        <ele>220.32</ele>
        <time>2024-08-13T06:53:04.626Z</time>
      </trkpt>
      <trkpt lat="45.84694504737854" lon="4.636112451553345">
        <ele>220.71</ele>
        <time>2024-08-13T06:53:05.206Z</time>
      </trkpt>
      <trkpt lat="45.84699869155884" lon="4.636348485946655">
        <ele>221.04</ele>
        <time>2024-08-13T06:53:05.789Z</time>
      </trkpt>
      <trkpt lat="45.847063064575195" lon="4.636509418487549">
        <ele>221.32</ele>
        <time>2024-08-13T06:53:06.374Z</time>
      </trkpt>
      <trkpt lat="45.84714889526367" lon="4.636627435684204">
        <ele>221.69</ele>
        <time>2024-08-13T06:53:06.961Z</time>
      </trkpt>
      <trkpt lat="45.848071575164795" lon="4.637281894683838">
        <ele>223.13</ele>
        <time>2024-08-13T06:53:07.564Z</time>
      </trkpt>
      <trkpt lat="45.848318338394165" lon="4.637550115585327">
        <ele>223.7</ele>
        <time>2024-08-13T06:53:08.172Z</time>
      </trkpt>
      <trkpt lat="45.84872603416443" lon="4.63823676109314">
        <ele>224.03</ele>
        <time>2024-08-13T06:53:08.790Z</time>
      </trkpt>
      <trkpt lat="45.84889769554138" lon="4.6386659145355225">
        <ele>224.27</ele>
        <time>2024-08-13T06:53:09.414Z</time>
      </trkpt>
      <trkpt lat="45.84892988204956" lon="4.638901948928833">
        <ele>224.26</ele>
        <time>2024-08-13T06:53:10.040Z</time>
      </trkpt>
      <trkpt lat="45.84892988204956" lon="4.639148712158203">
        <ele>224.18</ele>
        <time>2024-08-13T06:53:10.669Z</time>
      </trkpt>
      <trkpt lat="45.84868311882019" lon="4.640125036239624">
        <ele>223.74</ele>
        <time>2024-08-13T06:53:11.310Z</time>
      </trkpt>
      <trkpt lat="45.84864020347595" lon="4.640564918518066">
        <ele>223.33</ele>
        <time>2024-08-13T06:53:11.956Z</time>
      </trkpt>
      <trkpt lat="45.84873676300049" lon="4.641841650009155">
        <ele>222.82</ele>
        <time>2024-08-13T06:53:12.616Z</time>
      </trkpt>
      <trkpt lat="45.848833322525024" lon="4.6422600746154785">
        <ele>222.31</ele>
        <time>2024-08-13T06:53:13.281Z</time>
      </trkpt>
      <trkpt lat="45.849080085754395" lon="4.642646312713623">
        <ele>221.89</ele>
        <time>2024-08-13T06:53:13.952Z</time>
      </trkpt>
      <trkpt lat="45.850099325180054" lon="4.643601179122925">
        <ele>221.54</ele>
        <time>2024-08-13T06:53:14.642Z</time>
      </trkpt>
      <trkpt lat="45.85038900375366" lon="4.643998146057129">
        <ele>221.2</ele>
        <time>2024-08-13T06:53:15.339Z</time>
      </trkpt>
      <trkpt lat="45.85117220878601" lon="4.645510911941528">
        <ele>220.3</ele>
        <time>2024-08-13T06:53:16.057Z</time>
      </trkpt>
      <trkpt lat="45.85117229260504" lon="4.645510911941528">
        <ele>219.65</ele>
        <time>2024-08-13T06:53:16.775Z</time>
      </trkpt>
      <trkpt lat="45.851311683654785" lon="4.646422863006592">
        <ele>218.99</ele>
        <time>2024-08-13T06:53:17.503Z</time>
      </trkpt>
      <trkpt lat="45.85152626037598" lon="4.647291898727417">
        <ele>217.97</ele>
        <time>2024-08-13T06:53:18.242Z</time>
      </trkpt>
      <trkpt lat="45.85168719291687" lon="4.647742509841919">
        <ele>217.29</ele>
        <time>2024-08-13T06:53:18.986Z</time>
      </trkpt>
      <trkpt lat="45.852288007736206" lon="4.648847579956055">
        <ele>216.18</ele>
        <time>2024-08-13T06:53:19.746Z</time>
      </trkpt>
      <trkpt lat="45.852792263031006" lon="4.649630784988403">
        <ele>215.43</ele>
        <time>2024-08-13T06:53:20.518Z</time>
      </trkpt>
      <trkpt lat="45.85312485694885" lon="4.650038480758667">
        <ele>214.97</ele>
        <time>2024-08-13T06:53:21.297Z</time>
      </trkpt>
      <trkpt lat="45.855292081832886" lon="4.652044773101807">
        <ele>214.19</ele>
        <time>2024-08-13T06:53:22.117Z</time>
      </trkpt>
      <trkpt lat="45.85544228553772" lon="4.652152061462402">
        <ele>213.6</ele>
        <time>2024-08-13T06:53:22.940Z</time>
      </trkpt>
      <trkpt lat="45.8563756942749" lon="4.652634859085083">
        <ele>213.22</ele>
        <time>2024-08-13T06:53:23.779Z</time>
      </trkpt>
      <trkpt lat="45.85665464401245" lon="4.652860164642334">
        <ele>212.88</ele>
        <time>2024-08-13T06:53:24.623Z</time>
      </trkpt>
      <trkpt lat="45.85696578025818" lon="4.65320348739624">
        <ele>212.41</ele>
        <time>2024-08-13T06:53:25.473Z</time>
      </trkpt>
      <trkpt lat="45.85710525512695" lon="4.653418064117432">
        <ele>211.93</ele>
        <time>2024-08-13T06:53:26.326Z</time>
      </trkpt>
      <trkpt lat="45.85721254348755" lon="4.6536219120025635">
        <ele>211.5</ele>
        <time>2024-08-13T06:53:27.182Z</time>
      </trkpt>
      <trkpt lat="45.85740566253662" lon="4.654169082641602">
        <ele>211.05</ele>
        <time>2024-08-13T06:53:28.045Z</time>
      </trkpt>
      <trkpt lat="45.85759878158569" lon="4.654791355133057">
        <ele>210.45</ele>
        <time>2024-08-13T06:53:28.916Z</time>
      </trkpt>
      <trkpt lat="45.85772752761841" lon="4.655102491378784">
        <ele>210.05</ele>
        <time>2024-08-13T06:53:29.791Z</time>
      </trkpt>
      <trkpt lat="45.85800647735596" lon="4.655671119689941">
        <ele>209.92</ele>
        <time>2024-08-13T06:53:30.674Z</time>
      </trkpt>
      <trkpt lat="45.85803874768317" lon="4.655746221542358">
        <ele>209.57</ele>
        <time>2024-08-13T06:53:31.558Z</time>
      </trkpt>
      <trkpt lat="45.858564376831055" lon="4.656722545623779">
        <ele>208.69</ele>
        <time>2024-08-13T06:53:32.455Z</time>
      </trkpt>
      <trkpt lat="45.85863947868347" lon="4.656904935836792">
        <ele>208.36</ele>
        <time>2024-08-13T06:53:33.355Z</time>
      </trkpt>
      <trkpt lat="45.85872530937195" lon="4.6571946144104">
        <ele>208.07</ele>
        <time>2024-08-13T06:53:34.258Z</time>
      </trkpt>
      <trkpt lat="45.85874676704407" lon="4.657409191131592">
        <ele>207.93</ele>
        <time>2024-08-13T06:53:35.164Z</time>
      </trkpt>
      <trkpt lat="45.85876822471619" lon="4.657645225524902">
        <ele>207.97</ele>
        <time>2024-08-13T06:53:36.072Z</time>
      </trkpt>
      <trkpt lat="45.85875757969916" lon="4.657881259918213">
        <ele>208.29</ele>
        <time>2024-08-13T06:53:36.983Z</time>
      </trkpt>
      <trkpt lat="45.85872530937195" lon="4.658128023147583">
        <ele>208.76</ele>
        <time>2024-08-13T06:53:37.897Z</time>
      </trkpt>
      <trkpt lat="45.85867166519165" lon="4.658321142196655">
        <ele>209.56</ele>
        <time>2024-08-13T06:53:38.813Z</time>
      </trkpt>
      <trkpt lat="45.858585834503174" lon="4.658535718917847">
        <ele>210.47</ele>
        <time>2024-08-13T06:53:39.732Z</time>
      </trkpt>
      <trkpt lat="45.8585000038147" lon="4.65869665145874">
        <ele>211.15</ele>
        <time>2024-08-13T06:53:40.653Z</time>
      </trkpt>
      <trkpt lat="45.85850008763373" lon="4.65869665145874">
        <ele>211.66</ele>
        <time>2024-08-13T06:53:41.574Z</time>
      </trkpt>
      <trkpt lat="45.85836052894592" lon="4.658900499343872">
        <ele>212.24</ele>
        <time>2024-08-13T06:53:42.498Z</time>
      </trkpt>
      <trkpt lat="45.85764169692993" lon="4.659619331359863">
        <ele>212.74</ele>
        <time>2024-08-13T06:53:43.436Z</time>
      </trkpt>
      <trkpt lat="45.85748076438904" lon="4.659823179244995">
        <ele>212.8</ele>
        <time>2024-08-13T06:53:44.378Z</time>
      </trkpt>
      <trkpt lat="45.85737347602844" lon="4.660048484802246">
        <ele>212.77</ele>
        <time>2024-08-13T06:53:45.323Z</time>
      </trkpt>
      <trkpt lat="45.857309103012085" lon="4.660284519195557">
        <ele>213.0</ele>
        <time>2024-08-13T06:53:46.271Z</time>
      </trkpt>
      <trkpt lat="45.85686922073364" lon="4.662505388259888">
        <ele>213.79</ele>
        <time>2024-08-13T06:53:47.245Z</time>
      </trkpt>
      <trkpt lat="45.85672974586487" lon="4.663020372390747">
        <ele>213.23</ele>
        <time>2024-08-13T06:53:48.225Z</time>
      </trkpt>
      <trkpt lat="45.85641860961914" lon="4.663964509963989">
        <ele>212.81</ele>
        <time>2024-08-13T06:53:49.216Z</time>
      </trkpt>
      <trkpt lat="45.856343507766724" lon="4.664350748062134">
        <ele>212.06</ele>
        <time>2024-08-13T06:53:50.212Z</time>
      </trkpt>
      <trkpt lat="45.85616111755371" lon="4.666324853897095">
        <ele>210.84</ele>
        <time>2024-08-13T06:53:51.230Z</time>
      </trkpt>
      <trkpt lat="45.85616111755371" lon="4.666796922683716">
        <ele>209.87</ele>
        <time>2024-08-13T06:53:52.253Z</time>
      </trkpt>
      <trkpt lat="45.856279134750366" lon="4.6682775020599365">
        <ele>208.71</ele>
        <time>2024-08-13T06:53:53.293Z</time>
      </trkpt>
      <trkpt lat="45.856322050094604" lon="4.668620824813843">
        <ele>207.98</ele>
        <time>2024-08-13T06:53:54.337Z</time>
      </trkpt>
      <trkpt lat="45.85640788078308" lon="4.668824672698975">
        <ele>207.63</ele>
        <time>2024-08-13T06:53:55.384Z</time>
      </trkpt>
      <trkpt lat="45.8564829826355" lon="4.66894268989563">
        <ele>207.58</ele>
        <time>2024-08-13T06:53:56.432Z</time>
      </trkpt>
      <trkpt lat="45.85662245750427" lon="4.6690285205841064">
        <ele>207.98</ele>
        <time>2024-08-13T06:53:57.483Z</time>
      </trkpt>
      <trkpt lat="45.85686410777271" lon="4.669136814773083">
        <ele>208.53</ele>
        <time>2024-08-13T06:53:58.538Z</time>
      </trkpt>
      <trkpt lat="45.85686419159174" lon="4.669136814773083">
        <ele>208.53</ele>
        <time>2024-08-13T06:53:59.593Z</time>
      </trkpt>
      <trkpt lat="45.8568643592298" lon="4.669136982411146">
        <ele>208.54</ele>
        <time>2024-08-13T06:54:00.648Z</time>
      </trkpt>
      <trkpt lat="45.85693359375" lon="4.669167995452881">
        <ele>207.47</ele>
        <time>2024-08-13T06:54:01.704Z</time>
      </trkpt>
      <trkpt lat="45.85603245534003" lon="4.669296741485596">
        <ele>207.02</ele>
        <time>2024-08-13T06:54:02.775Z</time>
      </trkpt>
      <trkpt lat="45.855592489242554" lon="4.669414758682251">
        <ele>207.7</ele>
        <time>2024-08-13T06:54:03.853Z</time>
      </trkpt>
      <trkpt lat="45.85535645484924" lon="4.669457674026489">
        <ele>208.76</ele>
        <time>2024-08-13T06:54:04.935Z</time>
      </trkpt>
      <trkpt lat="45.855335080996156" lon="4.669457674026489">
        <ele>209.91</ele>
        <time>2024-08-13T06:54:06.017Z</time>
      </trkpt>
      <trkpt lat="45.854605520144105" lon="4.669607877731323">
        <ele>211.84</ele>
        <time>2024-08-13T06:54:07.111Z</time>
      </trkpt>
      <trkpt lat="45.854541063308716" lon="4.669618606567383">
        <ele>213.46</ele>
        <time>2024-08-13T06:54:08.206Z</time>
      </trkpt>
      <trkpt lat="45.85416555404663" lon="4.669522047042847">
        <ele>215.37</ele>
        <time>2024-08-13T06:54:09.307Z</time>
      </trkpt>
      <trkpt lat="45.85400462150574" lon="4.6695756912231445">
        <ele>216.95</ele>
        <time>2024-08-13T06:54:10.410Z</time>
      </trkpt>
      <trkpt lat="45.85392951965332" lon="4.669404029846191">
        <ele>219.04</ele>
        <time>2024-08-13T06:54:11.516Z</time>
      </trkpt>
      <trkpt lat="45.85319995880127" lon="4.66917872428894">
        <ele>221.29</ele>
        <time>2024-08-13T06:54:12.634Z</time>
      </trkpt>
      <trkpt lat="45.8529531955719" lon="4.669167995452881">
        <ele>223.57</ele>
        <time>2024-08-13T06:54:13.756Z</time>
      </trkpt>
      <trkpt lat="45.85249185562134" lon="4.669210910797119">
        <ele>225.61</ele>
        <time>2024-08-13T06:54:14.885Z</time>
      </trkpt>
      <trkpt lat="45.85235238075256" lon="4.66917872428894">
        <ele>227.49</ele>
        <time>2024-08-13T06:54:16.016Z</time>
      </trkpt>
      <trkpt lat="45.85211634635925" lon="4.669060707092285">
        <ele>229.11</ele>
        <time>2024-08-13T06:54:17.151Z</time>
      </trkpt>
      <trkpt lat="45.85193395614624" lon="4.668835401535034">
        <ele>230.78</ele>
        <time>2024-08-13T06:54:18.290Z</time>
      </trkpt>
      <trkpt lat="45.85135459899902" lon="4.66793417930603">
        <ele>232.5</ele>
        <time>2024-08-13T06:54:19.443Z</time>
      </trkpt>
      <trkpt lat="45.85121512413025" lon="4.667762517929077">
        <ele>234.09</ele>
        <time>2024-08-13T06:54:20.599Z</time>
      </trkpt>
      <trkpt lat="45.851032733917236" lon="4.667569398880005">
        <ele>235.85</ele>
        <time>2024-08-13T06:54:21.758Z</time>
      </trkpt>
      <trkpt lat="45.850807428359985" lon="4.667397737503052">
        <ele>237.62</ele>
        <time>2024-08-13T06:54:22.922Z</time>
      </trkpt>
      <trkpt lat="45.85046410560608" lon="4.667226076126099">
        <ele>239.43</ele>
        <time>2024-08-13T06:54:24.091Z</time>
      </trkpt>
      <trkpt lat="45.85018515586853" lon="4.66718316078186">
        <ele>241.22</ele>
        <time>2024-08-13T06:54:25.265Z</time>
      </trkpt>
      <trkpt lat="45.84968090057373" lon="4.6669793128967285">
        <ele>243.08</ele>
        <time>2024-08-13T06:54:26.447Z</time>
      </trkpt>
      <trkpt lat="45.84890842437744" lon="4.66693639755249">
        <ele>244.13</ele>
        <time>2024-08-13T06:54:27.642Z</time>
      </trkpt>
      <trkpt lat="45.84876894950867" lon="4.666893482208252">
        <ele>245.34</ele>
        <time>2024-08-13T06:54:28.839Z</time>
      </trkpt>
      <trkpt lat="45.84867238998413" lon="4.666807651519775">
        <ele>246.54</ele>
        <time>2024-08-13T06:54:30.038Z</time>
      </trkpt>
      <trkpt lat="45.84860801696777" lon="4.66670036315918">
        <ele>247.74</ele>
        <time>2024-08-13T06:54:31.238Z</time>
      </trkpt>
      <trkpt lat="45.848565101623535" lon="4.666528701782227">
        <ele>248.92</ele>
        <time>2024-08-13T06:54:32.440Z</time>
      </trkpt>
      <trkpt lat="45.848586559295654" lon="4.665863513946533">
        <ele>250.43</ele>
        <time>2024-08-13T06:54:33.650Z</time>
      </trkpt>
      <trkpt lat="45.848586643114686" lon="4.665863513946533">
        <ele>251.52</ele>
        <time>2024-08-13T06:54:34.860Z</time>
      </trkpt>
      <trkpt lat="45.84847927093506" lon="4.665423631668091">
        <ele>253.02</ele>
        <time>2024-08-13T06:54:36.075Z</time>
      </trkpt>
      <trkpt lat="45.84840416908264" lon="4.665251970291138">
        <ele>254.23</ele>
        <time>2024-08-13T06:54:37.292Z</time>
      </trkpt>
      <trkpt lat="45.84826469421387" lon="4.665080308914185">
        <ele>255.29</ele>
        <time>2024-08-13T06:54:38.512Z</time>
      </trkpt>
      <trkpt lat="45.848071575164795" lon="4.664887189865112">
        <ele>256.27</ele>
        <time>2024-08-13T06:54:39.736Z</time>
      </trkpt>
      <trkpt lat="45.84792137145996" lon="4.6647584438323975">
        <ele>257.16</ele>
        <time>2024-08-13T06:54:40.963Z</time>
      </trkpt>
      <trkpt lat="45.84776043891907" lon="4.664672613143921">
        <ele>257.91</ele>
        <time>2024-08-13T06:54:42.192Z</time>
      </trkpt>
      <trkpt lat="45.84765315055847" lon="4.664651155471802">
        <ele>258.6</ele>
        <time>2024-08-13T06:54:43.423Z</time>
      </trkpt>
      <trkpt lat="45.847545862197876" lon="4.664661884307861">
        <ele>259.28</ele>
        <time>2024-08-13T06:54:44.656Z</time>
      </trkpt>
      <trkpt lat="45.8474063873291" lon="4.664736986160278">
        <ele>259.96</ele>
        <time>2024-08-13T06:54:45.891Z</time>
      </trkpt>
      <trkpt lat="45.84675192832947" lon="4.665369987487793">
        <ele>261.26</ele>
        <time>2024-08-13T06:54:47.139Z</time>
      </trkpt>
      <trkpt lat="45.84652662277222" lon="4.665541648864746">
        <ele>262.03</ele>
        <time>2024-08-13T06:54:48.391Z</time>
      </trkpt>
      <trkpt lat="45.84627985954285" lon="4.665627479553223">
        <ele>263.09</ele>
        <time>2024-08-13T06:54:49.647Z</time>
      </trkpt>
      <trkpt lat="45.84601163864136" lon="4.665648937225342">
        <ele>264.02</ele>
        <time>2024-08-13T06:54:50.907Z</time>
      </trkpt>
      <trkpt lat="45.845829248428345" lon="4.665616750717163">
        <ele>265.07</ele>
        <time>2024-08-13T06:54:52.170Z</time>
      </trkpt>
      <trkpt lat="45.84564685821533" lon="4.665552377700806">
        <ele>266.24</ele>
        <time>2024-08-13T06:54:53.436Z</time>
      </trkpt>
      <trkpt lat="45.84513187408447" lon="4.6652305126190186">
        <ele>267.74</ele>
        <time>2024-08-13T06:54:54.711Z</time>
      </trkpt>
      <trkpt lat="45.844852924346924" lon="4.665133953094482">
        <ele>268.87</ele>
        <time>2024-08-13T06:54:55.991Z</time>
      </trkpt>
      <trkpt lat="45.84450960159302" lon="4.665048122406006">
        <ele>270.1</ele>
        <time>2024-08-13T06:54:57.277Z</time>
      </trkpt>
      <trkpt lat="45.844305753707886" lon="4.66495156288147">
        <ele>271.45</ele>
        <time>2024-08-13T06:54:58.566Z</time>
      </trkpt>
      <trkpt lat="45.84415555000305" lon="4.664801359176636">
        <ele>272.84</ele>
        <time>2024-08-13T06:54:59.858Z</time>
      </trkpt>
      <trkpt lat="45.84402680397034" lon="4.664618968963623">
        <ele>274.3</ele>
        <time>2024-08-13T06:55:01.153Z</time>
      </trkpt>
      <trkpt lat="45.84394097328186" lon="4.664404392242432">
        <ele>275.85</ele>
        <time>2024-08-13T06:55:02.451Z</time>
      </trkpt>
      <trkpt lat="45.843855142593384" lon="4.664061069488525">
        <ele>277.48</ele>
        <time>2024-08-13T06:55:03.753Z</time>
      </trkpt>
      <trkpt lat="45.843833768740296" lon="4.663492441177368">
        <ele>279.2</ele>
        <time>2024-08-13T06:55:05.061Z</time>
      </trkpt>
      <trkpt lat="45.843801498413086" lon="4.663041830062866">
        <ele>280.73</ele>
        <time>2024-08-13T06:55:06.374Z</time>
      </trkpt>
      <trkpt lat="45.84371575154364" lon="4.66245174407959">
        <ele>282.42</ele>
        <time>2024-08-13T06:55:07.694Z</time>
      </trkpt>
      <trkpt lat="45.84353336133063" lon="4.6612608432769775">
        <ele>284.33</ele>
        <time>2024-08-13T06:55:09.027Z</time>
      </trkpt>
      <trkpt lat="45.8435332775116" lon="4.66119647026062">
        <ele>285.86</ele>
        <time>2024-08-13T06:55:10.361Z</time>
      </trkpt>
      <trkpt lat="45.84349036216736" lon="4.660885334014893">
        <ele>287.44</ele>
        <time>2024-08-13T06:55:11.699Z</time>
      </trkpt>
      <trkpt lat="45.84343671798706" lon="4.6606385707855225">
        <ele>288.98</ele>
        <time>2024-08-13T06:55:13.040Z</time>
      </trkpt>
      <trkpt lat="45.84338307380676" lon="4.66044545173645">
        <ele>290.51</ele>
        <time>2024-08-13T06:55:14.383Z</time>
      </trkpt>
      <trkpt lat="45.843307971954346" lon="4.660284519195557">
        <ele>292.0</ele>
        <time>2024-08-13T06:55:15.728Z</time>
      </trkpt>
      <trkpt lat="45.84321149624884" lon="4.660145044326782">
        <ele>293.46</ele>
        <time>2024-08-13T06:55:17.075Z</time>
      </trkpt>
      <trkpt lat="45.843104124069214" lon="4.660016298294067">
        <ele>294.86</ele>
        <time>2024-08-13T06:55:18.425Z</time>
      </trkpt>
      <trkpt lat="45.84295392036438" lon="4.659930467605591">
        <ele>296.18</ele>
        <time>2024-08-13T06:55:19.777Z</time>
      </trkpt>
      <trkpt lat="45.84211707115173" lon="4.659662246704102">
        <ele>297.54</ele>
        <time>2024-08-13T06:55:21.143Z</time>
      </trkpt>
      <trkpt lat="45.84194549359381" lon="4.659576416015625">
        <ele>298.68</ele>
        <time>2024-08-13T06:55:22.512Z</time>
      </trkpt>
      <trkpt lat="45.84163427352905" lon="4.659329652786255">
        <ele>299.74</ele>
        <time>2024-08-13T06:55:23.886Z</time>
      </trkpt>
      <trkpt lat="45.8415162563324" lon="4.6592116355896">
        <ele>300.7</ele>
        <time>2024-08-13T06:55:25.263Z</time>
      </trkpt>
      <trkpt lat="45.84141969680786" lon="4.659082889556885">
        <ele>301.61</ele>
        <time>2024-08-13T06:55:26.642Z</time>
      </trkpt>
      <trkpt lat="45.84122657775879" lon="4.65869665145874">
        <ele>302.5</ele>
        <time>2024-08-13T06:55:28.026Z</time>
      </trkpt>
      <trkpt lat="45.84118366241455" lon="4.658546447753906">
        <ele>303.39</ele>
        <time>2024-08-13T06:55:29.412Z</time>
      </trkpt>
      <trkpt lat="45.84115147590637" lon="4.658396244049072">
        <ele>304.28</ele>
        <time>2024-08-13T06:55:30.800Z</time>
      </trkpt>
      <trkpt lat="45.84115147590637" lon="4.658052921295166">
        <ele>305.36</ele>
        <time>2024-08-13T06:55:32.192Z</time>
      </trkpt>
      <trkpt lat="45.84116220474243" lon="4.6578919887542725">
        <ele>306.26</ele>
        <time>2024-08-13T06:55:33.585Z</time>
      </trkpt>
      <trkpt lat="45.84120512008667" lon="4.657720327377319">
        <ele>307.19</ele>
        <time>2024-08-13T06:55:34.980Z</time>
      </trkpt>
      <trkpt lat="45.84144115447998" lon="4.6569907665252686">
        <ele>308.3</ele>
        <time>2024-08-13T06:55:36.384Z</time>
      </trkpt>
      <trkpt lat="45.841569900512695" lon="4.65645432472229">
        <ele>309.42</ele>
        <time>2024-08-13T06:55:37.795Z</time>
      </trkpt>
      <trkpt lat="45.841602087020874" lon="4.656186103820801">
        <ele>310.43</ele>
        <time>2024-08-13T06:55:39.209Z</time>
      </trkpt>
      <trkpt lat="45.841602087020874" lon="4.655939340591431">
        <ele>311.47</ele>
        <time>2024-08-13T06:55:40.626Z</time>
      </trkpt>
      <trkpt lat="45.841580629348755" lon="4.655799865722656">
        <ele>312.46</ele>
        <time>2024-08-13T06:55:42.044Z</time>
      </trkpt>
      <trkpt lat="45.84153771400452" lon="4.655660390853882">
        <ele>313.48</ele>
        <time>2024-08-13T06:55:43.464Z</time>
      </trkpt>
      <trkpt lat="45.84147334098816" lon="4.655520915985107">
        <ele>314.49</ele>
        <time>2024-08-13T06:55:44.886Z</time>
      </trkpt>
      <trkpt lat="45.84087252616882" lon="4.65470552444458">
        <ele>315.77</ele>
        <time>2024-08-13T06:55:46.321Z</time>
      </trkpt>
      <trkpt lat="45.84079750813544" lon="4.654523134231567">
        <ele>316.68</ele>
        <time>2024-08-13T06:55:47.758Z</time>
      </trkpt>
      <trkpt lat="45.840797424316406" lon="4.654523134231567">
        <ele>317.54</ele>
        <time>2024-08-13T06:55:49.195Z</time>
      </trkpt>
      <trkpt lat="45.84075450897217" lon="4.654372930526733">
        <ele>318.48</ele>
        <time>2024-08-13T06:55:50.634Z</time>
      </trkpt>
      <trkpt lat="45.84078669548035" lon="4.654308557510376">
        <ele>319.33</ele>
        <time>2024-08-13T06:55:52.074Z</time>
      </trkpt>
      <trkpt lat="45.840797424316406" lon="4.654233455657959">
        <ele>320.15</ele>
        <time>2024-08-13T06:55:53.515Z</time>
      </trkpt>
      <trkpt lat="45.84078669548035" lon="4.654147624969482">
        <ele>320.97</ele>
        <time>2024-08-13T06:55:54.957Z</time>
      </trkpt>
      <trkpt lat="45.84075450897217" lon="4.654061794281006">
        <ele>321.79</ele>
        <time>2024-08-13T06:55:56.400Z</time>
      </trkpt>
      <trkpt lat="45.84070086479187" lon="4.654018878936768">
        <ele>322.59</ele>
        <time>2024-08-13T06:55:57.844Z</time>
      </trkpt>
      <trkpt lat="45.84065803326666" lon="4.653868675231934">
        <ele>323.44</ele>
        <time>2024-08-13T06:55:59.290Z</time>
      </trkpt>
      <trkpt lat="45.84065794944763" lon="4.6538472175598145">
        <ele>324.19</ele>
        <time>2024-08-13T06:56:00.736Z</time>
      </trkpt>
      <trkpt lat="45.84076523780823" lon="4.653654098510742">
        <ele>325.03</ele>
        <time>2024-08-13T06:56:02.185Z</time>
      </trkpt>
      <trkpt lat="45.84145188331604" lon="4.653235673904419">
        <ele>325.68</ele>
        <time>2024-08-13T06:56:03.646Z</time>
      </trkpt>
      <trkpt lat="45.84137678146362" lon="4.653074741363525">
        <ele>326.6</ele>
        <time>2024-08-13T06:56:05.109Z</time>
      </trkpt>
      <trkpt lat="45.84116220474243" lon="4.652838706970215">
        <ele>327.59</ele>
        <time>2024-08-13T06:56:06.576Z</time>
      </trkpt>
      <trkpt lat="45.840904712677" lon="4.652602672576904">
        <ele>328.65</ele>
        <time>2024-08-13T06:56:08.048Z</time>
      </trkpt>
      <trkpt lat="45.84075450897217" lon="4.652527570724487">
        <ele>329.7</ele>
        <time>2024-08-13T06:56:09.523Z</time>
      </trkpt>
      <trkpt lat="45.8404541015625" lon="4.652538299560547">
        <ele>330.83</ele>
        <time>2024-08-13T06:56:11.003Z</time>
      </trkpt>
      <trkpt lat="45.83976745605469" lon="4.652731418609619">
        <ele>331.98</ele>
        <time>2024-08-13T06:56:12.494Z</time>
      </trkpt>
      <trkpt lat="45.839359760284424" lon="4.652806520462036">
        <ele>333.01</ele>
        <time>2024-08-13T06:56:13.991Z</time>
      </trkpt>
      <trkpt lat="45.8392954710871" lon="4.652774333953857">
        <ele>334.1</ele>
        <time>2024-08-13T06:56:15.489Z</time>
      </trkpt>
      <trkpt lat="45.83912372589111" lon="4.652667045593262">
        <ele>335.22</ele>
        <time>2024-08-13T06:56:16.990Z</time>
      </trkpt>
      <trkpt lat="45.83876967430115" lon="4.652742147445679">
        <ele>336.25</ele>
        <time>2024-08-13T06:56:18.497Z</time>
      </trkpt>
      <trkpt lat="45.838351249694824" lon="4.6529459953308105">
        <ele>337.49</ele>
        <time>2024-08-13T06:56:20.011Z</time>
      </trkpt>
      <trkpt lat="45.83781489171088" lon="4.652988910675049">
        <ele>338.96</ele>
        <time>2024-08-13T06:56:21.534Z</time>
      </trkpt>
      <trkpt lat="45.83743929862976" lon="4.652924537658691">
        <ele>340.49</ele>
        <time>2024-08-13T06:56:23.063Z</time>
      </trkpt>
      <trkpt lat="45.83714962005615" lon="4.652827978134155">
        <ele>341.81</ele>
        <time>2024-08-13T06:56:24.597Z</time>
      </trkpt>
      <trkpt lat="45.83683856762946" lon="4.652785062789917">
        <ele>343.03</ele>
        <time>2024-08-13T06:56:26.136Z</time>
      </trkpt>
      <trkpt lat="45.83673127926886" lon="4.652774333953857">
        <ele>344.03</ele>
        <time>2024-08-13T06:56:27.676Z</time>
      </trkpt>
      <trkpt lat="45.83663463592529" lon="4.652731418609619">
        <ele>344.92</ele>
        <time>2024-08-13T06:56:29.218Z</time>
      </trkpt>
      <trkpt lat="45.83592653274536" lon="4.652130603790283">
        <ele>345.84</ele>
        <time>2024-08-13T06:56:30.773Z</time>
      </trkpt>
      <trkpt lat="45.83571195602417" lon="4.652034044265747">
        <ele>346.23</ele>
        <time>2024-08-13T06:56:32.332Z</time>
      </trkpt>
      <trkpt lat="45.83533653058112" lon="4.651926755905151">
        <ele>346.29</ele>
        <time>2024-08-13T06:56:33.897Z</time>
      </trkpt>
      <trkpt lat="45.8349072933197" lon="4.6517980098724365">
        <ele>346.22</ele>
        <time>2024-08-13T06:56:35.469Z</time>
      </trkpt>
      <trkpt lat="45.83428502082825" lon="4.651765823364258">
        <ele>346.26</ele>
        <time>2024-08-13T06:56:37.051Z</time>
      </trkpt>
      <trkpt lat="45.83428510464728" lon="4.651765823364258">
        <ele>346.3</ele>
        <time>2024-08-13T06:56:38.633Z</time>
      </trkpt>
      <trkpt lat="45.833877408877015" lon="4.6517014503479">
        <ele>346.04</ele>
        <time>2024-08-13T06:56:40.221Z</time>
      </trkpt>
      <trkpt lat="45.8329439163208" lon="4.651529788970947">
        <ele>346.36</ele>
        <time>2024-08-13T06:56:41.824Z</time>
      </trkpt>
      <trkpt lat="45.83268642425537" lon="4.65145468711853">
        <ele>346.06</ele>
        <time>2024-08-13T06:56:43.432Z</time>
      </trkpt>
      <trkpt lat="45.83242901600897" lon="4.651315212249756">
        <ele>345.8</ele>
        <time>2024-08-13T06:56:45.044Z</time>
      </trkpt>
      <trkpt lat="45.83226799964905" lon="4.651154279708862">
        <ele>345.57</ele>
        <time>2024-08-13T06:56:46.659Z</time>
      </trkpt>
      <trkpt lat="45.832128608599305" lon="4.650993347167969">
        <ele>345.27</ele>
        <time>2024-08-13T06:56:48.277Z</time>
      </trkpt>
      <trkpt lat="45.83201050758362" lon="4.650832414627075">
        <ele>344.89</ele>
        <time>2024-08-13T06:56:49.898Z</time>
      </trkpt>
      <trkpt lat="45.83129167556763" lon="4.650156497955322">
        <ele>344.24</ele>
        <time>2024-08-13T06:56:51.532Z</time>
      </trkpt>
      <trkpt lat="45.83026170730591" lon="4.648793935775757">
        <ele>343.95</ele>
        <time>2024-08-13T06:56:53.189Z</time>
      </trkpt>
      <trkpt lat="45.830122232437134" lon="4.648547172546387">
        <ele>343.01</ele>
        <time>2024-08-13T06:56:54.849Z</time>
      </trkpt>
      <trkpt lat="45.82990765571594" lon="4.648075103759766">
        <ele>341.75</ele>
        <time>2024-08-13T06:56:56.516Z</time>
      </trkpt>
      <trkpt lat="45.82974672317505" lon="4.647635221481323">
        <ele>340.42</ele>
        <time>2024-08-13T06:56:58.188Z</time>
      </trkpt>
      <trkpt lat="45.82944639958441" lon="4.646658897399902">
        <ele>339.15</ele>
        <time>2024-08-13T06:56:59.872Z</time>
      </trkpt>
      <trkpt lat="45.82939744926989" lon="4.646785045042634">
        <ele>338.29</ele>
        <time>2024-08-13T06:57:01.558Z</time>
      </trkpt>
      <trkpt lat="45.82939744926989" lon="4.646785128861666">
        <ele>338.29</ele>
        <time>2024-08-13T06:57:03.244Z</time>
      </trkpt>
      <trkpt lat="45.82939753308892" lon="4.646785128861666">
        <ele>338.29</ele>
        <time>2024-08-13T06:57:04.930Z</time>
      </trkpt>
      <trkpt lat="45.82939753308892" lon="4.646785212680697">
        <ele>332.54</ele>
        <time>2024-08-13T06:57:06.616Z</time>
      </trkpt>
      <trkpt lat="45.82944631576538" lon="4.646658897399902">
        <ele>332.55</ele>
        <time>2024-08-13T06:57:08.303Z</time>
      </trkpt>
      <trkpt lat="45.82928538322449" lon="4.646433591842651">
        <ele>332.02</ele>
        <time>2024-08-13T06:57:09.994Z</time>
      </trkpt>
      <trkpt lat="45.828856229782104" lon="4.645950794219971">
        <ele>331.57</ele>
        <time>2024-08-13T06:57:11.694Z</time>
      </trkpt>
      <trkpt lat="45.82874894142151" lon="4.645779132843018">
        <ele>331.42</ele>
        <time>2024-08-13T06:57:13.396Z</time>
      </trkpt>
      <trkpt lat="45.82867383956909" lon="4.645575284957886">
        <ele>331.52</ele>
        <time>2024-08-13T06:57:15.101Z</time>
      </trkpt>
      <trkpt lat="45.82824468612671" lon="4.644255638122559">
        <ele>332.31</ele>
        <time>2024-08-13T06:57:16.822Z</time>
      </trkpt>
      <trkpt lat="45.82815885543823" lon="4.643826484680176">
        <ele>333.24</ele>
        <time>2024-08-13T06:57:18.548Z</time>
      </trkpt>
      <trkpt lat="45.828126752749085" lon="4.643354415893555">
        <ele>334.26</ele>
        <time>2024-08-13T06:57:20.280Z</time>
      </trkpt>
      <trkpt lat="45.828105295076966" lon="4.643182754516602">
        <ele>335.54</ele>
        <time>2024-08-13T06:57:22.014Z</time>
      </trkpt>
      <trkpt lat="45.82804083824158" lon="4.643021821975708">
        <ele>337.01</ele>
        <time>2024-08-13T06:57:23.750Z</time>
      </trkpt>
      <trkpt lat="45.82774043083191" lon="4.642614126205444">
        <ele>338.82</ele>
        <time>2024-08-13T06:57:25.492Z</time>
      </trkpt>
      <trkpt lat="45.827622413635254" lon="4.642378091812134">
        <ele>340.79</ele>
        <time>2024-08-13T06:57:27.237Z</time>
      </trkpt>
      <trkpt lat="45.827568769454956" lon="4.6421849727630615">
        <ele>342.88</ele>
        <time>2024-08-13T06:57:28.985Z</time>
      </trkpt>
      <trkpt lat="45.827332735061646" lon="4.6411120891571045">
        <ele>345.67</ele>
        <time>2024-08-13T06:57:30.745Z</time>
      </trkpt>
      <trkpt lat="45.82723617553711" lon="4.640790224075317">
        <ele>348.24</ele>
        <time>2024-08-13T06:57:32.509Z</time>
      </trkpt>
      <trkpt lat="45.827085971832275" lon="4.64046835899353">
        <ele>350.79</ele>
        <time>2024-08-13T06:57:34.278Z</time>
      </trkpt>
      <trkpt lat="45.82654961384833" lon="4.639545679092407">
        <ele>354.24</ele>
        <time>2024-08-13T06:57:36.060Z</time>
      </trkpt>
      <trkpt lat="45.82648515701294" lon="4.639266729354858">
        <ele>356.71</ele>
        <time>2024-08-13T06:57:37.845Z</time>
      </trkpt>
      <trkpt lat="45.82650661468506" lon="4.638869762420654">
        <ele>358.92</ele>
        <time>2024-08-13T06:57:39.635Z</time>
      </trkpt>
      <trkpt lat="45.826367223635316" lon="4.638451337814331">
        <ele>360.76</ele>
        <time>2024-08-13T06:57:41.430Z</time>
      </trkpt>
      <trkpt lat="45.826377952471375" lon="4.6382153034210205">
        <ele>362.45</ele>
        <time>2024-08-13T06:57:43.228Z</time>
      </trkpt>
      <trkpt lat="45.82625985145569" lon="4.63797926902771">
        <ele>363.9</ele>
        <time>2024-08-13T06:57:45.029Z</time>
      </trkpt>
      <trkpt lat="45.82598090171814" lon="4.6378397941589355">
        <ele>364.99</ele>
        <time>2024-08-13T06:57:46.835Z</time>
      </trkpt>
      <trkpt lat="45.825380086898804" lon="4.637410640716553">
        <ele>365.34</ele>
        <time>2024-08-13T06:57:48.651Z</time>
      </trkpt>
      <trkpt lat="45.82497239112854" lon="4.636809825897217">
        <ele>366.85</ele>
        <time>2024-08-13T06:57:50.477Z</time>
      </trkpt>
      <trkpt lat="45.82480072975159" lon="4.6364665031433105">
        <ele>367.92</ele>
        <time>2024-08-13T06:57:52.307Z</time>
      </trkpt>
      <trkpt lat="45.8245325088501" lon="4.635715484619141">
        <ele>368.95</ele>
        <time>2024-08-13T06:57:54.147Z</time>
      </trkpt>
      <trkpt lat="45.82452178001404" lon="4.635511636734009">
        <ele>369.72</ele>
        <time>2024-08-13T06:57:55.989Z</time>
      </trkpt>
      <trkpt lat="45.8245325088501" lon="4.635415077209473">
        <ele>370.33</ele>
        <time>2024-08-13T06:57:57.832Z</time>
      </trkpt>
      <trkpt lat="45.82481145858765" lon="4.6345460414886475">
        <ele>371.06</ele>
        <time>2024-08-13T06:57:59.686Z</time>
      </trkpt>
      <trkpt lat="45.82479008473456" lon="4.634342193603516">
        <ele>371.37</ele>
        <time>2024-08-13T06:58:01.542Z</time>
      </trkpt>
      <trkpt lat="45.82473635673523" lon="4.6342456340789795">
        <ele>371.77</ele>
        <time>2024-08-13T06:58:03.400Z</time>
      </trkpt>
      <trkpt lat="45.82452178001404" lon="4.6340954303741455">
        <ele>372.33</ele>
        <time>2024-08-13T06:58:05.261Z</time>
      </trkpt>
      <trkpt lat="45.82452186383307" lon="4.6340954303741455">
        <ele>373.01</ele>
        <time>2024-08-13T06:58:07.122Z</time>
      </trkpt>
      <trkpt lat="45.824328660964966" lon="4.633966684341431">
        <ele>373.89</ele>
        <time>2024-08-13T06:58:08.987Z</time>
      </trkpt>
      <trkpt lat="45.823320150375366" lon="4.633558988571167">
        <ele>375.36</ele>
        <time>2024-08-13T06:58:10.869Z</time>
      </trkpt>
      <trkpt lat="45.8229660987854" lon="4.633333683013916">
        <ele>376.08</ele>
        <time>2024-08-13T06:58:12.757Z</time>
      </trkpt>
      <trkpt lat="45.8217538241297" lon="4.632292985916138">
        <ele>377.44</ele>
        <time>2024-08-13T06:58:14.668Z</time>
      </trkpt>
      <trkpt lat="45.821711076423526" lon="4.632239593192935">
        <ele>378.05</ele>
        <time>2024-08-13T06:58:16.579Z</time>
      </trkpt>
      <trkpt lat="45.82171082496643" lon="4.63223934173584">
        <ele>377.58</ele>
        <time>2024-08-13T06:58:18.490Z</time>
      </trkpt>
      <trkpt lat="45.82152843475342" lon="4.632453918457031">
        <ele>377.11</ele>
        <time>2024-08-13T06:58:20.405Z</time>
      </trkpt>
      <trkpt lat="45.82142114639282" lon="4.632561206817627">
        <ele>376.97</ele>
        <time>2024-08-13T06:58:22.322Z</time>
      </trkpt>
      <trkpt lat="45.821077823638916" lon="4.632818698883057">
        <ele>377.15</ele>
        <time>2024-08-13T06:58:24.246Z</time>
      </trkpt>
      <trkpt lat="45.820605754852295" lon="4.63299036026001">
        <ele>377.76</ele>
        <time>2024-08-13T06:58:26.177Z</time>
      </trkpt>
      <trkpt lat="45.8204984664917" lon="4.633065462112427">
        <ele>378.11</ele>
        <time>2024-08-13T06:58:28.110Z</time>
      </trkpt>
      <trkpt lat="45.82040190696716" lon="4.633162021636963">
        <ele>378.42</ele>
        <time>2024-08-13T06:58:30.045Z</time>
      </trkpt>
      <trkpt lat="45.82030534744263" lon="4.633290767669678">
        <ele>378.69</ele>
        <time>2024-08-13T06:58:31.982Z</time>
      </trkpt>
      <trkpt lat="45.82024097442627" lon="4.633430242538452">
        <ele>379.21</ele>
        <time>2024-08-13T06:58:33.921Z</time>
      </trkpt>
      <trkpt lat="45.82017660140991" lon="4.633655548095703">
        <ele>380.02</ele>
        <time>2024-08-13T06:58:35.863Z</time>
      </trkpt>
      <trkpt lat="45.820080041885376" lon="4.634288549423218">
        <ele>381.29</ele>
        <time>2024-08-13T06:58:37.812Z</time>
      </trkpt>
      <trkpt lat="45.820069313049316" lon="4.63472843170166">
        <ele>383.2</ele>
        <time>2024-08-13T06:58:39.766Z</time>
      </trkpt>
      <trkpt lat="45.82031607627869" lon="4.6359193325042725">
        <ele>386.53</ele>
        <time>2024-08-13T06:58:41.734Z</time>
      </trkpt>
      <trkpt lat="45.8204448223114" lon="4.637346267700195">
        <ele>389.8</ele>
        <time>2024-08-13T06:58:43.718Z</time>
      </trkpt>
      <trkpt lat="45.82068085670471" lon="4.638301134109497">
        <ele>392.64</ele>
        <time>2024-08-13T06:58:45.713Z</time>
      </trkpt>
      <trkpt lat="45.82069158554077" lon="4.6387410163879395">
        <ele>394.96</ele>
        <time>2024-08-13T06:58:47.713Z</time>
      </trkpt>
      <trkpt lat="45.82053065299988" lon="4.63971734046936">
        <ele>397.66</ele>
        <time>2024-08-13T06:58:49.724Z</time>
      </trkpt>
      <trkpt lat="45.82019805908203" lon="4.640414714813232">
        <ele>399.64</ele>
        <time>2024-08-13T06:58:51.745Z</time>
      </trkpt>
      <trkpt lat="45.81997275352478" lon="4.640779495239258">
        <ele>401.0</ele>
        <time>2024-08-13T06:58:53.771Z</time>
      </trkpt>
      <trkpt lat="45.81942558288574" lon="4.641551971435547">
        <ele>402.38</ele>
        <time>2024-08-13T06:58:55.810Z</time>
      </trkpt>
      <trkpt lat="45.81940412521362" lon="4.641605615615845">
        <ele>403.01</ele>
        <time>2024-08-13T06:58:57.849Z</time>
      </trkpt>
      <trkpt lat="45.819382667541504" lon="4.641669988632202">
        <ele>403.21</ele>
        <time>2024-08-13T06:58:59.889Z</time>
      </trkpt>
      <trkpt lat="45.81923246383667" lon="4.642045497894287">
        <ele>402.92</ele>
        <time>2024-08-13T06:59:01.934Z</time>
      </trkpt>
      <trkpt lat="45.81906080245972" lon="4.642453193664551">
        <ele>402.32</ele>
        <time>2024-08-13T06:59:03.984Z</time>
      </trkpt>
      <trkpt lat="45.81880331039429" lon="4.64272141456604">
        <ele>401.35</ele>
        <time>2024-08-13T06:59:06.039Z</time>
      </trkpt>
      <trkpt lat="45.81851363182068" lon="4.642850160598755">
        <ele>400.57</ele>
        <time>2024-08-13T06:59:08.099Z</time>
      </trkpt>
      <trkpt lat="45.81833576783538" lon="4.642882514744997">
        <ele>400.0</ele>
        <time>2024-08-13T06:59:10.162Z</time>
      </trkpt>
      <trkpt lat="45.81815958023071" lon="4.642914533615112">
        <ele>393.3</ele>
        <time>2024-08-13T06:59:12.228Z</time>
      </trkpt>
      <trkpt lat="45.81699022091925" lon="4.643043279647827">
        <ele>392.04</ele>
        <time>2024-08-13T06:59:14.313Z</time>
      </trkpt>
      <trkpt lat="45.81675410270691" lon="4.643043279647827">
        <ele>391.12</ele>
        <time>2024-08-13T06:59:16.402Z</time>
      </trkpt>
      <trkpt lat="45.8165717124939" lon="4.642989635467529">
        <ele>390.34</ele>
        <time>2024-08-13T06:59:18.494Z</time>
      </trkpt>
      <trkpt lat="45.81616401672363" lon="4.642678499221802">
        <ele>389.75</ele>
        <time>2024-08-13T06:59:20.593Z</time>
      </trkpt>
      <trkpt lat="45.8160138130188" lon="4.6424853801727295">
        <ele>389.01</ele>
        <time>2024-08-13T06:59:22.695Z</time>
      </trkpt>
      <trkpt lat="45.8159065246582" lon="4.642292261123657">
        <ele>388.09</ele>
        <time>2024-08-13T06:59:24.800Z</time>
      </trkpt>
      <trkpt lat="45.8155632019043" lon="4.640607833862305">
        <ele>386.72</ele>
        <time>2024-08-13T06:59:26.925Z</time>
      </trkpt>
      <trkpt lat="45.815509557724" lon="4.640489816665649">
        <ele>385.9</ele>
        <time>2024-08-13T06:59:29.051Z</time>
      </trkpt>
      <trkpt lat="45.815434539690614" lon="4.640414714813232">
        <ele>385.19</ele>
        <time>2024-08-13T06:59:31.179Z</time>
      </trkpt>
      <trkpt lat="45.81530570983887" lon="4.640318155288696">
        <ele>384.63</ele>
        <time>2024-08-13T06:59:33.309Z</time>
      </trkpt>
      <trkpt lat="45.81517696380615" lon="4.640253782272339">
        <ele>384.28</ele>
        <time>2024-08-13T06:59:35.441Z</time>
      </trkpt>
      <trkpt lat="45.815080404281616" lon="4.640253782272339">
        <ele>384.06</ele>
        <time>2024-08-13T06:59:37.575Z</time>
      </trkpt>
      <trkpt lat="45.81469416618347" lon="4.640339612960815">
        <ele>384.0</ele>
        <time>2024-08-13T06:59:39.715Z</time>
      </trkpt>
      <trkpt lat="45.81443667411804" lon="4.640328884124756">
        <ele>384.39</ele>
        <time>2024-08-13T06:59:41.859Z</time>
      </trkpt>
      <trkpt lat="45.81425436772406" lon="4.640275239944458">
        <ele>384.92</ele>
        <time>2024-08-13T06:59:44.006Z</time>
      </trkpt>
      <trkpt lat="45.81400760449469" lon="4.640178680419922">
        <ele>385.67</ele>
        <time>2024-08-13T06:59:46.157Z</time>
      </trkpt>
      <trkpt lat="45.81373929977417" lon="4.640060663223267">
        <ele>386.47</ele>
        <time>2024-08-13T06:59:48.313Z</time>
      </trkpt>
      <trkpt lat="45.813428247347474" lon="4.639899730682373">
        <ele>387.01</ele>
        <time>2024-08-13T06:59:50.474Z</time>
      </trkpt>
      <trkpt lat="45.81305265426636" lon="4.639674425125122">
        <ele>387.22</ele>
        <time>2024-08-13T06:59:52.641Z</time>
      </trkpt>
      <trkpt lat="45.81276297569275" lon="4.639406204223633">
        <ele>387.34</ele>
        <time>2024-08-13T06:59:54.814Z</time>
      </trkpt>
      <trkpt lat="45.811829566955566" lon="4.6385908126831055">
        <ele>387.86</ele>
        <time>2024-08-13T06:59:57.004Z</time>
      </trkpt>
      <trkpt lat="45.81172227859497" lon="4.638537168502808">
        <ele>388.16</ele>
        <time>2024-08-13T06:59:59.196Z</time>
      </trkpt>
      <trkpt lat="45.811647176742554" lon="4.638526439666748">
        <ele>388.46</ele>
        <time>2024-08-13T07:00:01.389Z</time>
      </trkpt>
      <trkpt lat="45.81157207489014" lon="4.638537168502808">
        <ele>388.72</ele>
        <time>2024-08-13T07:00:03.584Z</time>
      </trkpt>
      <trkpt lat="45.81135758198798" lon="4.6386659145355225">
        <ele>388.97</ele>
        <time>2024-08-13T07:00:05.782Z</time>
      </trkpt>
      <trkpt lat="45.81101417541504" lon="4.638923406600952">
        <ele>389.52</ele>
        <time>2024-08-13T07:00:07.987Z</time>
      </trkpt>
      <trkpt lat="45.81093907356262" lon="4.639019966125488">
        <ele>389.93</ele>
        <time>2024-08-13T07:00:10.193Z</time>
      </trkpt>
      <trkpt lat="45.810853242874146" lon="4.639148712158203">
        <ele>390.31</ele>
        <time>2024-08-13T07:00:12.401Z</time>
      </trkpt>
      <trkpt lat="45.81059583462775" lon="4.639706611633301">
        <ele>390.85</ele>
        <time>2024-08-13T07:00:14.617Z</time>
      </trkpt>
      <trkpt lat="45.81025251187384" lon="4.64047908782959">
        <ele>391.51</ele>
        <time>2024-08-13T07:00:16.843Z</time>
      </trkpt>
      <trkpt lat="45.80994129180908" lon="4.641176462173462">
        <ele>391.74</ele>
        <time>2024-08-13T07:00:19.078Z</time>
      </trkpt>
      <trkpt lat="45.80972671508789" lon="4.64147686958313">
        <ele>391.93</ele>
        <time>2024-08-13T07:00:21.318Z</time>
      </trkpt>
      <trkpt lat="45.80942630767822" lon="4.641755819320679">
        <ele>391.91</ele>
        <time>2024-08-13T07:00:23.564Z</time>
      </trkpt>
      <trkpt lat="45.80921173095703" lon="4.641906023025513">
        <ele>392.04</ele>
        <time>2024-08-13T07:00:25.814Z</time>
      </trkpt>
      <trkpt lat="45.808846950531006" lon="4.6420347690582275">
        <ele>392.2</ele>
        <time>2024-08-13T07:00:28.070Z</time>
      </trkpt>
      <trkpt lat="45.80853581428528" lon="4.6421098709106445">
        <ele>392.4</ele>
        <time>2024-08-13T07:00:30.331Z</time>
      </trkpt>
      <trkpt lat="45.808106660842896" lon="4.6421098709106445">
        <ele>392.61</ele>
        <time>2024-08-13T07:00:32.598Z</time>
      </trkpt>
      <trkpt lat="45.8072377089411" lon="4.642045497894287">
        <ele>393.12</ele>
        <time>2024-08-13T07:00:34.879Z</time>
      </trkpt>
      <trkpt lat="45.80723762512207" lon="4.642045497894287">
        <ele>393.45</ele>
        <time>2024-08-13T07:00:37.160Z</time>
      </trkpt>
      <trkpt lat="45.80717325210571" lon="4.642024040222168">
        <ele>393.84</ele>
        <time>2024-08-13T07:00:39.442Z</time>
      </trkpt>
      <trkpt lat="45.80706596374512" lon="4.64198112487793">
        <ele>394.29</ele>
        <time>2024-08-13T07:00:41.726Z</time>
      </trkpt>
      <trkpt lat="45.8069908618927" lon="4.641895294189453">
        <ele>394.74</ele>
        <time>2024-08-13T07:00:44.012Z</time>
      </trkpt>
      <trkpt lat="45.80676555633545" lon="4.641498327255249">
        <ele>395.22</ele>
        <time>2024-08-13T07:00:46.304Z</time>
      </trkpt>
      <trkpt lat="45.80669045448303" lon="4.6413373947143555">
        <ele>395.74</ele>
        <time>2024-08-13T07:00:48.598Z</time>
      </trkpt>
      <trkpt lat="45.80651879310608" lon="4.641283750534058">
        <ele>396.26</ele>
        <time>2024-08-13T07:00:50.894Z</time>
      </trkpt>
      <trkpt lat="45.80630430020392" lon="4.641315937042236">
        <ele>396.84</ele>
        <time>2024-08-13T07:00:53.194Z</time>
      </trkpt>
      <trkpt lat="45.80623992718756" lon="4.641423225402832">
        <ele>397.48</ele>
        <time>2024-08-13T07:00:55.496Z</time>
      </trkpt>
      <trkpt lat="45.80623984336853" lon="4.641423225402832">
        <ele>398.13</ele>
        <time>2024-08-13T07:00:57.798Z</time>
      </trkpt>
      <trkpt lat="45.80626138485968" lon="4.641530513763428">
        <ele>398.83</ele>
        <time>2024-08-13T07:01:00.101Z</time>
      </trkpt>
      <trkpt lat="45.80628275871277" lon="4.641873836517334">
        <ele>399.63</ele>
        <time>2024-08-13T07:01:02.408Z</time>
      </trkpt>
      <trkpt lat="45.80626130104065" lon="4.642249345779419">
        <ele>400.5</ele>
        <time>2024-08-13T07:01:04.719Z</time>
      </trkpt>
      <trkpt lat="45.80620765686035" lon="4.642539024353027">
        <ele>401.3</ele>
        <time>2024-08-13T07:01:07.033Z</time>
      </trkpt>
      <trkpt lat="45.80605745315552" lon="4.643011093139648">
        <ele>401.91</ele>
        <time>2024-08-13T07:01:09.353Z</time>
      </trkpt>
      <trkpt lat="45.805842876434326" lon="4.6436333656311035">
        <ele>402.58</ele>
        <time>2024-08-13T07:01:11.681Z</time>
      </trkpt>
      <trkpt lat="45.80572485923767" lon="4.643912315368652">
        <ele>403.28</ele>
        <time>2024-08-13T07:01:14.012Z</time>
      </trkpt>
      <trkpt lat="45.8057249430567" lon="4.643912315368652">
        <ele>403.81</ele>
        <time>2024-08-13T07:01:16.343Z</time>
      </trkpt>
      <trkpt lat="45.80545663833618" lon="4.644556045532227">
        <ele>404.42</ele>
        <time>2024-08-13T07:01:18.683Z</time>
      </trkpt>
      <trkpt lat="45.805156230926514" lon="4.645586013793945">
        <ele>404.92</ele>
        <time>2024-08-13T07:01:21.035Z</time>
      </trkpt>
      <trkpt lat="45.805124044418335" lon="4.645746946334839">
        <ele>405.2</ele>
        <time>2024-08-13T07:01:23.389Z</time>
      </trkpt>
      <trkpt lat="45.80500602722168" lon="4.6462297439575195">
        <ele>405.51</ele>
        <time>2024-08-13T07:01:25.749Z</time>
      </trkpt>
      <trkpt lat="45.80498456954956" lon="4.646422863006592">
        <ele>405.59</ele>
        <time>2024-08-13T07:01:28.111Z</time>
      </trkpt>
      <trkpt lat="45.8049738407135" lon="4.646637439727783">
        <ele>405.47</ele>
        <time>2024-08-13T07:01:30.476Z</time>
      </trkpt>
      <trkpt lat="45.80498456954956" lon="4.647098779678345">
        <ele>405.11</ele>
        <time>2024-08-13T07:01:32.846Z</time>
      </trkpt>
      <trkpt lat="45.80509194172919" lon="4.648579359054565">
        <ele>404.15</ele>
        <time>2024-08-13T07:01:35.232Z</time>
      </trkpt>
      <trkpt lat="45.80520987510681" lon="4.650413990020752">
        <ele>403.71</ele>
        <time>2024-08-13T07:01:37.639Z</time>
      </trkpt>
      <trkpt lat="45.80531716346741" lon="4.652420282363892">
        <ele>402.14</ele>
        <time>2024-08-13T07:01:40.068Z</time>
      </trkpt>
      <trkpt lat="45.805338621139526" lon="4.652892351150513">
        <ele>401.37</ele>
        <time>2024-08-13T07:01:42.503Z</time>
      </trkpt>
      <trkpt lat="45.80530651845038" lon="4.653578996658325">
        <ele>400.48</ele>
        <time>2024-08-13T07:01:44.945Z</time>
      </trkpt>
      <trkpt lat="45.80528506077826" lon="4.653825759887695">
        <ele>399.34</ele>
        <time>2024-08-13T07:01:47.390Z</time>
      </trkpt>
      <trkpt lat="45.80526360310614" lon="4.654018878936768">
        <ele>398.12</ele>
        <time>2024-08-13T07:01:49.837Z</time>
      </trkpt>
      <trkpt lat="45.80503821372986" lon="4.655359983444214">
        <ele>396.54</ele>
        <time>2024-08-13T07:01:52.300Z</time>
      </trkpt>
      <trkpt lat="45.80503829754889" lon="4.655359983444214">
        <ele>395.38</ele>
        <time>2024-08-13T07:01:54.763Z</time>
      </trkpt>
      <trkpt lat="45.80499529838562" lon="4.656046628952026">
        <ele>394.17</ele>
        <time>2024-08-13T07:01:57.234Z</time>
      </trkpt>
      <trkpt lat="45.80501683987677" lon="4.656615257263184">
        <ele>393.02</ele>
        <time>2024-08-13T07:01:59.711Z</time>
      </trkpt>
      <trkpt lat="45.80511339940131" lon="4.65720534324646">
        <ele>391.92</ele>
        <time>2024-08-13T07:02:02.195Z</time>
      </trkpt>
      <trkpt lat="45.805167043581605" lon="4.657430648803711">
        <ele>390.76</ele>
        <time>2024-08-13T07:02:04.681Z</time>
      </trkpt>
      <trkpt lat="45.80522060394287" lon="4.657731056213379">
        <ele>389.66</ele>
        <time>2024-08-13T07:02:07.171Z</time>
      </trkpt>
      <trkpt lat="45.80531716346741" lon="4.658310413360596">
        <ele>388.6</ele>
        <time>2024-08-13T07:02:09.668Z</time>
      </trkpt>
      <trkpt lat="45.805349349975586" lon="4.658675193786621">
        <ele>387.35</ele>
        <time>2024-08-13T07:02:12.169Z</time>
      </trkpt>
      <trkpt lat="45.805381536483765" lon="4.659426212310791">
        <ele>385.84</ele>
        <time>2024-08-13T07:02:14.678Z</time>
      </trkpt>
      <trkpt lat="45.80544590950012" lon="4.660005569458008">
        <ele>384.45</ele>
        <time>2024-08-13T07:02:17.194Z</time>
      </trkpt>
      <trkpt lat="45.80555319786072" lon="4.6604883670806885">
        <ele>383.26</ele>
        <time>2024-08-13T07:02:19.715Z</time>
      </trkpt>
      <trkpt lat="45.80581077374518" lon="4.661400318145752">
        <ele>381.99</ele>
        <time>2024-08-13T07:02:22.247Z</time>
      </trkpt>
      <trkpt lat="45.80584296025336" lon="4.661507606506348">
        <ele>380.7</ele>
        <time>2024-08-13T07:02:24.781Z</time>
      </trkpt>
      <trkpt lat="45.806089639663696" lon="4.66244101524353">
        <ele>379.41</ele>
        <time>2024-08-13T07:02:27.326Z</time>
      </trkpt>
      <trkpt lat="45.80612190999091" lon="4.662580490112305">
        <ele>378.31</ele>
        <time>2024-08-13T07:02:29.872Z</time>
      </trkpt>
      <trkpt lat="45.806121826171875" lon="4.662580490112305">
        <ele>377.26</ele>
        <time>2024-08-13T07:02:32.418Z</time>
      </trkpt>
      <trkpt lat="45.80646514892578" lon="4.66394305229187">
        <ele>375.59</ele>
        <time>2024-08-13T07:02:34.981Z</time>
      </trkpt>
      <trkpt lat="45.80657252110541" lon="4.6643078327178955">
        <ele>374.74</ele>
        <time>2024-08-13T07:02:37.548Z</time>
      </trkpt>
      <trkpt lat="45.80657243728638" lon="4.6643078327178955">
        <ele>374.08</ele>
        <time>2024-08-13T07:02:40.115Z</time>
      </trkpt>
      <trkpt lat="45.80656170845032" lon="4.664479494094849">
        <ele>373.55</ele>
        <time>2024-08-13T07:02:42.684Z</time>
      </trkpt>
      <trkpt lat="45.80650806427002" lon="4.664586782455444">
        <ele>373.21</ele>
        <time>2024-08-13T07:02:45.255Z</time>
      </trkpt>
      <trkpt lat="45.806433046236634" lon="4.664597511291504">
        <ele>373.08</ele>
        <time>2024-08-13T07:02:47.827Z</time>
      </trkpt>
      <trkpt lat="45.80629348754883" lon="4.664618968963623">
        <ele>373.18</ele>
        <time>2024-08-13T07:02:50.401Z</time>
      </trkpt>
      <trkpt lat="45.80523133277893" lon="4.664618968963623">
        <ele>373.89</ele>
        <time>2024-08-13T07:02:52.992Z</time>
      </trkpt>
      <trkpt lat="45.80468416213989" lon="4.664361476898193">
        <ele>374.47</ele>
        <time>2024-08-13T07:02:55.592Z</time>
      </trkpt>
      <trkpt lat="45.804126262664795" lon="4.664061069488525">
        <ele>375.01</ele>
        <time>2024-08-13T07:02:58.202Z</time>
      </trkpt>
      <trkpt lat="45.80405124463141" lon="4.663975238800049">
        <ele>375.75</ele>
        <time>2024-08-13T07:03:00.813Z</time>
      </trkpt>
      <trkpt lat="45.80398678779602" lon="4.663900136947632">
        <ele>376.66</ele>
        <time>2024-08-13T07:03:03.426Z</time>
      </trkpt>
      <trkpt lat="45.803868770599365" lon="4.66370701789856">
        <ele>377.75</ele>
        <time>2024-08-13T07:03:06.041Z</time>
      </trkpt>
      <trkpt lat="45.80380439758301" lon="4.663481712341309">
        <ele>379.05</ele>
        <time>2024-08-13T07:03:08.659Z</time>
      </trkpt>
      <trkpt lat="45.80375075340271" lon="4.663256406784058">
        <ele>380.54</ele>
        <time>2024-08-13T07:03:11.280Z</time>
      </trkpt>
      <trkpt lat="45.80372929573059" lon="4.663041830062866">
        <ele>382.21</ele>
        <time>2024-08-13T07:03:13.903Z</time>
      </trkpt>
      <trkpt lat="45.80369710922241" lon="4.662548303604126">
        <ele>384.05</ele>
        <time>2024-08-13T07:03:16.532Z</time>
      </trkpt>
      <trkpt lat="45.803589820861816" lon="4.662215709686279">
        <ele>386.04</ele>
        <time>2024-08-13T07:03:19.165Z</time>
      </trkpt>
      <trkpt lat="45.80343961715698" lon="4.661904573440552">
        <ele>388.24</ele>
        <time>2024-08-13T07:03:21.802Z</time>
      </trkpt>
      <trkpt lat="45.80326795578003" lon="4.661614894866943">
        <ele>390.5</ele>
        <time>2024-08-13T07:03:24.443Z</time>
      </trkpt>
      <trkpt lat="45.80304265022278" lon="4.6613359451293945">
        <ele>392.74</ele>
        <time>2024-08-13T07:03:27.089Z</time>
      </trkpt>
      <trkpt lat="45.80282807350159" lon="4.661099910736084">
        <ele>394.99</ele>
        <time>2024-08-13T07:03:29.740Z</time>
      </trkpt>
      <trkpt lat="45.80246329307556" lon="4.660767316818237">
        <ele>397.1</ele>
        <time>2024-08-13T07:03:32.397Z</time>
      </trkpt>
      <trkpt lat="45.802366733551025" lon="4.660627841949463">
        <ele>399.22</ele>
        <time>2024-08-13T07:03:35.057Z</time>
      </trkpt>
      <trkpt lat="45.8020555973053" lon="4.659919738769531">
        <ele>401.87</ele>
        <time>2024-08-13T07:03:37.726Z</time>
      </trkpt>
      <trkpt lat="45.8019483089447" lon="4.6597373485565186">
        <ele>404.04</ele>
        <time>2024-08-13T07:03:40.398Z</time>
      </trkpt>
      <trkpt lat="45.80180883407593" lon="4.659640789031982">
        <ele>405.99</ele>
        <time>2024-08-13T07:03:43.072Z</time>
      </trkpt>
      <trkpt lat="45.80169081687927" lon="4.659608602523804">
        <ele>407.78</ele>
        <time>2024-08-13T07:03:45.748Z</time>
      </trkpt>
      <trkpt lat="45.8015513420105" lon="4.659640789031982">
        <ele>409.45</ele>
        <time>2024-08-13T07:03:48.426Z</time>
      </trkpt>
      <trkpt lat="45.80147624015808" lon="4.659715890884399">
        <ele>411.13</ele>
        <time>2024-08-13T07:03:51.106Z</time>
      </trkpt>
      <trkpt lat="45.801401138305664" lon="4.659823179244995">
        <ele>412.82</ele>
        <time>2024-08-13T07:03:53.788Z</time>
      </trkpt>
      <trkpt lat="45.80121874809265" lon="4.660241603851318">
        <ele>414.5</ele>
        <time>2024-08-13T07:03:56.475Z</time>
      </trkpt>
      <trkpt lat="45.80102562904358" lon="4.6605634689331055">
        <ele>416.22</ele>
        <time>2024-08-13T07:03:59.167Z</time>
      </trkpt>
      <trkpt lat="45.80058574676514" lon="4.660842418670654">
        <ele>418.24</ele>
        <time>2024-08-13T07:04:01.866Z</time>
      </trkpt>
      <trkpt lat="45.80029606819153" lon="4.660906791687012">
        <ele>419.92</ele>
        <time>2024-08-13T07:04:04.570Z</time>
      </trkpt>
      <trkpt lat="45.80004930496216" lon="4.660756587982178">
        <ele>421.5</ele>
        <time>2024-08-13T07:04:07.278Z</time>
      </trkpt>
      <trkpt lat="45.799641609191895" lon="4.660423994064331">
        <ele>422.92</ele>
        <time>2024-08-13T07:04:09.994Z</time>
      </trkpt>
      <trkpt lat="45.79950213432312" lon="4.6604132652282715">
        <ele>424.13</ele>
        <time>2024-08-13T07:04:12.712Z</time>
      </trkpt>
      <trkpt lat="45.79950221814215" lon="4.6604132652282715">
        <ele>425.21</ele>
        <time>2024-08-13T07:04:15.430Z</time>
      </trkpt>
      <trkpt lat="45.799405574798584" lon="4.660509824752808">
        <ele>426.26</ele>
        <time>2024-08-13T07:04:18.150Z</time>
      </trkpt>
      <trkpt lat="45.79925537109375" lon="4.6611106395721436">
        <ele>427.11</ele>
        <time>2024-08-13T07:04:20.877Z</time>
      </trkpt>
      <trkpt lat="45.7992232684046" lon="4.661142826080322">
        <ele>428.03</ele>
        <time>2024-08-13T07:04:23.605Z</time>
      </trkpt>
      <trkpt lat="45.79904079437256" lon="4.661378860473633">
        <ele>428.96</ele>
        <time>2024-08-13T07:04:26.337Z</time>
      </trkpt>
      <trkpt lat="45.79856872558594" lon="4.661743640899658">
        <ele>430.12</ele>
        <time>2024-08-13T07:04:29.077Z</time>
      </trkpt>
      <trkpt lat="45.79832196235657" lon="4.661968946456909">
        <ele>430.87</ele>
        <time>2024-08-13T07:04:31.822Z</time>
      </trkpt>
      <trkpt lat="45.7979679107666" lon="4.662365913391113">
        <ele>431.53</ele>
        <time>2024-08-13T07:04:34.574Z</time>
      </trkpt>
      <trkpt lat="45.79784997738898" lon="4.6625590324401855">
        <ele>432.12</ele>
        <time>2024-08-13T07:04:37.329Z</time>
      </trkpt>
      <trkpt lat="45.797603130340576" lon="4.663074016571045">
        <ele>432.4</ele>
        <time>2024-08-13T07:04:40.091Z</time>
      </trkpt>
      <trkpt lat="45.79743146896362" lon="4.6633851528167725">
        <ele>432.61</ele>
        <time>2024-08-13T07:04:42.858Z</time>
      </trkpt>
      <trkpt lat="45.79728126525879" lon="4.663470983505249">
        <ele>433.22</ele>
        <time>2024-08-13T07:04:45.627Z</time>
      </trkpt>
      <trkpt lat="45.797141790390015" lon="4.6634602546691895">
        <ele>433.94</ele>
        <time>2024-08-13T07:04:48.398Z</time>
      </trkpt>
      <trkpt lat="45.79692721366882" lon="4.6633100509643555">
        <ele>434.88</ele>
        <time>2024-08-13T07:04:51.173Z</time>
      </trkpt>
      <trkpt lat="45.79669117927551" lon="4.663245677947998">
        <ele>435.82</ele>
        <time>2024-08-13T07:04:53.952Z</time>
      </trkpt>
      <trkpt lat="45.79653024673462" lon="4.663331508636475">
        <ele>436.6</ele>
        <time>2024-08-13T07:04:56.734Z</time>
      </trkpt>
      <trkpt lat="45.7964551448822" lon="4.663492441177368">
        <ele>437.32</ele>
        <time>2024-08-13T07:04:59.518Z</time>
      </trkpt>
      <trkpt lat="45.796412229537964" lon="4.664114713668823">
        <ele>438.12</ele>
        <time>2024-08-13T07:05:02.309Z</time>
      </trkpt>
      <trkpt lat="45.79630494117737" lon="4.664543867111206">
        <ele>439.02</ele>
        <time>2024-08-13T07:05:05.105Z</time>
      </trkpt>
      <trkpt lat="45.796122550964355" lon="4.664865732192993">
        <ele>440.28</ele>
        <time>2024-08-13T07:05:07.906Z</time>
      </trkpt>
      <trkpt lat="45.79578995704651" lon="4.665144681930542">
        <ele>441.92</ele>
        <time>2024-08-13T07:05:10.713Z</time>
      </trkpt>
      <trkpt lat="45.79579004086554" lon="4.665144681930542">
        <ele>443.22</ele>
        <time>2024-08-13T07:05:13.520Z</time>
      </trkpt>
      <trkpt lat="45.79559683799744" lon="4.665294885635376">
        <ele>444.74</ele>
        <time>2024-08-13T07:05:16.330Z</time>
      </trkpt>
      <trkpt lat="45.79518914222717" lon="4.665327072143555">
        <ele>446.54</ele>
        <time>2024-08-13T07:05:19.147Z</time>
      </trkpt>
      <trkpt lat="45.79495310783386" lon="4.665616750717163">
        <ele>447.56</ele>
        <time>2024-08-13T07:05:21.969Z</time>
      </trkpt>
      <trkpt lat="45.794953191652894" lon="4.665616750717163">
        <ele>447.99</ele>
        <time>2024-08-13T07:05:24.791Z</time>
      </trkpt>
      <trkpt lat="45.79471707344055" lon="4.6660566329956055">
        <ele>448.37</ele>
        <time>2024-08-13T07:05:27.619Z</time>
      </trkpt>
      <trkpt lat="45.79459914006293" lon="4.666550159454346">
        <ele>448.0</ele>
        <time>2024-08-13T07:05:30.453Z</time>
      </trkpt>
      <trkpt lat="45.79457759857178" lon="4.667172431945801">
        <ele>447.84</ele>
        <time>2024-08-13T07:05:33.294Z</time>
      </trkpt>
      <trkpt lat="45.7945454120636" lon="4.667365550994873">
        <ele>448.34</ele>
        <time>2024-08-13T07:05:36.137Z</time>
      </trkpt>
      <trkpt lat="45.79450249671936" lon="4.667526483535767">
        <ele>448.98</ele>
        <time>2024-08-13T07:05:38.982Z</time>
      </trkpt>
      <trkpt lat="45.79444885253906" lon="4.667633771896362">
        <ele>449.77</ele>
        <time>2024-08-13T07:05:41.829Z</time>
      </trkpt>
      <trkpt lat="45.79434156417847" lon="4.667537212371826">
        <ele>450.81</ele>
        <time>2024-08-13T07:05:44.678Z</time>
      </trkpt>
      <trkpt lat="45.794216422364116" lon="4.667494045570493">
        <ele>451.64</ele>
        <time>2024-08-13T07:05:47.529Z</time>
      </trkpt>
      <trkpt lat="45.79434156417847" lon="4.667537212371826">
        <ele>451.3</ele>
        <time>2024-08-13T07:05:50.382Z</time>
      </trkpt>
      <trkpt lat="45.79444885253906" lon="4.667633771896362">
        <ele>450.45</ele>
        <time>2024-08-13T07:05:53.237Z</time>
      </trkpt>
      <trkpt lat="45.794384479522705" lon="4.66769814491272">
        <ele>450.11</ele>
        <time>2024-08-13T07:05:56.093Z</time>
      </trkpt>
      <trkpt lat="45.79428791999817" lon="4.667773246765137">
        <ele>449.86</ele>
        <time>2024-08-13T07:05:58.951Z</time>
      </trkpt>
      <trkpt lat="45.793912410736084" lon="4.667923450469971">
        <ele>449.73</ele>
        <time>2024-08-13T07:06:01.815Z</time>
      </trkpt>
      <trkpt lat="45.79371929168701" lon="4.667923450469971">
        <ele>449.58</ele>
        <time>2024-08-13T07:06:04.682Z</time>
      </trkpt>
      <trkpt lat="45.793536901474" lon="4.667891263961792">
        <ele>449.37</ele>
        <time>2024-08-13T07:06:07.552Z</time>
      </trkpt>
      <trkpt lat="45.793375968933105" lon="4.667816162109375">
        <ele>449.19</ele>
        <time>2024-08-13T07:06:10.425Z</time>
      </trkpt>
      <trkpt lat="45.793107748031616" lon="4.667633771896362">
        <ele>449.13</ele>
        <time>2024-08-13T07:06:13.303Z</time>
      </trkpt>
      <trkpt lat="45.79296827316284" lon="4.667590856552124">
        <ele>448.92</ele>
        <time>2024-08-13T07:06:16.183Z</time>
      </trkpt>
      <trkpt lat="45.792860984802246" lon="4.667612314224243">
        <ele>448.53</ele>
        <time>2024-08-13T07:06:19.065Z</time>
      </trkpt>
      <trkpt lat="45.79280734062195" lon="4.667676687240601">
        <ele>448.01</ele>
        <time>2024-08-13T07:06:21.948Z</time>
      </trkpt>
      <trkpt lat="45.79275369644165" lon="4.667773246765137">
        <ele>447.35</ele>
        <time>2024-08-13T07:06:24.832Z</time>
      </trkpt>
      <trkpt lat="45.79271078109741" lon="4.667901992797852">
        <ele>446.62</ele>
        <time>2024-08-13T07:06:27.718Z</time>
      </trkpt>
      <trkpt lat="45.792646491900086" lon="4.668320417404175">
        <ele>445.55</ele>
        <time>2024-08-13T07:06:30.608Z</time>
      </trkpt>
      <trkpt lat="45.79254984855652" lon="4.6689534187316895">
        <ele>443.51</ele>
        <time>2024-08-13T07:06:33.506Z</time>
      </trkpt>
      <trkpt lat="45.79248547554016" lon="4.669125080108643">
        <ele>442.03</ele>
        <time>2024-08-13T07:06:36.406Z</time>
      </trkpt>
      <trkpt lat="45.792410373687744" lon="4.669232368469238">
        <ele>440.53</ele>
        <time>2024-08-13T07:06:39.308Z</time>
      </trkpt>
      <trkpt lat="45.79227089881897" lon="4.6693503856658936">
        <ele>439.16</ele>
        <time>2024-08-13T07:06:42.212Z</time>
      </trkpt>
      <trkpt lat="45.792120695114136" lon="4.669479131698608">
        <ele>437.99</ele>
        <time>2024-08-13T07:06:45.119Z</time>
      </trkpt>
      <trkpt lat="45.791916931048036" lon="4.669586420059204">
        <ele>437.01</ele>
        <time>2024-08-13T07:06:48.029Z</time>
      </trkpt>
      <trkpt lat="45.79172372817993" lon="4.669661521911621">
        <ele>436.14</ele>
        <time>2024-08-13T07:06:50.943Z</time>
      </trkpt>
      <trkpt lat="45.79149842262268" lon="4.669704437255859">
        <ele>435.35</ele>
        <time>2024-08-13T07:06:53.860Z</time>
      </trkpt>
      <trkpt lat="45.79126238822937" lon="4.669704437255859">
        <ele>434.57</ele>
        <time>2024-08-13T07:06:56.781Z</time>
      </trkpt>
      <trkpt lat="45.791144371032715" lon="4.669672250747681">
        <ele>433.98</ele>
        <time>2024-08-13T07:06:59.704Z</time>
      </trkpt>
      <trkpt lat="45.79099416732788" lon="4.669554233551025">
        <ele>433.57</ele>
        <time>2024-08-13T07:07:02.630Z</time>
      </trkpt>
      <trkpt lat="45.79058647155762" lon="4.669092893600464">
        <ele>433.31</ele>
        <time>2024-08-13T07:07:05.564Z</time>
      </trkpt>
      <trkpt lat="45.79010367393494" lon="4.668459892272949">
        <ele>433.37</ele>
        <time>2024-08-13T07:07:08.509Z</time>
      </trkpt>
      <trkpt lat="45.78997492790222" lon="4.668395519256592">
        <ele>433.17</ele>
        <time>2024-08-13T07:07:11.456Z</time>
      </trkpt>
      <trkpt lat="45.78982472419739" lon="4.668395519256592">
        <ele>432.8</ele>
        <time>2024-08-13T07:07:14.405Z</time>
      </trkpt>
      <trkpt lat="45.78972816467285" lon="4.668459892272949">
        <ele>432.34</ele>
        <time>2024-08-13T07:07:17.356Z</time>
      </trkpt>
      <trkpt lat="45.789653062820435" lon="4.668556451797485">
        <ele>431.74</ele>
        <time>2024-08-13T07:07:20.308Z</time>
      </trkpt>
      <trkpt lat="45.78948140144348" lon="4.6689534187316895">
        <ele>430.7</ele>
        <time>2024-08-13T07:07:23.266Z</time>
      </trkpt>
      <trkpt lat="45.789395570755005" lon="4.669071435928345">
        <ele>429.94</ele>
        <time>2024-08-13T07:07:26.226Z</time>
      </trkpt>
      <trkpt lat="45.78928828239441" lon="4.669167995452881">
        <ele>429.17</ele>
        <time>2024-08-13T07:07:29.188Z</time>
      </trkpt>
      <trkpt lat="45.78906297683716" lon="4.669264554977417">
        <ele>428.45</ele>
        <time>2024-08-13T07:07:32.153Z</time>
      </trkpt>
      <trkpt lat="45.788912773132324" lon="4.669253826141357">
        <ele>427.61</ele>
        <time>2024-08-13T07:07:35.121Z</time>
      </trkpt>
      <trkpt lat="45.788912856951356" lon="4.669253826141357">
        <ele>426.74</ele>
        <time>2024-08-13T07:07:38.089Z</time>
      </trkpt>
      <trkpt lat="45.78877329826355" lon="4.669157266616821">
        <ele>425.69</ele>
        <time>2024-08-13T07:07:41.059Z</time>
      </trkpt>
      <trkpt lat="45.7885479927063" lon="4.668921232223511">
        <ele>424.47</ele>
        <time>2024-08-13T07:07:44.034Z</time>
      </trkpt>
      <trkpt lat="45.78832268714905" lon="4.668620824813843">
        <ele>423.14</ele>
        <time>2024-08-13T07:07:47.014Z</time>
      </trkpt>
      <trkpt lat="45.7880437374115" lon="4.6681809425354">
        <ele>422.04</ele>
        <time>2024-08-13T07:07:50.000Z</time>
      </trkpt>
      <trkpt lat="45.78775405883789" lon="4.667665958404541">
        <ele>420.98</ele>
        <time>2024-08-13T07:07:52.994Z</time>
      </trkpt>
      <trkpt lat="45.78760385513306" lon="4.667547941207886">
        <ele>419.84</ele>
        <time>2024-08-13T07:07:55.990Z</time>
      </trkpt>
      <trkpt lat="45.787400007247925" lon="4.6675050258636475">
        <ele>418.73</ele>
        <time>2024-08-13T07:07:58.990Z</time>
      </trkpt>
      <trkpt lat="45.78727126121521" lon="4.667537212371826">
        <ele>417.57</ele>
        <time>2024-08-13T07:08:01.992Z</time>
      </trkpt>
      <trkpt lat="45.787142515182495" lon="4.667601585388184">
        <ele>416.36</ele>
        <time>2024-08-13T07:08:04.996Z</time>
      </trkpt>
      <trkpt lat="45.78708895482123" lon="4.6676552295684814">
        <ele>415.16</ele>
        <time>2024-08-13T07:08:08.001Z</time>
      </trkpt>
      <trkpt lat="45.78684210777283" lon="4.667891263961792">
        <ele>413.75</ele>
        <time>2024-08-13T07:08:11.011Z</time>
      </trkpt>
      <trkpt lat="45.78654170036316" lon="4.668148756027222">
        <ele>412.35</ele>
        <time>2024-08-13T07:08:14.026Z</time>
      </trkpt>
      <trkpt lat="45.786402225494385" lon="4.66819167137146">
        <ele>411.15</ele>
        <time>2024-08-13T07:08:17.044Z</time>
      </trkpt>
      <trkpt lat="45.78626275062561" lon="4.6682024002075195">
        <ele>410.01</ele>
        <time>2024-08-13T07:08:20.064Z</time>
      </trkpt>
      <trkpt lat="45.786134004592896" lon="4.668159484863281">
        <ele>408.89</ele>
        <time>2024-08-13T07:08:23.086Z</time>
      </trkpt>
      <trkpt lat="45.78600525856018" lon="4.668084383010864">
        <ele>407.78</ele>
        <time>2024-08-13T07:08:26.110Z</time>
      </trkpt>
      <trkpt lat="45.78600534237921" lon="4.668084383010864">
        <ele>406.8</ele>
        <time>2024-08-13T07:08:29.134Z</time>
      </trkpt>
      <trkpt lat="45.78581213951111" lon="4.667515754699707">
        <ele>405.78</ele>
        <time>2024-08-13T07:08:32.165Z</time>
      </trkpt>
      <trkpt lat="45.78555473126471" lon="4.66644287109375">
        <ele>404.74</ele>
        <time>2024-08-13T07:08:35.209Z</time>
      </trkpt>
      <trkpt lat="45.78530788421631" lon="4.665648937225342">
        <ele>403.51</ele>
        <time>2024-08-13T07:08:38.263Z</time>
      </trkpt>
      <trkpt lat="45.78523278236389" lon="4.665123224258423">
        <ele>402.83</ele>
        <time>2024-08-13T07:08:41.323Z</time>
      </trkpt>
      <trkpt lat="45.785168409347534" lon="4.6645331382751465">
        <ele>402.5</ele>
        <time>2024-08-13T07:08:44.389Z</time>
      </trkpt>
      <trkpt lat="45.785114765167236" lon="4.664361476898193">
        <ele>402.25</ele>
        <time>2024-08-13T07:08:47.458Z</time>
      </trkpt>
      <trkpt lat="45.78505039215088" lon="4.664329290390015">
        <ele>402.05</ele>
        <time>2024-08-13T07:08:50.528Z</time>
      </trkpt>
      <trkpt lat="45.78500747680664" lon="4.664329290390015">
        <ele>401.94</ele>
        <time>2024-08-13T07:08:53.598Z</time>
      </trkpt>
      <trkpt lat="45.784932374954224" lon="4.6643829345703125">
        <ele>401.94</ele>
        <time>2024-08-13T07:08:56.670Z</time>
      </trkpt>
      <trkpt lat="45.784159898757935" lon="4.665112495422363">
        <ele>402.06</ele>
        <time>2024-08-13T07:08:59.757Z</time>
      </trkpt>
      <trkpt lat="45.78380584716797" lon="4.665541648864746">
        <ele>402.66</ele>
        <time>2024-08-13T07:09:02.851Z</time>
      </trkpt>
      <trkpt lat="45.78326948918402" lon="4.666517972946167">
        <ele>402.85</ele>
        <time>2024-08-13T07:09:05.959Z</time>
      </trkpt>
      <trkpt lat="45.78315147198737" lon="4.666625261306763">
        <ele>403.35</ele>
        <time>2024-08-13T07:09:09.069Z</time>
      </trkpt>
      <trkpt lat="45.782947624102235" lon="4.6666789054870605">
        <ele>403.82</ele>
        <time>2024-08-13T07:09:12.182Z</time>
      </trkpt>
      <trkpt lat="45.78272223472595" lon="4.666721820831299">
        <ele>404.32</ele>
        <time>2024-08-13T07:09:15.299Z</time>
      </trkpt>
      <trkpt lat="45.782647132873535" lon="4.666668176651001">
        <ele>405.12</ele>
        <time>2024-08-13T07:09:18.417Z</time>
      </trkpt>
      <trkpt lat="45.78257203102112" lon="4.666560888290405">
        <ele>406.1</ele>
        <time>2024-08-13T07:09:21.537Z</time>
      </trkpt>
      <trkpt lat="45.782185792922974" lon="4.6658313274383545">
        <ele>407.44</ele>
        <time>2024-08-13T07:09:24.667Z</time>
      </trkpt>
      <trkpt lat="45.78206777572632" lon="4.66570258140564">
        <ele>408.71</ele>
        <time>2024-08-13T07:09:27.800Z</time>
      </trkpt>
      <trkpt lat="45.78198194503784" lon="4.665638208389282">
        <ele>410.15</ele>
        <time>2024-08-13T07:09:30.934Z</time>
      </trkpt>
      <trkpt lat="45.781928384676576" lon="4.665638208389282">
        <ele>411.7</ele>
        <time>2024-08-13T07:09:34.069Z</time>
      </trkpt>
      <trkpt lat="45.78177818097174" lon="4.665734767913818">
        <ele>413.48</ele>
        <time>2024-08-13T07:09:37.207Z</time>
      </trkpt>
      <trkpt lat="45.781649351119995" lon="4.666002988815308">
        <ele>415.29</ele>
        <time>2024-08-13T07:09:40.348Z</time>
      </trkpt>
      <trkpt lat="45.7814884185791" lon="4.666721820831299">
        <ele>417.4</ele>
        <time>2024-08-13T07:09:43.498Z</time>
      </trkpt>
      <trkpt lat="45.781370401382446" lon="4.667848348617554">
        <ele>419.13</ele>
        <time>2024-08-13T07:09:46.661Z</time>
      </trkpt>
      <trkpt lat="45.78128457069397" lon="4.6682024002075195">
        <ele>420.85</ele>
        <time>2024-08-13T07:09:49.828Z</time>
      </trkpt>
      <trkpt lat="45.7810914516449" lon="4.6685028076171875">
        <ele>422.44</ele>
        <time>2024-08-13T07:09:52.999Z</time>
      </trkpt>
      <trkpt lat="45.78080177307129" lon="4.668738842010498">
        <ele>423.92</ele>
        <time>2024-08-13T07:09:56.176Z</time>
      </trkpt>
      <trkpt lat="45.78054428100586" lon="4.668706655502319">
        <ele>425.52</ele>
        <time>2024-08-13T07:09:59.357Z</time>
      </trkpt>
      <trkpt lat="45.77950358390808" lon="4.668384790420532">
        <ele>427.27</ele>
        <time>2024-08-13T07:10:02.555Z</time>
      </trkpt>
      <trkpt lat="45.77885985374451" lon="4.668395519256592">
        <ele>428.94</ele>
        <time>2024-08-13T07:10:05.763Z</time>
      </trkpt>
      <trkpt lat="45.77807664871216" lon="4.6685779094696045">
        <ele>430.72</ele>
        <time>2024-08-13T07:10:08.984Z</time>
      </trkpt>
      <trkpt lat="45.77802308835089" lon="4.668556451797485">
        <ele>432.11</ele>
        <time>2024-08-13T07:10:12.206Z</time>
      </trkpt>
      <trkpt lat="45.777926445007324" lon="4.668320417404175">
        <ele>433.51</ele>
        <time>2024-08-13T07:10:15.431Z</time>
      </trkpt>
      <trkpt lat="45.77786207199097" lon="4.668148756027222">
        <ele>434.77</ele>
        <time>2024-08-13T07:10:18.658Z</time>
      </trkpt>
      <trkpt lat="45.77746510505676" lon="4.667140245437622">
        <ele>436.13</ele>
        <time>2024-08-13T07:10:21.898Z</time>
      </trkpt>
      <trkpt lat="45.776907205581665" lon="4.665144681930542">
        <ele>437.16</ele>
        <time>2024-08-13T07:10:25.162Z</time>
      </trkpt>
      <trkpt lat="45.7769072894007" lon="4.665144681930542">
        <ele>437.97</ele>
        <time>2024-08-13T07:10:28.426Z</time>
      </trkpt>
      <trkpt lat="45.776885747909546" lon="4.665058851242065">
        <ele>438.65</ele>
        <time>2024-08-13T07:10:31.691Z</time>
      </trkpt>
      <trkpt lat="45.77676773071289" lon="4.664479494094849">
        <ele>438.89</ele>
        <time>2024-08-13T07:10:34.963Z</time>
      </trkpt>
      <trkpt lat="45.77673554420471" lon="4.664061069488525">
        <ele>439.21</ele>
        <time>2024-08-13T07:10:38.240Z</time>
      </trkpt>
      <trkpt lat="45.77678918838501" lon="4.663277864456177">
        <ele>439.56</ele>
        <time>2024-08-13T07:10:41.525Z</time>
      </trkpt>
      <trkpt lat="45.77676773071289" lon="4.662977457046509">
        <ele>439.86</ele>
        <time>2024-08-13T07:10:44.814Z</time>
      </trkpt>
      <trkpt lat="45.776671171188354" lon="4.662816524505615">
        <ele>439.93</ele>
        <time>2024-08-13T07:10:48.105Z</time>
      </trkpt>
      <trkpt lat="45.776435136795044" lon="4.662730693817139">
        <ele>439.81</ele>
        <time>2024-08-13T07:10:51.400Z</time>
      </trkpt>
      <trkpt lat="45.775941610336304" lon="4.6627843379974365">
        <ele>439.82</ele>
        <time>2024-08-13T07:10:54.703Z</time>
      </trkpt>
      <trkpt lat="45.77555545605719" lon="4.66295599937439">
        <ele>439.18</ele>
        <time>2024-08-13T07:10:58.012Z</time>
      </trkpt>
      <trkpt lat="45.775179862976074" lon="4.663127660751343">
        <ele>438.35</ele>
        <time>2024-08-13T07:11:01.328Z</time>
      </trkpt>
      <trkpt lat="45.774911642074585" lon="4.663116931915283">
        <ele>437.63</ele>
        <time>2024-08-13T07:11:04.648Z</time>
      </trkpt>
      <trkpt lat="45.774643421173096" lon="4.662988185882568">
        <ele>436.72</ele>
        <time>2024-08-13T07:11:07.973Z</time>
      </trkpt>
      <trkpt lat="45.774375200271606" lon="4.662773609161377">
        <ele>435.52</ele>
        <time>2024-08-13T07:11:11.302Z</time>
      </trkpt>
      <trkpt lat="45.774160623550415" lon="4.662494659423828">
        <ele>434.26</ele>
        <time>2024-08-13T07:11:14.636Z</time>
      </trkpt>
      <trkpt lat="45.773946046829224" lon="4.6619367599487305">
        <ele>433.1</ele>
        <time>2024-08-13T07:11:17.977Z</time>
      </trkpt>
      <trkpt lat="45.77381730079651" lon="4.6614110469818115">
        <ele>431.82</ele>
        <time>2024-08-13T07:11:21.324Z</time>
      </trkpt>
      <trkpt lat="45.77381738461554" lon="4.6614110469818115">
        <ele>430.46</ele>
        <time>2024-08-13T07:11:24.671Z</time>
      </trkpt>
      <trkpt lat="45.7735276222229" lon="4.660316705703735">
        <ele>428.64</ele>
        <time>2024-08-13T07:11:28.032Z</time>
      </trkpt>
      <trkpt lat="45.773441791534424" lon="4.659973382949829">
        <ele>427.28</ele>
        <time>2024-08-13T07:11:31.397Z</time>
      </trkpt>
      <trkpt lat="45.773420333862305" lon="4.65995192527771">
        <ele>425.78</ele>
        <time>2024-08-13T07:11:34.762Z</time>
      </trkpt>
      <trkpt lat="45.773420417681336" lon="4.65995192527771">
        <ele>424.24</ele>
        <time>2024-08-13T07:11:38.127Z</time>
      </trkpt>
      <trkpt lat="45.77332377433777" lon="4.659769535064697">
        <ele>422.72</ele>
        <time>2024-08-13T07:11:41.495Z</time>
      </trkpt>
      <trkpt lat="45.77311992645264" lon="4.65970516204834">
        <ele>421.11</ele>
        <time>2024-08-13T07:11:44.866Z</time>
      </trkpt>
      <trkpt lat="45.77221870422363" lon="4.660069942474365">
        <ele>418.95</ele>
        <time>2024-08-13T07:11:48.252Z</time>
      </trkpt>
      <trkpt lat="45.772132873535156" lon="4.660080671310425">
        <ele>417.35</ele>
        <time>2024-08-13T07:11:51.639Z</time>
      </trkpt>
      <trkpt lat="45.77203631401062" lon="4.660027027130127">
        <ele>415.83</ele>
        <time>2024-08-13T07:11:55.028Z</time>
      </trkpt>
      <trkpt lat="45.77197194099426" lon="4.65994119644165">
        <ele>414.36</ele>
        <time>2024-08-13T07:11:58.418Z</time>
      </trkpt>
      <trkpt lat="45.77173590660095" lon="4.659522771835327">
        <ele>412.88</ele>
        <time>2024-08-13T07:12:01.814Z</time>
      </trkpt>
      <trkpt lat="45.77155351638794" lon="4.659050703048706">
        <ele>411.71</ele>
        <time>2024-08-13T07:12:05.217Z</time>
      </trkpt>
      <trkpt lat="45.77146768569946" lon="4.6587395668029785">
        <ele>410.59</ele>
        <time>2024-08-13T07:12:08.623Z</time>
      </trkpt>
      <trkpt lat="45.77134966850281" lon="4.658117294311523">
        <ele>409.47</ele>
        <time>2024-08-13T07:12:12.036Z</time>
      </trkpt>
      <trkpt lat="45.77131748199463" lon="4.658031463623047">
        <ele>408.68</ele>
        <time>2024-08-13T07:12:15.451Z</time>
      </trkpt>
      <trkpt lat="45.77126383781433" lon="4.6579670906066895">
        <ele>408.02</ele>
        <time>2024-08-13T07:12:18.867Z</time>
      </trkpt>
      <trkpt lat="45.771188735961914" lon="4.657924175262451">
        <ele>407.46</ele>
        <time>2024-08-13T07:12:22.284Z</time>
      </trkpt>
      <trkpt lat="45.77111371792853" lon="4.657902717590332">
        <ele>407.1</ele>
        <time>2024-08-13T07:12:25.702Z</time>
      </trkpt>
      <trkpt lat="45.77104926109314" lon="4.657913446426392">
        <ele>406.83</ele>
        <time>2024-08-13T07:12:29.121Z</time>
      </trkpt>
      <trkpt lat="45.77100642956793" lon="4.65794563293457">
        <ele>406.64</ele>
        <time>2024-08-13T07:12:32.541Z</time>
      </trkpt>
      <trkpt lat="45.77096343040466" lon="4.657988548278809">
        <ele>406.55</ele>
        <time>2024-08-13T07:12:35.962Z</time>
      </trkpt>
      <trkpt lat="45.770909786224365" lon="4.658085107803345">
        <ele>406.56</ele>
        <time>2024-08-13T07:12:39.384Z</time>
      </trkpt>
      <trkpt lat="45.77083468437195" lon="4.658278226852417">
        <ele>406.8</ele>
        <time>2024-08-13T07:12:42.809Z</time>
      </trkpt>
      <trkpt lat="45.77077031135559" lon="4.658621549606323">
        <ele>407.21</ele>
        <time>2024-08-13T07:12:46.238Z</time>
      </trkpt>
      <trkpt lat="45.77072739601135" lon="4.659018516540527">
        <ele>407.87</ele>
        <time>2024-08-13T07:12:49.671Z</time>
      </trkpt>
      <trkpt lat="45.77071666717529" lon="4.6594154834747314">
        <ele>408.79</ele>
        <time>2024-08-13T07:12:53.109Z</time>
      </trkpt>
      <trkpt lat="45.77075958251953" lon="4.660327434539795">
        <ele>409.68</ele>
        <time>2024-08-13T07:12:56.557Z</time>
      </trkpt>
      <trkpt lat="45.77072739601135" lon="4.661056995391846">
        <ele>410.97</ele>
        <time>2024-08-13T07:13:00.013Z</time>
      </trkpt>
      <trkpt lat="45.770684480667114" lon="4.661432504653931">
        <ele>412.17</ele>
        <time>2024-08-13T07:13:03.473Z</time>
      </trkpt>
      <trkpt lat="45.770684564486146" lon="4.661432504653931">
        <ele>413.2</ele>
        <time>2024-08-13T07:13:06.933Z</time>
      </trkpt>
      <trkpt lat="45.77059864997864" lon="4.661732912063599">
        <ele>414.36</ele>
        <time>2024-08-13T07:13:10.397Z</time>
      </trkpt>
      <trkpt lat="45.77049136161804" lon="4.661926031112671">
        <ele>415.61</ele>
        <time>2024-08-13T07:13:13.864Z</time>
      </trkpt>
      <trkpt lat="45.77036261558533" lon="4.662054777145386">
        <ele>416.89</ele>
        <time>2024-08-13T07:13:17.333Z</time>
      </trkpt>
      <trkpt lat="45.77023386955261" lon="4.662172794342041">
        <ele>418.22</ele>
        <time>2024-08-13T07:13:20.805Z</time>
      </trkpt>
      <trkpt lat="45.77004075050354" lon="4.662269353866577">
        <ele>419.59</ele>
        <time>2024-08-13T07:13:24.280Z</time>
      </trkpt>
      <trkpt lat="45.76982617378235" lon="4.662290811538696">
        <ele>420.92</ele>
        <time>2024-08-13T07:13:27.758Z</time>
      </trkpt>
      <trkpt lat="45.76961159706116" lon="4.662237167358398">
        <ele>422.16</ele>
        <time>2024-08-13T07:13:31.240Z</time>
      </trkpt>
      <trkpt lat="45.769397020339966" lon="4.662065505981445">
        <ele>423.48</ele>
        <time>2024-08-13T07:13:34.726Z</time>
      </trkpt>
      <trkpt lat="45.769139528274536" lon="4.661808013916016">
        <ele>424.89</ele>
        <time>2024-08-13T07:13:38.217Z</time>
      </trkpt>
      <trkpt lat="45.768903493881226" lon="4.66168999671936">
        <ele>426.14</ele>
        <time>2024-08-13T07:13:41.712Z</time>
      </trkpt>
      <trkpt lat="45.76856017112732" lon="4.661754369735718">
        <ele>427.22</ele>
        <time>2024-08-13T07:13:45.212Z</time>
      </trkpt>
      <trkpt lat="45.76846361160278" lon="4.661818742752075">
        <ele>427.51</ele>
        <time>2024-08-13T07:13:48.714Z</time>
      </trkpt>
      <trkpt lat="45.768463695421815" lon="4.661818742752075">
        <ele>427.37</ele>
        <time>2024-08-13T07:13:52.216Z</time>
      </trkpt>
      <trkpt lat="45.768141746520996" lon="4.662044048309326">
        <ele>426.82</ele>
        <time>2024-08-13T07:13:55.724Z</time>
      </trkpt>
      <trkpt lat="45.76761603355408" lon="4.662172794342041">
        <ele>425.72</ele>
        <time>2024-08-13T07:13:59.240Z</time>
      </trkpt>
      <trkpt lat="45.767433643341064" lon="4.662172794342041">
        <ele>425.25</ele>
        <time>2024-08-13T07:14:02.759Z</time>
      </trkpt>
      <trkpt lat="45.76728343963623" lon="4.662054777145386">
        <ele>425.18</ele>
        <time>2024-08-13T07:14:06.281Z</time>
      </trkpt>
      <trkpt lat="45.76683282852173" lon="4.661250114440918">
        <ele>425.44</ele>
        <time>2024-08-13T07:14:09.815Z</time>
      </trkpt>
      <trkpt lat="45.766682624816895" lon="4.6611106395721436">
        <ele>425.37</ele>
        <time>2024-08-13T07:14:13.351Z</time>
      </trkpt>
      <trkpt lat="45.76653828844428" lon="4.661042746156454">
        <ele>425.22</ele>
        <time>2024-08-13T07:14:16.890Z</time>
      </trkpt>
      <trkpt lat="45.76650023460388" lon="4.661024808883667">
        <ele>426.6</ele>
        <time>2024-08-13T07:14:20.430Z</time>
      </trkpt>
      <trkpt lat="45.76628574170172" lon="4.66096043586731">
        <ele>427.09</ele>
        <time>2024-08-13T07:14:23.973Z</time>
      </trkpt>
      <trkpt lat="45.76610326766968" lon="4.66093897819519">
        <ele>427.56</ele>
        <time>2024-08-13T07:14:27.519Z</time>
      </trkpt>
      <trkpt lat="45.765684926882386" lon="4.661099910736084">
        <ele>427.95</ele>
        <time>2024-08-13T07:14:31.072Z</time>
      </trkpt>
      <trkpt lat="45.765438079833984" lon="4.661175012588501">
        <ele>428.63</ele>
        <time>2024-08-13T07:14:34.629Z</time>
      </trkpt>
      <trkpt lat="45.765169858932495" lon="4.661121368408203">
        <ele>429.32</ele>
        <time>2024-08-13T07:14:38.190Z</time>
      </trkpt>
      <trkpt lat="45.76505184173584" lon="4.661056995391846">
        <ele>429.69</ele>
        <time>2024-08-13T07:14:41.753Z</time>
      </trkpt>
      <trkpt lat="45.76501965522766" lon="4.661024808883667">
        <ele>429.76</ele>
        <time>2024-08-13T07:14:45.317Z</time>
      </trkpt>
      <trkpt lat="45.76497673988342" lon="4.66093897819519">
        <ele>429.61</ele>
        <time>2024-08-13T07:14:48.882Z</time>
      </trkpt>
      <trkpt lat="45.764944553375244" lon="4.660745859146118">
        <ele>429.28</ele>
        <time>2024-08-13T07:14:52.449Z</time>
      </trkpt>
      <trkpt lat="45.76457977294922" lon="4.660531282424927">
        <ele>428.67</ele>
        <time>2024-08-13T07:14:56.023Z</time>
      </trkpt>
      <trkpt lat="45.764193534851074" lon="4.660348892211914">
        <ele>428.03</ele>
        <time>2024-08-13T07:14:59.603Z</time>
      </trkpt>
      <trkpt lat="45.76408633030951" lon="4.6603381633758545">
        <ele>426.96</ele>
        <time>2024-08-13T07:15:03.185Z</time>
      </trkpt>
      <trkpt lat="45.76398968696594" lon="4.660359621047974">
        <ele>425.65</ele>
        <time>2024-08-13T07:15:06.768Z</time>
      </trkpt>
      <trkpt lat="45.763442516326904" lon="4.6607136726379395">
        <ele>423.58</ele>
        <time>2024-08-13T07:15:10.361Z</time>
      </trkpt>
      <trkpt lat="45.763142108917236" lon="4.660928249359131">
        <ele>421.6</ele>
        <time>2024-08-13T07:15:13.959Z</time>
      </trkpt>
      <trkpt lat="45.762948989868164" lon="4.661014080047607">
        <ele>419.39</ele>
        <time>2024-08-13T07:15:17.561Z</time>
      </trkpt>
      <trkpt lat="45.76282024383545" lon="4.661046266555786">
        <ele>417.15</ele>
        <time>2024-08-13T07:15:21.165Z</time>
      </trkpt>
      <trkpt lat="45.76282032765448" lon="4.661046266555786">
        <ele>415.13</ele>
        <time>2024-08-13T07:15:24.769Z</time>
      </trkpt>
      <trkpt lat="45.762691497802734" lon="4.661056995391846">
        <ele>412.99</ele>
        <time>2024-08-13T07:15:28.375Z</time>
      </trkpt>
      <trkpt lat="45.762391090393066" lon="4.660971164703369">
        <ele>410.83</ele>
        <time>2024-08-13T07:15:31.986Z</time>
      </trkpt>
      <trkpt lat="45.761919021606445" lon="4.660799503326416">
        <ele>408.56</ele>
        <time>2024-08-13T07:15:35.605Z</time>
      </trkpt>
      <trkpt lat="45.761661529541016" lon="4.660670757293701">
        <ele>406.47</ele>
        <time>2024-08-13T07:15:39.228Z</time>
      </trkpt>
      <trkpt lat="45.76156497001648" lon="4.660595655441284">
        <ele>404.62</ele>
        <time>2024-08-13T07:15:42.853Z</time>
      </trkpt>
      <trkpt lat="45.761479139328" lon="4.660499095916748">
        <ele>402.86</ele>
        <time>2024-08-13T07:15:46.479Z</time>
      </trkpt>
      <trkpt lat="45.76135039329529" lon="4.660284519195557">
        <ele>401.09</ele>
        <time>2024-08-13T07:15:50.109Z</time>
      </trkpt>
      <trkpt lat="45.760942697525024" lon="4.659233093261719">
        <ele>399.18</ele>
        <time>2024-08-13T07:15:53.752Z</time>
      </trkpt>
      <trkpt lat="45.76083540916443" lon="4.659007787704468">
        <ele>397.85</ele>
        <time>2024-08-13T07:15:57.398Z</time>
      </trkpt>
      <trkpt lat="45.760695934295654" lon="4.658846855163574">
        <ele>396.72</ele>
        <time>2024-08-13T07:16:01.047Z</time>
      </trkpt>
      <trkpt lat="45.76056718826294" lon="4.658782482147217">
        <ele>395.77</ele>
        <time>2024-08-13T07:16:04.698Z</time>
      </trkpt>
      <trkpt lat="45.760427713394165" lon="4.658750295639038">
        <ele>394.98</ele>
        <time>2024-08-13T07:16:08.351Z</time>
      </trkpt>
      <trkpt lat="45.76026678085327" lon="4.6587395668029785">
        <ele>394.3</ele>
        <time>2024-08-13T07:16:12.007Z</time>
      </trkpt>
      <trkpt lat="45.76010584831238" lon="4.658793210983276">
        <ele>393.64</ele>
        <time>2024-08-13T07:16:15.666Z</time>
      </trkpt>
      <trkpt lat="45.75998783111572" lon="4.658868312835693">
        <ele>393.01</ele>
        <time>2024-08-13T07:16:19.327Z</time>
      </trkpt>
      <trkpt lat="45.75988054275513" lon="4.659018516540527">
        <ele>392.41</ele>
        <time>2024-08-13T07:16:22.990Z</time>
      </trkpt>
      <trkpt lat="45.75960159301758" lon="4.659597873687744">
        <ele>391.66</ele>
        <time>2024-08-13T07:16:26.661Z</time>
      </trkpt>
      <trkpt lat="45.75947284698486" lon="4.6598124504089355">
        <ele>391.11</ele>
        <time>2024-08-13T07:16:30.335Z</time>
      </trkpt>
      <trkpt lat="45.759397745132446" lon="4.659909009933472">
        <ele>390.5</ele>
        <time>2024-08-13T07:16:34.011Z</time>
      </trkpt>
      <trkpt lat="45.75930118560791" lon="4.660016298294067">
        <ele>390.01</ele>
        <time>2024-08-13T07:16:37.689Z</time>
      </trkpt>
      <trkpt lat="45.75930126942694" lon="4.660016298294067">
        <ele>389.55</ele>
        <time>2024-08-13T07:16:41.367Z</time>
      </trkpt>
      <trkpt lat="45.759236896410584" lon="4.660069942474365">
        <ele>389.11</ele>
        <time>2024-08-13T07:16:45.046Z</time>
      </trkpt>
      <trkpt lat="45.75904369354248" lon="4.660177230834961">
        <ele>388.61</ele>
        <time>2024-08-13T07:16:48.728Z</time>
      </trkpt>
      <trkpt lat="45.75876474380493" lon="4.660284519195557">
        <ele>388.31</ele>
        <time>2024-08-13T07:16:52.415Z</time>
      </trkpt>
      <trkpt lat="45.75807809829712" lon="4.660466909408569">
        <ele>388.16</ele>
        <time>2024-08-13T07:16:56.113Z</time>
      </trkpt>
      <trkpt lat="45.75778841972351" lon="4.660477638244629">
        <ele>387.88</ele>
        <time>2024-08-13T07:16:59.816Z</time>
      </trkpt>
      <trkpt lat="45.75705894269049" lon="4.660348892211914">
        <ele>387.63</ele>
        <time>2024-08-13T07:17:03.530Z</time>
      </trkpt>
      <trkpt lat="45.75662970542908" lon="4.6602630615234375">
        <ele>387.36</ele>
        <time>2024-08-13T07:17:07.251Z</time>
      </trkpt>
      <trkpt lat="45.75572848320007" lon="4.660166501998901">
        <ele>386.55</ele>
        <time>2024-08-13T07:17:10.987Z</time>
      </trkpt>
      <trkpt lat="45.755460262298584" lon="4.660069942474365">
        <ele>386.29</ele>
        <time>2024-08-13T07:17:14.727Z</time>
      </trkpt>
      <trkpt lat="45.75505256652832" lon="4.659844636917114">
        <ele>386.15</ele>
        <time>2024-08-13T07:17:18.474Z</time>
      </trkpt>
      <trkpt lat="45.754966819658875" lon="4.659780263900757">
        <ele>386.25</ele>
        <time>2024-08-13T07:17:22.223Z</time>
      </trkpt>
      <trkpt lat="45.75489171780646" lon="4.659726619720459">
        <ele>386.53</ele>
        <time>2024-08-13T07:17:25.973Z</time>
      </trkpt>
      <trkpt lat="45.7545268535614" lon="4.659404754638672">
        <ele>386.94</ele>
        <time>2024-08-13T07:17:29.730Z</time>
      </trkpt>
      <trkpt lat="45.753250205889344" lon="4.658117294311523">
        <ele>388.04</ele>
        <time>2024-08-13T07:17:33.512Z</time>
      </trkpt>
      <trkpt lat="45.75307846069336" lon="4.65795636177063">
        <ele>388.95</ele>
        <time>2024-08-13T07:17:37.297Z</time>
      </trkpt>
      <trkpt lat="45.75299263000488" lon="4.657913446426392">
        <ele>389.96</ele>
        <time>2024-08-13T07:17:41.084Z</time>
      </trkpt>
      <trkpt lat="45.75289607048035" lon="4.657913446426392">
        <ele>391.12</ele>
        <time>2024-08-13T07:17:44.872Z</time>
      </trkpt>
      <trkpt lat="45.75278878211975" lon="4.65795636177063">
        <ele>392.46</ele>
        <time>2024-08-13T07:17:48.662Z</time>
      </trkpt>
      <trkpt lat="45.75263857841492" lon="4.658149480819702">
        <ele>393.97</ele>
        <time>2024-08-13T07:17:52.455Z</time>
      </trkpt>
      <trkpt lat="45.752402544021606" lon="4.658492803573608">
        <ele>395.43</ele>
        <time>2024-08-13T07:17:56.254Z</time>
      </trkpt>
      <trkpt lat="45.75175881385803" lon="4.659157991409302">
        <ele>396.85</ele>
        <time>2024-08-13T07:18:00.065Z</time>
      </trkpt>
      <trkpt lat="45.751672983169556" lon="4.659383296966553">
        <ele>398.41</ele>
        <time>2024-08-13T07:18:03.879Z</time>
      </trkpt>
      <trkpt lat="45.751662254333496" lon="4.659544229507446">
        <ele>399.9</ele>
        <time>2024-08-13T07:18:07.695Z</time>
      </trkpt>
      <trkpt lat="45.751672983169556" lon="4.65970516204834">
        <ele>401.44</ele>
        <time>2024-08-13T07:18:11.513Z</time>
      </trkpt>
      <trkpt lat="45.75172662734985" lon="4.659909009933472">
        <ele>402.97</ele>
        <time>2024-08-13T07:18:15.333Z</time>
      </trkpt>
      <trkpt lat="45.75181245803833" lon="4.660080671310425">
        <ele>404.45</ele>
        <time>2024-08-13T07:18:19.156Z</time>
      </trkpt>
      <trkpt lat="45.7520055770874" lon="4.6602630615234375">
        <ele>405.85</ele>
        <time>2024-08-13T07:18:22.982Z</time>
      </trkpt>
      <trkpt lat="45.75238108634949" lon="4.660466909408569">
        <ele>407.24</ele>
        <time>2024-08-13T07:18:26.815Z</time>
      </trkpt>
      <trkpt lat="45.75248837471008" lon="4.660584926605225">
        <ele>408.61</ele>
        <time>2024-08-13T07:18:30.650Z</time>
      </trkpt>
      <trkpt lat="45.75257420539856" lon="4.660745859146118">
        <ele>409.91</ele>
        <time>2024-08-13T07:18:34.487Z</time>
      </trkpt>
      <trkpt lat="45.75259566307068" lon="4.660842418670654">
        <ele>411.17</ele>
        <time>2024-08-13T07:18:38.325Z</time>
      </trkpt>
      <trkpt lat="45.75262784957886" lon="4.661046266555786">
        <ele>412.45</ele>
        <time>2024-08-13T07:18:42.166Z</time>
      </trkpt>
      <trkpt lat="45.75262793339789" lon="4.661153554916382">
        <ele>413.68</ele>
        <time>2024-08-13T07:18:46.008Z</time>
      </trkpt>
      <trkpt lat="45.75257420539856" lon="4.661378860473633">
        <ele>415.04</ele>
        <time>2024-08-13T07:18:49.853Z</time>
      </trkpt>
      <trkpt lat="45.752177238464355" lon="4.662237167358398">
        <ele>416.45</ele>
        <time>2024-08-13T07:18:53.709Z</time>
      </trkpt>
      <trkpt lat="45.75217732228339" lon="4.662237167358398">
        <ele>417.43</ele>
        <time>2024-08-13T07:18:57.565Z</time>
      </trkpt>
      <trkpt lat="45.75183391571045" lon="4.6629345417022705">
        <ele>418.56</ele>
        <time>2024-08-13T07:19:01.431Z</time>
      </trkpt>
      <trkpt lat="45.751672983169556" lon="4.663149118423462">
        <ele>419.51</ele>
        <time>2024-08-13T07:19:05.300Z</time>
      </trkpt>
      <trkpt lat="45.75151205062866" lon="4.663320779800415">
        <ele>420.28</ele>
        <time>2024-08-13T07:19:09.172Z</time>
      </trkpt>
      <trkpt lat="45.750449895858765" lon="4.664168357849121">
        <ele>421.09</ele>
        <time>2024-08-13T07:19:13.064Z</time>
      </trkpt>
      <trkpt lat="45.750160217285156" lon="4.664350748062134">
        <ele>421.77</ele>
        <time>2024-08-13T07:19:16.961Z</time>
      </trkpt>
      <trkpt lat="45.749709606170654" lon="4.6645331382751465">
        <ele>422.2</ele>
        <time>2024-08-13T07:19:20.866Z</time>
      </trkpt>
      <trkpt lat="45.74957013130188" lon="4.664543867111206">
        <ele>422.77</ele>
        <time>2024-08-13T07:19:24.773Z</time>
      </trkpt>
      <trkpt lat="45.749441385269165" lon="4.664511680603027">
        <ele>423.51</ele>
        <time>2024-08-13T07:19:28.682Z</time>
      </trkpt>
      <trkpt lat="45.74931263923645" lon="4.66443657875061">
        <ele>424.42</ele>
        <time>2024-08-13T07:19:32.593Z</time>
      </trkpt>
      <trkpt lat="45.748915672302246" lon="4.66395378112793">
        <ele>425.54</ele>
        <time>2024-08-13T07:19:36.512Z</time>
      </trkpt>
      <trkpt lat="45.74882984161377" lon="4.663878679275513">
        <ele>426.75</ele>
        <time>2024-08-13T07:19:40.433Z</time>
      </trkpt>
      <trkpt lat="45.7485830783844" lon="4.662601947784424">
        <ele>428.53</ele>
        <time>2024-08-13T07:19:44.369Z</time>
      </trkpt>
      <trkpt lat="45.748454332351685" lon="4.662065505981445">
        <ele>430.45</ele>
        <time>2024-08-13T07:19:48.311Z</time>
      </trkpt>
      <trkpt lat="45.74827194213867" lon="4.661614894866943">
        <ele>432.18</ele>
        <time>2024-08-13T07:19:52.259Z</time>
      </trkpt>
      <trkpt lat="45.74823975563049" lon="4.661357402801514">
        <ele>434.2</ele>
        <time>2024-08-13T07:19:56.210Z</time>
      </trkpt>
      <trkpt lat="45.74823975563049" lon="4.660670757293701">
        <ele>436.68</ele>
        <time>2024-08-13T07:20:00.169Z</time>
      </trkpt>
      <trkpt lat="45.74835777282715" lon="4.659833908081055">
        <ele>439.52</ele>
        <time>2024-08-13T07:20:04.137Z</time>
      </trkpt>
      <trkpt lat="45.74835777282715" lon="4.6593403816223145">
        <ele>442.01</ele>
        <time>2024-08-13T07:20:08.111Z</time>
      </trkpt>
      <trkpt lat="45.748411417007446" lon="4.659093618392944">
        <ele>444.19</ele>
        <time>2024-08-13T07:20:12.088Z</time>
      </trkpt>
      <trkpt lat="45.74855089187622" lon="4.658750295639038">
        <ele>446.52</ele>
        <time>2024-08-13T07:20:16.069Z</time>
      </trkpt>
      <trkpt lat="45.74864745140076" lon="4.658428430557251">
        <ele>448.86</ele>
        <time>2024-08-13T07:20:20.054Z</time>
      </trkpt>
      <trkpt lat="45.748658180236816" lon="4.658052921295166">
        <ele>451.26</ele>
        <time>2024-08-13T07:20:24.043Z</time>
      </trkpt>
      <trkpt lat="45.74864745140076" lon="4.657795429229736">
        <ele>453.55</ele>
        <time>2024-08-13T07:20:28.035Z</time>
      </trkpt>
      <trkpt lat="45.74861526489258" lon="4.657377004623413">
        <ele>455.83</ele>
        <time>2024-08-13T07:20:32.032Z</time>
      </trkpt>
      <trkpt lat="45.74848651885986" lon="4.656937122344971">
        <ele>458.2</ele>
        <time>2024-08-13T07:20:36.034Z</time>
      </trkpt>
      <trkpt lat="45.74836858548224" lon="4.656679630279541">
        <ele>460.62</ele>
        <time>2024-08-13T07:20:40.040Z</time>
      </trkpt>
      <trkpt lat="45.74836850166321" lon="4.656679630279541">
        <ele>463.0</ele>
        <time>2024-08-13T07:20:44.046Z</time>
      </trkpt>
      <trkpt lat="45.74803590774536" lon="4.656325578689575">
        <ele>466.03</ele>
        <time>2024-08-13T07:20:48.058Z</time>
      </trkpt>
      <trkpt lat="45.74754238128662" lon="4.655874967575073">
        <ele>468.9</ele>
        <time>2024-08-13T07:20:52.080Z</time>
      </trkpt>
      <trkpt lat="45.74745059944689" lon="4.655778827145696">
        <ele>470.36</ele>
        <time>2024-08-13T07:20:56.103Z</time>
      </trkpt>
      <trkpt lat="45.74709177017212" lon="4.655402898788452">
        <ele>475.81</ele>
        <time>2024-08-13T07:21:00.134Z</time>
      </trkpt>
      <trkpt lat="45.74682354927063" lon="4.6547698974609375">
        <ele>477.89</ele>
        <time>2024-08-13T07:21:04.173Z</time>
      </trkpt>
      <trkpt lat="45.746662616729736" lon="4.654265642166138">
        <ele>480.83</ele>
        <time>2024-08-13T07:21:08.218Z</time>
      </trkpt>
      <trkpt lat="45.74654459953308" lon="4.653664827346802">
        <ele>483.98</ele>
        <time>2024-08-13T07:21:12.270Z</time>
      </trkpt>
      <trkpt lat="45.7465124130249" lon="4.653428792953491">
        <ele>486.8</ele>
        <time>2024-08-13T07:21:16.325Z</time>
      </trkpt>
      <trkpt lat="45.74654459953308" lon="4.653235673904419">
        <ele>489.25</ele>
        <time>2024-08-13T07:21:20.382Z</time>
      </trkpt>
      <trkpt lat="45.74659824371338" lon="4.653064012527466">
        <ele>491.54</ele>
        <time>2024-08-13T07:21:24.441Z</time>
      </trkpt>
      <trkpt lat="45.74700593948364" lon="4.652194976806641">
        <ele>493.7</ele>
        <time>2024-08-13T07:21:28.512Z</time>
      </trkpt>
      <trkpt lat="45.74711322784424" lon="4.651830196380615">
        <ele>496.12</ele>
        <time>2024-08-13T07:21:32.587Z</time>
      </trkpt>
      <trkpt lat="45.747199058532715" lon="4.651122093200684">
        <ele>499.06</ele>
        <time>2024-08-13T07:21:36.670Z</time>
      </trkpt>
      <trkpt lat="45.74733853340149" lon="4.650596380233765">
        <ele>502.09</ele>
        <time>2024-08-13T07:21:40.760Z</time>
      </trkpt>
      <trkpt lat="45.74748873710632" lon="4.649877548217773">
        <ele>505.62</ele>
        <time>2024-08-13T07:21:44.858Z</time>
      </trkpt>
      <trkpt lat="45.74751019477844" lon="4.649555683135986">
        <ele>508.55</ele>
        <time>2024-08-13T07:21:48.960Z</time>
      </trkpt>
      <trkpt lat="45.74748873710632" lon="4.649362564086914">
        <ele>511.22</ele>
        <time>2024-08-13T07:21:53.064Z</time>
      </trkpt>
      <trkpt lat="45.74744590558112" lon="4.649190902709961">
        <ele>513.75</ele>
        <time>2024-08-13T07:21:57.170Z</time>
      </trkpt>
      <trkpt lat="45.747445821762085" lon="4.649190902709961">
        <ele>515.97</ele>
        <time>2024-08-13T07:22:01.276Z</time>
      </trkpt>
      <trkpt lat="45.74734926223755" lon="4.648783206939697">
        <ele>518.37</ele>
        <time>2024-08-13T07:22:05.387Z</time>
      </trkpt>
      <trkpt lat="45.747456550598145" lon="4.648493528366089">
        <ele>520.54</ele>
        <time>2024-08-13T07:22:09.501Z</time>
      </trkpt>
      <trkpt lat="45.747928619384766" lon="4.647506475448608">
        <ele>523.27</ele>
        <time>2024-08-13T07:22:13.629Z</time>
      </trkpt>
      <trkpt lat="45.74812173843384" lon="4.646819829940796">
        <ele>526.07</ele>
        <time>2024-08-13T07:22:17.765Z</time>
      </trkpt>
      <trkpt lat="45.74833631515503" lon="4.646294116973877">
        <ele>528.67</ele>
        <time>2024-08-13T07:22:21.908Z</time>
      </trkpt>
      <trkpt lat="45.748422145843506" lon="4.646133184432983">
        <ele>530.69</ele>
        <time>2024-08-13T07:22:26.053Z</time>
      </trkpt>
      <trkpt lat="45.748475790023804" lon="4.646068811416626">
        <ele>532.35</ele>
        <time>2024-08-13T07:22:30.199Z</time>
      </trkpt>
      <trkpt lat="45.748679637908936" lon="4.64596152305603">
        <ele>533.29</ele>
        <time>2024-08-13T07:22:34.349Z</time>
      </trkpt>
      <trkpt lat="45.74902296066284" lon="4.645832777023315">
        <ele>534.38</ele>
        <time>2024-08-13T07:22:38.504Z</time>
      </trkpt>
      <trkpt lat="45.749173164367676" lon="4.645789861679077">
        <ele>535.6</ele>
        <time>2024-08-13T07:22:42.662Z</time>
      </trkpt>
      <trkpt lat="45.74925899505615" lon="4.645800590515137">
        <ele>536.69</ele>
        <time>2024-08-13T07:22:46.821Z</time>
      </trkpt>
      <trkpt lat="45.749441385269165" lon="4.645907878875732">
        <ele>537.88</ele>
        <time>2024-08-13T07:22:50.983Z</time>
      </trkpt>
      <trkpt lat="45.7496452331543" lon="4.646100997924805">
        <ele>539.15</ele>
        <time>2024-08-13T07:22:55.149Z</time>
      </trkpt>
      <trkpt lat="45.74979543685913" lon="4.6462082862854">
        <ele>540.55</ele>
        <time>2024-08-13T07:22:59.318Z</time>
      </trkpt>
      <trkpt lat="45.74988126754761" lon="4.6462297439575195">
        <ele>541.98</ele>
        <time>2024-08-13T07:23:03.488Z</time>
      </trkpt>
      <trkpt lat="45.7500422000885" lon="4.6462082862854">
        <ele>543.72</ele>
        <time>2024-08-13T07:23:07.661Z</time>
      </trkpt>
      <trkpt lat="45.750160217285156" lon="4.6461546421051025">
        <ele>545.53</ele>
        <time>2024-08-13T07:23:11.836Z</time>
      </trkpt>
      <trkpt lat="45.75033187866211" lon="4.6460044384002686">
        <ele>547.68</ele>
        <time>2024-08-13T07:23:16.014Z</time>
      </trkpt>
      <trkpt lat="45.75062155723572" lon="4.645596742630005">
        <ele>550.05</ele>
        <time>2024-08-13T07:23:20.199Z</time>
      </trkpt>
      <trkpt lat="45.75077176094055" lon="4.645446538925171">
        <ele>552.21</ele>
        <time>2024-08-13T07:23:24.387Z</time>
      </trkpt>
      <trkpt lat="45.751211643218994" lon="4.6451568603515625">
        <ele>554.58</ele>
        <time>2024-08-13T07:23:28.582Z</time>
      </trkpt>
      <trkpt lat="45.751436948776245" lon="4.6449315547943115">
        <ele>557.32</ele>
        <time>2024-08-13T07:23:32.782Z</time>
      </trkpt>
      <trkpt lat="45.7516086101532" lon="4.644652605056763">
        <ele>560.06</ele>
        <time>2024-08-13T07:23:36.986Z</time>
      </trkpt>
      <trkpt lat="45.751909017562866" lon="4.643890857696533">
        <ele>563.05</ele>
        <time>2024-08-13T07:23:41.200Z</time>
      </trkpt>
      <trkpt lat="45.751973390579224" lon="4.643772840499878">
        <ele>565.62</ele>
        <time>2024-08-13T07:23:45.415Z</time>
      </trkpt>
      <trkpt lat="45.75208067893982" lon="4.6436333656311035">
        <ele>568.14</ele>
        <time>2024-08-13T07:23:49.633Z</time>
      </trkpt>
      <trkpt lat="45.75228452682495" lon="4.643397331237793">
        <ele>570.53</ele>
        <time>2024-08-13T07:23:53.855Z</time>
      </trkpt>
      <trkpt lat="45.7525098323822" lon="4.64296817779541">
        <ele>573.15</ele>
        <time>2024-08-13T07:23:58.083Z</time>
      </trkpt>
      <trkpt lat="45.7526171207428" lon="4.642689228057861">
        <ele>575.83</ele>
        <time>2024-08-13T07:24:02.315Z</time>
      </trkpt>
      <trkpt lat="45.752724409103394" lon="4.642313718795776">
        <ele>578.62</ele>
        <time>2024-08-13T07:24:06.551Z</time>
      </trkpt>
      <trkpt lat="45.75287461280823" lon="4.641573429107666">
        <ele>581.76</ele>
        <time>2024-08-13T07:24:10.796Z</time>
      </trkpt>
      <trkpt lat="45.753014087677" lon="4.64098334312439">
        <ele>584.64</ele>
        <time>2024-08-13T07:24:15.048Z</time>
      </trkpt>
      <trkpt lat="45.75309991836548" lon="4.640650749206543">
        <ele>587.41</ele>
        <time>2024-08-13T07:24:19.304Z</time>
      </trkpt>
      <trkpt lat="45.753185749053955" lon="4.640414714813232">
        <ele>590.21</ele>
        <time>2024-08-13T07:24:23.563Z</time>
      </trkpt>
      <trkpt lat="45.75329303741455" lon="4.64023232460022">
        <ele>592.97</ele>
        <time>2024-08-13T07:24:27.824Z</time>
      </trkpt>
      <trkpt lat="45.753754461184144" lon="4.639674425125122">
        <ele>596.08</ele>
        <time>2024-08-13T07:24:32.095Z</time>
      </trkpt>
      <trkpt lat="45.75408697128296" lon="4.639127254486084">
        <ele>599.12</ele>
        <time>2024-08-13T07:24:36.374Z</time>
      </trkpt>
      <trkpt lat="45.75431227684021" lon="4.638698101043701">
        <ele>602.23</ele>
        <time>2024-08-13T07:24:40.659Z</time>
      </trkpt>
      <trkpt lat="45.75439810752869" lon="4.638569355010986">
        <ele>604.93</ele>
        <time>2024-08-13T07:24:44.946Z</time>
      </trkpt>
      <trkpt lat="45.75453758239746" lon="4.638451337814331">
        <ele>607.59</ele>
        <time>2024-08-13T07:24:49.236Z</time>
      </trkpt>
      <trkpt lat="45.7549774646759" lon="4.638258218765259">
        <ele>609.93</ele>
        <time>2024-08-13T07:24:53.533Z</time>
      </trkpt>
      <trkpt lat="45.755192041397095" lon="4.638075828552246">
        <ele>612.69</ele>
        <time>2024-08-13T07:24:57.834Z</time>
      </trkpt>
      <trkpt lat="45.755438804626465" lon="4.6377646923065186">
        <ele>615.57</ele>
        <time>2024-08-13T07:25:02.140Z</time>
      </trkpt>
      <trkpt lat="45.75601816177368" lon="4.636863470077515">
        <ele>618.94</ele>
        <time>2024-08-13T07:25:06.460Z</time>
      </trkpt>
      <trkpt lat="45.75610399246216" lon="4.636713266372681">
        <ele>621.6</ele>
        <time>2024-08-13T07:25:10.782Z</time>
      </trkpt>
      <trkpt lat="45.75625419616699" lon="4.63621973991394">
        <ele>624.26</ele>
        <time>2024-08-13T07:25:15.110Z</time>
      </trkpt>
      <trkpt lat="45.75627565383911" lon="4.635822772979736">
        <ele>626.99</ele>
        <time>2024-08-13T07:25:19.443Z</time>
      </trkpt>
      <trkpt lat="45.75624346733093" lon="4.635339975357056">
        <ele>629.89</ele>
        <time>2024-08-13T07:25:23.781Z</time>
      </trkpt>
      <trkpt lat="45.75606107711792" lon="4.634084701538086">
        <ele>632.84</ele>
        <time>2024-08-13T07:25:28.134Z</time>
      </trkpt>
      <trkpt lat="45.755953788757324" lon="4.633086919784546">
        <ele>635.85</ele>
        <time>2024-08-13T07:25:32.498Z</time>
      </trkpt>
      <trkpt lat="45.755943059921265" lon="4.632561206817627">
        <ele>638.44</ele>
        <time>2024-08-13T07:25:36.868Z</time>
      </trkpt>
      <trkpt lat="45.7560396194458" lon="4.63173508644104">
        <ele>641.06</ele>
        <time>2024-08-13T07:25:41.247Z</time>
      </trkpt>
      <trkpt lat="45.75612545013428" lon="4.630930423736572">
        <ele>643.91</ele>
        <time>2024-08-13T07:25:45.635Z</time>
      </trkpt>
      <trkpt lat="45.756157636642456" lon="4.630801677703857">
        <ele>645.97</ele>
        <time>2024-08-13T07:25:50.025Z</time>
      </trkpt>
      <trkpt lat="45.75623273849487" lon="4.630662202835083">
        <ele>647.81</ele>
        <time>2024-08-13T07:25:54.417Z</time>
      </trkpt>
      <trkpt lat="45.75634002685547" lon="4.630597829818726">
        <ele>649.47</ele>
        <time>2024-08-13T07:25:58.811Z</time>
      </trkpt>
      <trkpt lat="45.756468772888184" lon="4.630608558654785">
        <ele>650.87</ele>
        <time>2024-08-13T07:26:03.207Z</time>
      </trkpt>
      <trkpt lat="45.7565975189209" lon="4.630683660507202">
        <ele>652.22</ele>
        <time>2024-08-13T07:26:07.605Z</time>
      </trkpt>
      <trkpt lat="45.756715536117554" lon="4.630769491195679">
        <ele>653.48</ele>
        <time>2024-08-13T07:26:12.005Z</time>
      </trkpt>
      <trkpt lat="45.757187604904175" lon="4.6312415599823">
        <ele>654.68</ele>
        <time>2024-08-13T07:26:16.414Z</time>
      </trkpt>
      <trkpt lat="45.75727343559265" lon="4.631305932998657">
        <ele>656.13</ele>
        <time>2024-08-13T07:26:20.825Z</time>
      </trkpt>
      <trkpt lat="45.757402181625366" lon="4.631359577178955">
        <ele>657.6</ele>
        <time>2024-08-13T07:26:25.238Z</time>
      </trkpt>
      <trkpt lat="45.75750946998596" lon="4.6313488483428955">
        <ele>659.2</ele>
        <time>2024-08-13T07:26:29.653Z</time>
      </trkpt>
      <trkpt lat="45.75778841972351" lon="4.631209373474121">
        <ele>661.1</ele>
        <time>2024-08-13T07:26:34.072Z</time>
      </trkpt>
      <trkpt lat="45.757906436920166" lon="4.631187915802002">
        <ele>662.79</ele>
        <time>2024-08-13T07:26:38.493Z</time>
      </trkpt>
      <trkpt lat="45.75806736946106" lon="4.63123083114624">
        <ele>664.56</ele>
        <time>2024-08-13T07:26:42.917Z</time>
      </trkpt>
      <trkpt lat="45.758196115493774" lon="4.631316661834717">
        <ele>666.27</ele>
        <time>2024-08-13T07:26:47.343Z</time>
      </trkpt>
      <trkpt lat="45.75836777687073" lon="4.631466865539551">
        <ele>668.04</ele>
        <time>2024-08-13T07:26:51.772Z</time>
      </trkpt>
      <trkpt lat="45.758936405181885" lon="4.632121324539185">
        <ele>670.15</ele>
        <time>2024-08-13T07:26:56.213Z</time>
      </trkpt>
      <trkpt lat="45.759161710739136" lon="4.632314443588257">
        <ele>671.95</ele>
        <time>2024-08-13T07:27:00.658Z</time>
      </trkpt>
      <trkpt lat="45.759440660476685" lon="4.63247537612915">
        <ele>673.88</ele>
        <time>2024-08-13T07:27:05.108Z</time>
      </trkpt>
      <trkpt lat="45.75961232185364" lon="4.632529020309448">
        <ele>675.81</ele>
        <time>2024-08-13T07:27:09.561Z</time>
      </trkpt>
      <trkpt lat="45.75982689857483" lon="4.632561206817627">
        <ele>677.75</ele>
        <time>2024-08-13T07:27:14.017Z</time>
      </trkpt>
      <trkpt lat="45.759923458099365" lon="4.632550477981567">
        <ele>679.6</ele>
        <time>2024-08-13T07:27:18.475Z</time>
      </trkpt>
      <trkpt lat="45.76010584831238" lon="4.63247537612915">
        <ele>681.56</ele>
        <time>2024-08-13T07:27:22.936Z</time>
      </trkpt>
      <trkpt lat="45.76024532318115" lon="4.632378816604614">
        <ele>683.38</ele>
        <time>2024-08-13T07:27:27.399Z</time>
      </trkpt>
      <trkpt lat="45.760459899902344" lon="4.632142782211304">
        <ele>685.28</ele>
        <time>2024-08-13T07:27:31.867Z</time>
      </trkpt>
      <trkpt lat="45.76078176498413" lon="4.63173508644104">
        <ele>687.26</ele>
        <time>2024-08-13T07:27:36.342Z</time>
      </trkpt>
      <trkpt lat="45.760921239852905" lon="4.6314990520477295">
        <ele>688.93</ele>
        <time>2024-08-13T07:27:40.820Z</time>
      </trkpt>
      <trkpt lat="45.761404037475586" lon="4.630533456802368">
        <ele>691.1</ele>
        <time>2024-08-13T07:27:45.311Z</time>
      </trkpt>
      <trkpt lat="45.76152205467224" lon="4.630393981933594">
        <ele>692.29</ele>
        <time>2024-08-13T07:27:49.805Z</time>
      </trkpt>
      <trkpt lat="45.7615864276886" lon="4.630361795425415">
        <ele>693.3</ele>
        <time>2024-08-13T07:27:54.300Z</time>
      </trkpt>
      <trkpt lat="45.76162934303284" lon="4.630372524261475">
        <ele>694.17</ele>
        <time>2024-08-13T07:27:58.796Z</time>
      </trkpt>
      <trkpt lat="45.761693716049194" lon="4.630415439605713">
        <ele>694.9</ele>
        <time>2024-08-13T07:28:03.293Z</time>
      </trkpt>
      <trkpt lat="45.76174736022949" lon="4.63049054145813">
        <ele>695.55</ele>
        <time>2024-08-13T07:28:07.791Z</time>
      </trkpt>
      <trkpt lat="45.76180100440979" lon="4.630651473999023">
        <ele>696.18</ele>
        <time>2024-08-13T07:28:12.291Z</time>
      </trkpt>
      <trkpt lat="45.761929750442505" lon="4.631702899932861">
        <ele>696.5</ele>
        <time>2024-08-13T07:28:16.803Z</time>
      </trkpt>
      <trkpt lat="45.761951208114624" lon="4.632464647293091">
        <ele>697.01</ele>
        <time>2024-08-13T07:28:21.323Z</time>
      </trkpt>
      <trkpt lat="45.76199412345886" lon="4.632850885391235">
        <ele>697.86</ele>
        <time>2024-08-13T07:28:25.848Z</time>
      </trkpt>
      <trkpt lat="45.76204776763916" lon="4.633001089096069">
        <ele>698.82</ele>
        <time>2024-08-13T07:28:30.375Z</time>
      </trkpt>
      <trkpt lat="45.76211214065552" lon="4.633076190948486">
        <ele>699.91</ele>
        <time>2024-08-13T07:28:34.903Z</time>
      </trkpt>
      <trkpt lat="45.762208700180054" lon="4.6330976486206055">
        <ele>701.19</ele>
        <time>2024-08-13T07:28:39.433Z</time>
      </trkpt>
      <trkpt lat="45.76230525970459" lon="4.6330225467681885">
        <ele>702.56</ele>
        <time>2024-08-13T07:28:43.964Z</time>
      </trkpt>
      <trkpt lat="45.76233744621277" lon="4.632925987243652">
        <ele>703.79</ele>
        <time>2024-08-13T07:28:48.497Z</time>
      </trkpt>
      <trkpt lat="45.76233744621277" lon="4.632754325866699">
        <ele>705.13</ele>
        <time>2024-08-13T07:28:53.032Z</time>
      </trkpt>
      <trkpt lat="45.76228380203247" lon="4.632539749145508">
        <ele>706.51</ele>
        <time>2024-08-13T07:28:57.569Z</time>
      </trkpt>
      <trkpt lat="45.76225161552429" lon="4.631863832473755">
        <ele>708.39</ele>
        <time>2024-08-13T07:29:02.114Z</time>
      </trkpt>
      <trkpt lat="45.76226234436035" lon="4.631627798080444">
        <ele>710.37</ele>
        <time>2024-08-13T07:29:06.661Z</time>
      </trkpt>
      <trkpt lat="45.76227307319641" lon="4.6314239501953125">
        <ele>712.61</ele>
        <time>2024-08-13T07:29:11.211Z</time>
      </trkpt>
      <trkpt lat="45.762401819229126" lon="4.630587100982666">
        <ele>715.25</ele>
        <time>2024-08-13T07:29:15.770Z</time>
      </trkpt>
      <trkpt lat="45.76279878616333" lon="4.62898850440979">
        <ele>718.57</ele>
        <time>2024-08-13T07:29:20.348Z</time>
      </trkpt>
      <trkpt lat="45.76283097267151" lon="4.628913402557373">
        <ele>720.98</ele>
        <time>2024-08-13T07:29:24.927Z</time>
      </trkpt>
      <trkpt lat="45.76306700706482" lon="4.627261161804199">
        <ele>724.09</ele>
        <time>2024-08-13T07:29:29.525Z</time>
      </trkpt>
      <trkpt lat="45.76302409172058" lon="4.626907110214233">
        <ele>726.58</ele>
        <time>2024-08-13T07:29:34.127Z</time>
      </trkpt>
      <trkpt lat="45.762938261032104" lon="4.626660346984863">
        <ele>729.2</ele>
        <time>2024-08-13T07:29:38.732Z</time>
      </trkpt>
      <trkpt lat="45.76288461685181" lon="4.626585245132446">
        <ele>732.03</ele>
        <time>2024-08-13T07:29:43.338Z</time>
      </trkpt>
      <trkpt lat="45.76282024383545" lon="4.626542329788208">
        <ele>735.02</ele>
        <time>2024-08-13T07:29:47.946Z</time>
      </trkpt>
      <trkpt lat="45.762391090393066" lon="4.62648868560791">
        <ele>738.45</ele>
        <time>2024-08-13T07:29:52.560Z</time>
      </trkpt>
      <trkpt lat="45.761929750442505" lon="4.6262526512146">
        <ele>741.57</ele>
        <time>2024-08-13T07:29:57.182Z</time>
      </trkpt>
      <trkpt lat="45.76152205467224" lon="4.6257805824279785">
        <ele>744.85</ele>
        <time>2024-08-13T07:30:01.813Z</time>
      </trkpt>
      <trkpt lat="45.76111435890198" lon="4.625201225280762">
        <ele>747.62</ele>
        <time>2024-08-13T07:30:06.453Z</time>
      </trkpt>
      <trkpt lat="45.760695934295654" lon="4.624718427658081">
        <ele>750.94</ele>
        <time>2024-08-13T07:30:11.101Z</time>
      </trkpt>
      <trkpt lat="45.76006293296814" lon="4.623870849609375">
        <ele>753.83</ele>
        <time>2024-08-13T07:30:15.763Z</time>
      </trkpt>
      <trkpt lat="45.759655237197876" lon="4.6230340003967285">
        <ele>756.07</ele>
        <time>2024-08-13T07:30:20.437Z</time>
      </trkpt>
      <trkpt lat="45.7595157623291" lon="4.622830152511597">
        <ele>758.25</ele>
        <time>2024-08-13T07:30:25.114Z</time>
      </trkpt>
      <trkpt lat="45.758689641952515" lon="4.622143507003784">
        <ele>760.2</ele>
        <time>2024-08-13T07:30:29.806Z</time>
      </trkpt>
      <trkpt lat="45.75857162475586" lon="4.622014760971069">
        <ele>761.48</ele>
        <time>2024-08-13T07:30:34.501Z</time>
      </trkpt>
      <trkpt lat="45.75813174247742" lon="4.62148904800415">
        <ele>762.15</ele>
        <time>2024-08-13T07:30:39.205Z</time>
      </trkpt>
      <trkpt lat="45.75758457183838" lon="4.620577096939087">
        <ele>763.67</ele>
        <time>2024-08-13T07:30:43.922Z</time>
      </trkpt>
      <trkpt lat="45.75742372311652" lon="4.6202123165130615">
        <ele>764.7</ele>
        <time>2024-08-13T07:30:48.644Z</time>
      </trkpt>
      <trkpt lat="45.757423639297485" lon="4.6202123165130615">
        <ele>765.23</ele>
        <time>2024-08-13T07:30:53.366Z</time>
      </trkpt>
      <trkpt lat="45.75667270459235" lon="4.618656635284424">
        <ele>765.58</ele>
        <time>2024-08-13T07:30:58.109Z</time>
      </trkpt>
      <trkpt lat="45.756436586380005" lon="4.618173837661743">
        <ele>765.33</ele>
        <time>2024-08-13T07:31:02.859Z</time>
      </trkpt>
      <trkpt lat="45.75624346733093" lon="4.617680311203003">
        <ele>765.36</ele>
        <time>2024-08-13T07:31:07.615Z</time>
      </trkpt>
      <trkpt lat="45.756211280822754" lon="4.61750864982605">
        <ele>765.3</ele>
        <time>2024-08-13T07:31:12.373Z</time>
      </trkpt>
      <trkpt lat="45.756189823150635" lon="4.617294073104858">
        <ele>764.98</ele>
        <time>2024-08-13T07:31:17.134Z</time>
      </trkpt>
      <trkpt lat="45.756189823150635" lon="4.616972208023071">
        <ele>764.27</ele>
        <time>2024-08-13T07:31:21.898Z</time>
      </trkpt>
      <trkpt lat="45.75624346733093" lon="4.6163177490234375">
        <ele>762.87</ele>
        <time>2024-08-13T07:31:26.670Z</time>
      </trkpt>
      <trkpt lat="45.75625419616699" lon="4.6160173416137695">
        <ele>761.79</ele>
        <time>2024-08-13T07:31:31.445Z</time>
      </trkpt>
      <trkpt lat="45.75623273849487" lon="4.615706205368042">
        <ele>760.89</ele>
        <time>2024-08-13T07:31:36.223Z</time>
      </trkpt>
      <trkpt lat="45.7561469078064" lon="4.6151697635650635">
        <ele>760.02</ele>
        <time>2024-08-13T07:31:41.008Z</time>
      </trkpt>
      <trkpt lat="45.75610399246216" lon="4.6149444580078125">
        <ele>759.46</ele>
        <time>2024-08-13T07:31:45.795Z</time>
      </trkpt>
      <trkpt lat="45.7560396194458" lon="4.614740610122681">
        <ele>759.15</ele>
        <time>2024-08-13T07:31:50.585Z</time>
      </trkpt>
      <trkpt lat="45.75590022839606" lon="4.614375829696655">
        <ele>759.15</ele>
        <time>2024-08-13T07:31:55.379Z</time>
      </trkpt>
      <trkpt lat="45.755900144577026" lon="4.614375829696655">
        <ele>758.87</ele>
        <time>2024-08-13T07:32:00.173Z</time>
      </trkpt>
      <trkpt lat="45.75559973716736" lon="4.613925218582153">
        <ele>758.92</ele>
        <time>2024-08-13T07:32:04.974Z</time>
      </trkpt>
      <trkpt lat="45.75538935139775" lon="4.6137316804379225">
        <ele>758.09</ele>
        <time>2024-08-13T07:32:09.779Z</time>
      </trkpt>
      <trkpt lat="45.75538935139775" lon="4.613731596618891">
        <ele>757.27</ele>
        <time>2024-08-13T07:32:14.584Z</time>
      </trkpt>
      <trkpt lat="45.75533151626587" lon="4.613678455352783">
        <ele>758.39</ele>
        <time>2024-08-13T07:32:19.391Z</time>
      </trkpt>
      <trkpt lat="45.754956007003784" lon="4.613463878631592">
        <ele>758.33</ele>
        <time>2024-08-13T07:32:24.204Z</time>
      </trkpt>
      <trkpt lat="45.75434446334839" lon="4.6131956577301025">
        <ele>759.09</ele>
        <time>2024-08-13T07:32:29.027Z</time>
      </trkpt>
      <trkpt lat="45.754183530807495" lon="4.613099098205566">
        <ele>759.62</ele>
        <time>2024-08-13T07:32:33.853Z</time>
      </trkpt>
      <trkpt lat="45.75382947921753" lon="4.612809419631958">
        <ele>760.13</ele>
        <time>2024-08-13T07:32:38.686Z</time>
      </trkpt>
      <trkpt lat="45.75363644398749" lon="4.612594842910767">
        <ele>760.39</ele>
        <time>2024-08-13T07:32:43.522Z</time>
      </trkpt>
      <trkpt lat="45.75363636016846" lon="4.612594842910767">
        <ele>760.31</ele>
        <time>2024-08-13T07:32:48.358Z</time>
      </trkpt>
      <trkpt lat="45.753260934725404" lon="4.612165689468384">
        <ele>760.16</ele>
        <time>2024-08-13T07:32:53.202Z</time>
      </trkpt>
      <trkpt lat="45.75289607048035" lon="4.611736536026001">
        <ele>759.04</ele>
        <time>2024-08-13T07:32:58.054Z</time>
      </trkpt>
      <trkpt lat="45.75264939107001" lon="4.611414670944214">
        <ele>758.1</ele>
        <time>2024-08-13T07:33:02.911Z</time>
      </trkpt>
      <trkpt lat="45.75264930725098" lon="4.611414670944214">
        <ele>757.17</ele>
        <time>2024-08-13T07:33:07.768Z</time>
      </trkpt>
      <trkpt lat="45.75255283154547" lon="4.61125373840332">
        <ele>756.04</ele>
        <time>2024-08-13T07:33:12.627Z</time>
      </trkpt>
      <trkpt lat="45.7523597124964" lon="4.610931873321533">
        <ele>754.75</ele>
        <time>2024-08-13T07:33:17.491Z</time>
      </trkpt>
      <trkpt lat="45.75199484825134" lon="4.61026668548584">
        <ele>752.97</ele>
        <time>2024-08-13T07:33:22.365Z</time>
      </trkpt>
      <trkpt lat="45.75181245803833" lon="4.610041379928589">
        <ele>751.76</ele>
        <time>2024-08-13T07:33:27.243Z</time>
      </trkpt>
      <trkpt lat="45.751715982332826" lon="4.609966278076172">
        <ele>750.75</ele>
        <time>2024-08-13T07:33:32.122Z</time>
      </trkpt>
      <trkpt lat="45.751715898513794" lon="4.609966278076172">
        <ele>749.8</ele>
        <time>2024-08-13T07:33:37.001Z</time>
      </trkpt>
      <trkpt lat="45.75163006782532" lon="4.609912633895874">
        <ele>748.82</ele>
        <time>2024-08-13T07:33:41.882Z</time>
      </trkpt>
      <trkpt lat="45.751447677612305" lon="4.609869718551636">
        <ele>747.88</ele>
        <time>2024-08-13T07:33:46.766Z</time>
      </trkpt>
      <trkpt lat="45.75050354003906" lon="4.609805345535278">
        <ele>746.64</ele>
        <time>2024-08-13T07:33:51.665Z</time>
      </trkpt>
      <trkpt lat="45.74979543685913" lon="4.609730243682861">
        <ele>744.7</ele>
        <time>2024-08-13T07:33:56.575Z</time>
      </trkpt>
      <trkpt lat="45.74954867362976" lon="4.609730243682861">
        <ele>742.9</ele>
        <time>2024-08-13T07:34:01.489Z</time>
      </trkpt>
      <trkpt lat="45.74935555458069" lon="4.60976243019104">
        <ele>740.81</ele>
        <time>2024-08-13T07:34:06.406Z</time>
      </trkpt>
      <trkpt lat="45.74915170669556" lon="4.609891176223755">
        <ele>739.04</ele>
        <time>2024-08-13T07:34:11.327Z</time>
      </trkpt>
      <trkpt lat="45.748937129974365" lon="4.610084295272827">
        <ele>737.48</ele>
        <time>2024-08-13T07:34:16.252Z</time>
      </trkpt>
      <trkpt lat="45.74886211194098" lon="4.610161576420069">
        <ele>736.46</ele>
        <time>2024-08-13T07:34:21.178Z</time>
      </trkpt>
      <trkpt lat="45.748229026794434" lon="4.610813856124878">
        <ele>737.62</ele>
        <time>2024-08-13T07:34:26.117Z</time>
      </trkpt>
      <trkpt lat="45.74808955192566" lon="4.61100697517395">
        <ele>737.34</ele>
        <time>2024-08-13T07:34:31.059Z</time>
      </trkpt>
      <trkpt lat="45.7478750590235" lon="4.611436128616333">
        <ele>737.34</ele>
        <time>2024-08-13T07:34:36.007Z</time>
      </trkpt>
      <trkpt lat="45.74779987335205" lon="4.611650705337524">
        <ele>737.59</ele>
        <time>2024-08-13T07:34:40.958Z</time>
      </trkpt>
      <trkpt lat="45.747757041826844" lon="4.611554145812988">
        <ele>737.3</ele>
        <time>2024-08-13T07:34:45.910Z</time>
      </trkpt>
      <trkpt lat="45.747681856155396" lon="4.611436128616333">
        <ele>736.72</ele>
        <time>2024-08-13T07:34:50.864Z</time>
      </trkpt>
      <trkpt lat="45.74763894081116" lon="4.611371755599976">
        <ele>735.88</ele>
        <time>2024-08-13T07:34:55.819Z</time>
      </trkpt>
      <trkpt lat="45.74759602546692" lon="4.611307382583618">
        <ele>734.76</ele>
        <time>2024-08-13T07:35:00.775Z</time>
      </trkpt>
      <trkpt lat="45.74748873710632" lon="4.611221551895142">
        <ele>733.48</ele>
        <time>2024-08-13T07:35:05.733Z</time>
      </trkpt>
      <trkpt lat="45.746705532073975" lon="4.610352516174316">
        <ele>731.59</ele>
        <time>2024-08-13T07:35:10.707Z</time>
      </trkpt>
      <trkpt lat="45.74639439582825" lon="4.6098268032073975">
        <ele>729.36</ele>
        <time>2024-08-13T07:35:15.688Z</time>
      </trkpt>
      <trkpt lat="45.74608325958252" lon="4.609193801879883">
        <ele>727.4</ele>
        <time>2024-08-13T07:35:20.678Z</time>
      </trkpt>
      <trkpt lat="45.74601888656616" lon="4.608947038650513">
        <ele>725.12</ele>
        <time>2024-08-13T07:35:25.671Z</time>
      </trkpt>
      <trkpt lat="45.745933055877686" lon="4.608635902404785">
        <ele>722.73</ele>
        <time>2024-08-13T07:35:30.668Z</time>
      </trkpt>
      <trkpt lat="45.74583649635315" lon="4.608099460601807">
        <ele>719.44</ele>
        <time>2024-08-13T07:35:35.671Z</time>
      </trkpt>
      <trkpt lat="45.745718479156494" lon="4.607144594192505">
        <ele>716.09</ele>
        <time>2024-08-13T07:35:40.685Z</time>
      </trkpt>
      <trkpt lat="45.74562191963196" lon="4.606661796569824">
        <ele>713.01</ele>
        <time>2024-08-13T07:35:45.704Z</time>
      </trkpt>
      <trkpt lat="45.74498891830444" lon="4.60500955581665">
        <ele>709.56</ele>
        <time>2024-08-13T07:35:50.744Z</time>
      </trkpt>
      <trkpt lat="45.74413061141968" lon="4.603207111358643">
        <ele>706.85</ele>
        <time>2024-08-13T07:35:55.809Z</time>
      </trkpt>
      <trkpt lat="45.74408769607544" lon="4.603003263473511">
        <ele>704.41</ele>
        <time>2024-08-13T07:36:00.876Z</time>
      </trkpt>
      <trkpt lat="45.74410915374756" lon="4.602842330932617">
        <ele>701.78</ele>
        <time>2024-08-13T07:36:05.945Z</time>
      </trkpt>
      <trkpt lat="45.744452476501465" lon="4.602338075637817">
        <ele>697.61</ele>
        <time>2024-08-13T07:36:11.022Z</time>
      </trkpt>
      <trkpt lat="45.744720697402954" lon="4.601705074310303">
        <ele>694.33</ele>
        <time>2024-08-13T07:36:16.107Z</time>
      </trkpt>
      <trkpt lat="45.74481725692749" lon="4.601576328277588">
        <ele>691.02</ele>
        <time>2024-08-13T07:36:21.194Z</time>
      </trkpt>
      <trkpt lat="45.74481734074652" lon="4.601576328277588">
        <ele>687.85</ele>
        <time>2024-08-13T07:36:26.281Z</time>
      </trkpt>
      <trkpt lat="45.74501037597656" lon="4.601447582244873">
        <ele>684.04</ele>
        <time>2024-08-13T07:36:31.372Z</time>
      </trkpt>
      <trkpt lat="45.745182037353516" lon="4.601233005523682">
        <ele>680.53</ele>
        <time>2024-08-13T07:36:36.466Z</time>
      </trkpt>
      <trkpt lat="45.74538588523865" lon="4.600889682769775">
        <ele>676.89</ele>
        <time>2024-08-13T07:36:41.565Z</time>
      </trkpt>
      <trkpt lat="45.74567564763129" lon="4.600160121917725">
        <ele>672.98</ele>
        <time>2024-08-13T07:36:46.674Z</time>
      </trkpt>
      <trkpt lat="45.74602969922125" lon="4.59928035736084">
        <ele>669.87</ele>
        <time>2024-08-13T07:36:51.794Z</time>
      </trkpt>
      <trkpt lat="45.74625492095947" lon="4.598701000213623">
        <ele>666.95</ele>
        <time>2024-08-13T07:36:56.922Z</time>
      </trkpt>
      <trkpt lat="45.74640512466431" lon="4.598143100738525">
        <ele>663.78</ele>
        <time>2024-08-13T07:37:02.056Z</time>
      </trkpt>
      <trkpt lat="45.746437311172485" lon="4.597681760787964">
        <ele>661.02</ele>
        <time>2024-08-13T07:37:07.196Z</time>
      </trkpt>
      <trkpt lat="45.74636220932007" lon="4.597327709197998">
        <ele>658.92</ele>
        <time>2024-08-13T07:37:12.340Z</time>
      </trkpt>
      <trkpt lat="45.746201276779175" lon="4.59702730178833">
        <ele>657.21</ele>
        <time>2024-08-13T07:37:17.488Z</time>
      </trkpt>
      <trkpt lat="45.74598670005798" lon="4.596801996231079">
        <ele>655.9</ele>
        <time>2024-08-13T07:37:22.640Z</time>
      </trkpt>
      <trkpt lat="45.74583649635315" lon="4.596748352050781">
        <ele>655.25</ele>
        <time>2024-08-13T07:37:27.795Z</time>
      </trkpt>
      <trkpt lat="45.74549317359924" lon="4.596726894378662">
        <ele>655.21</ele>
        <time>2024-08-13T07:37:32.955Z</time>
      </trkpt>
      <trkpt lat="45.745439529418945" lon="4.596705436706543">
        <ele>654.74</ele>
        <time>2024-08-13T07:37:38.116Z</time>
      </trkpt>
      <trkpt lat="45.74538588523865" lon="4.596683979034424">
        <ele>654.22</ele>
        <time>2024-08-13T07:37:43.278Z</time>
      </trkpt>
      <trkpt lat="45.74532151222229" lon="4.596501588821411">
        <ele>653.44</ele>
        <time>2024-08-13T07:37:48.442Z</time>
      </trkpt>
      <trkpt lat="45.74532151222229" lon="4.596190452575684">
        <ele>652.31</ele>
        <time>2024-08-13T07:37:53.610Z</time>
      </trkpt>
      <trkpt lat="45.745471715927124" lon="4.595364332199097">
        <ele>651.11</ele>
        <time>2024-08-13T07:37:58.787Z</time>
      </trkpt>
      <trkpt lat="45.74554824270308" lon="4.595153778791428">
        <ele>651.0</ele>
        <time>2024-08-13T07:38:03.967Z</time>
      </trkpt>
      <trkpt lat="45.74564337730408" lon="4.594892263412476">
        <ele>649.67</ele>
        <time>2024-08-13T07:38:09.150Z</time>
      </trkpt>
      <trkpt lat="45.74584722518921" lon="4.594613313674927">
        <ele>647.41</ele>
        <time>2024-08-13T07:38:14.338Z</time>
      </trkpt>
      <trkpt lat="45.74635148048401" lon="4.594237804412842">
        <ele>643.2</ele>
        <time>2024-08-13T07:38:19.535Z</time>
      </trkpt>
      <trkpt lat="45.74649095535278" lon="4.593991041183472">
        <ele>639.93</ele>
        <time>2024-08-13T07:38:24.735Z</time>
      </trkpt>
      <trkpt lat="45.746694803237915" lon="4.59352970123291">
        <ele>636.84</ele>
        <time>2024-08-13T07:38:29.942Z</time>
      </trkpt>
      <trkpt lat="45.74684500694275" lon="4.593315124511719">
        <ele>633.47</ele>
        <time>2024-08-13T07:38:35.152Z</time>
      </trkpt>
      <trkpt lat="45.74711322784424" lon="4.592982530593872">
        <ele>629.45</ele>
        <time>2024-08-13T07:38:40.368Z</time>
      </trkpt>
      <trkpt lat="45.74725270271301" lon="4.592703580856323">
        <ele>626.04</ele>
        <time>2024-08-13T07:38:45.587Z</time>
      </trkpt>
      <trkpt lat="45.74731707572937" lon="4.592403173446655">
        <ele>623.0</ele>
        <time>2024-08-13T07:38:50.810Z</time>
      </trkpt>
      <trkpt lat="45.747231245040894" lon="4.590611457824707">
        <ele>620.19</ele>
        <time>2024-08-13T07:38:56.053Z</time>
      </trkpt>
      <trkpt lat="45.74727416038513" lon="4.590214490890503">
        <ele>617.76</ele>
        <time>2024-08-13T07:39:01.301Z</time>
      </trkpt>
      <trkpt lat="45.74739217758179" lon="4.589881896972656">
        <ele>615.37</ele>
        <time>2024-08-13T07:39:06.553Z</time>
      </trkpt>
      <trkpt lat="45.74758529663086" lon="4.589720964431763">
        <ele>612.7</ele>
        <time>2024-08-13T07:39:11.808Z</time>
      </trkpt>
      <trkpt lat="45.74790716171265" lon="4.589688777923584">
        <ele>609.15</ele>
        <time>2024-08-13T07:39:17.069Z</time>
      </trkpt>
      <trkpt lat="45.74801445007324" lon="4.589645862579346">
        <ele>606.42</ele>
        <time>2024-08-13T07:39:22.331Z</time>
      </trkpt>
      <trkpt lat="45.7481324672699" lon="4.589442014694214">
        <ele>604.34</ele>
        <time>2024-08-13T07:39:27.596Z</time>
      </trkpt>
      <trkpt lat="45.74828267097473" lon="4.589334726333618">
        <ele>602.08</ele>
        <time>2024-08-13T07:39:32.864Z</time>
      </trkpt>
      <trkpt lat="45.748711824417114" lon="4.589409828186035">
        <ele>599.11</ele>
        <time>2024-08-13T07:39:38.139Z</time>
      </trkpt>
      <trkpt lat="45.74886202812195" lon="4.589495658874512">
        <ele>596.49</ele>
        <time>2024-08-13T07:39:43.416Z</time>
      </trkpt>
      <trkpt lat="45.74886211194098" lon="4.589495658874512">
        <ele>594.37</ele>
        <time>2024-08-13T07:39:48.693Z</time>
      </trkpt>
      <trkpt lat="45.74925899505615" lon="4.589731693267822">
        <ele>591.48</ele>
        <time>2024-08-13T07:39:53.977Z</time>
      </trkpt>
      <trkpt lat="45.749259078875184" lon="4.589731693267822">
        <ele>589.56</ele>
        <time>2024-08-13T07:39:59.261Z</time>
      </trkpt>
      <trkpt lat="45.74957021512091" lon="4.589914083480835">
        <ele>587.37</ele>
        <time>2024-08-13T07:40:04.551Z</time>
      </trkpt>
      <trkpt lat="45.749688148498535" lon="4.589935541152954">
        <ele>585.77</ele>
        <time>2024-08-13T07:40:09.843Z</time>
      </trkpt>
      <trkpt lat="45.74968823231757" lon="4.589935541152954">
        <ele>584.32</ele>
        <time>2024-08-13T07:40:15.135Z</time>
      </trkpt>
      <trkpt lat="45.74977397918701" lon="4.589967727661133">
        <ele>582.91</ele>
        <time>2024-08-13T07:40:20.428Z</time>
      </trkpt>
      <trkpt lat="45.749934911727905" lon="4.589881896972656">
        <ele>581.7</ele>
        <time>2024-08-13T07:40:25.724Z</time>
      </trkpt>
      <trkpt lat="45.7500422000885" lon="4.589688777923584">
        <ele>580.61</ele>
        <time>2024-08-13T07:40:31.023Z</time>
      </trkpt>
      <trkpt lat="45.75007438659668" lon="4.589409828186035">
        <ele>579.03</ele>
        <time>2024-08-13T07:40:36.325Z</time>
      </trkpt>
      <trkpt lat="45.75006365776062" lon="4.589248895645142">
        <ele>577.44</ele>
        <time>2024-08-13T07:40:41.629Z</time>
      </trkpt>
      <trkpt lat="45.74989199638367" lon="4.5886266231536865">
        <ele>575.62</ele>
        <time>2024-08-13T07:40:46.940Z</time>
      </trkpt>
      <trkpt lat="45.749924182891846" lon="4.588229656219482">
        <ele>573.9</ele>
        <time>2024-08-13T07:40:52.256Z</time>
      </trkpt>
      <trkpt lat="45.75004228390753" lon="4.587671756744385">
        <ele>571.34</ele>
        <time>2024-08-13T07:40:57.578Z</time>
      </trkpt>
      <trkpt lat="45.75023531913757" lon="4.586598873138428">
        <ele>568.89</ele>
        <time>2024-08-13T07:41:02.912Z</time>
      </trkpt>
      <trkpt lat="45.75035333633423" lon="4.586437940597534">
        <ele>566.45</ele>
        <time>2024-08-13T07:41:08.249Z</time>
      </trkpt>
      <trkpt lat="45.7506000995636" lon="4.586094617843628">
        <ele>563.59</ele>
        <time>2024-08-13T07:41:13.592Z</time>
      </trkpt>
      <trkpt lat="45.750707387924194" lon="4.585697650909424">
        <ele>561.01</ele>
        <time>2024-08-13T07:41:18.939Z</time>
      </trkpt>
      <trkpt lat="45.75077176094055" lon="4.585214853286743">
        <ele>558.08</ele>
        <time>2024-08-13T07:41:24.292Z</time>
      </trkpt>
      <trkpt lat="45.75077184475958" lon="4.585214853286743">
        <ele>555.2</ele>
        <time>2024-08-13T07:41:29.645Z</time>
      </trkpt>
      <trkpt lat="45.75079321861267" lon="4.585064649581909">
        <ele>551.89</ele>
        <time>2024-08-13T07:41:35.000Z</time>
      </trkpt>
      <trkpt lat="45.750975608825684" lon="4.584152698516846">
        <ele>547.7</ele>
        <time>2024-08-13T07:41:40.365Z</time>
      </trkpt>
      <trkpt lat="45.751018607988954" lon="4.584002494812012">
        <ele>543.96</ele>
        <time>2024-08-13T07:41:45.732Z</time>
      </trkpt>
      <trkpt lat="45.75113654136658" lon="4.583637714385986">
        <ele>539.83</ele>
        <time>2024-08-13T07:41:51.104Z</time>
      </trkpt>
      <trkpt lat="45.75113662518561" lon="4.583262205123901">
        <ele>535.31</ele>
        <time>2024-08-13T07:41:56.480Z</time>
      </trkpt>
      <trkpt lat="45.75101852416992" lon="4.581996202468872">
        <ele>529.71</ele>
        <time>2024-08-13T07:42:01.870Z</time>
      </trkpt>
      <trkpt lat="45.750911235809326" lon="4.581427574157715">
        <ele>524.66</ele>
        <time>2024-08-13T07:42:07.267Z</time>
      </trkpt>
      <trkpt lat="45.750685930252075" lon="4.580504894256592">
        <ele>519.25</ele>
        <time>2024-08-13T07:42:12.675Z</time>
      </trkpt>
      <trkpt lat="45.75038552284241" lon="4.579646587371826">
        <ele>513.84</ele>
        <time>2024-08-13T07:42:18.093Z</time>
      </trkpt>
      <trkpt lat="45.74958086013794" lon="4.577479362487793">
        <ele>507.88</ele>
        <time>2024-08-13T07:42:23.539Z</time>
      </trkpt>
      <trkpt lat="45.74881911277771" lon="4.576224088668823">
        <ele>502.42</ele>
        <time>2024-08-13T07:42:29.003Z</time>
      </trkpt>
      <trkpt lat="45.748432874679565" lon="4.575376510620117">
        <ele>497.74</ele>
        <time>2024-08-13T07:42:34.479Z</time>
      </trkpt>
      <trkpt lat="45.74836858548224" lon="4.575172662734985">
        <ele>493.94</ele>
        <time>2024-08-13T07:42:39.957Z</time>
      </trkpt>
      <trkpt lat="45.74814319610596" lon="4.574464559555054">
        <ele>490.07</ele>
        <time>2024-08-13T07:42:45.444Z</time>
      </trkpt>
      <trkpt lat="45.747917890548706" lon="4.573638439178467">
        <ele>486.46</ele>
        <time>2024-08-13T07:42:50.941Z</time>
      </trkpt>
      <trkpt lat="45.74777841567993" lon="4.57306981086731">
        <ele>483.54</ele>
        <time>2024-08-13T07:42:56.445Z</time>
      </trkpt>
      <trkpt lat="45.747714042663574" lon="4.572855234146118">
        <ele>481.2</ele>
        <time>2024-08-13T07:43:01.951Z</time>
      </trkpt>
      <trkpt lat="45.74765377677977" lon="4.572794968262315">
        <ele>479.11</ele>
        <time>2024-08-13T07:43:07.458Z</time>
      </trkpt>
      <trkpt lat="45.7476282119751" lon="4.572769403457642">
        <ele>480.05</ele>
        <time>2024-08-13T07:43:12.966Z</time>
      </trkpt>
      <trkpt lat="45.74753173626959" lon="4.572758674621582">
        <ele>478.8</ele>
        <time>2024-08-13T07:43:18.476Z</time>
      </trkpt>
      <trkpt lat="45.747456550598145" lon="4.5728230476379395">
        <ele>477.27</ele>
        <time>2024-08-13T07:43:23.987Z</time>
      </trkpt>
      <trkpt lat="45.747424364089966" lon="4.572973251342773">
        <ele>475.78</ele>
        <time>2024-08-13T07:43:29.500Z</time>
      </trkpt>
      <trkpt lat="45.747435092926025" lon="4.573144912719727">
        <ele>474.57</ele>
        <time>2024-08-13T07:43:35.015Z</time>
      </trkpt>
      <trkpt lat="45.7476282119751" lon="4.573960304260254">
        <ele>473.76</ele>
        <time>2024-08-13T07:43:40.539Z</time>
      </trkpt>
      <trkpt lat="45.74773550033569" lon="4.574571847915649">
        <ele>472.44</ele>
        <time>2024-08-13T07:43:46.070Z</time>
      </trkpt>
      <trkpt lat="45.74812173843384" lon="4.576438665390015">
        <ele>470.2</ele>
        <time>2024-08-13T07:43:51.623Z</time>
      </trkpt>
      <trkpt lat="45.74834704399109" lon="4.577329158782959">
        <ele>468.59</ele>
        <time>2024-08-13T07:43:57.187Z</time>
      </trkpt>
      <trkpt lat="45.748454332351685" lon="4.57780122756958">
        <ele>467.11</ele>
        <time>2024-08-13T07:44:02.756Z</time>
      </trkpt>
      <trkpt lat="45.748443603515625" lon="4.578005075454712">
        <ele>465.62</ele>
        <time>2024-08-13T07:44:08.328Z</time>
      </trkpt>
      <trkpt lat="45.74838995933533" lon="4.578133821487427">
        <ele>463.98</ele>
        <time>2024-08-13T07:44:13.901Z</time>
      </trkpt>
      <trkpt lat="45.74831485748291" lon="4.578208923339844">
        <ele>462.19</ele>
        <time>2024-08-13T07:44:19.476Z</time>
      </trkpt>
      <trkpt lat="45.748175382614136" lon="4.578187465667725">
        <ele>460.05</ele>
        <time>2024-08-13T07:44:25.053Z</time>
      </trkpt>
      <trkpt lat="45.74803590774536" lon="4.578026533126831">
        <ele>457.5</ele>
        <time>2024-08-13T07:44:30.633Z</time>
      </trkpt>
      <trkpt lat="45.74760675430298" lon="4.577436447143555">
        <ele>454.69</ele>
        <time>2024-08-13T07:44:36.222Z</time>
      </trkpt>
      <trkpt lat="45.74725270271301" lon="4.576749801635742">
        <ele>450.98</ele>
        <time>2024-08-13T07:44:41.821Z</time>
      </trkpt>
      <trkpt lat="45.74699521064758" lon="4.576395750045776">
        <ele>447.42</ele>
        <time>2024-08-13T07:44:47.426Z</time>
      </trkpt>
      <trkpt lat="45.74626564979553" lon="4.57554817199707">
        <ele>443.9</ele>
        <time>2024-08-13T07:44:53.046Z</time>
      </trkpt>
      <trkpt lat="45.746265733614564" lon="4.57554817199707">
        <ele>440.95</ele>
        <time>2024-08-13T07:44:58.666Z</time>
      </trkpt>
      <trkpt lat="45.74605107307434" lon="4.575129747390747">
        <ele>437.86</ele>
        <time>2024-08-13T07:45:04.292Z</time>
      </trkpt>
      <trkpt lat="45.74583649635315" lon="4.5748186111450195">
        <ele>435.14</ele>
        <time>2024-08-13T07:45:09.922Z</time>
      </trkpt>
      <trkpt lat="45.745439529418945" lon="4.574346542358398">
        <ele>432.08</ele>
        <time>2024-08-13T07:45:15.561Z</time>
      </trkpt>
      <trkpt lat="45.745214223861694" lon="4.573767185211182">
        <ele>428.62</ele>
        <time>2024-08-13T07:45:21.207Z</time>
      </trkpt>
      <trkpt lat="45.7450532913208" lon="4.573498964309692">
        <ele>425.6</ele>
        <time>2024-08-13T07:45:26.857Z</time>
      </trkpt>
      <trkpt lat="45.744688510894775" lon="4.573262929916382">
        <ele>423.32</ele>
        <time>2024-08-13T07:45:32.513Z</time>
      </trkpt>
      <trkpt lat="45.7446026802063" lon="4.573026895523071">
        <ele>420.34</ele>
        <time>2024-08-13T07:45:38.172Z</time>
      </trkpt>
      <trkpt lat="45.74434518814087" lon="4.572125673294067">
        <ele>417.34</ele>
        <time>2024-08-13T07:45:43.842Z</time>
      </trkpt>
      <trkpt lat="45.744205713272095" lon="4.571342468261719">
        <ele>414.0</ele>
        <time>2024-08-13T07:45:49.521Z</time>
      </trkpt>
      <trkpt lat="45.74413061141968" lon="4.571160078048706">
        <ele>411.05</ele>
        <time>2024-08-13T07:45:55.203Z</time>
      </trkpt>
      <trkpt lat="45.743937492370605" lon="4.571106433868408">
        <ele>408.37</ele>
        <time>2024-08-13T07:46:00.888Z</time>
      </trkpt>
      <trkpt lat="45.743701457977295" lon="4.571138620376587">
        <ele>405.87</ele>
        <time>2024-08-13T07:46:06.577Z</time>
      </trkpt>
      <trkpt lat="45.74284315109253" lon="4.571256637573242">
        <ele>403.11</ele>
        <time>2024-08-13T07:46:12.280Z</time>
      </trkpt>
      <trkpt lat="45.742489183321595" lon="4.571288824081421">
        <ele>401.23</ele>
        <time>2024-08-13T07:46:17.988Z</time>
      </trkpt>
      <trkpt lat="45.7421350479126" lon="4.5713210105896">
        <ele>399.48</ele>
        <time>2024-08-13T07:46:23.702Z</time>
      </trkpt>
      <trkpt lat="45.74192055501044" lon="4.571396112442017">
        <ele>398.29</ele>
        <time>2024-08-13T07:46:29.419Z</time>
      </trkpt>
      <trkpt lat="45.74184545315802" lon="4.571417570114136">
        <ele>397.4</ele>
        <time>2024-08-13T07:46:35.138Z</time>
      </trkpt>
      <trkpt lat="45.74166297912598" lon="4.57155704498291">
        <ele>396.85</ele>
        <time>2024-08-13T07:46:40.860Z</time>
      </trkpt>
      <trkpt lat="45.741469860076904" lon="4.571632146835327">
        <ele>396.52</ele>
        <time>2024-08-13T07:46:46.585Z</time>
      </trkpt>
      <trkpt lat="45.74128746986389" lon="4.571664333343506">
        <ele>396.63</ele>
        <time>2024-08-13T07:46:52.313Z</time>
      </trkpt>
      <trkpt lat="45.74124455451965" lon="4.571664333343506">
        <ele>396.67</ele>
        <time>2024-08-13T07:46:58.042Z</time>
      </trkpt>
      <trkpt lat="45.74115872383118" lon="4.571599960327148">
        <ele>396.85</ele>
        <time>2024-08-13T07:47:03.772Z</time>
      </trkpt>
      <trkpt lat="45.74111580848694" lon="4.5714497566223145">
        <ele>396.98</ele>
        <time>2024-08-13T07:47:09.504Z</time>
      </trkpt>
      <trkpt lat="45.741126537323" lon="4.571267366409302">
        <ele>398.33</ele>
        <time>2024-08-13T07:47:15.238Z</time>
      </trkpt>
      <trkpt lat="45.741190910339355" lon="4.5711493492126465">
        <ele>397.1</ele>
        <time>2024-08-13T07:47:20.974Z</time>
      </trkpt>
      <trkpt lat="45.74140548706055" lon="4.570913314819336">
        <ele>395.68</ele>
        <time>2024-08-13T07:47:26.714Z</time>
      </trkpt>
      <trkpt lat="45.741459215059876" lon="4.570859670639038">
        <ele>394.54</ele>
        <time>2024-08-13T07:47:32.455Z</time>
      </trkpt>
      <trkpt lat="45.74164152145386" lon="4.570795297622681">
        <ele>393.41</ele>
        <time>2024-08-13T07:47:38.199Z</time>
      </trkpt>
      <trkpt lat="45.74183472432196" lon="4.570730924606323">
        <ele>392.27</ele>
        <time>2024-08-13T07:47:43.946Z</time>
      </trkpt>
      <trkpt lat="45.742027759552" lon="4.5706236362457275">
        <ele>391.1</ele>
        <time>2024-08-13T07:47:49.697Z</time>
      </trkpt>
      <trkpt lat="45.74219950474799" lon="4.570441246032715">
        <ele>390.24</ele>
        <time>2024-08-13T07:47:55.451Z</time>
      </trkpt>
      <trkpt lat="45.74228533543646" lon="4.570387601852417">
        <ele>389.36</ele>
        <time>2024-08-13T07:48:01.207Z</time>
      </trkpt>
      <trkpt lat="45.74234970845282" lon="4.570344686508179">
        <ele>388.63</ele>
        <time>2024-08-13T07:48:06.964Z</time>
      </trkpt>
      <trkpt lat="45.74255347251892" lon="4.570237398147583">
        <ele>387.75</ele>
        <time>2024-08-13T07:48:12.724Z</time>
      </trkpt>
      <trkpt lat="45.74255355633795" lon="4.570237398147583">
        <ele>386.98</ele>
        <time>2024-08-13T07:48:18.484Z</time>
      </trkpt>
      <trkpt lat="45.7426393032074" lon="4.570194482803345">
        <ele>386.13</ele>
        <time>2024-08-13T07:48:24.246Z</time>
      </trkpt>
      <trkpt lat="45.74280023574829" lon="4.570173025131226">
        <ele>385.11</ele>
        <time>2024-08-13T07:48:30.010Z</time>
      </trkpt>
      <trkpt lat="45.743004167452455" lon="4.569990634918213">
        <ele>383.88</ele>
        <time>2024-08-13T07:48:35.778Z</time>
      </trkpt>
      <trkpt lat="45.74314364232123" lon="4.569872617721558">
        <ele>382.74</ele>
        <time>2024-08-13T07:48:41.549Z</time>
      </trkpt>
      <trkpt lat="45.743272388353944" lon="4.5697760581970215">
        <ele>381.65</ele>
        <time>2024-08-13T07:48:47.322Z</time>
      </trkpt>
      <trkpt lat="45.74358344078064" lon="4.569540023803711">
        <ele>380.55</ele>
        <time>2024-08-13T07:48:53.101Z</time>
      </trkpt>
      <trkpt lat="45.744237983599305" lon="4.569132328033447">
        <ele>378.9</ele>
        <time>2024-08-13T07:48:58.891Z</time>
      </trkpt>
      <trkpt lat="45.74435591697693" lon="4.56905722618103">
        <ele>377.62</ele>
        <time>2024-08-13T07:49:04.683Z</time>
      </trkpt>
      <trkpt lat="45.744720781221986" lon="4.5687031745910645">
        <ele>375.93</ele>
        <time>2024-08-13T07:49:10.482Z</time>
      </trkpt>
      <trkpt lat="45.74484944343567" lon="4.56856369972229">
        <ele>374.68</ele>
        <time>2024-08-13T07:49:16.284Z</time>
      </trkpt>
      <trkpt lat="45.7450532913208" lon="4.568338394165039">
        <ele>373.5</ele>
        <time>2024-08-13T07:49:22.090Z</time>
      </trkpt>
      <trkpt lat="45.74511766433716" lon="4.568284749984741">
        <ele>372.25</ele>
        <time>2024-08-13T07:49:27.897Z</time>
      </trkpt>
      <trkpt lat="45.745214223861694" lon="4.568209648132324">
        <ele>370.96</ele>
        <time>2024-08-13T07:49:33.706Z</time>
      </trkpt>
      <trkpt lat="45.74551463127136" lon="4.568166732788086">
        <ele>369.43</ele>
        <time>2024-08-13T07:49:39.520Z</time>
      </trkpt>
      <trkpt lat="45.745664834976196" lon="4.568080902099609">
        <ele>367.91</ele>
        <time>2024-08-13T07:49:45.336Z</time>
      </trkpt>
      <trkpt lat="45.745965242385864" lon="4.567769765853882">
        <ele>366.29</ele>
        <time>2024-08-13T07:49:51.158Z</time>
      </trkpt>
      <trkpt lat="45.74675917625427" lon="4.566793441772461">
        <ele>364.07</ele>
        <time>2024-08-13T07:49:56.997Z</time>
      </trkpt>
      <trkpt lat="45.746759260073304" lon="4.566793441772461">
        <ele>362.48</ele>
        <time>2024-08-13T07:50:02.836Z</time>
      </trkpt>
      <trkpt lat="45.74714541435242" lon="4.566256999969482">
        <ele>360.57</ele>
        <time>2024-08-13T07:50:08.684Z</time>
      </trkpt>
      <trkpt lat="45.74729561805725" lon="4.565892219543457">
        <ele>358.86</ele>
        <time>2024-08-13T07:50:14.536Z</time>
      </trkpt>
      <trkpt lat="45.747435092926025" lon="4.565548896789551">
        <ele>357.15</ele>
        <time>2024-08-13T07:50:20.393Z</time>
      </trkpt>
      <trkpt lat="45.747703313827515" lon="4.564690589904785">
        <ele>355.59</ele>
        <time>2024-08-13T07:50:26.260Z</time>
      </trkpt>
      <trkpt lat="45.74783205986023" lon="4.564594030380249">
        <ele>353.5</ele>
        <time>2024-08-13T07:50:32.130Z</time>
      </trkpt>
      <trkpt lat="45.747939348220825" lon="4.5645081996917725">
        <ele>351.45</ele>
        <time>2024-08-13T07:50:38.002Z</time>
      </trkpt>
      <trkpt lat="45.74829339981079" lon="4.5638322830200195">
        <ele>349.05</ele>
        <time>2024-08-13T07:50:43.883Z</time>
      </trkpt>
      <trkpt lat="45.749505842104554" lon="4.562491178512573">
        <ele>345.83</ele>
        <time>2024-08-13T07:50:49.789Z</time>
      </trkpt>
      <trkpt lat="45.749698877334595" lon="4.5623838901519775">
        <ele>344.19</ele>
        <time>2024-08-13T07:50:55.698Z</time>
      </trkpt>
      <trkpt lat="45.75011730194092" lon="4.562255144119263">
        <ele>342.4</ele>
        <time>2024-08-13T07:51:01.614Z</time>
      </trkpt>
      <trkpt lat="45.75033187866211" lon="4.562126398086548">
        <ele>340.69</ele>
        <time>2024-08-13T07:51:07.534Z</time>
      </trkpt>
      <trkpt lat="45.75078248977661" lon="4.561750888824463">
        <ele>339.06</ele>
        <time>2024-08-13T07:51:13.462Z</time>
      </trkpt>
      <trkpt lat="45.75110443867743" lon="4.561675786972046">
        <ele>337.72</ele>
        <time>2024-08-13T07:51:19.395Z</time>
      </trkpt>
      <trkpt lat="45.7515013217926" lon="4.561665058135986">
        <ele>336.61</ele>
        <time>2024-08-13T07:51:25.335Z</time>
      </trkpt>
      <trkpt lat="45.751683712005615" lon="4.561622142791748">
        <ele>335.29</ele>
        <time>2024-08-13T07:51:31.278Z</time>
      </trkpt>
      <trkpt lat="45.75224161148071" lon="4.561418294906616">
        <ele>333.21</ele>
        <time>2024-08-13T07:51:37.230Z</time>
      </trkpt>
      <trkpt lat="45.75252056121826" lon="4.561353921890259">
        <ele>332.14</ele>
        <time>2024-08-13T07:51:43.186Z</time>
      </trkpt>
      <trkpt lat="45.75322866439819" lon="4.56133246421814">
        <ele>331.11</ele>
        <time>2024-08-13T07:51:49.154Z</time>
      </trkpt>
      <trkpt lat="45.75375437736511" lon="4.561246633529663">
        <ele>329.86</ele>
        <time>2024-08-13T07:51:55.130Z</time>
      </trkpt>
      <trkpt lat="45.75426936149597" lon="4.561192989349365">
        <ele>329.19</ele>
        <time>2024-08-13T07:52:01.114Z</time>
      </trkpt>
      <trkpt lat="45.75448393821716" lon="4.561225175857544">
        <ele>328.87</ele>
        <time>2024-08-13T07:52:07.102Z</time>
      </trkpt>
      <trkpt lat="45.75461276806891" lon="4.561289548873901">
        <ele>328.66</ele>
        <time>2024-08-13T07:52:13.092Z</time>
      </trkpt>
      <trkpt lat="45.754698514938354" lon="4.56133246421814">
        <ele>328.5</ele>
        <time>2024-08-13T07:52:19.083Z</time>
      </trkpt>
      <trkpt lat="45.75522422790527" lon="4.5617616176605225">
        <ele>328.41</ele>
        <time>2024-08-13T07:52:25.084Z</time>
      </trkpt>
      <trkpt lat="45.75557098723948" lon="4.562012990936637">
        <ele>328.23</ele>
        <time>2024-08-13T07:52:31.091Z</time>
      </trkpt>
      <trkpt lat="45.755653381347656" lon="4.56207275390625">
        <ele>324.91</ele>
        <time>2024-08-13T07:52:37.100Z</time>
      </trkpt>
      <trkpt lat="45.75702667236328" lon="4.56282377243042">
        <ele>321.37</ele>
        <time>2024-08-13T07:52:43.132Z</time>
      </trkpt>
      <trkpt lat="45.75718768872321" lon="4.562888145446777">
        <ele>318.37</ele>
        <time>2024-08-13T07:52:49.167Z</time>
      </trkpt>
      <trkpt lat="45.758239114657044" lon="4.563156366348267">
        <ele>314.16</ele>
        <time>2024-08-13T07:52:55.219Z</time>
      </trkpt>
      <trkpt lat="45.75823903083801" lon="4.563156366348267">
        <ele>311.17</ele>
        <time>2024-08-13T07:53:01.271Z</time>
      </trkpt>
      <trkpt lat="45.75912952423096" lon="4.56356406211853">
        <ele>307.5</ele>
        <time>2024-08-13T07:53:07.338Z</time>
      </trkpt>
      <trkpt lat="45.75977325439453" lon="4.563746452331543">
        <ele>304.76</ele>
        <time>2024-08-13T07:53:13.416Z</time>
      </trkpt>
      <trkpt lat="45.76008439064026" lon="4.563853740692139">
        <ele>302.47</ele>
        <time>2024-08-13T07:53:19.499Z</time>
      </trkpt>
      <trkpt lat="45.7605242729187" lon="4.564046859741211">
        <ele>299.99</ele>
        <time>2024-08-13T07:53:25.589Z</time>
      </trkpt>
      <trkpt lat="45.76076030731201" lon="4.564121961593628">
        <ele>298.06</ele>
        <time>2024-08-13T07:53:31.683Z</time>
      </trkpt>
      <trkpt lat="45.76186537742615" lon="4.564218521118164">
        <ele>295.64</ele>
        <time>2024-08-13T07:53:37.795Z</time>
      </trkpt>
      <trkpt lat="45.76303482055664" lon="4.564261436462402">
        <ele>294.14</ele>
        <time>2024-08-13T07:53:43.925Z</time>
      </trkpt>
      <trkpt lat="45.763163566589355" lon="4.564304351806641">
        <ele>293.02</ele>
        <time>2024-08-13T07:53:50.058Z</time>
      </trkpt>
      <trkpt lat="45.7634961605072" lon="4.564476013183594">
        <ele>292.1</ele>
        <time>2024-08-13T07:53:56.196Z</time>
      </trkpt>
      <trkpt lat="45.76358199119568" lon="4.564497470855713">
        <ele>291.6</ele>
        <time>2024-08-13T07:54:02.336Z</time>
      </trkpt>
      <trkpt lat="45.76380729675293" lon="4.564465284347534">
        <ele>291.17</ele>
        <time>2024-08-13T07:54:08.479Z</time>
      </trkpt>
      <trkpt lat="45.76433300971985" lon="4.5642077922821045">
        <ele>291.18</ele>
        <time>2024-08-13T07:54:14.631Z</time>
      </trkpt>
      <trkpt lat="45.76448321342468" lon="4.564143419265747">
        <ele>291.64</ele>
        <time>2024-08-13T07:54:20.786Z</time>
      </trkpt>
      <trkpt lat="45.76485872268677" lon="4.563993215560913">
        <ele>292.76</ele>
        <time>2024-08-13T07:54:26.947Z</time>
      </trkpt>
      <trkpt lat="45.764901638031006" lon="4.563950300216675">
        <ele>293.61</ele>
        <time>2024-08-13T07:54:33.109Z</time>
      </trkpt>
      <trkpt lat="45.764955366030335" lon="4.563864469528198">
        <ele>294.6</ele>
        <time>2024-08-13T07:54:39.272Z</time>
      </trkpt>
      <trkpt lat="45.76537370681763" lon="4.5640575885772705">
        <ele>295.18</ele>
        <time>2024-08-13T07:54:45.442Z</time>
      </trkpt>
      <trkpt lat="45.76558828353882" lon="4.564239978790283">
        <ele>295.81</ele>
        <time>2024-08-13T07:54:51.616Z</time>
      </trkpt>
      <trkpt lat="45.766156911849976" lon="4.5648193359375">
        <ele>296.28</ele>
        <time>2024-08-13T07:54:57.801Z</time>
      </trkpt>
      <trkpt lat="45.76685437001288" lon="4.565227031707764">
        <ele>296.61</ele>
        <time>2024-08-13T07:55:03.998Z</time>
      </trkpt>
      <trkpt lat="45.7670795917511" lon="4.565387964248657">
        <ele>296.7</ele>
        <time>2024-08-13T07:55:10.199Z</time>
      </trkpt>
      <trkpt lat="45.767197608947754" lon="4.565548896789551">
        <ele>296.62</ele>
        <time>2024-08-13T07:55:16.403Z</time>
      </trkpt>
      <trkpt lat="45.76732635498047" lon="4.5658063888549805">
        <ele>296.39</ele>
        <time>2024-08-13T07:55:22.610Z</time>
      </trkpt>
      <trkpt lat="45.7675302028656" lon="4.566267728805542">
        <ele>295.96</ele>
        <time>2024-08-13T07:55:28.824Z</time>
      </trkpt>
      <trkpt lat="45.76772332191467" lon="4.5665788650512695">
        <ele>295.51</ele>
        <time>2024-08-13T07:55:35.042Z</time>
      </trkpt>
      <trkpt lat="45.767723405733705" lon="4.5665788650512695">
        <ele>294.98</ele>
        <time>2024-08-13T07:55:41.260Z</time>
      </trkpt>
      <trkpt lat="45.76801300048828" lon="4.567018747329712">
        <ele>294.19</ele>
        <time>2024-08-13T07:55:47.485Z</time>
      </trkpt>
      <trkpt lat="45.768163204193115" lon="4.567147493362427">
        <ele>293.44</ele>
        <time>2024-08-13T07:55:53.713Z</time>
      </trkpt>
      <trkpt lat="45.76861381530762" lon="4.567415714263916">
        <ele>292.63</ele>
        <time>2024-08-13T07:55:59.949Z</time>
      </trkpt>
      <trkpt lat="45.770426988601685" lon="4.568413496017456">
        <ele>291.52</ele>
        <time>2024-08-13T07:56:06.216Z</time>
      </trkpt>
      <trkpt lat="45.771135091781616" lon="4.568681716918945">
        <ele>290.37</ele>
        <time>2024-08-13T07:56:12.494Z</time>
      </trkpt>
      <trkpt lat="45.77113517560065" lon="4.568681716918945">
        <ele>289.53</ele>
        <time>2024-08-13T07:56:18.772Z</time>
      </trkpt>
      <trkpt lat="45.77154278755188" lon="4.568799734115601">
        <ele>288.56</ele>
        <time>2024-08-13T07:56:25.057Z</time>
      </trkpt>
      <trkpt lat="45.771929025650024" lon="4.568831920623779">
        <ele>287.82</ele>
        <time>2024-08-13T07:56:31.348Z</time>
      </trkpt>
      <trkpt lat="45.77255129814148" lon="4.568853378295898">
        <ele>287.21</ele>
        <time>2024-08-13T07:56:37.649Z</time>
      </trkpt>
      <trkpt lat="45.77327013015747" lon="4.568896293640137">
        <ele>286.51</ele>
        <time>2024-08-13T07:56:43.962Z</time>
      </trkpt>
      <trkpt lat="45.77351689338684" lon="4.568874835968018">
        <ele>286.41</ele>
        <time>2024-08-13T07:56:50.279Z</time>
      </trkpt>
      <trkpt lat="45.7737744692713" lon="4.568756818771362">
        <ele>286.37</ele>
        <time>2024-08-13T07:56:56.600Z</time>
      </trkpt>
      <trkpt lat="45.7739782333374" lon="4.568638801574707">
        <ele>286.25</ele>
        <time>2024-08-13T07:57:02.925Z</time>
      </trkpt>
      <trkpt lat="45.77411770820618" lon="4.568595886230469">
        <ele>286.21</ele>
        <time>2024-08-13T07:57:09.252Z</time>
      </trkpt>
      <trkpt lat="45.774168418720365" lon="4.568595886230469">
        <ele>286.16</ele>
        <time>2024-08-13T07:57:15.580Z</time>
      </trkpt>
      <trkpt lat="45.77411770820618" lon="4.568595886230469">
        <ele>287.32</ele>
        <time>2024-08-13T07:57:21.908Z</time>
      </trkpt>
      <trkpt lat="45.7739782333374" lon="4.568638801574707">
        <ele>288.15</ele>
        <time>2024-08-13T07:57:28.239Z</time>
      </trkpt>
      <trkpt lat="45.77384948730469" lon="4.568263292312622">
        <ele>289.81</ele>
        <time>2024-08-13T07:57:34.574Z</time>
      </trkpt>
      <trkpt lat="45.773710096254945" lon="4.56807017326355">
        <ele>291.5</ele>
        <time>2024-08-13T07:57:40.913Z</time>
      </trkpt>
      <trkpt lat="45.77323794364929" lon="4.567769765853882">
        <ele>293.99</ele>
        <time>2024-08-13T07:57:47.260Z</time>
      </trkpt>
      <trkpt lat="45.773162841796875" lon="4.567662477493286">
        <ele>296.03</ele>
        <time>2024-08-13T07:57:53.608Z</time>
      </trkpt>
      <trkpt lat="45.773152112960815" lon="4.567544460296631">
        <ele>297.9</ele>
        <time>2024-08-13T07:57:59.958Z</time>
      </trkpt>
      <trkpt lat="45.77303409576416" lon="4.567544460296631">
        <ele>300.31</ele>
        <time>2024-08-13T07:58:06.310Z</time>
      </trkpt>
      <trkpt lat="45.772894620895386" lon="4.567437171936035">
        <ele>302.88</ele>
        <time>2024-08-13T07:58:12.664Z</time>
      </trkpt>
      <trkpt lat="45.772658586502075" lon="4.566525220870972">
        <ele>304.91</ele>
        <time>2024-08-13T07:58:19.029Z</time>
      </trkpt>
      <trkpt lat="45.77222943305969" lon="4.5658278465271">
        <ele>307.3</ele>
        <time>2024-08-13T07:58:25.405Z</time>
      </trkpt>
      <trkpt lat="45.77207922935486" lon="4.565548896789551">
        <ele>309.63</ele>
        <time>2024-08-13T07:58:31.784Z</time>
      </trkpt>
      <trkpt lat="45.771950483322144" lon="4.565452337265015">
        <ele>311.89</ele>
        <time>2024-08-13T07:58:38.166Z</time>
      </trkpt>
      <trkpt lat="45.7716178894043" lon="4.5652806758880615">
        <ele>314.61</ele>
        <time>2024-08-13T07:58:44.553Z</time>
      </trkpt>
      <trkpt lat="45.77132821083069" lon="4.564969539642334">
        <ele>317.03</ele>
        <time>2024-08-13T07:58:50.946Z</time>
      </trkpt>
      <trkpt lat="45.771167278289795" lon="4.564400911331177">
        <ele>318.81</ele>
        <time>2024-08-13T07:58:57.346Z</time>
      </trkpt>
      <trkpt lat="45.77089914120734" lon="4.563885927200317">
        <ele>321.07</ele>
        <time>2024-08-13T07:59:03.753Z</time>
      </trkpt>
      <trkpt lat="45.770899057388306" lon="4.563885927200317">
        <ele>322.48</ele>
        <time>2024-08-13T07:59:10.160Z</time>
      </trkpt>
      <trkpt lat="45.77078104019165" lon="4.5636820793151855">
        <ele>323.91</ele>
        <time>2024-08-13T07:59:16.570Z</time>
      </trkpt>
      <trkpt lat="45.77070593833923" lon="4.563488960266113">
        <ele>325.19</ele>
        <time>2024-08-13T07:59:22.983Z</time>
      </trkpt>
      <trkpt lat="45.770673751831055" lon="4.563231468200684">
        <ele>326.32</ele>
        <time>2024-08-13T07:59:29.399Z</time>
      </trkpt>
      <trkpt lat="45.770630836486816" lon="4.562512636184692">
        <ele>327.78</ele>
        <time>2024-08-13T07:59:35.823Z</time>
      </trkpt>
      <trkpt lat="45.77055565081537" lon="4.561663381755352">
        <ele>329.93</ele>
        <time>2024-08-13T07:59:42.256Z</time>
      </trkpt>
      <trkpt lat="45.77052354812622" lon="4.561300277709961">
        <ele>336.26</ele>
        <time>2024-08-13T07:59:48.693Z</time>
      </trkpt>
      <trkpt lat="45.770426988601685" lon="4.560613632202148">
        <ele>339.59</ele>
        <time>2024-08-13T07:59:55.138Z</time>
      </trkpt>
      <trkpt lat="45.77024459838867" lon="4.5600879192352295">
        <ele>342.49</ele>
        <time>2024-08-13T08:00:01.590Z</time>
      </trkpt>
      <trkpt lat="45.7701051235199" lon="4.559465646743774">
        <ele>345.69</ele>
        <time>2024-08-13T08:00:08.049Z</time>
      </trkpt>
      <trkpt lat="45.77007293701172" lon="4.55883264541626">
        <ele>347.98</ele>
        <time>2024-08-13T08:00:14.515Z</time>
      </trkpt>
      <trkpt lat="45.77003010548651" lon="4.558553695678711">
        <ele>350.16</ele>
        <time>2024-08-13T08:00:20.985Z</time>
      </trkpt>
      <trkpt lat="45.769922733306885" lon="4.5576417446136475">
        <ele>352.45</ele>
        <time>2024-08-13T08:00:27.465Z</time>
      </trkpt>
      <trkpt lat="45.769901275634766" lon="4.55707311630249">
        <ele>354.48</ele>
        <time>2024-08-13T08:00:33.951Z</time>
      </trkpt>
      <trkpt lat="45.769718969240785" lon="4.5561933517456055">
        <ele>356.97</ele>
        <time>2024-08-13T08:00:40.448Z</time>
      </trkpt>
      <trkpt lat="45.769633054733276" lon="4.555753469467163">
        <ele>359.37</ele>
        <time>2024-08-13T08:00:46.950Z</time>
      </trkpt>
      <trkpt lat="45.769697427749634" lon="4.555099010467529">
        <ele>361.81</ele>
        <time>2024-08-13T08:00:53.459Z</time>
      </trkpt>
      <trkpt lat="45.76983690261841" lon="4.554262161254883">
        <ele>364.56</ele>
        <time>2024-08-13T08:00:59.978Z</time>
      </trkpt>
      <trkpt lat="45.769944190979004" lon="4.553811550140381">
        <ele>367.05</ele>
        <time>2024-08-13T08:01:06.502Z</time>
      </trkpt>
      <trkpt lat="45.77003002166748" lon="4.55333948135376">
        <ele>369.66</ele>
        <time>2024-08-13T08:01:13.031Z</time>
      </trkpt>
      <trkpt lat="45.77022314071655" lon="4.552556276321411">
        <ele>372.25</ele>
        <time>2024-08-13T08:01:19.570Z</time>
      </trkpt>
      <trkpt lat="45.77026605606079" lon="4.551976919174194">
        <ele>374.69</ele>
        <time>2024-08-13T08:01:26.115Z</time>
      </trkpt>
      <trkpt lat="45.77027678489685" lon="4.55134391784668">
        <ele>376.88</ele>
        <time>2024-08-13T08:01:32.667Z</time>
      </trkpt>
      <trkpt lat="45.77023386955261" lon="4.55108642578125">
        <ele>378.81</ele>
        <time>2024-08-13T08:01:39.222Z</time>
      </trkpt>
      <trkpt lat="45.770137310028076" lon="4.550946950912476">
        <ele>380.64</ele>
        <time>2024-08-13T08:01:45.780Z</time>
      </trkpt>
      <trkpt lat="45.76984763145447" lon="4.550743103027344">
        <ele>382.34</ele>
        <time>2024-08-13T08:01:52.343Z</time>
      </trkpt>
      <trkpt lat="45.76978325843811" lon="4.5506250858306885">
        <ele>383.88</ele>
        <time>2024-08-13T08:01:58.907Z</time>
      </trkpt>
      <trkpt lat="45.76975107192993" lon="4.550410509109497">
        <ele>385.32</ele>
        <time>2024-08-13T08:02:05.474Z</time>
      </trkpt>
      <trkpt lat="45.76974034309387" lon="4.54984188079834">
        <ele>386.91</ele>
        <time>2024-08-13T08:02:12.047Z</time>
      </trkpt>
      <trkpt lat="45.76957949437201" lon="4.549198150634766">
        <ele>388.28</ele>
        <time>2024-08-13T08:02:18.628Z</time>
      </trkpt>
      <trkpt lat="45.76979398727417" lon="4.546998739242554">
        <ele>390.54</ele>
        <time>2024-08-13T08:02:25.234Z</time>
      </trkpt>
      <trkpt lat="45.76984763145447" lon="4.546698331832886">
        <ele>391.9</ele>
        <time>2024-08-13T08:02:31.843Z</time>
      </trkpt>
      <trkpt lat="45.7699013594538" lon="4.546462297439575">
        <ele>393.08</ele>
        <time>2024-08-13T08:02:38.455Z</time>
      </trkpt>
      <trkpt lat="45.769901275634766" lon="4.546462297439575">
        <ele>394.02</ele>
        <time>2024-08-13T08:02:45.067Z</time>
      </trkpt>
      <trkpt lat="45.769922733306885" lon="4.54633355140686">
        <ele>394.82</ele>
        <time>2024-08-13T08:02:51.680Z</time>
      </trkpt>
      <trkpt lat="45.76987981796265" lon="4.545861482620239">
        <ele>395.48</ele>
        <time>2024-08-13T08:02:58.299Z</time>
      </trkpt>
      <trkpt lat="45.76974034309387" lon="4.54534649848938">
        <ele>396.21</ele>
        <time>2024-08-13T08:03:04.924Z</time>
      </trkpt>
      <trkpt lat="45.76946139335632" lon="4.544713497161865">
        <ele>396.9</ele>
        <time>2024-08-13T08:03:11.557Z</time>
      </trkpt>
      <trkpt lat="45.769171714782715" lon="4.544166326522827">
        <ele>397.2</ele>
        <time>2024-08-13T08:03:18.198Z</time>
      </trkpt>
      <trkpt lat="45.7689893245697" lon="4.543962478637695">
        <ele>397.28</ele>
        <time>2024-08-13T08:03:24.843Z</time>
      </trkpt>
      <trkpt lat="45.76874256134033" lon="4.5437586307525635">
        <ele>397.33</ele>
        <time>2024-08-13T08:03:31.492Z</time>
      </trkpt>
      <trkpt lat="45.76862454414368" lon="4.54359769821167">
        <ele>397.44</ele>
        <time>2024-08-13T08:03:38.144Z</time>
      </trkpt>
      <trkpt lat="45.76835632324219" lon="4.543136358261108">
        <ele>397.65</ele>
        <time>2024-08-13T08:03:44.803Z</time>
      </trkpt>
      <trkpt lat="45.768163204193115" lon="4.542900323867798">
        <ele>397.95</ele>
        <time>2024-08-13T08:03:51.466Z</time>
      </trkpt>
      <trkpt lat="45.76797008514404" lon="4.542739391326904">
        <ele>398.36</ele>
        <time>2024-08-13T08:03:58.132Z</time>
      </trkpt>
      <trkpt lat="45.767658948898315" lon="4.542696475982666">
        <ele>398.76</ele>
        <time>2024-08-13T08:04:04.803Z</time>
      </trkpt>
      <trkpt lat="45.767444372177124" lon="4.54258918762207">
        <ele>399.45</ele>
        <time>2024-08-13T08:04:11.478Z</time>
      </trkpt>
      <trkpt lat="45.7666289806366" lon="4.541741609573364">
        <ele>400.46</ele>
        <time>2024-08-13T08:04:18.169Z</time>
      </trkpt>
      <trkpt lat="45.76630711555481" lon="4.541548490524292">
        <ele>401.43</ele>
        <time>2024-08-13T08:04:24.866Z</time>
      </trkpt>
      <trkpt lat="45.76609253883362" lon="4.541462659835815">
        <ele>402.6</ele>
        <time>2024-08-13T08:04:31.566Z</time>
      </trkpt>
      <trkpt lat="45.76583513058722" lon="4.541441202163696">
        <ele>404.01</ele>
        <time>2024-08-13T08:04:38.270Z</time>
      </trkpt>
      <trkpt lat="45.76559901237488" lon="4.541290998458862">
        <ele>405.64</ele>
        <time>2024-08-13T08:04:44.979Z</time>
      </trkpt>
      <trkpt lat="45.76549172401428" lon="4.541130065917969">
        <ele>407.52</ele>
        <time>2024-08-13T08:04:51.690Z</time>
      </trkpt>
      <trkpt lat="45.765448892489076" lon="4.540829658508301">
        <ele>409.74</ele>
        <time>2024-08-13T08:04:58.404Z</time>
      </trkpt>
      <trkpt lat="45.765641927719116" lon="4.539971351623535">
        <ele>412.32</ele>
        <time>2024-08-13T08:05:05.129Z</time>
      </trkpt>
      <trkpt lat="45.765695571899414" lon="4.539531469345093">
        <ele>415.07</ele>
        <time>2024-08-13T08:05:11.859Z</time>
      </trkpt>
      <trkpt lat="45.76573848724365" lon="4.539016485214233">
        <ele>418.09</ele>
        <time>2024-08-13T08:05:18.594Z</time>
      </trkpt>
      <trkpt lat="45.765727842226624" lon="4.538780450820923">
        <ele>421.27</ele>
        <time>2024-08-13T08:05:25.332Z</time>
      </trkpt>
      <trkpt lat="45.765717113390565" lon="4.538372755050659">
        <ele>424.78</ele>
        <time>2024-08-13T08:05:32.075Z</time>
      </trkpt>
      <trkpt lat="45.76587796211243" lon="4.537374973297119">
        <ele>428.72</ele>
        <time>2024-08-13T08:05:38.829Z</time>
      </trkpt>
      <trkpt lat="45.765942335128784" lon="4.5368492603302">
        <ele>432.5</ele>
        <time>2024-08-13T08:05:45.589Z</time>
      </trkpt>
      <trkpt lat="45.765931606292725" lon="4.535754919052124">
        <ele>437.01</ele>
        <time>2024-08-13T08:05:52.361Z</time>
      </trkpt>
      <trkpt lat="45.76600670814514" lon="4.534521102905273">
        <ele>441.08</ele>
        <time>2024-08-13T08:05:59.147Z</time>
      </trkpt>
      <trkpt lat="45.766135454177856" lon="4.533802270889282">
        <ele>444.8</ele>
        <time>2024-08-13T08:06:05.941Z</time>
      </trkpt>
      <trkpt lat="45.766146183013916" lon="4.533437490463257">
        <ele>448.19</ele>
        <time>2024-08-13T08:06:12.740Z</time>
      </trkpt>
      <trkpt lat="45.76611399650574" lon="4.532976150512695">
        <ele>451.54</ele>
        <time>2024-08-13T08:06:19.544Z</time>
      </trkpt>
      <trkpt lat="45.76599597930908" lon="4.532225131988525">
        <ele>454.81</ele>
        <time>2024-08-13T08:06:26.356Z</time>
      </trkpt>
      <trkpt lat="45.76581358909607" lon="4.531388282775879">
        <ele>457.98</ele>
        <time>2024-08-13T08:06:33.178Z</time>
      </trkpt>
      <trkpt lat="45.76559901237488" lon="4.530766010284424">
        <ele>461.14</ele>
        <time>2024-08-13T08:06:40.008Z</time>
      </trkpt>
      <trkpt lat="45.76538443565369" lon="4.529821872711182">
        <ele>464.08</ele>
        <time>2024-08-13T08:06:46.849Z</time>
      </trkpt>
      <trkpt lat="45.76526641845703" lon="4.529596567153931">
        <ele>466.79</ele>
        <time>2024-08-13T08:06:53.693Z</time>
      </trkpt>
      <trkpt lat="45.76512702740729" lon="4.529478549957275">
        <ele>469.41</ele>
        <time>2024-08-13T08:07:00.540Z</time>
      </trkpt>
      <trkpt lat="45.7645583152771" lon="4.52911376953125">
        <ele>472.12</ele>
        <time>2024-08-13T08:07:07.397Z</time>
      </trkpt>
      <trkpt lat="45.76446175575256" lon="4.528974294662476">
        <ele>474.49</ele>
        <time>2024-08-13T08:07:14.256Z</time>
      </trkpt>
      <trkpt lat="45.764418840408325" lon="4.528845548629761">
        <ele>476.74</ele>
        <time>2024-08-13T08:07:21.117Z</time>
      </trkpt>
      <trkpt lat="45.764397382736206" lon="4.5286524295806885">
        <ele>478.93</ele>
        <time>2024-08-13T08:07:27.980Z</time>
      </trkpt>
      <trkpt lat="45.76437592506409" lon="4.5282769203186035">
        <ele>481.3</ele>
        <time>2024-08-13T08:07:34.847Z</time>
      </trkpt>
      <trkpt lat="45.76438665390015" lon="4.528040885925293">
        <ele>483.41</ele>
        <time>2024-08-13T08:07:41.717Z</time>
      </trkpt>
      <trkpt lat="45.7645046710968" lon="4.527847766876221">
        <ele>485.34</ele>
        <time>2024-08-13T08:07:48.590Z</time>
      </trkpt>
      <trkpt lat="45.764676332473755" lon="4.527815580368042">
        <ele>486.99</ele>
        <time>2024-08-13T08:07:55.465Z</time>
      </trkpt>
      <trkpt lat="45.76503038406372" lon="4.527826309204102">
        <ele>488.57</ele>
        <time>2024-08-13T08:08:02.346Z</time>
      </trkpt>
      <trkpt lat="45.76523423194885" lon="4.527783393859863">
        <ele>490.15</ele>
        <time>2024-08-13T08:08:09.230Z</time>
      </trkpt>
      <trkpt lat="45.76533079147339" lon="4.527719020843506">
        <ele>491.65</ele>
        <time>2024-08-13T08:08:16.116Z</time>
      </trkpt>
      <trkpt lat="45.765416622161865" lon="4.52761173248291">
        <ele>493.12</ele>
        <time>2024-08-13T08:08:23.004Z</time>
      </trkpt>
      <trkpt lat="45.76572775840759" lon="4.527171850204468">
        <ele>494.72</ele>
        <time>2024-08-13T08:08:29.899Z</time>
      </trkpt>
      <trkpt lat="45.76580286026001" lon="4.526957273483276">
        <ele>495.93</ele>
        <time>2024-08-13T08:08:36.796Z</time>
      </trkpt>
      <trkpt lat="45.76585650444031" lon="4.526796340942383">
        <ele>496.99</ele>
        <time>2024-08-13T08:08:43.695Z</time>
      </trkpt>
      <trkpt lat="45.76599597930908" lon="4.526088237762451">
        <ele>497.78</ele>
        <time>2024-08-13T08:08:50.603Z</time>
      </trkpt>
      <trkpt lat="45.7660710811615" lon="4.525852203369141">
        <ele>498.6</ele>
        <time>2024-08-13T08:08:57.514Z</time>
      </trkpt>
      <trkpt lat="45.766178369522095" lon="4.5256805419921875">
        <ele>499.43</ele>
        <time>2024-08-13T08:09:04.427Z</time>
      </trkpt>
      <trkpt lat="45.76659679412842" lon="4.525272846221924">
        <ele>500.41</ele>
        <time>2024-08-13T08:09:11.348Z</time>
      </trkpt>
      <trkpt lat="45.76677918434143" lon="4.524993896484375">
        <ele>501.17</ele>
        <time>2024-08-13T08:09:18.274Z</time>
      </trkpt>
      <trkpt lat="45.766950845718384" lon="4.524661302566528">
        <ele>501.85</ele>
        <time>2024-08-13T08:09:25.204Z</time>
      </trkpt>
      <trkpt lat="45.76700448989868" lon="4.524478912353516">
        <ele>502.5</ele>
        <time>2024-08-13T08:09:32.136Z</time>
      </trkpt>
      <trkpt lat="45.76699376106262" lon="4.52437162399292">
        <ele>503.11</ele>
        <time>2024-08-13T08:09:39.070Z</time>
      </trkpt>
      <trkpt lat="45.766950845718384" lon="4.524242877960205">
        <ele>503.72</ele>
        <time>2024-08-13T08:09:46.005Z</time>
      </trkpt>
      <trkpt lat="45.76685428619385" lon="4.524146318435669">
        <ele>504.29</ele>
        <time>2024-08-13T08:09:52.942Z</time>
      </trkpt>
      <trkpt lat="45.766671895980835" lon="4.523996114730835">
        <ele>504.79</ele>
        <time>2024-08-13T08:09:59.882Z</time>
      </trkpt>
      <trkpt lat="45.76655387878418" lon="4.523835182189941">
        <ele>505.24</ele>
        <time>2024-08-13T08:10:06.825Z</time>
      </trkpt>
      <trkpt lat="45.76647877693176" lon="4.523652791976929">
        <ele>505.73</ele>
        <time>2024-08-13T08:10:13.770Z</time>
      </trkpt>
      <trkpt lat="45.766435945406556" lon="4.5233845710754395">
        <ele>506.38</ele>
        <time>2024-08-13T08:10:20.719Z</time>
      </trkpt>
      <trkpt lat="45.76635003089905" lon="4.522290229797363">
        <ele>507.14</ele>
        <time>2024-08-13T08:10:27.680Z</time>
      </trkpt>
      <trkpt lat="45.76628565788269" lon="4.521968364715576">
        <ele>507.75</ele>
        <time>2024-08-13T08:10:34.645Z</time>
      </trkpt>
      <trkpt lat="45.76609253883362" lon="4.5211851596832275">
        <ele>508.33</ele>
        <time>2024-08-13T08:10:41.619Z</time>
      </trkpt>
      <trkpt lat="45.7660710811615" lon="4.520981311798096">
        <ele>508.98</ele>
        <time>2024-08-13T08:10:48.595Z</time>
      </trkpt>
      <trkpt lat="45.76608180999756" lon="4.520734548568726">
        <ele>509.7</ele>
        <time>2024-08-13T08:10:55.574Z</time>
      </trkpt>
      <trkpt lat="45.766167640686035" lon="4.5204877853393555">
        <ele>510.66</ele>
        <time>2024-08-13T08:11:02.556Z</time>
      </trkpt>
      <trkpt lat="45.76660752296448" lon="4.519586563110352">
        <ele>512.0</ele>
        <time>2024-08-13T08:11:09.550Z</time>
      </trkpt>
      <trkpt lat="45.76676845550537" lon="4.519232511520386">
        <ele>512.81</ele>
        <time>2024-08-13T08:11:16.549Z</time>
      </trkpt>
      <trkpt lat="45.76678991317749" lon="4.519071578979492">
        <ele>513.63</ele>
        <time>2024-08-13T08:11:23.550Z</time>
      </trkpt>
      <trkpt lat="45.76675772666931" lon="4.5188891887664795">
        <ele>514.39</ele>
        <time>2024-08-13T08:11:30.553Z</time>
      </trkpt>
      <trkpt lat="45.766650438308716" lon="4.518728256225586">
        <ele>515.16</ele>
        <time>2024-08-13T08:11:37.559Z</time>
      </trkpt>
      <trkpt lat="45.76628565788269" lon="4.518449306488037">
        <ele>515.85</ele>
        <time>2024-08-13T08:11:44.571Z</time>
      </trkpt>
      <trkpt lat="45.76609253883362" lon="4.518245458602905">
        <ele>516.47</ele>
        <time>2024-08-13T08:11:51.587Z</time>
      </trkpt>
      <trkpt lat="45.765942335128784" lon="4.518030881881714">
        <ele>517.04</ele>
        <time>2024-08-13T08:11:58.606Z</time>
      </trkpt>
      <trkpt lat="45.76584577560425" lon="4.517773389816284">
        <ele>517.75</ele>
        <time>2024-08-13T08:12:05.629Z</time>
      </trkpt>
      <trkpt lat="45.765695571899414" lon="4.517301321029663">
        <ele>518.41</ele>
        <time>2024-08-13T08:12:12.658Z</time>
      </trkpt>
      <trkpt lat="45.76559901237488" lon="4.51687216758728">
        <ele>519.05</ele>
        <time>2024-08-13T08:12:19.692Z</time>
      </trkpt>
      <trkpt lat="45.76552391052246" lon="4.516732692718506">
        <ele>519.56</ele>
        <time>2024-08-13T08:12:26.728Z</time>
      </trkpt>
      <trkpt lat="45.765416622161865" lon="4.516614675521851">
        <ele>520.05</ele>
        <time>2024-08-13T08:12:33.766Z</time>
      </trkpt>
      <trkpt lat="45.76530933380127" lon="4.516561031341553">
        <ele>520.49</ele>
        <time>2024-08-13T08:12:40.806Z</time>
      </trkpt>
      <trkpt lat="45.76496601104736" lon="4.516496658325195">
        <ele>520.92</ele>
        <time>2024-08-13T08:12:47.851Z</time>
      </trkpt>
      <trkpt lat="45.76484799385071" lon="4.516453742980957">
        <ele>521.35</ele>
        <time>2024-08-13T08:12:54.898Z</time>
      </trkpt>
      <trkpt lat="45.76472997665405" lon="4.51637864112854">
        <ele>521.79</ele>
        <time>2024-08-13T08:13:01.947Z</time>
      </trkpt>
      <trkpt lat="45.76463341712952" lon="4.516271352767944">
        <ele>522.21</ele>
        <time>2024-08-13T08:13:08.998Z</time>
      </trkpt>
      <trkpt lat="45.76452612876892" lon="4.516110420227051">
        <ele>522.71</ele>
        <time>2024-08-13T08:13:16.052Z</time>
      </trkpt>
      <trkpt lat="45.76442965306342" lon="4.515895843505859">
        <ele>523.22</ele>
        <time>2024-08-13T08:13:23.108Z</time>
      </trkpt>
      <trkpt lat="45.76436519622803" lon="4.5156168937683105">
        <ele>523.81</ele>
        <time>2024-08-13T08:13:30.168Z</time>
      </trkpt>
      <trkpt lat="45.76431155204773" lon="4.51513409614563">
        <ele>524.5</ele>
        <time>2024-08-13T08:13:37.233Z</time>
      </trkpt>
      <trkpt lat="45.76429009437561" lon="4.514780044555664">
        <ele>525.43</ele>
        <time>2024-08-13T08:13:44.302Z</time>
      </trkpt>
      <trkpt lat="45.76425790786743" lon="4.513911008834839">
        <ele>526.79</ele>
        <time>2024-08-13T08:13:51.381Z</time>
      </trkpt>
      <trkpt lat="45.76422572135925" lon="4.513664245605469">
        <ele>527.65</ele>
        <time>2024-08-13T08:13:58.463Z</time>
      </trkpt>
      <trkpt lat="45.76404333114624" lon="4.513009786605835">
        <ele>528.28</ele>
        <time>2024-08-13T08:14:05.553Z</time>
      </trkpt>
      <trkpt lat="45.763957500457764" lon="4.512516260147095">
        <ele>529.39</ele>
        <time>2024-08-13T08:14:12.648Z</time>
      </trkpt>
      <trkpt lat="45.763925313949585" lon="4.512280225753784">
        <ele>530.54</ele>
        <time>2024-08-13T08:14:19.746Z</time>
      </trkpt>
      <trkpt lat="45.76386094093323" lon="4.512119293212891">
        <ele>531.41</ele>
        <time>2024-08-13T08:14:26.846Z</time>
      </trkpt>
      <trkpt lat="45.76376438140869" lon="4.511979818344116">
        <ele>532.08</ele>
        <time>2024-08-13T08:14:33.948Z</time>
      </trkpt>
      <trkpt lat="45.763646364212036" lon="4.511904716491699">
        <ele>532.6</ele>
        <time>2024-08-13T08:14:41.052Z</time>
      </trkpt>
      <trkpt lat="45.763453245162964" lon="4.511915445327759">
        <ele>533.06</ele>
        <time>2024-08-13T08:14:48.159Z</time>
      </trkpt>
      <trkpt lat="45.76322793960571" lon="4.512033462524414">
        <ele>533.28</ele>
        <time>2024-08-13T08:14:55.270Z</time>
      </trkpt>
      <trkpt lat="45.762691497802734" lon="4.512559175491333">
        <ele>533.22</ele>
        <time>2024-08-13T08:15:02.392Z</time>
      </trkpt>
      <trkpt lat="45.76249837875366" lon="4.512709379196167">
        <ele>533.5</ele>
        <time>2024-08-13T08:15:09.517Z</time>
      </trkpt>
      <trkpt lat="45.76232671737671" lon="4.5127952098846436">
        <ele>533.65</ele>
        <time>2024-08-13T08:15:16.645Z</time>
      </trkpt>
      <trkpt lat="45.76197266578674" lon="4.512848854064941">
        <ele>533.89</ele>
        <time>2024-08-13T08:15:23.779Z</time>
      </trkpt>
      <trkpt lat="45.76180100440979" lon="4.512838125228882">
        <ele>534.19</ele>
        <time>2024-08-13T08:15:30.916Z</time>
      </trkpt>
      <trkpt lat="45.76161861419678" lon="4.512784481048584">
        <ele>534.62</ele>
        <time>2024-08-13T08:15:38.056Z</time>
      </trkpt>
      <trkpt lat="45.761479139328" lon="4.512687921524048">
        <ele>535.06</ele>
        <time>2024-08-13T08:15:45.198Z</time>
      </trkpt>
      <trkpt lat="45.76137185096741" lon="4.512548446655273">
        <ele>535.42</ele>
        <time>2024-08-13T08:15:52.342Z</time>
      </trkpt>
      <trkpt lat="45.76126456260681" lon="4.512312412261963">
        <ele>535.77</ele>
        <time>2024-08-13T08:15:59.489Z</time>
      </trkpt>
      <trkpt lat="45.76123237609863" lon="4.512119293212891">
        <ele>535.94</ele>
        <time>2024-08-13T08:16:06.639Z</time>
      </trkpt>
      <trkpt lat="45.76123237609863" lon="4.5119476318359375">
        <ele>535.88</ele>
        <time>2024-08-13T08:16:13.791Z</time>
      </trkpt>
      <trkpt lat="45.761425495147705" lon="4.510359764099121">
        <ele>535.29</ele>
        <time>2024-08-13T08:16:20.961Z</time>
      </trkpt>
      <trkpt lat="45.76155407354236" lon="4.510038401931524">
        <ele>535.49</ele>
        <time>2024-08-13T08:16:28.135Z</time>
      </trkpt>
      <trkpt lat="45.76155407354236" lon="4.510038318112493">
        <ele>535.48</ele>
        <time>2024-08-13T08:16:35.309Z</time>
      </trkpt>
      <trkpt lat="45.76155424118042" lon="4.510037899017334">
        <ele>533.43</ele>
        <time>2024-08-13T08:16:42.483Z</time>
      </trkpt>
      <trkpt lat="45.76175808906555" lon="4.509705305099487">
        <ele>532.52</ele>
        <time>2024-08-13T08:16:49.662Z</time>
      </trkpt>
      <trkpt lat="45.76212286949158" lon="4.509265422821045">
        <ele>531.31</ele>
        <time>2024-08-13T08:16:56.848Z</time>
      </trkpt>
      <trkpt lat="45.76217659749091" lon="4.50913667678833">
        <ele>530.18</ele>
        <time>2024-08-13T08:17:04.036Z</time>
      </trkpt>
      <trkpt lat="45.76221942901611" lon="4.508986473083496">
        <ele>529.02</ele>
        <time>2024-08-13T08:17:11.226Z</time>
      </trkpt>
      <trkpt lat="45.76223015785217" lon="4.508836269378662">
        <ele>527.78</ele>
        <time>2024-08-13T08:17:18.418Z</time>
      </trkpt>
      <trkpt lat="45.76221942901611" lon="4.508535861968994">
        <ele>526.28</ele>
        <time>2024-08-13T08:17:25.613Z</time>
      </trkpt>
      <trkpt lat="45.76227307319641" lon="4.50814962387085">
        <ele>524.81</ele>
        <time>2024-08-13T08:17:32.812Z</time>
      </trkpt>
      <trkpt lat="45.76235898770392" lon="4.507945775985718">
        <ele>523.38</ele>
        <time>2024-08-13T08:17:40.014Z</time>
      </trkpt>
      <trkpt lat="45.76247692108154" lon="4.507720470428467">
        <ele>521.91</ele>
        <time>2024-08-13T08:17:47.219Z</time>
      </trkpt>
      <trkpt lat="45.762659311294556" lon="4.507559537887573">
        <ele>520.54</ele>
        <time>2024-08-13T08:17:54.428Z</time>
      </trkpt>
      <trkpt lat="45.76303482055664" lon="4.507441520690918">
        <ele>519.46</ele>
        <time>2024-08-13T08:18:01.643Z</time>
      </trkpt>
      <trkpt lat="45.76329231262207" lon="4.507323503494263">
        <ele>518.21</ele>
        <time>2024-08-13T08:18:08.862Z</time>
      </trkpt>
      <trkpt lat="45.76401114463806" lon="4.506969451904297">
        <ele>517.25</ele>
        <time>2024-08-13T08:18:16.093Z</time>
      </trkpt>
      <trkpt lat="45.76426863670349" lon="4.506819248199463">
        <ele>516.31</ele>
        <time>2024-08-13T08:18:23.329Z</time>
      </trkpt>
      <trkpt lat="45.764440298080444" lon="4.50664758682251">
        <ele>515.34</ele>
        <time>2024-08-13T08:18:30.568Z</time>
      </trkpt>
      <trkpt lat="45.76492317952216" lon="4.506046772003174">
        <ele>514.37</ele>
        <time>2024-08-13T08:18:37.817Z</time>
      </trkpt>
      <trkpt lat="45.76536297798157" lon="4.505521059036255">
        <ele>514.01</ele>
        <time>2024-08-13T08:18:45.076Z</time>
      </trkpt>
      <trkpt lat="45.765427350997925" lon="4.5054030418396">
        <ele>513.83</ele>
        <time>2024-08-13T08:18:52.336Z</time>
      </trkpt>
      <trkpt lat="45.7654595375061" lon="4.505295753479004">
        <ele>513.84</ele>
        <time>2024-08-13T08:18:59.598Z</time>
      </trkpt>
      <trkpt lat="45.765470350161195" lon="4.505167007446289">
        <ele>514.05</ele>
        <time>2024-08-13T08:19:06.861Z</time>
      </trkpt>
      <trkpt lat="45.765438079833984" lon="4.5050060749053955">
        <ele>514.38</ele>
        <time>2024-08-13T08:19:14.126Z</time>
      </trkpt>
      <trkpt lat="45.76533079147339" lon="4.504845142364502">
        <ele>514.86</ele>
        <time>2024-08-13T08:19:21.393Z</time>
      </trkpt>
      <trkpt lat="45.764665603637695" lon="4.50414776802063">
        <ele>515.73</ele>
        <time>2024-08-13T08:19:28.674Z</time>
      </trkpt>
      <trkpt lat="45.76453685760498" lon="4.503922462463379">
        <ele>516.77</ele>
        <time>2024-08-13T08:19:35.958Z</time>
      </trkpt>
      <trkpt lat="45.764440298080444" lon="4.503622055053711">
        <ele>518.03</ele>
        <time>2024-08-13T08:19:43.246Z</time>
      </trkpt>
      <trkpt lat="45.764397382736206" lon="4.503353834152222">
        <ele>519.45</ele>
        <time>2024-08-13T08:19:50.537Z</time>
      </trkpt>
      <trkpt lat="45.764397382736206" lon="4.50313925743103">
        <ele>520.98</ele>
        <time>2024-08-13T08:19:57.830Z</time>
      </trkpt>
      <trkpt lat="45.76446175575256" lon="4.5027852058410645">
        <ele>522.65</ele>
        <time>2024-08-13T08:20:05.127Z</time>
      </trkpt>
      <trkpt lat="45.76462268829346" lon="4.502173662185669">
        <ele>524.76</ele>
        <time>2024-08-13T08:20:12.431Z</time>
      </trkpt>
      <trkpt lat="45.764676332473755" lon="4.50190544128418">
        <ele>526.82</ele>
        <time>2024-08-13T08:20:19.739Z</time>
      </trkpt>
      <trkpt lat="45.76467641629279" lon="4.50164794921875">
        <ele>529.01</ele>
        <time>2024-08-13T08:20:27.049Z</time>
      </trkpt>
      <trkpt lat="45.764676332473755" lon="4.50164794921875">
        <ele>530.97</ele>
        <time>2024-08-13T08:20:34.359Z</time>
      </trkpt>
      <trkpt lat="45.7646119594574" lon="4.501422643661499">
        <ele>533.14</ele>
        <time>2024-08-13T08:20:41.672Z</time>
      </trkpt>
      <trkpt lat="45.76451539993286" lon="4.5012617111206055">
        <ele>535.13</ele>
        <time>2024-08-13T08:20:48.988Z</time>
      </trkpt>
      <trkpt lat="45.76436519622803" lon="4.5011115074157715">
        <ele>537.09</ele>
        <time>2024-08-13T08:20:56.306Z</time>
      </trkpt>
      <trkpt lat="45.763903856277466" lon="4.500864744186401">
        <ele>539.09</ele>
        <time>2024-08-13T08:21:03.632Z</time>
      </trkpt>
      <trkpt lat="45.76374292373657" lon="4.500682353973389">
        <ele>540.77</ele>
        <time>2024-08-13T08:21:10.962Z</time>
      </trkpt>
      <trkpt lat="45.76357126235962" lon="4.500424861907959">
        <ele>542.43</ele>
        <time>2024-08-13T08:21:18.296Z</time>
      </trkpt>
      <trkpt lat="45.763399600982666" lon="4.500221014022827">
        <ele>544.02</ele>
        <time>2024-08-13T08:21:25.633Z</time>
      </trkpt>
      <trkpt lat="45.76322793960571" lon="4.5001137256622314">
        <ele>545.55</ele>
        <time>2024-08-13T08:21:32.973Z</time>
      </trkpt>
      <trkpt lat="45.7630455493927" lon="4.500049352645874">
        <ele>546.92</ele>
        <time>2024-08-13T08:21:40.316Z</time>
      </trkpt>
      <trkpt lat="45.76234817504883" lon="4.4999635219573975">
        <ele>548.35</ele>
        <time>2024-08-13T08:21:47.670Z</time>
      </trkpt>
      <trkpt lat="45.76206922531128" lon="4.499845504760742">
        <ele>549.42</ele>
        <time>2024-08-13T08:21:55.029Z</time>
      </trkpt>
      <trkpt lat="45.761908292770386" lon="4.499748945236206">
        <ele>550.23</ele>
        <time>2024-08-13T08:22:02.391Z</time>
      </trkpt>
      <trkpt lat="45.761704528704286" lon="4.499523639678955">
        <ele>550.93</ele>
        <time>2024-08-13T08:22:09.757Z</time>
      </trkpt>
      <trkpt lat="45.7615864276886" lon="4.498922824859619">
        <ele>551.3</ele>
        <time>2024-08-13T08:22:17.130Z</time>
      </trkpt>
      <trkpt lat="45.76152205467224" lon="4.4985902309417725">
        <ele>551.22</ele>
        <time>2024-08-13T08:22:24.507Z</time>
      </trkpt>
      <trkpt lat="45.76152205467224" lon="4.498300552368164">
        <ele>550.89</ele>
        <time>2024-08-13T08:22:31.887Z</time>
      </trkpt>
      <trkpt lat="45.76154359616339" lon="4.498128890991211">
        <ele>550.48</ele>
        <time>2024-08-13T08:22:39.269Z</time>
      </trkpt>
      <trkpt lat="45.76171517372131" lon="4.4972169399261475">
        <ele>549.93</ele>
        <time>2024-08-13T08:22:46.662Z</time>
      </trkpt>
      <trkpt lat="45.761704444885254" lon="4.49640154838562">
        <ele>549.3</ele>
        <time>2024-08-13T08:22:54.064Z</time>
      </trkpt>
      <trkpt lat="45.76159715652466" lon="4.496208429336548">
        <ele>548.59</ele>
        <time>2024-08-13T08:23:01.468Z</time>
      </trkpt>
      <trkpt lat="45.761436223983765" lon="4.496101140975952">
        <ele>547.62</ele>
        <time>2024-08-13T08:23:08.875Z</time>
      </trkpt>
      <trkpt lat="45.76128602027893" lon="4.496047496795654">
        <ele>546.58</ele>
        <time>2024-08-13T08:23:16.285Z</time>
      </trkpt>
      <trkpt lat="45.76109290122986" lon="4.496079683303833">
        <ele>545.32</ele>
        <time>2024-08-13T08:23:23.698Z</time>
      </trkpt>
      <trkpt lat="45.76079249382019" lon="4.496251344680786">
        <ele>543.59</ele>
        <time>2024-08-13T08:23:31.116Z</time>
      </trkpt>
      <trkpt lat="45.76055645942688" lon="4.496272802352905">
        <ele>541.99</ele>
        <time>2024-08-13T08:23:38.538Z</time>
      </trkpt>
      <trkpt lat="45.76026678085327" lon="4.496176242828369">
        <ele>540.45</ele>
        <time>2024-08-13T08:23:45.965Z</time>
      </trkpt>
      <trkpt lat="45.7600736618042" lon="4.496090412139893">
        <ele>538.95</ele>
        <time>2024-08-13T08:23:53.395Z</time>
      </trkpt>
      <trkpt lat="45.75960159301758" lon="4.496090412139893">
        <ele>537.44</ele>
        <time>2024-08-13T08:24:00.832Z</time>
      </trkpt>
      <trkpt lat="45.75885057449341" lon="4.495865106582642">
        <ele>536.46</ele>
        <time>2024-08-13T08:24:08.282Z</time>
      </trkpt>
      <trkpt lat="45.75834640301764" lon="4.49565052986145">
        <ele>535.13</ele>
        <time>2024-08-13T08:24:15.740Z</time>
      </trkpt>
      <trkpt lat="45.75834631919861" lon="4.49565052986145">
        <ele>534.01</ele>
        <time>2024-08-13T08:24:23.198Z</time>
      </trkpt>
      <trkpt lat="45.7576060295105" lon="4.495382308959961">
        <ele>532.46</ele>
        <time>2024-08-13T08:24:30.668Z</time>
      </trkpt>
      <trkpt lat="45.757455825805664" lon="4.495253562927246">
        <ele>531.47</ele>
        <time>2024-08-13T08:24:38.141Z</time>
      </trkpt>
      <trkpt lat="45.75739153660834" lon="4.4951677322387695">
        <ele>530.72</ele>
        <time>2024-08-13T08:24:45.616Z</time>
      </trkpt>
      <trkpt lat="45.75739145278931" lon="4.4951677322387695">
        <ele>530.19</ele>
        <time>2024-08-13T08:24:53.091Z</time>
      </trkpt>
      <trkpt lat="45.75732707977295" lon="4.495081901550293">
        <ele>529.82</ele>
        <time>2024-08-13T08:25:00.567Z</time>
      </trkpt>
      <trkpt lat="45.75727343559265" lon="4.494856595993042">
        <ele>529.72</ele>
        <time>2024-08-13T08:25:08.046Z</time>
      </trkpt>
      <trkpt lat="45.75726270675659" lon="4.494534730911255">
        <ele>529.87</ele>
        <time>2024-08-13T08:25:15.528Z</time>
      </trkpt>
      <trkpt lat="45.75728416442871" lon="4.4940948486328125">
        <ele>530.32</ele>
        <time>2024-08-13T08:25:23.015Z</time>
      </trkpt>
      <trkpt lat="45.75731635093689" lon="4.493826627731323">
        <ele>530.74</ele>
        <time>2024-08-13T08:25:30.505Z</time>
      </trkpt>
      <trkpt lat="45.757402181625366" lon="4.4937944412231445">
        <ele>531.49</ele>
        <time>2024-08-13T08:25:37.997Z</time>
      </trkpt>
      <trkpt lat="45.75754165649414" lon="4.493601322174072">
        <ele>532.35</ele>
        <time>2024-08-13T08:25:45.492Z</time>
      </trkpt>
      <trkpt lat="45.75830340385437" lon="4.492313861846924">
        <ele>533.28</ele>
        <time>2024-08-13T08:25:53.006Z</time>
      </trkpt>
      <trkpt lat="45.75883984565735" lon="4.491455554962158">
        <ele>534.69</ele>
        <time>2024-08-13T08:26:00.533Z</time>
      </trkpt>
      <trkpt lat="45.758925676345825" lon="4.491262435913086">
        <ele>536.0</ele>
        <time>2024-08-13T08:26:08.062Z</time>
      </trkpt>
      <trkpt lat="45.75900077819824" lon="4.491015672683716">
        <ele>537.36</ele>
        <time>2024-08-13T08:26:15.594Z</time>
      </trkpt>
      <trkpt lat="45.759150981903076" lon="4.49016809463501">
        <ele>539.1</ele>
        <time>2024-08-13T08:26:23.136Z</time>
      </trkpt>
      <trkpt lat="45.759183168411255" lon="4.489803314208984">
        <ele>540.73</ele>
        <time>2024-08-13T08:26:30.682Z</time>
      </trkpt>
      <trkpt lat="45.759183168411255" lon="4.489309787750244">
        <ele>542.39</ele>
        <time>2024-08-13T08:26:38.234Z</time>
      </trkpt>
      <trkpt lat="45.759193897247314" lon="4.489148855209351">
        <ele>543.95</ele>
        <time>2024-08-13T08:26:45.787Z</time>
      </trkpt>
      <trkpt lat="45.75927972793579" lon="4.488558769226074">
        <ele>545.63</ele>
        <time>2024-08-13T08:26:53.347Z</time>
      </trkpt>
      <trkpt lat="45.75932264328003" lon="4.488312005996704">
        <ele>547.01</ele>
        <time>2024-08-13T08:27:00.910Z</time>
      </trkpt>
      <trkpt lat="45.759408473968506" lon="4.4880759716033936">
        <ele>548.42</ele>
        <time>2024-08-13T08:27:08.476Z</time>
      </trkpt>
      <trkpt lat="45.75952649116516" lon="4.487743377685547">
        <ele>549.72</ele>
        <time>2024-08-13T08:27:16.046Z</time>
      </trkpt>
      <trkpt lat="45.75959086418152" lon="4.4875288009643555">
        <ele>551.05</ele>
        <time>2024-08-13T08:27:23.619Z</time>
      </trkpt>
      <trkpt lat="45.75960159301758" lon="4.487260580062866">
        <ele>552.3</ele>
        <time>2024-08-13T08:27:31.195Z</time>
      </trkpt>
      <trkpt lat="45.75952649116516" lon="4.486831426620483">
        <ele>553.56</ele>
        <time>2024-08-13T08:27:38.776Z</time>
      </trkpt>
      <trkpt lat="45.75935482978821" lon="4.486327171325684">
        <ele>554.79</ele>
        <time>2024-08-13T08:27:46.363Z</time>
      </trkpt>
      <trkpt lat="45.75935482978821" lon="4.485962390899658">
        <ele>555.97</ele>
        <time>2024-08-13T08:27:53.954Z</time>
      </trkpt>
      <trkpt lat="45.75937628746033" lon="4.485694169998169">
        <ele>557.0</ele>
        <time>2024-08-13T08:28:01.548Z</time>
      </trkpt>
      <trkpt lat="45.75953722000122" lon="4.484492540359497">
        <ele>558.16</ele>
        <time>2024-08-13T08:28:09.156Z</time>
      </trkpt>
      <trkpt lat="45.75953730382025" lon="4.484492540359497">
        <ele>558.92</ele>
        <time>2024-08-13T08:28:16.764Z</time>
      </trkpt>
      <trkpt lat="45.75955867767334" lon="4.484342336654663">
        <ele>559.56</ele>
        <time>2024-08-13T08:28:24.374Z</time>
      </trkpt>
      <trkpt lat="45.759665966033936" lon="4.483999013900757">
        <ele>560.14</ele>
        <time>2024-08-13T08:28:31.988Z</time>
      </trkpt>
      <trkpt lat="45.759698152542114" lon="4.483795166015625">
        <ele>560.57</ele>
        <time>2024-08-13T08:28:39.604Z</time>
      </trkpt>
      <trkpt lat="45.759698236361146" lon="4.483795166015625">
        <ele>560.96</ele>
        <time>2024-08-13T08:28:47.220Z</time>
      </trkpt>
      <trkpt lat="45.75971961021423" lon="4.48366641998291">
        <ele>561.26</ele>
        <time>2024-08-13T08:28:54.838Z</time>
      </trkpt>
      <trkpt lat="45.75971961021423" lon="4.4834303855896">
        <ele>561.48</ele>
        <time>2024-08-13T08:29:02.458Z</time>
      </trkpt>
      <trkpt lat="45.759698152542114" lon="4.483001232147217">
        <ele>561.53</ele>
        <time>2024-08-13T08:29:10.083Z</time>
      </trkpt>
      <trkpt lat="45.75974106788635" lon="4.482722282409668">
        <ele>561.67</ele>
        <time>2024-08-13T08:29:17.711Z</time>
      </trkpt>
      <trkpt lat="45.75982689857483" lon="4.482475519180298">
        <ele>561.88</ele>
        <time>2024-08-13T08:29:25.342Z</time>
      </trkpt>
      <trkpt lat="45.76000928878784" lon="4.482100009918213">
        <ele>562.12</ele>
        <time>2024-08-13T08:29:32.978Z</time>
      </trkpt>
      <trkpt lat="45.760159492492676" lon="4.48192834854126">
        <ele>562.21</ele>
        <time>2024-08-13T08:29:40.618Z</time>
      </trkpt>
      <trkpt lat="45.7610285282135" lon="4.481263160705566">
        <ele>562.07</ele>
        <time>2024-08-13T08:29:48.273Z</time>
      </trkpt>
      <trkpt lat="45.76127529144287" lon="4.481134414672852">
        <ele>561.99</ele>
        <time>2024-08-13T08:29:55.933Z</time>
      </trkpt>
      <trkpt lat="45.761414766311646" lon="4.481091499328613">
        <ele>561.87</ele>
        <time>2024-08-13T08:30:03.595Z</time>
      </trkpt>
      <trkpt lat="45.76160788536072" lon="4.481080770492554">
        <ele>561.73</ele>
        <time>2024-08-13T08:30:11.260Z</time>
      </trkpt>
      <trkpt lat="45.761929750442505" lon="4.48117733001709">
        <ele>561.59</ele>
        <time>2024-08-13T08:30:18.930Z</time>
      </trkpt>
      <trkpt lat="45.762219512835145" lon="4.4812095165252686">
        <ele>561.28</ele>
        <time>2024-08-13T08:30:26.605Z</time>
      </trkpt>
      <trkpt lat="45.76280951499939" lon="4.481273889541626">
        <ele>561.07</ele>
        <time>2024-08-13T08:30:34.289Z</time>
      </trkpt>
      <trkpt lat="45.76297044754028" lon="4.481252431869507">
        <ele>560.82</ele>
        <time>2024-08-13T08:30:41.976Z</time>
      </trkpt>
      <trkpt lat="45.76386094093323" lon="4.4808125495910645">
        <ele>560.56</ele>
        <time>2024-08-13T08:30:49.678Z</time>
      </trkpt>
      <trkpt lat="45.76398968696594" lon="4.48068380355835">
        <ele>560.35</ele>
        <time>2024-08-13T08:30:57.382Z</time>
      </trkpt>
      <trkpt lat="45.7641077041626" lon="4.480469226837158">
        <ele>560.19</ele>
        <time>2024-08-13T08:31:05.090Z</time>
      </trkpt>
      <trkpt lat="45.764139890670776" lon="4.480254650115967">
        <ele>559.95</ele>
        <time>2024-08-13T08:31:12.800Z</time>
      </trkpt>
      <trkpt lat="45.764139890670776" lon="4.48016881942749">
        <ele>559.77</ele>
        <time>2024-08-13T08:31:20.511Z</time>
      </trkpt>
      <trkpt lat="45.76413997448981" lon="4.48016881942749">
        <ele>559.65</ele>
        <time>2024-08-13T08:31:28.222Z</time>
      </trkpt>
      <trkpt lat="45.76411843299866" lon="4.47992205619812">
        <ele>559.55</ele>
        <time>2024-08-13T08:31:35.936Z</time>
      </trkpt>
      <trkpt lat="45.76408624649048" lon="4.479621648788452">
        <ele>559.5</ele>
        <time>2024-08-13T08:31:43.653Z</time>
      </trkpt>
      <trkpt lat="45.76409697532654" lon="4.479503631591797">
        <ele>559.53</ele>
        <time>2024-08-13T08:31:51.371Z</time>
      </trkpt>
      <trkpt lat="45.76409705914557" lon="4.479503631591797">
        <ele>559.58</ele>
        <time>2024-08-13T08:31:59.089Z</time>
      </trkpt>
      <trkpt lat="45.76409697532654" lon="4.479460716247559">
        <ele>559.68</ele>
        <time>2024-08-13T08:32:06.808Z</time>
      </trkpt>
      <trkpt lat="45.764193534851074" lon="4.479267597198486">
        <ele>559.86</ele>
        <time>2024-08-13T08:32:14.530Z</time>
      </trkpt>
      <trkpt lat="45.76435446739197" lon="4.4790637493133545">
        <ele>560.1</ele>
        <time>2024-08-13T08:32:22.255Z</time>
      </trkpt>
      <trkpt lat="45.764676332473755" lon="4.478881359100342">
        <ele>560.31</ele>
        <time>2024-08-13T08:32:29.986Z</time>
      </trkpt>
      <trkpt lat="45.764933824539185" lon="4.478774070739746">
        <ele>560.58</ele>
        <time>2024-08-13T08:32:37.721Z</time>
      </trkpt>
      <trkpt lat="45.76509475708008" lon="4.478645324707031">
        <ele>560.83</ele>
        <time>2024-08-13T08:32:45.459Z</time>
      </trkpt>
      <trkpt lat="45.76523423194885" lon="4.478452205657959">
        <ele>561.23</ele>
        <time>2024-08-13T08:32:53.200Z</time>
      </trkpt>
      <trkpt lat="45.76553463935852" lon="4.477733373641968">
        <ele>561.91</ele>
        <time>2024-08-13T08:33:00.950Z</time>
      </trkpt>
      <trkpt lat="45.76580286026001" lon="4.477304220199585">
        <ele>562.34</ele>
        <time>2024-08-13T08:33:08.707Z</time>
      </trkpt>
      <trkpt lat="45.765953063964844" lon="4.477121829986572">
        <ele>562.71</ele>
        <time>2024-08-13T08:33:16.467Z</time>
      </trkpt>
      <trkpt lat="45.76606035232544" lon="4.477035999298096">
        <ele>563.09</ele>
        <time>2024-08-13T08:33:24.229Z</time>
      </trkpt>
      <trkpt lat="45.766189098358154" lon="4.476982355117798">
        <ele>563.45</ele>
        <time>2024-08-13T08:33:31.993Z</time>
      </trkpt>
      <trkpt lat="45.766457319259644" lon="4.47693943977356">
        <ele>563.91</ele>
        <time>2024-08-13T08:33:39.761Z</time>
      </trkpt>
      <trkpt lat="45.7666289806366" lon="4.476896524429321">
        <ele>564.34</ele>
        <time>2024-08-13T08:33:47.532Z</time>
      </trkpt>
      <trkpt lat="45.76677918434143" lon="4.476821422576904">
        <ele>564.72</ele>
        <time>2024-08-13T08:33:55.306Z</time>
      </trkpt>
      <trkpt lat="45.766918659210205" lon="4.4766926765441895">
        <ele>565.09</ele>
        <time>2024-08-13T08:34:03.082Z</time>
      </trkpt>
      <trkpt lat="45.767658948898315" lon="4.475812911987305">
        <ele>565.73</ele>
        <time>2024-08-13T08:34:10.874Z</time>
      </trkpt>
      <trkpt lat="45.7679808139801" lon="4.475491046905518">
        <ele>566.04</ele>
        <time>2024-08-13T08:34:18.672Z</time>
      </trkpt>
      <trkpt lat="45.76820611953735" lon="4.475330114364624">
        <ele>566.26</ele>
        <time>2024-08-13T08:34:26.474Z</time>
      </trkpt>
      <trkpt lat="45.768206203356385" lon="4.475330114364624">
        <ele>566.46</ele>
        <time>2024-08-13T08:34:34.276Z</time>
      </trkpt>
      <trkpt lat="45.76836705207825" lon="4.475233554840088">
        <ele>566.61</ele>
        <time>2024-08-13T08:34:42.081Z</time>
      </trkpt>
      <trkpt lat="45.76872110366821" lon="4.475104808807373">
        <ele>566.63</ele>
        <time>2024-08-13T08:34:49.892Z</time>
      </trkpt>
      <trkpt lat="45.76896786689758" lon="4.474986791610718">
        <ele>566.67</ele>
        <time>2024-08-13T08:34:57.707Z</time>
      </trkpt>
      <trkpt lat="45.76922535896301" lon="4.474825859069824">
        <ele>566.67</ele>
        <time>2024-08-13T08:35:05.526Z</time>
      </trkpt>
      <trkpt lat="45.76937556266785" lon="4.474697113037109">
        <ele>566.63</ele>
        <time>2024-08-13T08:35:13.348Z</time>
      </trkpt>
      <trkpt lat="45.7695472240448" lon="4.474450349807739">
        <ele>566.55</ele>
        <time>2024-08-13T08:35:21.174Z</time>
      </trkpt>
      <trkpt lat="45.76962232589722" lon="4.474267959594727">
        <ele>566.36</ele>
        <time>2024-08-13T08:35:29.002Z</time>
      </trkpt>
      <trkpt lat="45.769665241241455" lon="4.474096298217773">
        <ele>566.12</ele>
        <time>2024-08-13T08:35:36.832Z</time>
      </trkpt>
      <trkpt lat="45.76977252960205" lon="4.473860263824463">
        <ele>565.81</ele>
        <time>2024-08-13T08:35:44.666Z</time>
      </trkpt>
      <trkpt lat="45.769890546798706" lon="4.473710060119629">
        <ele>565.65</ele>
        <time>2024-08-13T08:35:52.502Z</time>
      </trkpt>
      <trkpt lat="45.77003002166748" lon="4.4735705852508545">
        <ele>565.53</ele>
        <time>2024-08-13T08:36:00.341Z</time>
      </trkpt>
      <trkpt lat="45.770201683044434" lon="4.47344183921814">
        <ele>565.36</ele>
        <time>2024-08-13T08:36:08.183Z</time>
      </trkpt>
      <trkpt lat="45.77045917510986" lon="4.473323822021484">
        <ele>565.18</ele>
        <time>2024-08-13T08:36:16.029Z</time>
      </trkpt>
      <trkpt lat="45.770673751831055" lon="4.473323822021484">
        <ele>565.1</ele>
        <time>2024-08-13T08:36:23.879Z</time>
      </trkpt>
      <trkpt lat="45.77080249786377" lon="4.473366737365723">
        <ele>564.99</ele>
        <time>2024-08-13T08:36:31.731Z</time>
      </trkpt>
      <trkpt lat="45.7708025816828" lon="4.473366737365723">
        <ele>564.86</ele>
        <time>2024-08-13T08:36:39.583Z</time>
      </trkpt>
      <trkpt lat="45.77099570073187" lon="4.473516941070557">
        <ele>564.89</ele>
        <time>2024-08-13T08:36:47.438Z</time>
      </trkpt>
      <trkpt lat="45.77123165130615" lon="4.473731517791748">
        <ele>564.92</ele>
        <time>2024-08-13T08:36:55.298Z</time>
      </trkpt>
      <trkpt lat="45.771403312683105" lon="4.473860263824463">
        <ele>564.83</ele>
        <time>2024-08-13T08:37:03.161Z</time>
      </trkpt>
      <trkpt lat="45.771564245224" lon="4.4739460945129395">
        <ele>564.57</ele>
        <time>2024-08-13T08:37:11.027Z</time>
      </trkpt>
      <trkpt lat="45.77177882194519" lon="4.474010467529297">
        <ele>564.16</ele>
        <time>2024-08-13T08:37:18.896Z</time>
      </trkpt>
      <trkpt lat="45.77198266983032" lon="4.474053382873535">
        <ele>563.94</ele>
        <time>2024-08-13T08:37:26.769Z</time>
      </trkpt>
      <trkpt lat="45.772165060043335" lon="4.474053382873535">
        <ele>563.87</ele>
        <time>2024-08-13T08:37:34.644Z</time>
      </trkpt>
      <trkpt lat="45.77228307723999" lon="4.474010467529297">
        <ele>563.77</ele>
        <time>2024-08-13T08:37:42.521Z</time>
      </trkpt>
      <trkpt lat="45.772444009780884" lon="4.473892450332642">
        <ele>563.7</ele>
        <time>2024-08-13T08:37:50.401Z</time>
      </trkpt>
      <trkpt lat="45.77254056930542" lon="4.473699331283569">
        <ele>563.63</ele>
        <time>2024-08-13T08:37:58.284Z</time>
      </trkpt>
      <trkpt lat="45.77259421348572" lon="4.4734954833984375">
        <ele>563.58</ele>
        <time>2024-08-13T08:38:06.169Z</time>
      </trkpt>
      <trkpt lat="45.77260494232178" lon="4.473356008529663">
        <ele>563.55</ele>
        <time>2024-08-13T08:38:14.056Z</time>
      </trkpt>
      <trkpt lat="45.77254056930542" lon="4.473077058792114">
        <ele>563.56</ele>
        <time>2024-08-13T08:38:21.946Z</time>
      </trkpt>
      <trkpt lat="45.77254065312445" lon="4.473077058792114">
        <ele>563.59</ele>
        <time>2024-08-13T08:38:29.836Z</time>
      </trkpt>
      <trkpt lat="45.77249765396118" lon="4.472959041595459">
        <ele>563.64</ele>
        <time>2024-08-13T08:38:37.728Z</time>
      </trkpt>
      <trkpt lat="45.772465467453" lon="4.472787380218506">
        <ele>563.73</ele>
        <time>2024-08-13T08:38:45.622Z</time>
      </trkpt>
      <trkpt lat="45.772465467453" lon="4.472658634185791">
        <ele>563.92</ele>
        <time>2024-08-13T08:38:53.517Z</time>
      </trkpt>
      <trkpt lat="45.772465551272035" lon="4.472658634185791">
        <ele>564.15</ele>
        <time>2024-08-13T08:39:01.412Z</time>
      </trkpt>
      <trkpt lat="45.77248692512512" lon="4.472508430480957">
        <ele>564.45</ele>
        <time>2024-08-13T08:39:09.309Z</time>
      </trkpt>
      <trkpt lat="45.77255129814148" lon="4.472390413284302">
        <ele>564.83</ele>
        <time>2024-08-13T08:39:17.208Z</time>
      </trkpt>
      <trkpt lat="45.772669315338135" lon="4.472283124923706">
        <ele>565.32</ele>
        <time>2024-08-13T08:39:25.109Z</time>
      </trkpt>
      <trkpt lat="45.77280879020691" lon="4.472229480743408">
        <ele>565.82</ele>
        <time>2024-08-13T08:39:33.012Z</time>
      </trkpt>
      <trkpt lat="45.77349543571472" lon="4.472165107727051">
        <ele>566.54</ele>
        <time>2024-08-13T08:39:40.926Z</time>
      </trkpt>
      <trkpt lat="45.77376365661621" lon="4.47217583656311">
        <ele>567.24</ele>
        <time>2024-08-13T08:39:48.844Z</time>
      </trkpt>
      <trkpt lat="45.774160623550415" lon="4.472293853759766">
        <ele>567.97</ele>
        <time>2024-08-13T08:39:56.769Z</time>
      </trkpt>
      <trkpt lat="45.774418115615845" lon="4.472326040267944">
        <ele>568.78</ele>
        <time>2024-08-13T08:40:04.698Z</time>
      </trkpt>
      <trkpt lat="45.77451467514038" lon="4.472283124923706">
        <ele>569.63</ele>
        <time>2024-08-13T08:40:12.629Z</time>
      </trkpt>
      <trkpt lat="45.774632692337036" lon="4.472154378890991">
        <ele>570.51</ele>
        <time>2024-08-13T08:40:20.562Z</time>
      </trkpt>
      <trkpt lat="45.774922370910645" lon="4.471735954284668">
        <ele>571.55</ele>
        <time>2024-08-13T08:40:28.502Z</time>
      </trkpt>
      <trkpt lat="45.774922454729676" lon="4.471735954284668">
        <ele>572.64</ele>
        <time>2024-08-13T08:40:36.442Z</time>
      </trkpt>
      <trkpt lat="45.77499747276306" lon="4.471639394760132">
        <ele>573.85</ele>
        <time>2024-08-13T08:40:44.383Z</time>
      </trkpt>
      <trkpt lat="45.77553391456604" lon="4.4711995124816895">
        <ele>575.5</ele>
        <time>2024-08-13T08:40:52.334Z</time>
      </trkpt>
      <trkpt lat="45.77570557594299" lon="4.471113681793213">
        <ele>576.82</ele>
        <time>2024-08-13T08:41:00.288Z</time>
      </trkpt>
      <trkpt lat="45.775898694992065" lon="4.4710493087768555">
        <ele>578.18</ele>
        <time>2024-08-13T08:41:08.245Z</time>
      </trkpt>
      <trkpt lat="45.77637076377869" lon="4.4711995124816895">
        <ele>579.81</ele>
        <time>2024-08-13T08:41:16.210Z</time>
      </trkpt>
      <trkpt lat="45.77657461166382" lon="4.47118878364563">
        <ele>581.27</ele>
        <time>2024-08-13T08:41:24.178Z</time>
      </trkpt>
      <trkpt lat="45.77681064605713" lon="4.471092224121094">
        <ele>582.78</ele>
        <time>2024-08-13T08:41:32.150Z</time>
      </trkpt>
      <trkpt lat="45.77704668045044" lon="4.4710493087768555">
        <ele>584.21</ele>
        <time>2024-08-13T08:41:40.126Z</time>
      </trkpt>
      <trkpt lat="45.77721834182739" lon="4.471081495285034">
        <ele>585.55</ele>
        <time>2024-08-13T08:41:48.105Z</time>
      </trkpt>
      <trkpt lat="45.777390003204346" lon="4.47118878364563">
        <ele>586.95</ele>
        <time>2024-08-13T08:41:56.087Z</time>
      </trkpt>
      <trkpt lat="45.77772259712219" lon="4.471542835235596">
        <ele>588.51</ele>
        <time>2024-08-13T08:42:04.075Z</time>
      </trkpt>
      <trkpt lat="45.777894258499146" lon="4.4716715812683105">
        <ele>589.89</ele>
        <time>2024-08-13T08:42:12.067Z</time>
      </trkpt>
      <trkpt lat="45.77878475189209" lon="4.471778869628906">
        <ele>591.46</ele>
        <time>2024-08-13T08:42:20.073Z</time>
      </trkpt>
      <trkpt lat="45.77903151512146" lon="4.471768140792847">
        <ele>592.95</ele>
        <time>2024-08-13T08:42:28.083Z</time>
      </trkpt>
      <trkpt lat="45.779170989990234" lon="4.471714496612549">
        <ele>594.27</ele>
        <time>2024-08-13T08:42:36.095Z</time>
      </trkpt>
      <trkpt lat="45.77960014343262" lon="4.471242427825928">
        <ele>595.43</ele>
        <time>2024-08-13T08:42:44.116Z</time>
      </trkpt>
      <trkpt lat="45.77973970212042" lon="4.471135139465332">
        <ele>596.56</ele>
        <time>2024-08-13T08:42:52.139Z</time>
      </trkpt>
      <trkpt lat="45.779900550842285" lon="4.471081495285034">
        <ele>597.65</ele>
        <time>2024-08-13T08:43:00.165Z</time>
      </trkpt>
      <trkpt lat="45.78005075454712" lon="4.471092224121094">
        <ele>598.72</ele>
        <time>2024-08-13T08:43:08.193Z</time>
      </trkpt>
      <trkpt lat="45.78021168708801" lon="4.471156597137451">
        <ele>599.86</ele>
        <time>2024-08-13T08:43:16.224Z</time>
      </trkpt>
      <trkpt lat="45.780436992645264" lon="4.471392631530762">
        <ele>601.22</ele>
        <time>2024-08-13T08:43:24.259Z</time>
      </trkpt>
      <trkpt lat="45.780437076464295" lon="4.471392631530762">
        <ele>602.18</ele>
        <time>2024-08-13T08:43:32.294Z</time>
      </trkpt>
      <trkpt lat="45.78053363598883" lon="4.471510648727417">
        <ele>603.2</ele>
        <time>2024-08-13T08:43:40.332Z</time>
      </trkpt>
      <trkpt lat="45.78069448471069" lon="4.471617937088013">
        <ele>604.17</ele>
        <time>2024-08-13T08:43:48.372Z</time>
      </trkpt>
      <trkpt lat="45.78086614608765" lon="4.47168231010437">
        <ele>605.01</ele>
        <time>2024-08-13T08:43:56.415Z</time>
      </trkpt>
      <trkpt lat="45.78101634979248" lon="4.471660852432251">
        <ele>605.82</ele>
        <time>2024-08-13T08:44:04.461Z</time>
      </trkpt>
      <trkpt lat="45.781627893447876" lon="4.471328258514404">
        <ele>606.9</ele>
        <time>2024-08-13T08:44:12.517Z</time>
      </trkpt>
      <trkpt lat="45.78175663948059" lon="4.471242427825928">
        <ele>607.79</ele>
        <time>2024-08-13T08:44:20.575Z</time>
      </trkpt>
      <trkpt lat="45.78184247016907" lon="4.471167325973511">
        <ele>608.58</ele>
        <time>2024-08-13T08:44:28.635Z</time>
      </trkpt>
      <trkpt lat="45.78194975852966" lon="4.471017122268677">
        <ele>609.32</ele>
        <time>2024-08-13T08:44:36.697Z</time>
      </trkpt>
      <trkpt lat="45.78202494420111" lon="4.4708240032196045">
        <ele>610.07</ele>
        <time>2024-08-13T08:44:44.762Z</time>
      </trkpt>
      <trkpt lat="45.78221797943115" lon="4.470351934432983">
        <ele>610.78</ele>
        <time>2024-08-13T08:44:52.833Z</time>
      </trkpt>
      <trkpt lat="45.78234672546387" lon="4.470126628875732">
        <ele>611.63</ele>
        <time>2024-08-13T08:45:00.907Z</time>
      </trkpt>
      <trkpt lat="45.782454097643495" lon="4.470030069351196">
        <ele>612.55</ele>
        <time>2024-08-13T08:45:08.983Z</time>
      </trkpt>
      <trkpt lat="45.782614946365356" lon="4.469954967498779">
        <ele>613.53</ele>
        <time>2024-08-13T08:45:17.062Z</time>
      </trkpt>
      <trkpt lat="45.78281887806952" lon="4.469965696334839">
        <ele>614.61</ele>
        <time>2024-08-13T08:45:25.144Z</time>
      </trkpt>
      <trkpt lat="45.78375220298767" lon="4.470512866973877">
        <ele>616.17</ele>
        <time>2024-08-13T08:45:33.242Z</time>
      </trkpt>
      <trkpt lat="45.783902406692505" lon="4.470652341842651">
        <ele>617.38</ele>
        <time>2024-08-13T08:45:41.343Z</time>
      </trkpt>
      <trkpt lat="45.7840633392334" lon="4.470920562744141">
        <ele>618.66</ele>
        <time>2024-08-13T08:45:49.448Z</time>
      </trkpt>
      <trkpt lat="45.78423500061035" lon="4.471521377563477">
        <ele>620.19</ele>
        <time>2024-08-13T08:45:57.560Z</time>
      </trkpt>
      <trkpt lat="45.78435301780701" lon="4.471800327301025">
        <ele>621.6</ele>
        <time>2024-08-13T08:46:05.676Z</time>
      </trkpt>
      <trkpt lat="45.78470706939697" lon="4.4722723960876465">
        <ele>623.26</ele>
        <time>2024-08-13T08:46:13.800Z</time>
      </trkpt>
      <trkpt lat="45.78494310379028" lon="4.472465515136719">
        <ele>624.89</ele>
        <time>2024-08-13T08:46:21.928Z</time>
      </trkpt>
      <trkpt lat="45.785146951675415" lon="4.472508430480957">
        <ele>626.43</ele>
        <time>2024-08-13T08:46:30.060Z</time>
      </trkpt>
      <trkpt lat="45.785372257232666" lon="4.472508430480957">
        <ele>628.02</ele>
        <time>2024-08-13T08:46:38.195Z</time>
      </trkpt>
      <trkpt lat="45.785908699035645" lon="4.472315311431885">
        <ele>629.85</ele>
        <time>2024-08-13T08:46:46.339Z</time>
      </trkpt>
      <trkpt lat="45.78604817390442" lon="4.472261667251587">
        <ele>631.63</ele>
        <time>2024-08-13T08:46:54.485Z</time>
      </trkpt>
      <trkpt lat="45.78618764877319" lon="4.472229480743408">
        <ele>633.51</ele>
        <time>2024-08-13T08:47:02.634Z</time>
      </trkpt>
      <trkpt lat="45.78628420829773" lon="4.472111463546753">
        <ele>635.48</ele>
        <time>2024-08-13T08:47:10.785Z</time>
      </trkpt>
      <trkpt lat="45.786423683166504" lon="4.4720470905303955">
        <ele>637.58</ele>
        <time>2024-08-13T08:47:18.938Z</time>
      </trkpt>
      <trkpt lat="45.787410736083984" lon="4.471778869628906">
        <ele>640.17</ele>
        <time>2024-08-13T08:47:27.107Z</time>
      </trkpt>
      <trkpt lat="45.787625312805176" lon="4.47169303894043">
        <ele>642.44</ele>
        <time>2024-08-13T08:47:35.280Z</time>
      </trkpt>
      <trkpt lat="45.78780770301819" lon="4.471553564071655">
        <ele>644.65</ele>
        <time>2024-08-13T08:47:43.456Z</time>
      </trkpt>
      <trkpt lat="45.7879364490509" lon="4.471403360366821">
        <ele>646.86</ele>
        <time>2024-08-13T08:47:51.635Z</time>
      </trkpt>
      <trkpt lat="45.788151025772095" lon="4.471081495285034">
        <ele>649.12</ele>
        <time>2024-08-13T08:47:59.819Z</time>
      </trkpt>
      <trkpt lat="45.78883767127991" lon="4.469890594482422">
        <ele>651.67</ele>
        <time>2024-08-13T08:48:08.020Z</time>
      </trkpt>
      <trkpt lat="45.788869857788086" lon="4.469836950302124">
        <ele>653.72</ele>
        <time>2024-08-13T08:48:16.222Z</time>
      </trkpt>
      <trkpt lat="45.78921318054199" lon="4.4693005084991455">
        <ele>655.66</ele>
        <time>2024-08-13T08:48:24.432Z</time>
      </trkpt>
      <trkpt lat="45.79005002975464" lon="4.468120336532593">
        <ele>658.08</ele>
        <time>2024-08-13T08:48:32.661Z</time>
      </trkpt>
      <trkpt lat="45.79009294509888" lon="4.46794867515564">
        <ele>659.94</ele>
        <time>2024-08-13T08:48:40.892Z</time>
      </trkpt>
      <trkpt lat="45.79009294509888" lon="4.467744827270508">
        <ele>661.69</ele>
        <time>2024-08-13T08:48:49.125Z</time>
      </trkpt>
      <trkpt lat="45.79007157124579" lon="4.4677019119262695">
        <ele>663.07</ele>
        <time>2024-08-13T08:48:57.358Z</time>
      </trkpt>
      <trkpt lat="45.789921283721924" lon="4.467315673828125">
        <ele>664.34</ele>
        <time>2024-08-13T08:49:05.596Z</time>
      </trkpt>
      <trkpt lat="45.789899909868836" lon="4.467047452926636">
        <ele>665.48</ele>
        <time>2024-08-13T08:49:13.837Z</time>
      </trkpt>
      <trkpt lat="45.78988918103278" lon="4.4668543338775635">
        <ele>666.25</ele>
        <time>2024-08-13T08:49:22.081Z</time>
      </trkpt>
      <trkpt lat="45.7900071144104" lon="4.4665539264678955">
        <ele>666.84</ele>
        <time>2024-08-13T08:49:30.328Z</time>
      </trkpt>
      <trkpt lat="45.79005002975464" lon="4.46643590927124">
        <ele>667.18</ele>
        <time>2024-08-13T08:49:38.577Z</time>
      </trkpt>
      <trkpt lat="45.79008221626282" lon="4.466339349746704">
        <ele>667.31</ele>
        <time>2024-08-13T08:49:46.827Z</time>
      </trkpt>
      <trkpt lat="45.79028606414795" lon="4.466081857681274">
        <ele>667.29</ele>
        <time>2024-08-13T08:49:55.082Z</time>
      </trkpt>
      <trkpt lat="45.79028614796698" lon="4.466081857681274">
        <ele>667.06</ele>
        <time>2024-08-13T08:50:03.337Z</time>
      </trkpt>
      <trkpt lat="45.790371894836426" lon="4.465985298156738">
        <ele>666.69</ele>
        <time>2024-08-13T08:50:11.593Z</time>
      </trkpt>
      <trkpt lat="45.79070448875427" lon="4.465717077255249">
        <ele>665.98</ele>
        <time>2024-08-13T08:50:19.855Z</time>
      </trkpt>
      <trkpt lat="45.790886878967285" lon="4.465663433074951">
        <ele>665.26</ele>
        <time>2024-08-13T08:50:28.120Z</time>
      </trkpt>
      <trkpt lat="45.79105862416327" lon="4.465663433074951">
        <ele>664.57</ele>
        <time>2024-08-13T08:50:36.388Z</time>
      </trkpt>
      <trkpt lat="45.791187370195985" lon="4.465674161911011">
        <ele>663.93</ele>
        <time>2024-08-13T08:50:44.658Z</time>
      </trkpt>
      <trkpt lat="45.79199194908142" lon="4.465792179107666">
        <ele>663.31</ele>
        <time>2024-08-13T08:50:52.941Z</time>
      </trkpt>
      <trkpt lat="45.79219579696655" lon="4.4657814502716064">
        <ele>662.78</ele>
        <time>2024-08-13T08:51:01.227Z</time>
      </trkpt>
      <trkpt lat="45.79233527183533" lon="4.465738534927368">
        <ele>662.33</ele>
        <time>2024-08-13T08:51:09.516Z</time>
      </trkpt>
      <trkpt lat="45.79279661178589" lon="4.4653308391571045">
        <ele>661.98</ele>
        <time>2024-08-13T08:51:17.813Z</time>
      </trkpt>
      <trkpt lat="45.79330086708069" lon="4.464869499206543">
        <ele>661.92</ele>
        <time>2024-08-13T08:51:26.120Z</time>
      </trkpt>
      <trkpt lat="45.79357981681824" lon="4.464558362960815">
        <ele>661.78</ele>
        <time>2024-08-13T08:51:34.433Z</time>
      </trkpt>
      <trkpt lat="45.79381593503058" lon="4.4642579555511475">
        <ele>661.89</ele>
        <time>2024-08-13T08:51:42.751Z</time>
      </trkpt>
      <trkpt lat="45.7939875125885" lon="4.4640326499938965">
        <ele>662.28</ele>
        <time>2024-08-13T08:51:51.072Z</time>
      </trkpt>
      <trkpt lat="45.794116258621216" lon="4.463785886764526">
        <ele>662.86</ele>
        <time>2024-08-13T08:51:59.397Z</time>
      </trkpt>
      <trkpt lat="45.79421281814575" lon="4.463539123535156">
        <ele>663.7</ele>
        <time>2024-08-13T08:52:07.725Z</time>
      </trkpt>
      <trkpt lat="45.79438456334174" lon="4.462991952896118">
        <ele>664.83</ele>
        <time>2024-08-13T08:52:16.060Z</time>
      </trkpt>
      <trkpt lat="45.794416749849916" lon="4.4628846645355225">
        <ele>666.06</ele>
        <time>2024-08-13T08:52:24.396Z</time>
      </trkpt>
      <trkpt lat="45.794695699587464" lon="4.461715221405029">
        <ele>667.68</ele>
        <time>2024-08-13T08:52:32.746Z</time>
      </trkpt>
      <trkpt lat="45.79497456550598" lon="4.460524320602417">
        <ele>669.7</ele>
        <time>2024-08-13T08:52:41.110Z</time>
      </trkpt>
      <trkpt lat="45.79510339535773" lon="4.460073709487915">
        <ele>671.56</ele>
        <time>2024-08-13T08:52:49.479Z</time>
      </trkpt>
      <trkpt lat="45.795189226046205" lon="4.459891319274902">
        <ele>673.5</ele>
        <time>2024-08-13T08:52:57.851Z</time>
      </trkpt>
      <trkpt lat="45.795371532440186" lon="4.459623098373413">
        <ele>675.66</ele>
        <time>2024-08-13T08:53:06.227Z</time>
      </trkpt>
      <trkpt lat="45.79554319381714" lon="4.45945143699646">
        <ele>677.85</ele>
        <time>2024-08-13T08:53:14.606Z</time>
      </trkpt>
      <trkpt lat="45.79646587371826" lon="4.458732604980469">
        <ele>680.17</ele>
        <time>2024-08-13T08:53:23.002Z</time>
      </trkpt>
      <trkpt lat="45.796626806259155" lon="4.458657503128052">
        <ele>682.38</ele>
        <time>2024-08-13T08:53:31.401Z</time>
      </trkpt>
      <trkpt lat="45.79672336578369" lon="4.458625316619873">
        <ele>684.63</ele>
        <time>2024-08-13T08:53:39.801Z</time>
      </trkpt>
      <trkpt lat="45.796895027160645" lon="4.4586145877838135">
        <ele>686.93</ele>
        <time>2024-08-13T08:53:48.204Z</time>
      </trkpt>
      <trkpt lat="45.79780697822571" lon="4.458861351013184">
        <ele>689.59</ele>
        <time>2024-08-13T08:53:56.622Z</time>
      </trkpt>
      <trkpt lat="45.79803228378296" lon="4.458872079849243">
        <ele>691.86</ele>
        <time>2024-08-13T08:54:05.044Z</time>
      </trkpt>
      <trkpt lat="45.79820394515991" lon="4.458807706832886">
        <ele>694.09</ele>
        <time>2024-08-13T08:54:13.469Z</time>
      </trkpt>
      <trkpt lat="45.79834342002869" lon="4.458721876144409">
        <ele>696.3</ele>
        <time>2024-08-13T08:54:21.896Z</time>
      </trkpt>
      <trkpt lat="45.79842925071716" lon="4.458603858947754">
        <ele>698.26</ele>
        <time>2024-08-13T08:54:30.325Z</time>
      </trkpt>
      <trkpt lat="45.79851508140564" lon="4.45844292640686">
        <ele>700.12</ele>
        <time>2024-08-13T08:54:38.756Z</time>
      </trkpt>
      <trkpt lat="45.798600912094116" lon="4.458228349685669">
        <ele>701.87</ele>
        <time>2024-08-13T08:54:47.190Z</time>
      </trkpt>
      <trkpt lat="45.79893350601196" lon="4.457294940948486">
        <ele>703.9</ele>
        <time>2024-08-13T08:54:55.636Z</time>
      </trkpt>
      <trkpt lat="45.79905152320862" lon="4.456919431686401">
        <ele>705.42</ele>
        <time>2024-08-13T08:55:04.086Z</time>
      </trkpt>
      <trkpt lat="45.799115896224976" lon="4.456586837768555">
        <ele>706.73</ele>
        <time>2024-08-13T08:55:12.540Z</time>
      </trkpt>
      <trkpt lat="45.79921245574951" lon="4.456737041473389">
        <ele>708.05</ele>
        <time>2024-08-13T08:55:20.996Z</time>
      </trkpt>
      <trkpt lat="45.79922318458557" lon="4.456897974014282">
        <ele>709.11</ele>
        <time>2024-08-13T08:55:29.454Z</time>
      </trkpt>
      <trkpt lat="45.799115896224976" lon="4.457370042800903">
        <ele>709.92</ele>
        <time>2024-08-13T08:55:37.918Z</time>
      </trkpt>
      <trkpt lat="45.79906225204468" lon="4.457756280899048">
        <ele>710.55</ele>
        <time>2024-08-13T08:55:46.386Z</time>
      </trkpt>
      <trkpt lat="45.798922860994935" lon="4.459558725357056">
        <ele>711.4</ele>
        <time>2024-08-13T08:55:54.874Z</time>
      </trkpt>
      <trkpt lat="45.798901319503784" lon="4.4600629806518555">
        <ele>711.68</ele>
        <time>2024-08-13T08:56:03.368Z</time>
      </trkpt>
      <trkpt lat="45.7989227771759" lon="4.460309743881226">
        <ele>711.87</ele>
        <time>2024-08-13T08:56:11.865Z</time>
      </trkpt>
      <trkpt lat="45.799191081896424" lon="4.460921287536621">
        <ele>711.85</ele>
        <time>2024-08-13T08:56:20.370Z</time>
      </trkpt>
      <trkpt lat="45.799620151519775" lon="4.461736679077148">
        <ele>711.66</ele>
        <time>2024-08-13T08:56:28.886Z</time>
      </trkpt>
      <trkpt lat="45.79983472824097" lon="4.462176561355591">
        <ele>711.65</ele>
        <time>2024-08-13T08:56:37.408Z</time>
      </trkpt>
      <trkpt lat="45.800113677978516" lon="4.463002681732178">
        <ele>710.91</ele>
        <time>2024-08-13T08:56:45.941Z</time>
      </trkpt>
      <trkpt lat="45.80024242401123" lon="4.463335275650024">
        <ele>710.32</ele>
        <time>2024-08-13T08:56:54.478Z</time>
      </trkpt>
      <trkpt lat="45.800392627716064" lon="4.463571310043335">
        <ele>709.75</ele>
        <time>2024-08-13T08:57:03.018Z</time>
      </trkpt>
      <trkpt lat="45.80055356025696" lon="4.463710784912109">
        <ele>709.08</ele>
        <time>2024-08-13T08:57:11.561Z</time>
      </trkpt>
      <trkpt lat="45.80071449279785" lon="4.463710784912109">
        <ele>708.47</ele>
        <time>2024-08-13T08:57:20.107Z</time>
      </trkpt>
      <trkpt lat="45.800875425338745" lon="4.463624954223633">
        <ele>707.96</ele>
        <time>2024-08-13T08:57:28.656Z</time>
      </trkpt>
      <trkpt lat="45.8010470867157" lon="4.463421106338501">
        <ele>707.41</ele>
        <time>2024-08-13T08:57:37.208Z</time>
      </trkpt>
      <trkpt lat="45.801379680633545" lon="4.462895393371582">
        <ele>706.69</ele>
        <time>2024-08-13T08:57:45.768Z</time>
      </trkpt>
      <trkpt lat="45.801615715026855" lon="4.462627172470093">
        <ele>705.69</ele>
        <time>2024-08-13T08:57:54.333Z</time>
      </trkpt>
      <trkpt lat="45.801894664764404" lon="4.462487697601318">
        <ele>704.65</ele>
        <time>2024-08-13T08:58:02.903Z</time>
      </trkpt>
      <trkpt lat="45.802356004714966" lon="4.462380409240723">
        <ele>704.02</ele>
        <time>2024-08-13T08:58:11.480Z</time>
      </trkpt>
      <trkpt lat="45.80258131027222" lon="4.462380409240723">
        <ele>703.45</ele>
        <time>2024-08-13T08:58:20.061Z</time>
      </trkpt>
      <trkpt lat="45.80269932746887" lon="4.46245551109314">
        <ele>702.9</ele>
        <time>2024-08-13T08:58:28.644Z</time>
      </trkpt>
      <trkpt lat="45.80280661582947" lon="4.462573528289795">
        <ele>702.35</ele>
        <time>2024-08-13T08:58:37.229Z</time>
      </trkpt>
      <trkpt lat="45.802870988845825" lon="4.462755918502808">
        <ele>701.77</ele>
        <time>2024-08-13T08:58:45.816Z</time>
      </trkpt>
      <trkpt lat="45.802892446517944" lon="4.462906122207642">
        <ele>701.23</ele>
        <time>2024-08-13T08:58:54.405Z</time>
      </trkpt>
      <trkpt lat="45.8029568195343" lon="4.463421106338501">
        <ele>700.78</ele>
        <time>2024-08-13T08:59:03.000Z</time>
      </trkpt>
      <trkpt lat="45.803343057632446" lon="4.465513229370117">
        <ele>700.62</ele>
        <time>2024-08-13T08:59:11.619Z</time>
      </trkpt>
      <trkpt lat="45.803353786468506" lon="4.465802907943726">
        <ele>700.02</ele>
        <time>2024-08-13T08:59:20.242Z</time>
      </trkpt>
      <trkpt lat="45.80328941345215" lon="4.466392993927002">
        <ele>699.4</ele>
        <time>2024-08-13T08:59:28.871Z</time>
      </trkpt>
      <trkpt lat="45.80328941345215" lon="4.466586112976074">
        <ele>698.94</ele>
        <time>2024-08-13T08:59:37.502Z</time>
      </trkpt>
      <trkpt lat="45.80332159996033" lon="4.4667792320251465">
        <ele>698.63</ele>
        <time>2024-08-13T08:59:46.136Z</time>
      </trkpt>
      <trkpt lat="45.803385972976685" lon="4.467015266418457">
        <ele>698.38</ele>
        <time>2024-08-13T08:59:54.772Z</time>
      </trkpt>
      <trkpt lat="45.8034610748291" lon="4.467144012451172">
        <ele>698.2</ele>
        <time>2024-08-13T09:00:03.410Z</time>
      </trkpt>
      <trkpt lat="45.804373025894165" lon="4.4682276248931885">
        <ele>698.18</ele>
        <time>2024-08-13T09:00:12.067Z</time>
      </trkpt>
      <trkpt lat="45.8044695854187" lon="4.46843147277832">
        <ele>697.87</ele>
        <time>2024-08-13T09:00:20.727Z</time>
      </trkpt>
      <trkpt lat="45.80450177192688" lon="4.468603134155273">
        <ele>697.48</ele>
        <time>2024-08-13T09:00:29.389Z</time>
      </trkpt>
      <trkpt lat="45.80449104309082" lon="4.468828439712524">
        <ele>697.13</ele>
        <time>2024-08-13T09:00:38.054Z</time>
      </trkpt>
      <trkpt lat="45.80444812774658" lon="4.469043016433716">
        <ele>696.81</ele>
        <time>2024-08-13T09:00:46.721Z</time>
      </trkpt>
      <trkpt lat="45.80433011054993" lon="4.469289779663086">
        <ele>696.4</ele>
        <time>2024-08-13T09:00:55.391Z</time>
      </trkpt>
      <trkpt lat="45.80395460128784" lon="4.469815492630005">
        <ele>696.03</ele>
        <time>2024-08-13T09:01:04.070Z</time>
      </trkpt>
      <trkpt lat="45.8039116859436" lon="4.470051527023315">
        <ele>695.98</ele>
        <time>2024-08-13T09:01:12.752Z</time>
      </trkpt>
      <trkpt lat="45.80392241477966" lon="4.470341205596924">
        <ele>695.89</ele>
        <time>2024-08-13T09:01:21.437Z</time>
      </trkpt>
      <trkpt lat="45.804115533828735" lon="4.4710493087768555">
        <ele>695.45</ele>
        <time>2024-08-13T09:01:30.130Z</time>
      </trkpt>
      <trkpt lat="45.80426573753357" lon="4.471285343170166">
        <ele>695.0</ele>
        <time>2024-08-13T09:01:38.827Z</time>
      </trkpt>
      <trkpt lat="45.80456614494324" lon="4.4715964794158936">
        <ele>694.94</ele>
        <time>2024-08-13T09:01:47.530Z</time>
      </trkpt>
      <trkpt lat="45.80468416213989" lon="4.471778869628906">
        <ele>694.54</ele>
        <time>2024-08-13T09:01:56.236Z</time>
      </trkpt>
      <trkpt lat="45.80483436584473" lon="4.472368955612183">
        <ele>693.73</ele>
        <time>2024-08-13T09:02:04.949Z</time>
      </trkpt>
      <trkpt lat="45.8049201965332" lon="4.472905397415161">
        <ele>693.2</ele>
        <time>2024-08-13T09:02:13.668Z</time>
      </trkpt>
      <trkpt lat="45.80500602722168" lon="4.473130702972412">
        <ele>693.05</ele>
        <time>2024-08-13T09:02:22.390Z</time>
      </trkpt>
      <trkpt lat="45.805124044418335" lon="4.473259449005127">
        <ele>693.0</ele>
        <time>2024-08-13T09:02:31.114Z</time>
      </trkpt>
      <trkpt lat="45.80528497695923" lon="4.473280906677246">
        <ele>692.94</ele>
        <time>2024-08-13T09:02:39.841Z</time>
      </trkpt>
      <trkpt lat="45.80554246902466" lon="4.473205804824829">
        <ele>692.88</ele>
        <time>2024-08-13T09:02:48.572Z</time>
      </trkpt>
      <trkpt lat="45.80646514892578" lon="4.472658634185791">
        <ele>693.75</ele>
        <time>2024-08-13T09:02:57.319Z</time>
      </trkpt>
      <trkpt lat="45.80665826797485" lon="4.472583532333374">
        <ele>693.32</ele>
        <time>2024-08-13T09:03:06.069Z</time>
      </trkpt>
      <trkpt lat="45.80701231956482" lon="4.472615718841553">
        <ele>692.58</ele>
        <time>2024-08-13T09:03:14.825Z</time>
      </trkpt>
      <trkpt lat="45.80728054046631" lon="4.47269082069397">
        <ele>691.77</ele>
        <time>2024-08-13T09:03:23.585Z</time>
      </trkpt>
      <trkpt lat="45.80746293067932" lon="4.4726479053497314">
        <ele>691.05</ele>
        <time>2024-08-13T09:03:32.348Z</time>
      </trkpt>
      <trkpt lat="45.80828905105591" lon="4.472143650054932">
        <ele>689.89</ele>
        <time>2024-08-13T09:03:41.125Z</time>
      </trkpt>
      <trkpt lat="45.80853581428528" lon="4.472090005874634">
        <ele>689.27</ele>
        <time>2024-08-13T09:03:49.906Z</time>
      </trkpt>
      <trkpt lat="45.808686101809144" lon="4.4721221923828125">
        <ele>688.75</ele>
        <time>2024-08-13T09:03:58.690Z</time>
      </trkpt>
      <trkpt lat="45.80875039100647" lon="4.472132921218872">
        <ele>688.29</ele>
        <time>2024-08-13T09:04:07.475Z</time>
      </trkpt>
      <trkpt lat="45.809115171432495" lon="4.472390413284302">
        <ele>687.94</ele>
        <time>2024-08-13T09:04:16.266Z</time>
      </trkpt>
      <trkpt lat="45.809179628267884" lon="4.472411870956421">
        <ele>687.52</ele>
        <time>2024-08-13T09:04:25.058Z</time>
      </trkpt>
      <trkpt lat="45.80927610397339" lon="4.472411870956421">
        <ele>687.11</ele>
        <time>2024-08-13T09:04:33.852Z</time>
      </trkpt>
      <trkpt lat="45.8099091053009" lon="4.472261667251587">
        <ele>686.65</ele>
        <time>2024-08-13T09:04:42.656Z</time>
      </trkpt>
      <trkpt lat="45.810145139694214" lon="4.472326040267944">
        <ele>686.12</ele>
        <time>2024-08-13T09:04:51.464Z</time>
      </trkpt>
      <trkpt lat="45.8105742931366" lon="4.472583532333374">
        <ele>685.73</ele>
        <time>2024-08-13T09:05:00.280Z</time>
      </trkpt>
      <trkpt lat="45.81076741218567" lon="4.472637176513672">
        <ele>685.21</ele>
        <time>2024-08-13T09:05:09.099Z</time>
      </trkpt>
      <trkpt lat="45.81106790341437" lon="4.472637176513672">
        <ele>684.75</ele>
        <time>2024-08-13T09:05:17.923Z</time>
      </trkpt>
      <trkpt lat="45.81122875213623" lon="4.472562074661255">
        <ele>684.44</ele>
        <time>2024-08-13T09:05:26.749Z</time>
      </trkpt>
      <trkpt lat="45.81151843070984" lon="4.472229480743408">
        <ele>684.23</ele>
        <time>2024-08-13T09:05:35.581Z</time>
      </trkpt>
      <trkpt lat="45.81170082092285" lon="4.471886157989502">
        <ele>683.76</ele>
        <time>2024-08-13T09:05:44.418Z</time>
      </trkpt>
      <trkpt lat="45.811872482299805" lon="4.471371173858643">
        <ele>683.24</ele>
        <time>2024-08-13T09:05:53.261Z</time>
      </trkpt>
      <trkpt lat="45.8119797706604" lon="4.4711995124816895">
        <ele>682.87</ele>
        <time>2024-08-13T09:06:02.107Z</time>
      </trkpt>
      <trkpt lat="45.81197985447943" lon="4.4711995124816895">
        <ele>682.48</ele>
        <time>2024-08-13T09:06:10.953Z</time>
      </trkpt>
      <trkpt lat="45.81218361854553" lon="4.470952749252319">
        <ele>681.98</ele>
        <time>2024-08-13T09:06:19.803Z</time>
      </trkpt>
      <trkpt lat="45.81241965293884" lon="4.470834732055664">
        <ele>681.56</ele>
        <time>2024-08-13T09:06:28.657Z</time>
      </trkpt>
      <trkpt lat="45.81272006034851" lon="4.470770359039307">
        <ele>680.93</ele>
        <time>2024-08-13T09:06:37.516Z</time>
      </trkpt>
      <trkpt lat="45.813374519348145" lon="4.470727443695068">
        <ele>681.02</ele>
        <time>2024-08-13T09:06:46.386Z</time>
      </trkpt>
      <trkpt lat="45.81393241882324" lon="4.470738172531128">
        <ele>680.84</ele>
        <time>2024-08-13T09:06:55.265Z</time>
      </trkpt>
      <trkpt lat="45.8145546913147" lon="4.470566511154175">
        <ele>680.03</ele>
        <time>2024-08-13T09:07:04.154Z</time>
      </trkpt>
      <trkpt lat="45.814833641052246" lon="4.4704484939575195">
        <ele>679.03</ele>
        <time>2024-08-13T09:07:13.047Z</time>
      </trkpt>
      <trkpt lat="45.81523060798645" lon="4.470212459564209">
        <ele>677.16</ele>
        <time>2024-08-13T09:07:21.947Z</time>
      </trkpt>
      <trkpt lat="45.81543445587158" lon="4.469987154006958">
        <ele>676.2</ele>
        <time>2024-08-13T09:07:30.851Z</time>
      </trkpt>
      <trkpt lat="45.815520621836185" lon="4.469854300841689">
        <ele>675.57</ele>
        <time>2024-08-13T09:07:39.757Z</time>
      </trkpt>
      <trkpt lat="45.81569194793701" lon="4.469590187072754">
        <ele>673.37</ele>
        <time>2024-08-13T09:07:48.667Z</time>
      </trkpt>
      <trkpt lat="45.815842151641846" lon="4.469397068023682">
        <ele>672.97</ele>
        <time>2024-08-13T09:07:57.581Z</time>
      </trkpt>
      <trkpt lat="45.81602454185486" lon="4.469246864318848">
        <ele>673.09</ele>
        <time>2024-08-13T09:08:06.498Z</time>
      </trkpt>
      <trkpt lat="45.81731208600104" lon="4.468731880187988">
        <ele>673.74</ele>
        <time>2024-08-13T09:08:15.436Z</time>
      </trkpt>
      <trkpt lat="45.817387104034424" lon="4.468710422515869">
        <ele>674.04</ele>
        <time>2024-08-13T09:08:24.376Z</time>
      </trkpt>
      <trkpt lat="45.81765532493591" lon="4.46869969367981">
        <ele>674.24</ele>
        <time>2024-08-13T09:08:33.320Z</time>
      </trkpt>
      <trkpt lat="45.817848443984985" lon="4.468764066696167">
        <ele>674.47</ele>
        <time>2024-08-13T09:08:42.267Z</time>
      </trkpt>
      <trkpt lat="45.8179771900177" lon="4.468860626220703">
        <ele>674.49</ele>
        <time>2024-08-13T09:08:51.216Z</time>
      </trkpt>
      <trkpt lat="45.81829905509949" lon="4.4692254066467285">
        <ele>674.46</ele>
        <time>2024-08-13T09:09:00.172Z</time>
      </trkpt>
      <trkpt lat="45.81906088627875" lon="4.469922780990601">
        <ele>674.09</ele>
        <time>2024-08-13T09:09:09.142Z</time>
      </trkpt>
      <trkpt lat="45.819125175476074" lon="4.470030069351196">
        <ele>673.85</ele>
        <time>2024-08-13T09:09:18.114Z</time>
      </trkpt>
      <trkpt lat="45.81929683685303" lon="4.470416307449341">
        <ele>673.86</ele>
        <time>2024-08-13T09:09:27.091Z</time>
      </trkpt>
      <trkpt lat="45.81945776939392" lon="4.470609426498413">
        <ele>673.74</ele>
        <time>2024-08-13T09:09:36.072Z</time>
      </trkpt>
      <trkpt lat="45.81965088844299" lon="4.47068452835083">
        <ele>673.48</ele>
        <time>2024-08-13T09:09:45.056Z</time>
      </trkpt>
      <trkpt lat="45.819876194000244" lon="4.47069525718689">
        <ele>673.2</ele>
        <time>2024-08-13T09:09:54.043Z</time>
      </trkpt>
      <trkpt lat="45.8210027217865" lon="4.470276832580566">
        <ele>672.46</ele>
        <time>2024-08-13T09:10:03.049Z</time>
      </trkpt>
      <trkpt lat="45.82126021385193" lon="4.470137357711792">
        <ele>672.04</ele>
        <time>2024-08-13T09:10:12.059Z</time>
      </trkpt>
      <trkpt lat="45.821828842163086" lon="4.469708204269409">
        <ele>671.37</ele>
        <time>2024-08-13T09:10:21.080Z</time>
      </trkpt>
      <trkpt lat="45.82194685935974" lon="4.469665288925171">
        <ele>671.09</ele>
        <time>2024-08-13T09:10:30.103Z</time>
      </trkpt>
      <trkpt lat="45.822097063064575" lon="4.469718933105469">
        <ele>671.02</ele>
        <time>2024-08-13T09:10:39.128Z</time>
      </trkpt>
      <trkpt lat="45.82242965698242" lon="4.469976425170898">
        <ele>671.22</ele>
        <time>2024-08-13T09:10:48.159Z</time>
      </trkpt>
      <trkpt lat="45.82255840301514" lon="4.470137357711792">
        <ele>671.36</ele>
        <time>2024-08-13T09:10:57.193Z</time>
      </trkpt>
      <trkpt lat="45.82267642021179" lon="4.470416307449341">
        <ele>671.66</ele>
        <time>2024-08-13T09:11:06.231Z</time>
      </trkpt>
      <trkpt lat="45.822815895080566" lon="4.470609426498413">
        <ele>671.9</ele>
        <time>2024-08-13T09:11:15.272Z</time>
      </trkpt>
      <trkpt lat="45.82315921783447" lon="4.470888376235962">
        <ele>672.1</ele>
        <time>2024-08-13T09:11:24.319Z</time>
      </trkpt>
      <trkpt lat="45.823620557785034" lon="4.471102952957153">
        <ele>672.7</ele>
        <time>2024-08-13T09:11:33.374Z</time>
      </trkpt>
      <trkpt lat="45.82406044006348" lon="4.47118878364563">
        <ele>673.01</ele>
        <time>2024-08-13T09:11:42.436Z</time>
      </trkpt>
      <trkpt lat="45.82476854324341" lon="4.4712746143341064">
        <ele>673.27</ele>
        <time>2024-08-13T09:11:51.509Z</time>
      </trkpt>
      <trkpt lat="45.826109647750854" lon="4.471167325973511">
        <ele>674.03</ele>
        <time>2024-08-13T09:12:00.604Z</time>
      </trkpt>
      <trkpt lat="45.82621693611145" lon="4.471135139465332">
        <ele>674.84</ele>
        <time>2024-08-13T09:12:09.700Z</time>
      </trkpt>
      <trkpt lat="45.82695722579956" lon="4.4706737995147705">
        <ele>675.64</ele>
        <time>2024-08-13T09:12:18.809Z</time>
      </trkpt>
      <trkpt lat="45.82753658294678" lon="4.470266103744507">
        <ele>676.94</ele>
        <time>2024-08-13T09:12:27.929Z</time>
      </trkpt>
      <trkpt lat="45.827858448028564" lon="4.470115900039673">
        <ele>678.42</ele>
        <time>2024-08-13T09:12:37.054Z</time>
      </trkpt>
      <trkpt lat="45.8279550075531" lon="4.470115900039673">
        <ele>679.86</ele>
        <time>2024-08-13T09:12:46.181Z</time>
      </trkpt>
      <trkpt lat="45.82828760147095" lon="4.470094442367554">
        <ele>681.26</ele>
        <time>2024-08-13T09:12:55.313Z</time>
      </trkpt>
      <trkpt lat="45.828867042437196" lon="4.4702231884002686">
        <ele>682.95</ele>
        <time>2024-08-13T09:13:04.454Z</time>
      </trkpt>
      <trkpt lat="45.829371213912964" lon="4.470405578613281">
        <ele>684.34</ele>
        <time>2024-08-13T09:13:13.604Z</time>
      </trkpt>
      <trkpt lat="45.82976818084717" lon="4.470663070678711">
        <ele>686.35</ele>
        <time>2024-08-13T09:13:22.761Z</time>
      </trkpt>
      <trkpt lat="45.83001494407654" lon="4.471060037612915">
        <ele>688.08</ele>
        <time>2024-08-13T09:13:31.924Z</time>
      </trkpt>
      <trkpt lat="45.83025097846985" lon="4.471843242645264">
        <ele>689.96</ele>
        <time>2024-08-13T09:13:41.096Z</time>
      </trkpt>
      <trkpt lat="45.8304762840271" lon="4.472787380218506">
        <ele>691.95</ele>
        <time>2024-08-13T09:13:50.279Z</time>
      </trkpt>
      <trkpt lat="45.83073377609253" lon="4.473474025726318">
        <ele>692.95</ele>
        <time>2024-08-13T09:13:59.471Z</time>
      </trkpt>
      <trkpt lat="45.831066370010376" lon="4.474053382873535">
        <ele>694.17</ele>
        <time>2024-08-13T09:14:08.671Z</time>
      </trkpt>
      <trkpt lat="45.831592082977295" lon="4.474589824676514">
        <ele>695.39</ele>
        <time>2024-08-13T09:14:17.882Z</time>
      </trkpt>
      <trkpt lat="45.8318817615509" lon="4.475008249282837">
        <ele>696.34</ele>
        <time>2024-08-13T09:14:27.099Z</time>
      </trkpt>
      <trkpt lat="45.83203196525574" lon="4.475480318069458">
        <ele>696.86</ele>
        <time>2024-08-13T09:14:36.322Z</time>
      </trkpt>
      <trkpt lat="45.83202123641968" lon="4.47618842124939">
        <ele>697.24</ele>
        <time>2024-08-13T09:14:45.553Z</time>
      </trkpt>
      <trkpt lat="45.832085609436035" lon="4.476596117019653">
        <ele>697.11</ele>
        <time>2024-08-13T09:14:54.789Z</time>
      </trkpt>
      <trkpt lat="45.83247184753418" lon="4.477701187133789">
        <ele>696.7</ele>
        <time>2024-08-13T09:15:04.039Z</time>
      </trkpt>
      <trkpt lat="45.83252549171448" lon="4.47792649269104">
        <ele>696.18</ele>
        <time>2024-08-13T09:15:13.291Z</time>
      </trkpt>
      <trkpt lat="45.83256849087775" lon="4.478087425231934">
        <ele>695.4</ele>
        <time>2024-08-13T09:15:22.545Z</time>
      </trkpt>
      <trkpt lat="45.83245038986206" lon="4.478977918624878">
        <ele>694.28</ele>
        <time>2024-08-13T09:15:31.809Z</time>
      </trkpt>
      <trkpt lat="45.83247184753418" lon="4.479310512542725">
        <ele>692.7</ele>
        <time>2024-08-13T09:15:41.077Z</time>
      </trkpt>
      <trkpt lat="45.832557678222656" lon="4.479535818099976">
        <ele>690.84</ele>
        <time>2024-08-13T09:15:50.348Z</time>
      </trkpt>
      <trkpt lat="45.83279371261597" lon="4.479782581329346">
        <ele>688.64</ele>
        <time>2024-08-13T09:15:59.624Z</time>
      </trkpt>
      <trkpt lat="45.83292245864868" lon="4.479857683181763">
        <ele>686.47</ele>
        <time>2024-08-13T09:16:08.902Z</time>
      </trkpt>
      <trkpt lat="45.83345890045166" lon="4.479964971542358">
        <ele>684.47</ele>
        <time>2024-08-13T09:16:18.188Z</time>
      </trkpt>
      <trkpt lat="45.83368420600891" lon="4.4800615310668945">
        <ele>682.11</ele>
        <time>2024-08-13T09:16:27.478Z</time>
      </trkpt>
      <trkpt lat="45.834864377975464" lon="4.4807374477386475">
        <ele>678.52</ele>
        <time>2024-08-13T09:16:36.789Z</time>
      </trkpt>
      <trkpt lat="45.83528280258179" lon="4.481080770492554">
        <ele>675.43</ele>
        <time>2024-08-13T09:16:46.107Z</time>
      </trkpt>
      <trkpt lat="45.83554029464722" lon="4.481348991394043">
        <ele>672.61</ele>
        <time>2024-08-13T09:16:55.430Z</time>
      </trkpt>
      <trkpt lat="45.83569049835205" lon="4.481552839279175">
        <ele>669.75</ele>
        <time>2024-08-13T09:17:04.757Z</time>
      </trkpt>
      <trkpt lat="45.83579778671265" lon="4.481863975524902">
        <ele>666.8</ele>
        <time>2024-08-13T09:17:14.088Z</time>
      </trkpt>
      <trkpt lat="45.83598017692566" lon="4.482990503311157">
        <ele>663.6</ele>
        <time>2024-08-13T09:17:23.432Z</time>
      </trkpt>
      <trkpt lat="45.83622694015503" lon="4.483795166015625">
        <ele>660.71</ele>
        <time>2024-08-13T09:17:32.785Z</time>
      </trkpt>
      <trkpt lat="45.83625912666321" lon="4.484020471572876">
        <ele>657.95</ele>
        <time>2024-08-13T09:17:42.141Z</time>
      </trkpt>
      <trkpt lat="45.83614110946655" lon="4.485447406768799">
        <ele>654.83</ele>
        <time>2024-08-13T09:17:51.513Z</time>
      </trkpt>
      <trkpt lat="45.83605536259711" lon="4.4858551025390625">
        <ele>652.07</ele>
        <time>2024-08-13T09:18:00.890Z</time>
      </trkpt>
      <trkpt lat="45.83598017692566" lon="4.486219882965088">
        <ele>649.6</ele>
        <time>2024-08-13T09:18:10.271Z</time>
      </trkpt>
      <trkpt lat="45.835829973220825" lon="4.487335681915283">
        <ele>647.07</ele>
        <time>2024-08-13T09:18:19.665Z</time>
      </trkpt>
      <trkpt lat="45.835840702056885" lon="4.487797021865845">
        <ele>644.66</ele>
        <time>2024-08-13T09:18:29.064Z</time>
      </trkpt>
      <trkpt lat="45.83592653274536" lon="4.4880759716033936">
        <ele>642.49</ele>
        <time>2024-08-13T09:18:38.466Z</time>
      </trkpt>
      <trkpt lat="45.836087465286255" lon="4.4883012771606445">
        <ele>640.67</ele>
        <time>2024-08-13T09:18:47.872Z</time>
      </trkpt>
      <trkpt lat="45.836216295138" lon="4.48840856552124">
        <ele>639.09</ele>
        <time>2024-08-13T09:18:57.280Z</time>
      </trkpt>
      <trkpt lat="45.83637714385986" lon="4.488537311553955">
        <ele>637.65</ele>
        <time>2024-08-13T09:19:06.691Z</time>
      </trkpt>
      <trkpt lat="45.83643078804016" lon="4.48865532875061">
        <ele>636.1</ele>
        <time>2024-08-13T09:19:16.104Z</time>
      </trkpt>
      <trkpt lat="45.83640933036804" lon="4.488880634307861">
        <ele>634.43</ele>
        <time>2024-08-13T09:19:25.519Z</time>
      </trkpt>
      <trkpt lat="45.836312770843506" lon="4.489181041717529">
        <ele>632.7</ele>
        <time>2024-08-13T09:19:34.938Z</time>
      </trkpt>
      <trkpt lat="45.8359694480896" lon="4.489846229553223">
        <ele>630.79</ele>
        <time>2024-08-13T09:19:44.366Z</time>
      </trkpt>
      <trkpt lat="45.835862159729004" lon="4.490221738815308">
        <ele>629.02</ele>
        <time>2024-08-13T09:19:53.799Z</time>
      </trkpt>
      <trkpt lat="45.835862159729004" lon="4.4905006885528564">
        <ele>627.22</ele>
        <time>2024-08-13T09:20:03.235Z</time>
      </trkpt>
      <trkpt lat="45.8359694480896" lon="4.490747451782227">
        <ele>625.57</ele>
        <time>2024-08-13T09:20:12.674Z</time>
      </trkpt>
      <trkpt lat="45.83622694015503" lon="4.491187334060669">
        <ele>623.87</ele>
        <time>2024-08-13T09:20:22.120Z</time>
      </trkpt>
      <trkpt lat="45.836323499679565" lon="4.491455554962158">
        <ele>621.94</ele>
        <time>2024-08-13T09:20:31.569Z</time>
      </trkpt>
      <trkpt lat="45.836323499679565" lon="4.491713047027588">
        <ele>619.96</ele>
        <time>2024-08-13T09:20:41.021Z</time>
      </trkpt>
      <trkpt lat="45.83622694015503" lon="4.491949081420898">
        <ele>617.81</ele>
        <time>2024-08-13T09:20:50.476Z</time>
      </trkpt>
      <trkpt lat="45.83579778671265" lon="4.492292404174805">
        <ele>615.38</ele>
        <time>2024-08-13T09:20:59.939Z</time>
      </trkpt>
      <trkpt lat="45.83547592163086" lon="4.4924211502075195">
        <ele>612.91</ele>
        <time>2024-08-13T09:21:09.407Z</time>
      </trkpt>
      <trkpt lat="45.83470344543457" lon="4.49265718460083">
        <ele>610.25</ele>
        <time>2024-08-13T09:21:18.888Z</time>
      </trkpt>
      <trkpt lat="45.83449959754944" lon="4.492753744125366">
        <ele>607.82</ele>
        <time>2024-08-13T09:21:28.372Z</time>
      </trkpt>
      <trkpt lat="45.83426356315613" lon="4.492925405502319">
        <ele>605.28</ele>
        <time>2024-08-13T09:21:37.861Z</time>
      </trkpt>
      <trkpt lat="45.83375930786133" lon="4.49339747428894">
        <ele>602.56</ele>
        <time>2024-08-13T09:21:47.359Z</time>
      </trkpt>
      <trkpt lat="45.833566188812256" lon="4.493687152862549">
        <ele>600.05</ele>
        <time>2024-08-13T09:21:56.862Z</time>
      </trkpt>
      <trkpt lat="45.83319067955017" lon="4.494352340698242">
        <ele>597.61</ele>
        <time>2024-08-13T09:22:06.374Z</time>
      </trkpt>
      <trkpt lat="45.8329439163208" lon="4.494749307632446">
        <ele>594.95</ele>
        <time>2024-08-13T09:22:15.892Z</time>
      </trkpt>
      <trkpt lat="45.832579135894775" lon="4.495199918746948">
        <ele>592.08</ele>
        <time>2024-08-13T09:22:25.418Z</time>
      </trkpt>
      <trkpt lat="45.832332372665405" lon="4.495607614517212">
        <ele>589.77</ele>
        <time>2024-08-13T09:22:34.950Z</time>
      </trkpt>
      <trkpt lat="45.83214998245239" lon="4.495854377746582">
        <ele>587.6</ele>
        <time>2024-08-13T09:22:44.486Z</time>
      </trkpt>
      <trkpt lat="45.83168864250183" lon="4.496251344680786">
        <ele>584.77</ele>
        <time>2024-08-13T09:22:54.031Z</time>
      </trkpt>
      <trkpt lat="45.831570625305176" lon="4.496369361877441">
        <ele>582.69</ele>
        <time>2024-08-13T09:23:03.578Z</time>
      </trkpt>
      <trkpt lat="45.83146333694458" lon="4.496519565582275">
        <ele>580.81</ele>
        <time>2024-08-13T09:23:13.127Z</time>
      </trkpt>
      <trkpt lat="45.831345319747925" lon="4.496744871139526">
        <ele>579.12</ele>
        <time>2024-08-13T09:23:22.679Z</time>
      </trkpt>
      <trkpt lat="45.831087827682495" lon="4.497431516647339">
        <ele>577.51</ele>
        <time>2024-08-13T09:23:32.240Z</time>
      </trkpt>
      <trkpt lat="45.83108791150153" lon="4.497431516647339">
        <ele>576.11</ele>
        <time>2024-08-13T09:23:41.801Z</time>
      </trkpt>
      <trkpt lat="45.83089470863342" lon="4.497967958450317">
        <ele>574.73</ele>
        <time>2024-08-13T09:23:51.369Z</time>
      </trkpt>
      <trkpt lat="45.83078742027283" lon="4.498354196548462">
        <ele>573.44</ele>
        <time>2024-08-13T09:24:00.942Z</time>
      </trkpt>
      <trkpt lat="45.83070158958435" lon="4.498761892318726">
        <ele>572.32</ele>
        <time>2024-08-13T09:24:10.519Z</time>
      </trkpt>
      <trkpt lat="45.83069086074829" lon="4.49914813041687">
        <ele>571.59</ele>
        <time>2024-08-13T09:24:20.101Z</time>
      </trkpt>
      <trkpt lat="45.83070158958435" lon="4.4994056224823">
        <ele>570.9</ele>
        <time>2024-08-13T09:24:29.685Z</time>
      </trkpt>
      <trkpt lat="45.830808877944946" lon="4.500210285186768">
        <ele>570.25</ele>
        <time>2024-08-13T09:24:39.279Z</time>
      </trkpt>
      <trkpt lat="45.83090543746948" lon="4.50139045715332">
        <ele>568.85</ele>
        <time>2024-08-13T09:24:48.886Z</time>
      </trkpt>
      <trkpt lat="45.83095908164978" lon="4.50163722038269">
        <ele>568.38</ele>
        <time>2024-08-13T09:24:58.496Z</time>
      </trkpt>
      <trkpt lat="45.831055641174316" lon="4.5019590854644775">
        <ele>567.88</ele>
        <time>2024-08-13T09:25:08.110Z</time>
      </trkpt>
      <trkpt lat="45.831120014190674" lon="4.502120018005371">
        <ele>567.39</ele>
        <time>2024-08-13T09:25:17.726Z</time>
      </trkpt>
      <trkpt lat="45.83120584487915" lon="4.502205848693848">
        <ele>567.01</ele>
        <time>2024-08-13T09:25:27.344Z</time>
      </trkpt>
      <trkpt lat="45.83130240440369" lon="4.502227306365967">
        <ele>566.53</ele>
        <time>2024-08-13T09:25:36.963Z</time>
      </trkpt>
      <trkpt lat="45.83167791366577" lon="4.502270221710205">
        <ele>566.18</ele>
        <time>2024-08-13T09:25:46.588Z</time>
      </trkpt>
      <trkpt lat="45.83179593086243" lon="4.502302408218384">
        <ele>565.07</ele>
        <time>2024-08-13T09:25:56.215Z</time>
      </trkpt>
      <trkpt lat="45.831871032714844" lon="4.502377510070801">
        <ele>563.43</ele>
        <time>2024-08-13T09:26:05.843Z</time>
      </trkpt>
      <trkpt lat="45.832064151763916" lon="4.50264573097229">
        <ele>561.26</ele>
        <time>2024-08-13T09:26:15.476Z</time>
      </trkpt>
      <trkpt lat="45.83223581314087" lon="4.503074884414673">
        <ele>558.71</ele>
        <time>2024-08-13T09:26:25.114Z</time>
      </trkpt>
      <trkpt lat="45.83250403404236" lon="4.503439664840698">
        <ele>556.48</ele>
        <time>2024-08-13T09:26:34.758Z</time>
      </trkpt>
      <trkpt lat="45.83321213722229" lon="4.504094123840332">
        <ele>553.53</ele>
        <time>2024-08-13T09:26:44.416Z</time>
      </trkpt>
      <trkpt lat="45.83346962928772" lon="4.5042335987091064">
        <ele>551.48</ele>
        <time>2024-08-13T09:26:54.078Z</time>
      </trkpt>
      <trkpt lat="45.83393096923828" lon="4.504437446594238">
        <ele>549.05</ele>
        <time>2024-08-13T09:27:03.748Z</time>
      </trkpt>
      <trkpt lat="45.83393105305731" lon="4.504437446594238">
        <ele>546.85</ele>
        <time>2024-08-13T09:27:13.418Z</time>
      </trkpt>
      <trkpt lat="45.83414554595947" lon="4.5046305656433105">
        <ele>544.33</ele>
        <time>2024-08-13T09:27:23.092Z</time>
      </trkpt>
      <trkpt lat="45.834338665008545" lon="4.504845142364502">
        <ele>541.91</ele>
        <time>2024-08-13T09:27:32.770Z</time>
      </trkpt>
      <trkpt lat="45.83448886871338" lon="4.505059719085693">
        <ele>539.56</ele>
        <time>2024-08-13T09:27:42.451Z</time>
      </trkpt>
      <trkpt lat="45.83477854728699" lon="4.505714178085327">
        <ele>536.82</ele>
        <time>2024-08-13T09:27:52.141Z</time>
      </trkpt>
      <trkpt lat="45.8350145816803" lon="4.50613260269165">
        <ele>535.16</ele>
        <time>2024-08-13T09:28:01.837Z</time>
      </trkpt>
      <trkpt lat="45.83513259887695" lon="4.506239891052246">
        <ele>533.98</ele>
        <time>2024-08-13T09:28:11.535Z</time>
      </trkpt>
      <trkpt lat="45.83520770072937" lon="4.506239891052246">
        <ele>533.12</ele>
        <time>2024-08-13T09:28:21.234Z</time>
      </trkpt>
      <trkpt lat="45.83527207374573" lon="4.506186246871948">
        <ele>532.47</ele>
        <time>2024-08-13T09:28:30.935Z</time>
      </trkpt>
      <trkpt lat="45.83549737930298" lon="4.505778551101685">
        <ele>532.22</ele>
        <time>2024-08-13T09:28:40.641Z</time>
      </trkpt>
      <trkpt lat="45.835593938827515" lon="4.505692720413208">
        <ele>531.51</ele>
        <time>2024-08-13T09:28:50.349Z</time>
      </trkpt>
      <trkpt lat="45.83567976951599" lon="4.50564980506897">
        <ele>530.72</ele>
        <time>2024-08-13T09:29:00.059Z</time>
      </trkpt>
      <trkpt lat="45.83587288856506" lon="4.50563907623291">
        <ele>529.74</ele>
        <time>2024-08-13T09:29:09.772Z</time>
      </trkpt>
      <trkpt lat="45.83598017692566" lon="4.50564980506897">
        <ele>529.0</ele>
        <time>2024-08-13T09:29:19.486Z</time>
      </trkpt>
      <trkpt lat="45.83606198430061" lon="4.505683919414878">
        <ele>528.43</ele>
        <time>2024-08-13T09:29:29.202Z</time>
      </trkpt>
      <trkpt lat="45.83606198430061" lon="4.505683835595846">
        <ele>528.42</ele>
        <time>2024-08-13T09:29:38.918Z</time>
      </trkpt>
      <trkpt lat="45.83606198430061" lon="4.505683919414878">
        <ele>529.16</ele>
        <time>2024-08-13T09:29:48.634Z</time>
      </trkpt>
      <trkpt lat="45.836108922958374" lon="4.505703449249268">
        <ele>528.04</ele>
        <time>2024-08-13T09:29:58.351Z</time>
      </trkpt>
      <trkpt lat="45.83621621131897" lon="4.505800008773804">
        <ele>526.38</ele>
        <time>2024-08-13T09:30:08.070Z</time>
      </trkpt>
      <trkpt lat="45.83637714385986" lon="4.506057500839233">
        <ele>524.32</ele>
        <time>2024-08-13T09:30:17.793Z</time>
      </trkpt>
      <trkpt lat="45.83664536476135" lon="4.5065295696258545">
        <ele>522.3</ele>
        <time>2024-08-13T09:30:27.522Z</time>
      </trkpt>
      <trkpt lat="45.83704233169556" lon="4.507087469100952">
        <ele>520.64</ele>
        <time>2024-08-13T09:30:37.260Z</time>
      </trkpt>
      <trkpt lat="45.83720334805548" lon="4.507259130477905">
        <ele>519.0</ele>
        <time>2024-08-13T09:30:47.001Z</time>
      </trkpt>
      <trkpt lat="45.837546586990356" lon="4.507484436035156">
        <ele>517.3</ele>
        <time>2024-08-13T09:30:56.748Z</time>
      </trkpt>
      <trkpt lat="45.83767533302307" lon="4.5076024532318115">
        <ele>515.83</ele>
        <time>2024-08-13T09:31:06.498Z</time>
      </trkpt>
      <trkpt lat="45.83772897720337" lon="4.507699012756348">
        <ele>514.45</ele>
        <time>2024-08-13T09:31:16.249Z</time>
      </trkpt>
      <trkpt lat="45.83797582425177" lon="4.508417844772339">
        <ele>512.49</ele>
        <time>2024-08-13T09:31:26.009Z</time>
      </trkpt>
      <trkpt lat="45.838104486465454" lon="4.508836269378662">
        <ele>510.75</ele>
        <time>2024-08-13T09:31:35.774Z</time>
      </trkpt>
      <trkpt lat="45.83813667297363" lon="4.508922100067139">
        <ele>509.33</ele>
        <time>2024-08-13T09:31:45.540Z</time>
      </trkpt>
      <trkpt lat="45.838329792022705" lon="4.509490728378296">
        <ele>508.14</ele>
        <time>2024-08-13T09:31:55.314Z</time>
      </trkpt>
      <trkpt lat="45.83841570653021" lon="4.509758949279785">
        <ele>507.1</ele>
        <time>2024-08-13T09:32:05.091Z</time>
      </trkpt>
      <trkpt lat="45.838812589645386" lon="4.511400461196899">
        <ele>505.16</ele>
        <time>2024-08-13T09:32:14.887Z</time>
      </trkpt>
      <trkpt lat="45.83882340230048" lon="4.5114970207214355">
        <ele>503.95</ele>
        <time>2024-08-13T09:32:24.684Z</time>
      </trkpt>
      <trkpt lat="45.838844776153564" lon="4.51163649559021">
        <ele>502.86</ele>
        <time>2024-08-13T09:32:34.483Z</time>
      </trkpt>
      <trkpt lat="45.83882340230048" lon="4.511808156967163">
        <ele>501.85</ele>
        <time>2024-08-13T09:32:44.284Z</time>
      </trkpt>
      <trkpt lat="45.838801860809326" lon="4.51189398765564">
        <ele>500.89</ele>
        <time>2024-08-13T09:32:54.086Z</time>
      </trkpt>
      <trkpt lat="45.8384907245636" lon="4.512569904327393">
        <ele>500.13</ele>
        <time>2024-08-13T09:33:03.897Z</time>
      </trkpt>
      <trkpt lat="45.83824396133423" lon="4.513310194015503">
        <ele>499.28</ele>
        <time>2024-08-13T09:33:13.717Z</time>
      </trkpt>
      <trkpt lat="45.83821177482605" lon="4.513599872589111">
        <ele>498.4</ele>
        <time>2024-08-13T09:33:23.540Z</time>
      </trkpt>
      <trkpt lat="45.83822250366211" lon="4.514350891113281">
        <ele>497.55</ele>
        <time>2024-08-13T09:33:33.372Z</time>
      </trkpt>
      <trkpt lat="45.83823323249817" lon="4.514565467834473">
        <ele>496.67</ele>
        <time>2024-08-13T09:33:43.206Z</time>
      </trkpt>
      <trkpt lat="45.83824396133423" lon="4.5150697231292725">
        <ele>495.68</ele>
        <time>2024-08-13T09:33:53.046Z</time>
      </trkpt>
      <trkpt lat="45.83827614784241" lon="4.515305757522583">
        <ele>494.61</ele>
        <time>2024-08-13T09:34:02.889Z</time>
      </trkpt>
      <trkpt lat="45.8387912157923" lon="4.517000913619995">
        <ele>493.07</ele>
        <time>2024-08-13T09:34:12.752Z</time>
      </trkpt>
      <trkpt lat="45.838812589645386" lon="4.517076015472412">
        <ele>491.85</ele>
        <time>2024-08-13T09:34:22.616Z</time>
      </trkpt>
      <trkpt lat="45.838823318481445" lon="4.517226219177246">
        <ele>490.52</ele>
        <time>2024-08-13T09:34:32.482Z</time>
      </trkpt>
      <trkpt lat="45.838812589645386" lon="4.517344236373901">
        <ele>489.23</ele>
        <time>2024-08-13T09:34:42.349Z</time>
      </trkpt>
      <trkpt lat="45.83876967430115" lon="4.517451524734497">
        <ele>487.92</ele>
        <time>2024-08-13T09:34:52.218Z</time>
      </trkpt>
      <trkpt lat="45.838361978530884" lon="4.518159627914429">
        <ele>486.47</ele>
        <time>2024-08-13T09:35:02.097Z</time>
      </trkpt>
      <trkpt lat="45.838115215301514" lon="4.518717527389526">
        <ele>484.95</ele>
        <time>2024-08-13T09:35:11.983Z</time>
      </trkpt>
      <trkpt lat="45.83788990974426" lon="4.520015716552734">
        <ele>483.48</ele>
        <time>2024-08-13T09:35:21.884Z</time>
      </trkpt>
      <trkpt lat="45.83779335021973" lon="4.520659446716309">
        <ele>482.06</ele>
        <time>2024-08-13T09:35:31.793Z</time>
      </trkpt>
      <trkpt lat="45.83778262138367" lon="4.52086329460144">
        <ele>480.76</ele>
        <time>2024-08-13T09:35:41.704Z</time>
      </trkpt>
      <trkpt lat="45.83779335021973" lon="4.521077871322632">
        <ele>479.56</ele>
        <time>2024-08-13T09:35:51.617Z</time>
      </trkpt>
      <trkpt lat="45.837889993563294" lon="4.521700143814087">
        <ele>478.4</ele>
        <time>2024-08-13T09:36:01.537Z</time>
      </trkpt>
      <trkpt lat="45.83788990974426" lon="4.521700143814087">
        <ele>477.36</ele>
        <time>2024-08-13T09:36:11.457Z</time>
      </trkpt>
      <trkpt lat="45.83790063858032" lon="4.522000551223755">
        <ele>476.46</ele>
        <time>2024-08-13T09:36:21.381Z</time>
      </trkpt>
      <trkpt lat="45.83788990974426" lon="4.522182941436768">
        <ele>475.37</ele>
        <time>2024-08-13T09:36:31.307Z</time>
      </trkpt>
      <trkpt lat="45.837857807055116" lon="4.522300958633423">
        <ele>474.37</ele>
        <time>2024-08-13T09:36:41.234Z</time>
      </trkpt>
      <trkpt lat="45.837857723236084" lon="4.522300958633423">
        <ele>473.43</ele>
        <time>2024-08-13T09:36:51.161Z</time>
      </trkpt>
      <trkpt lat="45.83775043487549" lon="4.522526264190674">
        <ele>472.5</ele>
        <time>2024-08-13T09:37:01.091Z</time>
      </trkpt>
      <trkpt lat="45.83739638328552" lon="4.522976875305176">
        <ele>471.35</ele>
        <time>2024-08-13T09:37:11.029Z</time>
      </trkpt>
      <trkpt lat="45.83720326423645" lon="4.523288011550903">
        <ele>470.24</ele>
        <time>2024-08-13T09:37:20.972Z</time>
      </trkpt>
      <trkpt lat="45.836859941482544" lon="4.523953199386597">
        <ele>469.13</ele>
        <time>2024-08-13T09:37:30.924Z</time>
      </trkpt>
      <trkpt lat="45.83662390708923" lon="4.5243072509765625">
        <ele>467.92</ele>
        <time>2024-08-13T09:37:40.881Z</time>
      </trkpt>
      <trkpt lat="45.83624839782715" lon="4.524790048599243">
        <ele>466.8</ele>
        <time>2024-08-13T09:37:50.846Z</time>
      </trkpt>
      <trkpt lat="45.83615183830261" lon="4.524961709976196">
        <ele>465.59</ele>
        <time>2024-08-13T09:38:00.814Z</time>
      </trkpt>
      <trkpt lat="45.83595871925354" lon="4.525487422943115">
        <ele>464.29</ele>
        <time>2024-08-13T09:38:10.788Z</time>
      </trkpt>
      <trkpt lat="45.83588361740112" lon="4.525766372680664">
        <ele>463.33</ele>
        <time>2024-08-13T09:38:20.766Z</time>
      </trkpt>
      <trkpt lat="45.835862159729004" lon="4.525938034057617">
        <ele>462.35</ele>
        <time>2024-08-13T09:38:30.746Z</time>
      </trkpt>
      <trkpt lat="45.835851430892944" lon="4.526088237762451">
        <ele>461.33</ele>
        <time>2024-08-13T09:38:40.727Z</time>
      </trkpt>
      <trkpt lat="45.83587288856506" lon="4.526442289352417">
        <ele>460.32</ele>
        <time>2024-08-13T09:38:50.712Z</time>
      </trkpt>
      <trkpt lat="45.83603382110596" lon="4.527450799942017">
        <ele>459.1</ele>
        <time>2024-08-13T09:39:00.709Z</time>
      </trkpt>
      <trkpt lat="45.836055278778076" lon="4.527794122695923">
        <ele>457.98</ele>
        <time>2024-08-13T09:39:10.710Z</time>
      </trkpt>
      <trkpt lat="45.83604454994202" lon="4.528158903121948">
        <ele>456.82</ele>
        <time>2024-08-13T09:39:20.715Z</time>
      </trkpt>
      <trkpt lat="45.83599090576172" lon="4.528416395187378">
        <ele>455.52</ele>
        <time>2024-08-13T09:39:30.723Z</time>
      </trkpt>
      <trkpt lat="45.83575487136841" lon="4.52936053276062">
        <ele>454.01</ele>
        <time>2024-08-13T09:39:40.742Z</time>
      </trkpt>
      <trkpt lat="45.83570122718811" lon="4.529521465301514">
        <ele>452.88</ele>
        <time>2024-08-13T09:39:50.763Z</time>
      </trkpt>
      <trkpt lat="45.835604751482606" lon="4.5297253131866455">
        <ele>451.78</ele>
        <time>2024-08-13T09:40:00.787Z</time>
      </trkpt>
      <trkpt lat="45.83544373512268" lon="4.529929161071777">
        <ele>450.61</ele>
        <time>2024-08-13T09:40:10.814Z</time>
      </trkpt>
      <trkpt lat="45.835347175598145" lon="4.529993534088135">
        <ele>449.47</ele>
        <time>2024-08-13T09:40:20.843Z</time>
      </trkpt>
      <trkpt lat="45.83492883481085" lon="4.530197381973267">
        <ele>448.33</ele>
        <time>2024-08-13T09:40:30.879Z</time>
      </trkpt>
      <trkpt lat="45.834810733795166" lon="4.530272483825684">
        <ele>447.34</ele>
        <time>2024-08-13T09:40:40.917Z</time>
      </trkpt>
      <trkpt lat="45.83467134274542" lon="4.530401229858398">
        <ele>446.43</ele>
        <time>2024-08-13T09:40:50.958Z</time>
      </trkpt>
      <trkpt lat="45.83467125892639" lon="4.530401229858398">
        <ele>445.5</ele>
        <time>2024-08-13T09:41:00.999Z</time>
      </trkpt>
      <trkpt lat="45.8345103263855" lon="4.530637264251709">
        <ele>444.57</ele>
        <time>2024-08-13T09:41:11.044Z</time>
      </trkpt>
      <trkpt lat="45.83428502082825" lon="4.5310235023498535">
        <ele>443.5</ele>
        <time>2024-08-13T09:41:21.094Z</time>
      </trkpt>
      <trkpt lat="45.83419919013977" lon="4.53112006187439">
        <ele>442.45</ele>
        <time>2024-08-13T09:41:31.146Z</time>
      </trkpt>
      <trkpt lat="45.83402752876282" lon="4.531238079071045">
        <ele>441.34</ele>
        <time>2024-08-13T09:41:41.201Z</time>
      </trkpt>
      <trkpt lat="45.83370566368103" lon="4.53136682510376">
        <ele>440.21</ele>
        <time>2024-08-13T09:41:51.261Z</time>
      </trkpt>
      <trkpt lat="45.833576917648315" lon="4.531452655792236">
        <ele>439.4</ele>
        <time>2024-08-13T09:42:01.324Z</time>
      </trkpt>
      <trkpt lat="45.83343744277954" lon="4.531570672988892">
        <ele>438.67</ele>
        <time>2024-08-13T09:42:11.389Z</time>
      </trkpt>
      <trkpt lat="45.833373069763184" lon="4.531656503677368">
        <ele>437.96</ele>
        <time>2024-08-13T09:42:21.456Z</time>
      </trkpt>
      <trkpt lat="45.83327651023865" lon="4.5318603515625">
        <ele>437.21</ele>
        <time>2024-08-13T09:42:31.525Z</time>
      </trkpt>
      <trkpt lat="45.833104932680726" lon="4.532332420349121">
        <ele>436.39</ele>
        <time>2024-08-13T09:42:41.600Z</time>
      </trkpt>
      <trkpt lat="45.83269715309143" lon="4.533480405807495">
        <ele>435.34</ele>
        <time>2024-08-13T09:42:51.690Z</time>
      </trkpt>
      <trkpt lat="45.83267569541931" lon="4.5336198806762695">
        <ele>434.51</ele>
        <time>2024-08-13T09:43:01.781Z</time>
      </trkpt>
      <trkpt lat="45.83267569541931" lon="4.533877372741699">
        <ele>433.66</ele>
        <time>2024-08-13T09:43:11.875Z</time>
      </trkpt>
      <trkpt lat="45.83266496658325" lon="4.534049034118652">
        <ele>432.83</ele>
        <time>2024-08-13T09:43:21.971Z</time>
      </trkpt>
      <trkpt lat="45.832600593566895" lon="4.534714221954346">
        <ele>431.93</ele>
        <time>2024-08-13T09:43:32.075Z</time>
      </trkpt>
      <trkpt lat="45.832557678222656" lon="4.5349931716918945">
        <ele>431.05</ele>
        <time>2024-08-13T09:43:42.182Z</time>
      </trkpt>
      <trkpt lat="45.83245038986206" lon="4.535390138626099">
        <ele>430.08</ele>
        <time>2024-08-13T09:43:52.294Z</time>
      </trkpt>
      <trkpt lat="45.832364559173584" lon="4.535540342330933">
        <ele>429.13</ele>
        <time>2024-08-13T09:44:02.408Z</time>
      </trkpt>
      <trkpt lat="45.83225727081299" lon="4.535658359527588">
        <ele>428.22</ele>
        <time>2024-08-13T09:44:12.524Z</time>
      </trkpt>
      <trkpt lat="45.831613540649414" lon="4.536280632019043">
        <ele>427.27</ele>
        <time>2024-08-13T09:44:22.652Z</time>
      </trkpt>
      <trkpt lat="45.8314311504364" lon="4.536495208740234">
        <ele>426.39</ele>
        <time>2024-08-13T09:44:32.784Z</time>
      </trkpt>
      <trkpt lat="45.83120584487915" lon="4.536806344985962">
        <ele>425.44</ele>
        <time>2024-08-13T09:44:42.921Z</time>
      </trkpt>
      <trkpt lat="45.83090543746948" lon="4.537256956100464">
        <ele>424.47</ele>
        <time>2024-08-13T09:44:53.065Z</time>
      </trkpt>
      <trkpt lat="45.83074450492859" lon="4.537557363510132">
        <ele>423.51</ele>
        <time>2024-08-13T09:45:03.213Z</time>
      </trkpt>
      <trkpt lat="45.83050847053528" lon="4.5381152629852295">
        <ele>422.47</ele>
        <time>2024-08-13T09:45:13.369Z</time>
      </trkpt>
      <trkpt lat="45.83045482635498" lon="4.538319110870361">
        <ele>421.71</ele>
        <time>2024-08-13T09:45:23.527Z</time>
      </trkpt>
      <trkpt lat="45.8304226398468" lon="4.538555145263672">
        <ele>420.97</ele>
        <time>2024-08-13T09:45:33.688Z</time>
      </trkpt>
      <trkpt lat="45.83041191101074" lon="4.538995027542114">
        <ele>420.31</ele>
        <time>2024-08-13T09:45:43.854Z</time>
      </trkpt>
      <trkpt lat="45.830358266830444" lon="4.539220333099365">
        <ele>419.73</ele>
        <time>2024-08-13T09:45:54.022Z</time>
      </trkpt>
      <trkpt lat="45.83030462265015" lon="4.539295434951782">
        <ele>419.18</ele>
        <time>2024-08-13T09:46:04.192Z</time>
      </trkpt>
      <trkpt lat="45.83024024963379" lon="4.539327621459961">
        <ele>418.61</ele>
        <time>2024-08-13T09:46:14.363Z</time>
      </trkpt>
      <trkpt lat="45.83014369010925" lon="4.539327621459961">
        <ele>417.97</ele>
        <time>2024-08-13T09:46:24.535Z</time>
      </trkpt>
      <trkpt lat="45.82969307899475" lon="4.539209604263306">
        <ele>417.34</ele>
        <time>2024-08-13T09:46:34.714Z</time>
      </trkpt>
      <trkpt lat="45.829575061798096" lon="4.539198875427246">
        <ele>416.75</ele>
        <time>2024-08-13T09:46:44.895Z</time>
      </trkpt>
      <trkpt lat="45.82942485809326" lon="4.539209604263306">
        <ele>416.05</ele>
        <time>2024-08-13T09:46:55.079Z</time>
      </trkpt>
      <trkpt lat="45.828609466552734" lon="4.539467096328735">
        <ele>415.23</ele>
        <time>2024-08-13T09:47:05.276Z</time>
      </trkpt>
      <trkpt lat="45.82841634750366" lon="4.5395636558532715">
        <ele>414.53</ele>
        <time>2024-08-13T09:47:15.476Z</time>
      </trkpt>
      <trkpt lat="45.82823395729065" lon="4.539735317230225">
        <ele>413.81</ele>
        <time>2024-08-13T09:47:25.680Z</time>
      </trkpt>
      <trkpt lat="45.82805156707764" lon="4.539971351623535">
        <ele>413.06</ele>
        <time>2024-08-13T09:47:35.888Z</time>
      </trkpt>
      <trkpt lat="45.82772970199585" lon="4.540582895278931">
        <ele>412.31</ele>
        <time>2024-08-13T09:47:46.104Z</time>
      </trkpt>
      <trkpt lat="45.8275043964386" lon="4.540904760360718">
        <ele>411.27</ele>
        <time>2024-08-13T09:47:56.326Z</time>
      </trkpt>
      <trkpt lat="45.826828479766846" lon="4.541569948196411">
        <ele>409.7</ele>
        <time>2024-08-13T09:48:06.561Z</time>
      </trkpt>
      <trkpt lat="45.826592445373535" lon="4.541881084442139">
        <ele>408.76</ele>
        <time>2024-08-13T09:48:16.801Z</time>
      </trkpt>
      <trkpt lat="45.82541227340698" lon="4.543812274932861">
        <ele>407.54</ele>
        <time>2024-08-13T09:48:27.069Z</time>
      </trkpt>
      <trkpt lat="45.82525134086609" lon="4.544112682342529">
        <ele>406.67</ele>
        <time>2024-08-13T09:48:37.342Z</time>
      </trkpt>
      <trkpt lat="45.82515478134155" lon="4.544327259063721">
        <ele>405.84</ele>
        <time>2024-08-13T09:48:47.618Z</time>
      </trkpt>
      <trkpt lat="45.825122594833374" lon="4.544509649276733">
        <ele>405.01</ele>
        <time>2024-08-13T09:48:57.896Z</time>
      </trkpt>
      <trkpt lat="45.82510122098029" lon="4.5446813106536865">
        <ele>404.2</ele>
        <time>2024-08-13T09:49:08.176Z</time>
      </trkpt>
      <trkpt lat="45.825068950653076" lon="4.545228481292725">
        <ele>403.4</ele>
        <time>2024-08-13T09:49:18.462Z</time>
      </trkpt>
      <trkpt lat="45.82502603530884" lon="4.545539617538452">
        <ele>402.6</ele>
        <time>2024-08-13T09:49:28.751Z</time>
      </trkpt>
      <trkpt lat="45.8249831199646" lon="4.545711278915405">
        <ele>401.88</ele>
        <time>2024-08-13T09:49:39.042Z</time>
      </trkpt>
      <trkpt lat="45.82491874694824" lon="4.545807838439941">
        <ele>401.09</ele>
        <time>2024-08-13T09:49:49.335Z</time>
      </trkpt>
      <trkpt lat="45.824832916259766" lon="4.545872211456299">
        <ele>400.23</ele>
        <time>2024-08-13T09:49:59.629Z</time>
      </trkpt>
      <trkpt lat="45.82471489906311" lon="4.54585075378418">
        <ele>399.35</ele>
        <time>2024-08-13T09:50:09.925Z</time>
      </trkpt>
      <trkpt lat="45.82428574562073" lon="4.54560399055481">
        <ele>398.31</ele>
        <time>2024-08-13T09:50:20.229Z</time>
      </trkpt>
      <trkpt lat="45.82391023635864" lon="4.545464515686035">
        <ele>397.21</ele>
        <time>2024-08-13T09:50:30.539Z</time>
      </trkpt>
      <trkpt lat="45.823330879211426" lon="4.545400142669678">
        <ele>396.17</ele>
        <time>2024-08-13T09:50:40.858Z</time>
      </trkpt>
      <trkpt lat="45.822858894243836" lon="4.545528888702393">
        <ele>395.18</ele>
        <time>2024-08-13T09:50:51.185Z</time>
      </trkpt>
      <trkpt lat="45.822858810424805" lon="4.545528888702393">
        <ele>394.12</ele>
        <time>2024-08-13T09:51:01.512Z</time>
      </trkpt>
      <trkpt lat="45.82175374031067" lon="4.545882940292358">
        <ele>392.59</ele>
        <time>2024-08-13T09:51:11.857Z</time>
      </trkpt>
      <trkpt lat="45.82118519581854" lon="4.545968770980835">
        <ele>391.47</ele>
        <time>2024-08-13T09:51:22.211Z</time>
      </trkpt>
      <trkpt lat="45.820605754852295" lon="4.5460546016693115">
        <ele>390.57</ele>
        <time>2024-08-13T09:51:32.575Z</time>
      </trkpt>
      <trkpt lat="45.82023024559021" lon="4.545958042144775">
        <ele>389.18</ele>
        <time>2024-08-13T09:51:42.945Z</time>
      </trkpt>
      <trkpt lat="45.820112228393555" lon="4.545925855636597">
        <ele>387.87</ele>
        <time>2024-08-13T09:51:53.317Z</time>
      </trkpt>
      <trkpt lat="45.819844007492065" lon="4.545711278915405">
        <ele>386.2</ele>
        <time>2024-08-13T09:52:03.693Z</time>
      </trkpt>
      <trkpt lat="45.81947922706604" lon="4.545518159866333">
        <ele>384.92</ele>
        <time>2024-08-13T09:52:14.076Z</time>
      </trkpt>
      <trkpt lat="45.819103717803955" lon="4.54534649848938">
        <ele>383.63</ele>
        <time>2024-08-13T09:52:24.465Z</time>
      </trkpt>
      <trkpt lat="45.81892132759094" lon="4.54533576965332">
        <ele>382.42</ele>
        <time>2024-08-13T09:52:34.857Z</time>
      </trkpt>
      <trkpt lat="45.81872820854187" lon="4.545389413833618">
        <ele>381.26</ele>
        <time>2024-08-13T09:52:45.252Z</time>
      </trkpt>
      <trkpt lat="45.81840634346008" lon="4.545561075210571">
        <ele>380.16</ele>
        <time>2024-08-13T09:52:55.653Z</time>
      </trkpt>
      <trkpt lat="45.818105936050415" lon="4.545786380767822">
        <ele>379.23</ele>
        <time>2024-08-13T09:53:06.059Z</time>
      </trkpt>
      <trkpt lat="45.81796646118164" lon="4.545968770980835">
        <ele>378.56</ele>
        <time>2024-08-13T09:53:16.468Z</time>
      </trkpt>
      <trkpt lat="45.817880630493164" lon="4.546183347702026">
        <ele>377.91</ele>
        <time>2024-08-13T09:53:26.880Z</time>
      </trkpt>
      <trkpt lat="45.81781625747681" lon="4.546419382095337">
        <ele>377.47</ele>
        <time>2024-08-13T09:53:37.295Z</time>
      </trkpt>
      <trkpt lat="45.817623138427734" lon="4.547309875488281">
        <ele>376.72</ele>
        <time>2024-08-13T09:53:47.720Z</time>
      </trkpt>
      <trkpt lat="45.817601680755615" lon="4.547975063323975">
        <ele>376.21</ele>
        <time>2024-08-13T09:53:58.153Z</time>
      </trkpt>
      <trkpt lat="45.81756949424744" lon="4.548135995864868">
        <ele>375.61</ele>
        <time>2024-08-13T09:54:08.587Z</time>
      </trkpt>
      <trkpt lat="45.8175265789032" lon="4.548232555389404">
        <ele>374.91</ele>
        <time>2024-08-13T09:54:19.023Z</time>
      </trkpt>
      <trkpt lat="45.81745147705078" lon="4.548296928405762">
        <ele>374.06</ele>
        <time>2024-08-13T09:54:29.460Z</time>
      </trkpt>
      <trkpt lat="45.817333459854126" lon="4.54833984375">
        <ele>373.06</ele>
        <time>2024-08-13T09:54:39.899Z</time>
      </trkpt>
      <trkpt lat="45.81699013710022" lon="4.548404216766357">
        <ele>371.97</ele>
        <time>2024-08-13T09:54:50.344Z</time>
      </trkpt>
      <trkpt lat="45.81672191619873" lon="4.548532962799072">
        <ele>370.92</ele>
        <time>2024-08-13T09:55:00.793Z</time>
      </trkpt>
      <trkpt lat="45.81645369529724" lon="4.548779726028442">
        <ele>369.87</ele>
        <time>2024-08-13T09:55:11.247Z</time>
      </trkpt>
      <trkpt lat="45.81617474555969" lon="4.549219608306885">
        <ele>368.74</ele>
        <time>2024-08-13T09:55:21.708Z</time>
      </trkpt>
      <trkpt lat="45.81604599952698" lon="4.54958438873291">
        <ele>367.56</ele>
        <time>2024-08-13T09:55:32.173Z</time>
      </trkpt>
      <trkpt lat="45.81600308418274" lon="4.549798965454102">
        <ele>366.66</ele>
        <time>2024-08-13T09:55:42.641Z</time>
      </trkpt>
      <trkpt lat="45.81599235534668" lon="4.5500242710113525">
        <ele>365.89</ele>
        <time>2024-08-13T09:55:53.111Z</time>
      </trkpt>
      <trkpt lat="45.81600308418274" lon="4.550271034240723">
        <ele>365.38</ele>
        <time>2024-08-13T09:56:03.584Z</time>
      </trkpt>
      <trkpt lat="45.81603527069092" lon="4.5513975620269775">
        <ele>364.69</ele>
        <time>2024-08-13T09:56:14.070Z</time>
      </trkpt>
      <trkpt lat="45.8160138130188" lon="4.5516228675842285">
        <ele>364.62</ele>
        <time>2024-08-13T09:56:24.558Z</time>
      </trkpt>
      <trkpt lat="45.815874338150024" lon="4.552427530288696">
        <ele>365.06</ele>
        <time>2024-08-13T09:56:35.056Z</time>
      </trkpt>
      <trkpt lat="45.815854389220476" lon="4.552487377077341">
        <ele>364.84</ele>
        <time>2024-08-13T09:56:45.554Z</time>
      </trkpt>
      <trkpt lat="45.815854389220476" lon="4.552487460896373">
        <ele>364.84</ele>
        <time>2024-08-13T09:56:56.052Z</time>
      </trkpt>
      <trkpt lat="45.81576704978943" lon="4.552749395370483">
        <ele>364.5</ele>
        <time>2024-08-13T09:57:06.554Z</time>
      </trkpt>
      <trkpt lat="45.815337896347046" lon="4.553543329238892">
        <ele>363.07</ele>
        <time>2024-08-13T09:57:17.067Z</time>
      </trkpt>
      <trkpt lat="45.81528425216675" lon="4.553725719451904">
        <ele>362.01</ele>
        <time>2024-08-13T09:57:27.582Z</time>
      </trkpt>
      <trkpt lat="45.81527352333069" lon="4.553929567337036">
        <ele>361.4</ele>
        <time>2024-08-13T09:57:38.099Z</time>
      </trkpt>
      <trkpt lat="45.81528425216675" lon="4.554208517074585">
        <ele>361.1</ele>
        <time>2024-08-13T09:57:48.620Z</time>
      </trkpt>
      <trkpt lat="45.81531643867493" lon="4.554476737976074">
        <ele>360.77</ele>
        <time>2024-08-13T09:57:59.144Z</time>
      </trkpt>
      <trkpt lat="45.81555247306824" lon="4.555013179779053">
        <ele>360.74</ele>
        <time>2024-08-13T09:58:09.675Z</time>
      </trkpt>
      <trkpt lat="45.815595388412476" lon="4.555195569992065">
        <ele>360.58</ele>
        <time>2024-08-13T09:58:20.208Z</time>
      </trkpt>
      <trkpt lat="45.8155632019043" lon="4.555377960205078">
        <ele>360.06</ele>
        <time>2024-08-13T09:58:30.743Z</time>
      </trkpt>
      <trkpt lat="45.81543445587158" lon="4.555860757827759">
        <ele>358.72</ele>
        <time>2024-08-13T09:58:41.284Z</time>
      </trkpt>
      <trkpt lat="45.815348625183105" lon="4.55632209777832">
        <ele>357.75</ele>
        <time>2024-08-13T09:58:51.830Z</time>
      </trkpt>
      <trkpt lat="45.815348625183105" lon="4.556622505187988">
        <ele>357.1</ele>
        <time>2024-08-13T09:59:02.379Z</time>
      </trkpt>
      <trkpt lat="45.815391540527344" lon="4.556804895401001">
        <ele>356.7</ele>
        <time>2024-08-13T09:59:12.931Z</time>
      </trkpt>
      <trkpt lat="45.8154559135437" lon="4.556944370269775">
        <ele>356.53</ele>
        <time>2024-08-13T09:59:23.484Z</time>
      </trkpt>
      <trkpt lat="45.81578850746155" lon="4.557523727416992">
        <ele>356.29</ele>
        <time>2024-08-13T09:59:34.046Z</time>
      </trkpt>
      <trkpt lat="45.81603527069092" lon="4.55782413482666">
        <ele>355.87</ele>
        <time>2024-08-13T09:59:44.613Z</time>
      </trkpt>
      <trkpt lat="45.816410779953" lon="4.558006525039673">
        <ele>355.88</ele>
        <time>2024-08-13T09:59:55.186Z</time>
      </trkpt>
      <trkpt lat="45.81671118736267" lon="4.558092355728149">
        <ele>355.7</ele>
        <time>2024-08-13T10:00:05.764Z</time>
      </trkpt>
      <trkpt lat="45.81701159477234" lon="4.558274745941162">
        <ele>355.34</ele>
        <time>2024-08-13T10:00:16.347Z</time>
      </trkpt>
      <trkpt lat="45.81705451011658" lon="4.558392763137817">
        <ele>354.7</ele>
        <time>2024-08-13T10:00:26.932Z</time>
      </trkpt>
      <trkpt lat="45.81705451011658" lon="4.5585644245147705">
        <ele>353.89</ele>
        <time>2024-08-13T10:00:37.519Z</time>
      </trkpt>
      <trkpt lat="45.81700086593628" lon="4.558650255203247">
        <ele>352.93</ele>
        <time>2024-08-13T10:00:48.107Z</time>
      </trkpt>
      <trkpt lat="45.81692576408386" lon="4.558725357055664">
        <ele>351.92</ele>
        <time>2024-08-13T10:00:58.697Z</time>
      </trkpt>
      <trkpt lat="45.81619620323181" lon="4.55933690071106">
        <ele>350.38</ele>
        <time>2024-08-13T10:01:09.300Z</time>
      </trkpt>
      <trkpt lat="45.816099643707275" lon="4.559519290924072">
        <ele>349.16</ele>
        <time>2024-08-13T10:01:19.906Z</time>
      </trkpt>
      <trkpt lat="45.81602454185486" lon="4.559723138809204">
        <ele>347.88</ele>
        <time>2024-08-13T10:01:30.514Z</time>
      </trkpt>
      <trkpt lat="45.81594944000244" lon="4.560120105743408">
        <ele>346.52</ele>
        <time>2024-08-13T10:01:41.127Z</time>
      </trkpt>
      <trkpt lat="45.81592798233032" lon="4.56032395362854">
        <ele>345.26</ele>
        <time>2024-08-13T10:01:51.742Z</time>
      </trkpt>
      <trkpt lat="45.81593871116638" lon="4.560527801513672">
        <ele>344.17</ele>
        <time>2024-08-13T10:02:02.360Z</time>
      </trkpt>
      <trkpt lat="45.81597089767456" lon="4.560624361038208">
        <ele>343.11</ele>
        <time>2024-08-13T10:02:12.979Z</time>
      </trkpt>
      <trkpt lat="45.816131830215454" lon="4.560956954956055">
        <ele>342.26</ele>
        <time>2024-08-13T10:02:23.602Z</time>
      </trkpt>
      <trkpt lat="45.81617474555969" lon="4.561107158660889">
        <ele>341.26</ele>
        <time>2024-08-13T10:02:34.227Z</time>
      </trkpt>
      <trkpt lat="45.816131830215454" lon="4.561300277709961">
        <ele>340.17</ele>
        <time>2024-08-13T10:02:44.854Z</time>
      </trkpt>
      <trkpt lat="45.816088914871216" lon="4.561364650726318">
        <ele>339.03</ele>
        <time>2024-08-13T10:02:55.482Z</time>
      </trkpt>
      <trkpt lat="45.815573930740356" lon="4.561740159988403">
        <ele>337.38</ele>
        <time>2024-08-13T10:03:06.120Z</time>
      </trkpt>
      <trkpt lat="45.814629793167114" lon="4.562920331954956">
        <ele>335.92</ele>
        <time>2024-08-13T10:03:16.778Z</time>
      </trkpt>
      <trkpt lat="45.8145546913147" lon="4.5629847049713135">
        <ele>334.72</ele>
        <time>2024-08-13T10:03:27.437Z</time>
      </trkpt>
      <trkpt lat="45.81446886062622" lon="4.563006162643433">
        <ele>333.52</ele>
        <time>2024-08-13T10:03:38.097Z</time>
      </trkpt>
      <trkpt lat="45.81422209739685" lon="4.562973976135254">
        <ele>332.05</ele>
        <time>2024-08-13T10:03:48.761Z</time>
      </trkpt>
      <trkpt lat="45.814146995544434" lon="4.562995433807373">
        <ele>330.93</ele>
        <time>2024-08-13T10:03:59.427Z</time>
      </trkpt>
      <trkpt lat="45.8139967918396" lon="4.563102722167969">
        <ele>329.96</ele>
        <time>2024-08-13T10:04:10.095Z</time>
      </trkpt>
      <trkpt lat="45.813889503479004" lon="4.563242197036743">
        <ele>328.92</ele>
        <time>2024-08-13T10:04:20.766Z</time>
      </trkpt>
      <trkpt lat="45.81381440162659" lon="4.563456773757935">
        <ele>328.2</ele>
        <time>2024-08-13T10:04:31.439Z</time>
      </trkpt>
      <trkpt lat="45.81372857093811" lon="4.563767910003662">
        <ele>327.61</ele>
        <time>2024-08-13T10:04:42.116Z</time>
      </trkpt>
      <trkpt lat="45.81368565559387" lon="4.5640575885772705">
        <ele>327.25</ele>
        <time>2024-08-13T10:04:52.796Z</time>
      </trkpt>
      <trkpt lat="45.81367492675781" lon="4.5643150806427">
        <ele>327.1</ele>
        <time>2024-08-13T10:05:03.479Z</time>
      </trkpt>
      <trkpt lat="45.81367492675781" lon="4.5645081996917725">
        <ele>327.0</ele>
        <time>2024-08-13T10:05:14.164Z</time>
      </trkpt>
      <trkpt lat="45.81370711326599" lon="4.564690589904785">
        <ele>326.96</ele>
        <time>2024-08-13T10:05:24.852Z</time>
      </trkpt>
      <trkpt lat="45.81377148628235" lon="4.564990997314453">
        <ele>327.01</ele>
        <time>2024-08-13T10:05:35.543Z</time>
      </trkpt>
      <trkpt lat="45.81377148628235" lon="4.565087556838989">
        <ele>326.96</ele>
        <time>2024-08-13T10:05:46.235Z</time>
      </trkpt>
      <trkpt lat="45.81375011242926" lon="4.565227031707764">
        <ele>326.9</ele>
        <time>2024-08-13T10:05:56.929Z</time>
      </trkpt>
      <trkpt lat="45.81366419792175" lon="4.565377235412598">
        <ele>326.72</ele>
        <time>2024-08-13T10:06:07.625Z</time>
      </trkpt>
      <trkpt lat="45.81352472305298" lon="4.565538167953491">
        <ele>326.33</ele>
        <time>2024-08-13T10:06:18.324Z</time>
      </trkpt>
      <trkpt lat="45.81346035003662" lon="4.565688371658325">
        <ele>326.09</ele>
        <time>2024-08-13T10:06:29.025Z</time>
      </trkpt>
      <trkpt lat="45.813438976183534" lon="4.565795660018921">
        <ele>326.04</ele>
        <time>2024-08-13T10:06:39.727Z</time>
      </trkpt>
      <trkpt lat="45.8134388923645" lon="4.565795660018921">
        <ele>325.97</ele>
        <time>2024-08-13T10:06:50.429Z</time>
      </trkpt>
      <trkpt lat="45.81344962120056" lon="4.565967321395874">
        <ele>325.94</ele>
        <time>2024-08-13T10:07:01.133Z</time>
      </trkpt>
      <trkpt lat="45.813642740249634" lon="4.5665037631988525">
        <ele>325.89</ele>
        <time>2024-08-13T10:07:11.844Z</time>
      </trkpt>
      <trkpt lat="45.81370711326599" lon="4.566739797592163">
        <ele>325.73</ele>
        <time>2024-08-13T10:07:22.557Z</time>
      </trkpt>
      <trkpt lat="45.81378221511841" lon="4.567190408706665">
        <ele>325.41</ele>
        <time>2024-08-13T10:07:33.276Z</time>
      </trkpt>
      <trkpt lat="45.813835859298706" lon="4.567286968231201">
        <ele>325.21</ele>
        <time>2024-08-13T10:07:43.996Z</time>
      </trkpt>
      <trkpt lat="45.81391096115112" lon="4.567351341247559">
        <ele>325.0</ele>
        <time>2024-08-13T10:07:54.717Z</time>
      </trkpt>
      <trkpt lat="45.81417918205261" lon="4.567351341247559">
        <ele>325.0</ele>
        <time>2024-08-13T10:08:05.443Z</time>
      </trkpt>
      <trkpt lat="45.81449031829834" lon="4.567265510559082">
        <ele>324.78</ele>
        <time>2024-08-13T10:08:16.174Z</time>
      </trkpt>
      <trkpt lat="45.81456542015076" lon="4.567286968231201">
        <ele>324.2</ele>
        <time>2024-08-13T10:08:26.906Z</time>
      </trkpt>
      <trkpt lat="45.814619064331055" lon="4.567351341247559">
        <ele>323.43</ele>
        <time>2024-08-13T10:08:37.639Z</time>
      </trkpt>
      <trkpt lat="45.81465125083923" lon="4.567469358444214">
        <ele>322.4</ele>
        <time>2024-08-13T10:08:48.374Z</time>
      </trkpt>
      <trkpt lat="45.81465125083923" lon="4.567544460296631">
        <ele>321.28</ele>
        <time>2024-08-13T10:08:59.109Z</time>
      </trkpt>
      <trkpt lat="45.814619064331055" lon="4.567662477493286">
        <ele>320.0</ele>
        <time>2024-08-13T10:09:09.846Z</time>
      </trkpt>
      <trkpt lat="45.81382513046265" lon="4.568606615066528">
        <ele>317.91</ele>
        <time>2024-08-13T10:09:20.599Z</time>
      </trkpt>
      <trkpt lat="45.81327804364264" lon="4.569228887557983">
        <ele>316.37</ele>
        <time>2024-08-13T10:09:31.364Z</time>
      </trkpt>
      <trkpt lat="45.81290245056152" lon="4.569379091262817">
        <ele>314.66</ele>
        <time>2024-08-13T10:09:42.135Z</time>
      </trkpt>
      <trkpt lat="45.81280589103699" lon="4.569464921951294">
        <ele>313.24</ele>
        <time>2024-08-13T10:09:52.908Z</time>
      </trkpt>
      <trkpt lat="45.81274151802063" lon="4.56957221031189">
        <ele>311.8</ele>
        <time>2024-08-13T10:10:03.682Z</time>
      </trkpt>
      <trkpt lat="45.81268787384033" lon="4.569690227508545">
        <ele>310.42</ele>
        <time>2024-08-13T10:10:14.458Z</time>
      </trkpt>
      <trkpt lat="45.81265568733215" lon="4.5700013637542725">
        <ele>309.05</ele>
        <time>2024-08-13T10:10:25.237Z</time>
      </trkpt>
      <trkpt lat="45.81266641616821" lon="4.570226669311523">
        <ele>307.78</ele>
        <time>2024-08-13T10:10:36.019Z</time>
      </trkpt>
      <trkpt lat="45.81269860267639" lon="4.570419788360596">
        <ele>306.63</ele>
        <time>2024-08-13T10:10:46.803Z</time>
      </trkpt>
      <trkpt lat="45.81290245056152" lon="4.571278095245361">
        <ele>305.58</ele>
        <time>2024-08-13T10:10:57.597Z</time>
      </trkpt>
      <trkpt lat="45.81298828125" lon="4.572007656097412">
        <ele>304.17</ele>
        <time>2024-08-13T10:11:08.399Z</time>
      </trkpt>
      <trkpt lat="45.81303119659424" lon="4.5722222328186035">
        <ele>303.11</ele>
        <time>2024-08-13T10:11:19.204Z</time>
      </trkpt>
      <trkpt lat="45.813127756118774" lon="4.572511911392212">
        <ele>301.98</ele>
        <time>2024-08-13T10:11:30.013Z</time>
      </trkpt>
      <trkpt lat="45.81321358680725" lon="4.572715759277344">
        <ele>301.04</ele>
        <time>2024-08-13T10:11:40.824Z</time>
      </trkpt>
      <trkpt lat="45.81331014633179" lon="4.572865962982178">
        <ele>300.25</ele>
        <time>2024-08-13T10:11:51.638Z</time>
      </trkpt>
      <trkpt lat="45.813385248184204" lon="4.572930335998535">
        <ele>299.59</ele>
        <time>2024-08-13T10:12:02.453Z</time>
      </trkpt>
      <trkpt lat="45.81350326538086" lon="4.572983980178833">
        <ele>299.07</ele>
        <time>2024-08-13T10:12:13.270Z</time>
      </trkpt>
      <trkpt lat="45.81366419792175" lon="4.573005437850952">
        <ele>298.69</ele>
        <time>2024-08-13T10:12:24.089Z</time>
      </trkpt>
      <trkpt lat="45.81415772438049" lon="4.573016166687012">
        <ele>298.24</ele>
        <time>2024-08-13T10:12:34.916Z</time>
      </trkpt>
      <trkpt lat="45.814372301101685" lon="4.57305908203125">
        <ele>297.69</ele>
        <time>2024-08-13T10:12:45.747Z</time>
      </trkpt>
      <trkpt lat="45.81456542015076" lon="4.573187828063965">
        <ele>297.07</ele>
        <time>2024-08-13T10:12:56.581Z</time>
      </trkpt>
      <trkpt lat="45.81473708152771" lon="4.5733702182769775">
        <ele>296.43</ele>
        <time>2024-08-13T10:13:07.419Z</time>
      </trkpt>
      <trkpt lat="45.814865827560425" lon="4.573509693145752">
        <ele>295.95</ele>
        <time>2024-08-13T10:13:18.259Z</time>
      </trkpt>
      <trkpt lat="45.81505903042853" lon="4.57381010055542">
        <ele>295.43</ele>
        <time>2024-08-13T10:13:29.104Z</time>
      </trkpt>
      <trkpt lat="45.8150589466095" lon="4.57381010055542">
        <ele>295.12</ele>
        <time>2024-08-13T10:13:39.949Z</time>
      </trkpt>
      <trkpt lat="45.815134048461914" lon="4.5739710330963135">
        <ele>294.81</ele>
        <time>2024-08-13T10:13:50.796Z</time>
      </trkpt>
      <trkpt lat="45.81520915031433" lon="4.57405686378479">
        <ele>294.63</ele>
        <time>2024-08-13T10:14:01.645Z</time>
      </trkpt>
      <trkpt lat="45.815391624346375" lon="4.5742714405059814">
        <ele>294.5</ele>
        <time>2024-08-13T10:14:12.497Z</time>
      </trkpt>
      <trkpt lat="45.81543445587158" lon="4.574325084686279">
        <ele>294.49</ele>
        <time>2024-08-13T10:14:23.350Z</time>
      </trkpt>
      <trkpt lat="45.81569194793701" lon="4.574614763259888">
        <ele>294.6</ele>
        <time>2024-08-13T10:14:34.208Z</time>
      </trkpt>
      <trkpt lat="45.81577777862549" lon="4.574646949768066">
        <ele>294.87</ele>
        <time>2024-08-13T10:14:45.068Z</time>
      </trkpt>
      <trkpt lat="45.81585296429694" lon="4.5746684074401855">
        <ele>295.23</ele>
        <time>2024-08-13T10:14:55.929Z</time>
      </trkpt>
      <trkpt lat="45.81601389683783" lon="4.5747435092926025">
        <ele>295.68</ele>
        <time>2024-08-13T10:15:06.793Z</time>
      </trkpt>
      <trkpt lat="45.816367864608765" lon="4.574882984161377">
        <ele>296.15</ele>
        <time>2024-08-13T10:15:17.663Z</time>
      </trkpt>
      <trkpt lat="45.81644296646118" lon="4.5748937129974365">
        <ele>296.76</ele>
        <time>2024-08-13T10:15:28.534Z</time>
      </trkpt>
      <trkpt lat="45.81646450795233" lon="4.5748937129974365">
        <ele>297.49</ele>
        <time>2024-08-13T10:15:39.405Z</time>
      </trkpt>
      <trkpt lat="45.816882932558656" lon="4.5749688148498535">
        <ele>298.31</ele>
        <time>2024-08-13T10:15:50.283Z</time>
      </trkpt>
      <trkpt lat="45.816882848739624" lon="4.5749688148498535">
        <ele>299.29</ele>
        <time>2024-08-13T10:16:01.161Z</time>
      </trkpt>
      <trkpt lat="45.817140340805054" lon="4.575011730194092">
        <ele>300.46</ele>
        <time>2024-08-13T10:16:12.043Z</time>
      </trkpt>
      <trkpt lat="45.81760176457465" lon="4.57506537437439">
        <ele>301.5</ele>
        <time>2024-08-13T10:16:22.933Z</time>
      </trkpt>
      <trkpt lat="45.81780552864075" lon="4.575086832046509">
        <ele>302.79</ele>
        <time>2024-08-13T10:16:33.826Z</time>
      </trkpt>
      <trkpt lat="45.818030834198" lon="4.5750439167022705">
        <ele>304.35</ele>
        <time>2024-08-13T10:16:44.722Z</time>
      </trkpt>
      <trkpt lat="45.8190393447876" lon="4.574689865112305">
        <ele>306.68</ele>
        <time>2024-08-13T10:16:55.635Z</time>
      </trkpt>
      <trkpt lat="45.819146716967225" lon="4.574689865112305">
        <ele>308.25</ele>
        <time>2024-08-13T10:17:06.550Z</time>
      </trkpt>
      <trkpt lat="45.81925392150879" lon="4.574700593948364">
        <ele>309.83</ele>
        <time>2024-08-13T10:17:17.467Z</time>
      </trkpt>
      <trkpt lat="45.82035907544196" lon="4.575161933898926">
        <ele>311.64</ele>
        <time>2024-08-13T10:17:28.402Z</time>
      </trkpt>
      <trkpt lat="45.821388959884644" lon="4.575526714324951">
        <ele>313.61</ele>
        <time>2024-08-13T10:17:39.354Z</time>
      </trkpt>
      <trkpt lat="45.821389043703675" lon="4.575526714324951">
        <ele>315.0</ele>
        <time>2024-08-13T10:17:50.306Z</time>
      </trkpt>
      <trkpt lat="45.8215606212616" lon="4.57555890083313">
        <ele>316.33</ele>
        <time>2024-08-13T10:18:01.261Z</time>
      </trkpt>
      <trkpt lat="45.82191467285156" lon="4.575408697128296">
        <ele>317.55</ele>
        <time>2024-08-13T10:18:12.222Z</time>
      </trkpt>
      <trkpt lat="45.82219362258911" lon="4.575161933898926">
        <ele>318.78</ele>
        <time>2024-08-13T10:18:23.188Z</time>
      </trkpt>
      <trkpt lat="45.82253694534302" lon="4.574486017227173">
        <ele>320.04</ele>
        <time>2024-08-13T10:18:34.163Z</time>
      </trkpt>
      <trkpt lat="45.82296618260443" lon="4.575001001358032">
        <ele>321.33</ele>
        <time>2024-08-13T10:18:45.147Z</time>
      </trkpt>
      <trkpt lat="45.82304120063782" lon="4.575097560882568">
        <ele>321.92</ele>
        <time>2024-08-13T10:18:56.133Z</time>
      </trkpt>
      <trkpt lat="45.823094844818115" lon="4.575226306915283">
        <ele>322.42</ele>
        <time>2024-08-13T10:19:07.120Z</time>
      </trkpt>
      <trkpt lat="45.82314848899841" lon="4.575397968292236">
        <ele>322.85</ele>
        <time>2024-08-13T10:19:18.110Z</time>
      </trkpt>
      <trkpt lat="45.82316994667053" lon="4.575634002685547">
        <ele>323.23</ele>
        <time>2024-08-13T10:19:29.102Z</time>
      </trkpt>
      <trkpt lat="45.82315921783447" lon="4.575837850570679">
        <ele>323.6</ele>
        <time>2024-08-13T10:19:40.097Z</time>
      </trkpt>
      <trkpt lat="45.823116386309266" lon="4.575977325439453">
        <ele>323.95</ele>
        <time>2024-08-13T10:19:51.093Z</time>
      </trkpt>
      <trkpt lat="45.82275152206421" lon="4.577146768569946">
        <ele>324.09</ele>
        <time>2024-08-13T10:20:02.104Z</time>
      </trkpt>
      <trkpt lat="45.82250475883484" lon="4.5777153968811035">
        <ele>324.52</ele>
        <time>2024-08-13T10:20:13.122Z</time>
      </trkpt>
      <trkpt lat="45.821421230211854" lon="4.5797646045684814">
        <ele>325.13</ele>
        <time>2024-08-13T10:20:24.169Z</time>
      </trkpt>
      <trkpt lat="45.821110010147095" lon="4.580333232879639">
        <ele>325.71</ele>
        <time>2024-08-13T10:20:35.224Z</time>
      </trkpt>
      <trkpt lat="45.8203911781311" lon="4.581105709075928">
        <ele>326.5</ele>
        <time>2024-08-13T10:20:46.293Z</time>
      </trkpt>
      <trkpt lat="45.82020887173712" lon="4.58130955696106">
        <ele>326.7</ele>
        <time>2024-08-13T10:20:57.366Z</time>
      </trkpt>
      <trkpt lat="45.82005858421326" lon="4.581567049026489">
        <ele>326.84</ele>
        <time>2024-08-13T10:21:08.443Z</time>
      </trkpt>
      <trkpt lat="45.81995129585266" lon="4.581856727600098">
        <ele>326.83</ele>
        <time>2024-08-13T10:21:19.523Z</time>
      </trkpt>
      <trkpt lat="45.81989765167236" lon="4.58203911781311">
        <ele>326.7</ele>
        <time>2024-08-13T10:21:30.606Z</time>
      </trkpt>
      <trkpt lat="45.8198440913111" lon="4.582318067550659">
        <ele>326.38</ele>
        <time>2024-08-13T10:21:41.692Z</time>
      </trkpt>
      <trkpt lat="45.819844007492065" lon="4.582318067550659">
        <ele>325.87</ele>
        <time>2024-08-13T10:21:52.778Z</time>
      </trkpt>
      <trkpt lat="45.819833278656006" lon="4.582768678665161">
        <ele>325.12</ele>
        <time>2024-08-13T10:22:03.869Z</time>
      </trkpt>
      <trkpt lat="45.819865465164185" lon="4.58304762840271">
        <ele>324.2</ele>
        <time>2024-08-13T10:22:14.963Z</time>
      </trkpt>
      <trkpt lat="45.81998348236084" lon="4.583455324172974">
        <ele>323.06</ele>
        <time>2024-08-13T10:22:26.062Z</time>
      </trkpt>
      <trkpt lat="45.820122957229614" lon="4.58379864692688">
        <ele>321.66</ele>
        <time>2024-08-13T10:22:37.165Z</time>
      </trkpt>
      <trkpt lat="45.820573568344116" lon="4.584592580795288">
        <ele>319.99</ele>
        <time>2024-08-13T10:22:48.280Z</time>
      </trkpt>
      <trkpt lat="45.82126021385193" lon="4.585697650909424">
        <ele>317.97</ele>
        <time>2024-08-13T10:22:59.411Z</time>
      </trkpt>
      <trkpt lat="45.82144260406494" lon="4.58605170249939">
        <ele>316.45</ele>
        <time>2024-08-13T10:23:10.547Z</time>
      </trkpt>
      <trkpt lat="45.82166790962219" lon="4.58654522895813">
        <ele>314.75</ele>
        <time>2024-08-13T10:23:21.690Z</time>
      </trkpt>
      <trkpt lat="45.822097063064575" lon="4.587607383728027">
        <ele>312.83</ele>
        <time>2024-08-13T10:23:32.847Z</time>
      </trkpt>
      <trkpt lat="45.8222044352442" lon="4.587939977645874">
        <ele>310.97</ele>
        <time>2024-08-13T10:23:44.008Z</time>
      </trkpt>
      <trkpt lat="45.822333097457886" lon="4.588369131088257">
        <ele>309.16</ele>
        <time>2024-08-13T10:23:55.174Z</time>
      </trkpt>
      <trkpt lat="45.822612047195435" lon="4.589645862579346">
        <ele>307.27</ele>
        <time>2024-08-13T10:24:06.355Z</time>
      </trkpt>
      <trkpt lat="45.82279443740845" lon="4.590353965759277">
        <ele>305.6</ele>
        <time>2024-08-13T10:24:17.544Z</time>
      </trkpt>
      <trkpt lat="45.822815895080566" lon="4.590429067611694">
        <ele>304.05</ele>
        <time>2024-08-13T10:24:28.734Z</time>
      </trkpt>
      <trkpt lat="45.82296618260443" lon="4.590976238250732">
        <ele>302.4</ele>
        <time>2024-08-13T10:24:39.931Z</time>
      </trkpt>
      <trkpt lat="45.82330942153931" lon="4.592317342758179">
        <ele>300.9</ele>
        <time>2024-08-13T10:24:51.144Z</time>
      </trkpt>
      <trkpt lat="45.82349181175232" lon="4.592907428741455">
        <ele>299.89</ele>
        <time>2024-08-13T10:25:02.364Z</time>
      </trkpt>
      <trkpt lat="45.823845863342285" lon="4.593583345413208">
        <ele>298.62</ele>
        <time>2024-08-13T10:25:13.594Z</time>
      </trkpt>
      <trkpt lat="45.82401752471924" lon="4.594001770019531">
        <ele>297.66</ele>
        <time>2024-08-13T10:25:24.829Z</time>
      </trkpt>
      <trkpt lat="45.82428574562073" lon="4.594806432723999">
        <ele>296.64</ele>
        <time>2024-08-13T10:25:36.074Z</time>
      </trkpt>
      <trkpt lat="45.82425355911255" lon="4.594892263412476">
        <ele>295.99</ele>
        <time>2024-08-13T10:25:47.320Z</time>
      </trkpt>
      <trkpt lat="45.82425364293158" lon="4.594999551773071">
        <ele>295.39</ele>
        <time>2024-08-13T10:25:58.567Z</time>
      </trkpt>
      <trkpt lat="45.82427501678467" lon="4.59504246711731">
        <ele>294.8</ele>
        <time>2024-08-13T10:26:09.815Z</time>
      </trkpt>
      <trkpt lat="45.824339389801025" lon="4.595085382461548">
        <ele>294.26</ele>
        <time>2024-08-13T10:26:21.064Z</time>
      </trkpt>
      <trkpt lat="45.82441449165344" lon="4.595063924789429">
        <ele>293.82</ele>
        <time>2024-08-13T10:26:32.314Z</time>
      </trkpt>
      <trkpt lat="45.82445740699768" lon="4.594988822937012">
        <ele>293.5</ele>
        <time>2024-08-13T10:26:43.565Z</time>
      </trkpt>
      <trkpt lat="45.82446813583374" lon="4.594935178756714">
        <ele>293.33</ele>
        <time>2024-08-13T10:26:54.817Z</time>
      </trkpt>
      <trkpt lat="45.82444667816162" lon="4.594838619232178">
        <ele>293.28</ele>
        <time>2024-08-13T10:27:06.070Z</time>
      </trkpt>
      <trkpt lat="45.82439303398132" lon="4.59478497505188">
        <ele>293.3</ele>
        <time>2024-08-13T10:27:17.324Z</time>
      </trkpt>
      <trkpt lat="45.824350118637085" lon="4.59477424621582">
        <ele>293.37</ele>
        <time>2024-08-13T10:27:28.579Z</time>
      </trkpt>
      <trkpt lat="45.824317429214716" lon="4.594790590927005">
        <ele>293.47</ele>
        <time>2024-08-13T10:27:39.834Z</time>
      </trkpt>
      <trkpt lat="45.82428574562073" lon="4.594806432723999">
        <ele>296.67</ele>
        <time>2024-08-13T10:27:51.090Z</time>
      </trkpt>
      <trkpt lat="45.82425355911255" lon="4.594892263412476">
        <ele>296.84</ele>
        <time>2024-08-13T10:28:02.347Z</time>
      </trkpt>
      <trkpt lat="45.82425364293158" lon="4.594999551773071">
        <ele>296.99</ele>
        <time>2024-08-13T10:28:13.605Z</time>
      </trkpt>
      <trkpt lat="45.82427501678467" lon="4.59504246711731">
        <ele>297.01</ele>
        <time>2024-08-13T10:28:24.864Z</time>
      </trkpt>
      <trkpt lat="45.824339389801025" lon="4.595085382461548">
        <ele>296.9</ele>
        <time>2024-08-13T10:28:36.124Z</time>
      </trkpt>
      <trkpt lat="45.82441449165344" lon="4.595063924789429">
        <ele>296.71</ele>
        <time>2024-08-13T10:28:47.385Z</time>
      </trkpt>
      <trkpt lat="45.824843645095825" lon="4.595729112625122">
        <ele>296.47</ele>
        <time>2024-08-13T10:28:58.656Z</time>
      </trkpt>
      <trkpt lat="45.8258415106684" lon="4.5979392528533936">
        <ele>295.89</ele>
        <time>2024-08-13T10:29:09.957Z</time>
      </trkpt>
      <trkpt lat="45.825841426849365" lon="4.5979392528533936">
        <ele>295.56</ele>
        <time>2024-08-13T10:29:21.258Z</time>
      </trkpt>
      <trkpt lat="45.82601308822632" lon="4.598293304443359">
        <ele>295.2</ele>
        <time>2024-08-13T10:29:32.564Z</time>
      </trkpt>
      <trkpt lat="45.8260452747345" lon="4.598400592803955">
        <ele>294.96</ele>
        <time>2024-08-13T10:29:43.871Z</time>
      </trkpt>
      <trkpt lat="45.82605600357056" lon="4.598507881164551">
        <ele>294.76</ele>
        <time>2024-08-13T10:29:55.179Z</time>
      </trkpt>
      <trkpt lat="45.82619556225836" lon="4.598937034606934">
        <ele>294.63</ele>
        <time>2024-08-13T10:30:06.492Z</time>
      </trkpt>
      <trkpt lat="45.82620620727539" lon="4.599076509475708">
        <ele>294.33</ele>
        <time>2024-08-13T10:30:17.807Z</time>
      </trkpt>
      <trkpt lat="45.8261848334223" lon="4.599097967147827">
        <ele>293.97</ele>
        <time>2024-08-13T10:30:29.122Z</time>
      </trkpt>
      <trkpt lat="45.82616329193115" lon="4.599205255508423">
        <ele>293.48</ele>
        <time>2024-08-13T10:30:40.439Z</time>
      </trkpt>
      <trkpt lat="45.826174104586244" lon="4.59926962852478">
        <ele>292.96</ele>
        <time>2024-08-13T10:30:51.756Z</time>
      </trkpt>
      <trkpt lat="45.82621693611145" lon="4.599355459213257">
        <ele>292.37</ele>
        <time>2024-08-13T10:31:03.075Z</time>
      </trkpt>
      <trkpt lat="45.82625985145569" lon="4.5993876457214355">
        <ele>291.67</ele>
        <time>2024-08-13T10:31:14.394Z</time>
      </trkpt>
      <trkpt lat="45.82650661468506" lon="4.599752426147461">
        <ele>290.77</ele>
        <time>2024-08-13T10:31:25.719Z</time>
      </trkpt>
      <trkpt lat="45.826581716537476" lon="4.599806070327759">
        <ele>289.7</ele>
        <time>2024-08-13T10:31:37.045Z</time>
      </trkpt>
      <trkpt lat="45.826603174209595" lon="4.599848985671997">
        <ele>288.53</ele>
        <time>2024-08-13T10:31:48.372Z</time>
      </trkpt>
      <trkpt lat="45.82679629325867" lon="4.600149393081665">
        <ele>286.93</ele>
        <time>2024-08-13T10:31:59.703Z</time>
      </trkpt>
      <trkpt lat="45.827375650405884" lon="4.600954055786133">
        <ele>285.04</ele>
        <time>2024-08-13T10:32:11.047Z</time>
      </trkpt>
      <trkpt lat="45.827611684799194" lon="4.601308107376099">
        <ele>283.49</ele>
        <time>2024-08-13T10:32:22.397Z</time>
      </trkpt>
      <trkpt lat="45.82774043083191" lon="4.601597785949707">
        <ele>281.76</ele>
        <time>2024-08-13T10:32:33.751Z</time>
      </trkpt>
      <trkpt lat="45.827826261520386" lon="4.601908922195435">
        <ele>280.08</ele>
        <time>2024-08-13T10:32:45.108Z</time>
      </trkpt>
      <trkpt lat="45.82805156707764" lon="4.603228569030762">
        <ele>278.17</ele>
        <time>2024-08-13T10:32:56.481Z</time>
      </trkpt>
      <trkpt lat="45.82813739776611" lon="4.603550434112549">
        <ele>276.76</ele>
        <time>2024-08-13T10:33:07.857Z</time>
      </trkpt>
      <trkpt lat="45.82829833030701" lon="4.6038830280303955">
        <ele>275.45</ele>
        <time>2024-08-13T10:33:19.238Z</time>
      </trkpt>
      <trkpt lat="45.82846999168396" lon="4.604226350784302">
        <ele>274.1</ele>
        <time>2024-08-13T10:33:30.624Z</time>
      </trkpt>
      <trkpt lat="45.82849153317511" lon="4.604322910308838">
        <ele>272.8</ele>
        <time>2024-08-13T10:33:42.011Z</time>
      </trkpt>
      <trkpt lat="45.82854509353638" lon="4.604365825653076">
        <ele>271.61</ele>
        <time>2024-08-13T10:33:53.399Z</time>
      </trkpt>
      <trkpt lat="45.82870602607727" lon="4.604634046554565">
        <ele>270.35</ele>
        <time>2024-08-13T10:34:04.791Z</time>
      </trkpt>
      <trkpt lat="45.82874894142151" lon="4.60477352142334">
        <ele>269.07</ele>
        <time>2024-08-13T10:34:16.185Z</time>
      </trkpt>
      <trkpt lat="45.82880258560181" lon="4.60502028465271">
        <ele>267.69</ele>
        <time>2024-08-13T10:34:27.581Z</time>
      </trkpt>
      <trkpt lat="45.828834772109985" lon="4.60527777671814">
        <ele>266.28</ele>
        <time>2024-08-13T10:34:38.980Z</time>
      </trkpt>
      <trkpt lat="45.828845500946045" lon="4.60552453994751">
        <ele>264.82</ele>
        <time>2024-08-13T10:34:50.382Z</time>
      </trkpt>
      <trkpt lat="45.82880258560181" lon="4.605792760848999">
        <ele>263.29</ele>
        <time>2024-08-13T10:35:01.787Z</time>
      </trkpt>
      <trkpt lat="45.82871675491333" lon="4.605996608734131">
        <ele>261.66</ele>
        <time>2024-08-13T10:35:13.195Z</time>
      </trkpt>
      <trkpt lat="45.82854509353638" lon="4.606318473815918">
        <ele>259.94</ele>
        <time>2024-08-13T10:35:24.607Z</time>
      </trkpt>
      <trkpt lat="45.82842707633972" lon="4.606447219848633">
        <ele>258.18</ele>
        <time>2024-08-13T10:35:36.022Z</time>
      </trkpt>
      <trkpt lat="45.82816958427429" lon="4.606618881225586">
        <ele>256.35</ele>
        <time>2024-08-13T10:35:47.441Z</time>
      </trkpt>
      <trkpt lat="45.8280086517334" lon="4.606651067733765">
        <ele>254.57</ele>
        <time>2024-08-13T10:35:58.863Z</time>
      </trkpt>
      <trkpt lat="45.82764387130737" lon="4.606565237045288">
        <ele>252.67</ele>
        <time>2024-08-13T10:36:10.291Z</time>
      </trkpt>
      <trkpt lat="45.8263457659632" lon="4.605696201324463">
        <ele>250.48</ele>
        <time>2024-08-13T10:36:21.742Z</time>
      </trkpt>
      <trkpt lat="45.8254873752594" lon="4.605138301849365">
        <ele>249.16</ele>
        <time>2024-08-13T10:36:33.208Z</time>
      </trkpt>
      <trkpt lat="45.82489728927612" lon="4.604837894439697">
        <ele>247.62</ele>
        <time>2024-08-13T10:36:44.684Z</time>
      </trkpt>
      <trkpt lat="45.824081897735596" lon="4.604494571685791">
        <ele>246.28</ele>
        <time>2024-08-13T10:36:56.173Z</time>
      </trkpt>
      <trkpt lat="45.82394242286682" lon="4.604387283325195">
        <ele>245.27</ele>
        <time>2024-08-13T10:37:07.665Z</time>
      </trkpt>
      <trkpt lat="45.82378149032593" lon="4.6043336391448975">
        <ele>244.05</ele>
        <time>2024-08-13T10:37:19.160Z</time>
      </trkpt>
      <trkpt lat="45.823599100112915" lon="4.604312181472778">
        <ele>242.71</ele>
        <time>2024-08-13T10:37:30.658Z</time>
      </trkpt>
      <trkpt lat="45.82339525222778" lon="4.6043336391448975">
        <ele>241.39</ele>
        <time>2024-08-13T10:37:42.159Z</time>
      </trkpt>
      <trkpt lat="45.823352336883545" lon="4.604355096817017">
        <ele>240.2</ele>
        <time>2024-08-13T10:37:53.661Z</time>
      </trkpt>
      <trkpt lat="45.82327723503113" lon="4.604430198669434">
        <ele>238.94</ele>
        <time>2024-08-13T10:38:05.164Z</time>
      </trkpt>
      <trkpt lat="45.823148572817445" lon="4.604687690734863">
        <ele>237.43</ele>
        <time>2024-08-13T10:38:16.671Z</time>
      </trkpt>
      <trkpt lat="45.82306274212897" lon="4.60477352142334">
        <ele>236.44</ele>
        <time>2024-08-13T10:38:28.179Z</time>
      </trkpt>
      <trkpt lat="45.8230197429657" lon="4.604902267456055">
        <ele>235.62</ele>
        <time>2024-08-13T10:38:39.689Z</time>
      </trkpt>
      <trkpt lat="45.82303055562079" lon="4.6050310134887695">
        <ele>234.86</ele>
        <time>2024-08-13T10:38:51.200Z</time>
      </trkpt>
      <trkpt lat="45.82304128445685" lon="4.605063199996948">
        <ele>234.29</ele>
        <time>2024-08-13T10:39:02.712Z</time>
      </trkpt>
      <trkpt lat="45.823094844818115" lon="4.605149030685425">
        <ele>233.8</ele>
        <time>2024-08-13T10:39:14.225Z</time>
      </trkpt>
      <trkpt lat="45.823127031326294" lon="4.60526704788208">
        <ele>233.4</ele>
        <time>2024-08-13T10:39:25.739Z</time>
      </trkpt>
      <trkpt lat="45.82314848899841" lon="4.605449438095093">
        <ele>233.11</ele>
        <time>2024-08-13T10:39:37.255Z</time>
      </trkpt>
      <trkpt lat="45.823116302490234" lon="4.60577130317688">
        <ele>232.9</ele>
        <time>2024-08-13T10:39:48.775Z</time>
      </trkpt>
      <trkpt lat="45.823137843981385" lon="4.605964422225952">
        <ele>232.76</ele>
        <time>2024-08-13T10:40:00.297Z</time>
      </trkpt>
      <trkpt lat="45.82318067550659" lon="4.606114625930786">
        <ele>232.69</ele>
        <time>2024-08-13T10:40:11.821Z</time>
      </trkpt>
      <trkpt lat="45.82329869270325" lon="4.606339931488037">
        <ele>232.65</ele>
        <time>2024-08-13T10:40:23.348Z</time>
      </trkpt>
      <trkpt lat="45.823341608047485" lon="4.606500864028931">
        <ele>232.65</ele>
        <time>2024-08-13T10:40:34.877Z</time>
      </trkpt>
      <trkpt lat="45.82330942153931" lon="4.606543779373169">
        <ele>232.68</ele>
        <time>2024-08-13T10:40:46.407Z</time>
      </trkpt>
      <trkpt lat="45.82329869270325" lon="4.606640338897705">
        <ele>232.72</ele>
        <time>2024-08-13T10:40:57.938Z</time>
      </trkpt>
      <trkpt lat="45.82334169186652" lon="4.606726169586182">
        <ele>232.76</ele>
        <time>2024-08-13T10:41:09.470Z</time>
      </trkpt>
      <trkpt lat="45.823384523391724" lon="4.606736898422241">
        <ele>232.77</ele>
        <time>2024-08-13T10:41:21.003Z</time>
      </trkpt>
      <trkpt lat="45.82342743873596" lon="4.6067047119140625">
        <ele>232.75</ele>
        <time>2024-08-13T10:41:32.537Z</time>
      </trkpt>
      <trkpt lat="45.82345962524414" lon="4.606661796569824">
        <ele>232.66</ele>
        <time>2024-08-13T10:41:44.071Z</time>
      </trkpt>
      <trkpt lat="45.8235239982605" lon="4.606726169586182">
        <ele>232.51</ele>
        <time>2024-08-13T10:41:55.607Z</time>
      </trkpt>
      <trkpt lat="45.82372784614563" lon="4.60701584815979">
        <ele>232.25</ele>
        <time>2024-08-13T10:42:07.147Z</time>
      </trkpt>
      <trkpt lat="45.82391023635864" lon="4.607208967208862">
        <ele>231.98</ele>
        <time>2024-08-13T10:42:18.691Z</time>
      </trkpt>
      <trkpt lat="45.82468279637396" lon="4.607863426208496">
        <ele>232.0</ele>
        <time>2024-08-13T10:42:30.249Z</time>
      </trkpt>
      <trkpt lat="45.8249831199646" lon="4.6080780029296875">
        <ele>231.66</ele>
        <time>2024-08-13T10:42:41.813Z</time>
      </trkpt>
      <trkpt lat="45.825066100806" lon="4.608147153630853">
        <ele>231.51</ele>
        <time>2024-08-13T10:42:53.378Z</time>
      </trkpt>
      <trkpt lat="45.825066100806" lon="4.608147069811821">
        <ele>231.56</ele>
        <time>2024-08-13T10:43:04.943Z</time>
      </trkpt>
    </trkseg>
  </trk>
</gpx>
